<?xml version="1.0" encoding="UTF-8" standalone="no" ?>
<gpx xmlns="http://www.topografix.com/GPX/1/1" xmlns:xsi="http://www.w3.org/2001/XMLSchema-instance" xsi:schemaLocation="http://www.topografix.com/GPX/1/1 http://www.topografix.com/GPX/1/1/gpx.xsd" version="1.1" creator="VisuGPX - https://www.visugpx.com">
  <metadata>
    <name>Le Drumont-Col du Rouge Gazon</name>
  </metadata>
  <trk>
    <name><![CDATA[Le Drumont-Col du Rouge Gazon_1]]></name>
    <trkseg>
      <trkpt lat="47.88937" lon="6.89296">
        <ele>714</ele>
        <time>2023-04-30T04:13:07.000Z</time>
      </trkpt>
      <trkpt lat="47.88942" lon="6.89292">
        <ele>714.2</ele>
        <time>2023-04-30T04:13:34.000Z</time>
      </trkpt>
      <trkpt lat="47.88941" lon="6.89289">
        <ele>714</ele>
        <time>2023-04-30T04:13:53.000Z</time>
      </trkpt>
      <trkpt lat="47.88948" lon="6.89311">
        <ele>715.2</ele>
        <time>2023-04-30T04:14:08.000Z</time>
      </trkpt>
      <trkpt lat="47.88948" lon="6.89313">
        <ele>715.2</ele>
        <time>2023-04-30T04:14:09.000Z</time>
      </trkpt>
      <trkpt lat="47.88949" lon="6.89318">
        <ele>715.6</ele>
        <time>2023-04-30T04:14:12.000Z</time>
      </trkpt>
      <trkpt lat="47.8895" lon="6.89321">
        <ele>715.8</ele>
        <time>2023-04-30T04:14:14.000Z</time>
      </trkpt>
      <trkpt lat="47.88954" lon="6.89344">
        <ele>717.6</ele>
        <time>2023-04-30T04:14:29.000Z</time>
      </trkpt>
      <trkpt lat="47.88955" lon="6.8935">
        <ele>718.6</ele>
        <time>2023-04-30T04:14:34.000Z</time>
      </trkpt>
      <trkpt lat="47.88958" lon="6.89372">
        <ele>720</ele>
        <time>2023-04-30T04:14:47.000Z</time>
      </trkpt>
      <trkpt lat="47.88959" lon="6.89373">
        <ele>720</ele>
        <time>2023-04-30T04:14:48.000Z</time>
      </trkpt>
      <trkpt lat="47.88959" lon="6.89378">
        <ele>720.4</ele>
        <time>2023-04-30T04:14:51.000Z</time>
      </trkpt>
      <trkpt lat="47.88959" lon="6.8938">
        <ele>720.6</ele>
        <time>2023-04-30T04:14:52.000Z</time>
      </trkpt>
      <trkpt lat="47.8896" lon="6.89384">
        <ele>720.8</ele>
        <time>2023-04-30T04:14:54.000Z</time>
      </trkpt>
      <trkpt lat="47.88961" lon="6.89391">
        <ele>721.4</ele>
        <time>2023-04-30T04:14:59.000Z</time>
      </trkpt>
      <trkpt lat="47.88962" lon="6.89393">
        <ele>721.6</ele>
        <time>2023-04-30T04:15:00.000Z</time>
      </trkpt>
      <trkpt lat="47.88962" lon="6.89396">
        <ele>722</ele>
        <time>2023-04-30T04:15:02.000Z</time>
      </trkpt>
      <trkpt lat="47.88962" lon="6.89398">
        <ele>722.2</ele>
        <time>2023-04-30T04:15:03.000Z</time>
      </trkpt>
      <trkpt lat="47.88962" lon="6.894">
        <ele>722.2</ele>
        <time>2023-04-30T04:15:04.000Z</time>
      </trkpt>
      <trkpt lat="47.88961" lon="6.89419">
        <ele>723.6</ele>
        <time>2023-04-30T04:15:16.000Z</time>
      </trkpt>
      <trkpt lat="47.88964" lon="6.89441">
        <ele>725.8</ele>
        <time>2023-04-30T04:15:31.000Z</time>
      </trkpt>
      <trkpt lat="47.88958" lon="6.89463">
        <ele>729</ele>
        <time>2023-04-30T04:15:49.000Z</time>
      </trkpt>
      <trkpt lat="47.88944" lon="6.8948">
        <ele>732</ele>
        <time>2023-04-30T04:16:08.000Z</time>
      </trkpt>
      <trkpt lat="47.88938" lon="6.89491">
        <ele>733.6</ele>
        <time>2023-04-30T04:16:18.000Z</time>
      </trkpt>
      <trkpt lat="47.88938" lon="6.89493">
        <ele>733.8</ele>
        <time>2023-04-30T04:16:19.000Z</time>
      </trkpt>
      <trkpt lat="47.8894" lon="6.89506">
        <ele>735</ele>
        <time>2023-04-30T04:16:35.000Z</time>
      </trkpt>
      <trkpt lat="47.88949" lon="6.89527">
        <ele>735.2</ele>
        <time>2023-04-30T04:17:02.000Z</time>
      </trkpt>
      <trkpt lat="47.88948" lon="6.8953">
        <ele>735.4</ele>
        <time>2023-04-30T04:17:04.000Z</time>
      </trkpt>
      <trkpt lat="47.88947" lon="6.89531">
        <ele>735.6</ele>
        <time>2023-04-30T04:17:05.000Z</time>
      </trkpt>
      <trkpt lat="47.88947" lon="6.89533">
        <ele>735.8</ele>
        <time>2023-04-30T04:17:06.000Z</time>
      </trkpt>
      <trkpt lat="47.88946" lon="6.89539">
        <ele>736</ele>
        <time>2023-04-30T04:17:09.000Z</time>
      </trkpt>
      <trkpt lat="47.88946" lon="6.89541">
        <ele>736</ele>
        <time>2023-04-30T04:17:10.000Z</time>
      </trkpt>
      <trkpt lat="47.88945" lon="6.89546">
        <ele>736.4</ele>
        <time>2023-04-30T04:17:13.000Z</time>
      </trkpt>
      <trkpt lat="47.88945" lon="6.89547">
        <ele>736.4</ele>
        <time>2023-04-30T04:17:14.000Z</time>
      </trkpt>
      <trkpt lat="47.88945" lon="6.89549">
        <ele>736.4</ele>
        <time>2023-04-30T04:17:15.000Z</time>
      </trkpt>
      <trkpt lat="47.88947" lon="6.89568">
        <ele>736.8</ele>
        <time>2023-04-30T04:17:25.000Z</time>
      </trkpt>
      <trkpt lat="47.88949" lon="6.89578">
        <ele>737.2</ele>
        <time>2023-04-30T04:17:29.000Z</time>
      </trkpt>
      <trkpt lat="47.8895" lon="6.8958">
        <ele>737.2</ele>
        <time>2023-04-30T04:17:30.000Z</time>
      </trkpt>
      <trkpt lat="47.8895" lon="6.89582">
        <ele>737.4</ele>
        <time>2023-04-30T04:17:31.000Z</time>
      </trkpt>
      <trkpt lat="47.88948" lon="6.89592">
        <ele>737.6</ele>
        <time>2023-04-30T04:17:37.000Z</time>
      </trkpt>
      <trkpt lat="47.88948" lon="6.89594">
        <ele>737.6</ele>
        <time>2023-04-30T04:17:38.000Z</time>
      </trkpt>
      <trkpt lat="47.88948" lon="6.89595">
        <ele>737.6</ele>
        <time>2023-04-30T04:17:39.000Z</time>
      </trkpt>
      <trkpt lat="47.88947" lon="6.89597">
        <ele>737.6</ele>
        <time>2023-04-30T04:17:40.000Z</time>
      </trkpt>
      <trkpt lat="47.88947" lon="6.89599">
        <ele>737.6</ele>
        <time>2023-04-30T04:17:41.000Z</time>
      </trkpt>
      <trkpt lat="47.88947" lon="6.896">
        <ele>737.6</ele>
        <time>2023-04-30T04:17:42.000Z</time>
      </trkpt>
      <trkpt lat="47.88946" lon="6.89602">
        <ele>737.8</ele>
        <time>2023-04-30T04:17:43.000Z</time>
      </trkpt>
      <trkpt lat="47.88946" lon="6.89604">
        <ele>737.8</ele>
        <time>2023-04-30T04:17:44.000Z</time>
      </trkpt>
      <trkpt lat="47.88945" lon="6.89606">
        <ele>737.8</ele>
        <time>2023-04-30T04:17:45.000Z</time>
      </trkpt>
      <trkpt lat="47.88946" lon="6.8962">
        <ele>738.2</ele>
        <time>2023-04-30T04:17:52.000Z</time>
      </trkpt>
      <trkpt lat="47.88946" lon="6.89622">
        <ele>738.2</ele>
        <time>2023-04-30T04:17:53.000Z</time>
      </trkpt>
      <trkpt lat="47.88948" lon="6.89632">
        <ele>738.6</ele>
        <time>2023-04-30T04:17:57.000Z</time>
      </trkpt>
      <trkpt lat="47.88949" lon="6.89634">
        <ele>738.6</ele>
        <time>2023-04-30T04:17:58.000Z</time>
      </trkpt>
      <trkpt lat="47.88949" lon="6.89636">
        <ele>738.6</ele>
        <time>2023-04-30T04:17:59.000Z</time>
      </trkpt>
      <trkpt lat="47.8895" lon="6.89637">
        <ele>738.6</ele>
        <time>2023-04-30T04:18:00.000Z</time>
      </trkpt>
      <trkpt lat="47.88951" lon="6.89639">
        <ele>738.6</ele>
        <time>2023-04-30T04:18:01.000Z</time>
      </trkpt>
      <trkpt lat="47.88951" lon="6.89641">
        <ele>738.6</ele>
        <time>2023-04-30T04:18:02.000Z</time>
      </trkpt>
      <trkpt lat="47.88951" lon="6.89642">
        <ele>738.6</ele>
        <time>2023-04-30T04:18:03.000Z</time>
      </trkpt>
      <trkpt lat="47.88946" lon="6.89664">
        <ele>741.8</ele>
        <time>2023-04-30T04:18:19.000Z</time>
      </trkpt>
      <trkpt lat="47.88947" lon="6.89671">
        <ele>745</ele>
        <time>2023-04-30T04:18:37.000Z</time>
      </trkpt>
      <trkpt lat="47.8895" lon="6.89656">
        <ele>747.2</ele>
        <time>2023-04-30T04:18:47.000Z</time>
      </trkpt>
      <trkpt lat="47.88966" lon="6.89637">
        <ele>750.2</ele>
        <time>2023-04-30T04:19:04.000Z</time>
      </trkpt>
      <trkpt lat="47.88978" lon="6.89619">
        <ele>753.2</ele>
        <time>2023-04-30T04:19:22.000Z</time>
      </trkpt>
      <trkpt lat="47.88979" lon="6.89633">
        <ele>755.4</ele>
        <time>2023-04-30T04:19:39.000Z</time>
      </trkpt>
      <trkpt lat="47.88979" lon="6.89647">
        <ele>758.6</ele>
        <time>2023-04-30T04:19:53.000Z</time>
      </trkpt>
      <trkpt lat="47.88975" lon="6.89676">
        <ele>757.6</ele>
        <time>2023-04-30T04:20:13.000Z</time>
      </trkpt>
      <trkpt lat="47.88975" lon="6.89706">
        <ele>755.8</ele>
        <time>2023-04-30T04:20:34.000Z</time>
      </trkpt>
      <trkpt lat="47.88978" lon="6.89732">
        <ele>758.4</ele>
        <time>2023-04-30T04:20:53.000Z</time>
      </trkpt>
      <trkpt lat="47.88989" lon="6.89756">
        <ele>761.4</ele>
        <time>2023-04-30T04:21:15.000Z</time>
      </trkpt>
      <trkpt lat="47.88992" lon="6.8976">
        <ele>761.8</ele>
        <time>2023-04-30T04:21:18.000Z</time>
      </trkpt>
      <trkpt lat="47.88994" lon="6.89773">
        <ele>763.4</ele>
        <time>2023-04-30T04:21:31.000Z</time>
      </trkpt>
      <trkpt lat="47.88993" lon="6.89783">
        <ele>766.6</ele>
        <time>2023-04-30T04:21:48.000Z</time>
      </trkpt>
      <trkpt lat="47.88998" lon="6.89798">
        <ele>769.8</ele>
        <time>2023-04-30T04:22:03.000Z</time>
      </trkpt>
      <trkpt lat="47.89013" lon="6.89791">
        <ele>772.8</ele>
        <time>2023-04-30T04:22:20.000Z</time>
      </trkpt>
      <trkpt lat="47.89021" lon="6.89782">
        <ele>775.2</ele>
        <time>2023-04-30T04:22:35.000Z</time>
      </trkpt>
      <trkpt lat="47.89024" lon="6.8977">
        <ele>778.2</ele>
        <time>2023-04-30T04:22:50.000Z</time>
      </trkpt>
      <trkpt lat="47.89027" lon="6.89757">
        <ele>781.2</ele>
        <time>2023-04-30T04:23:06.000Z</time>
      </trkpt>
      <trkpt lat="47.89031" lon="6.8974">
        <ele>784.2</ele>
        <time>2023-04-30T04:23:23.000Z</time>
      </trkpt>
      <trkpt lat="47.89034" lon="6.89737">
        <ele>787.2</ele>
        <time>2023-04-30T04:23:38.000Z</time>
      </trkpt>
      <trkpt lat="47.89043" lon="6.89745">
        <ele>790.4</ele>
        <time>2023-04-30T04:23:56.000Z</time>
      </trkpt>
      <trkpt lat="47.89051" lon="6.89757">
        <ele>793.4</ele>
        <time>2023-04-30T04:24:14.000Z</time>
      </trkpt>
      <trkpt lat="47.89059" lon="6.89765">
        <ele>796.6</ele>
        <time>2023-04-30T04:24:29.000Z</time>
      </trkpt>
      <trkpt lat="47.89074" lon="6.89778">
        <ele>799.6</ele>
        <time>2023-04-30T04:24:50.000Z</time>
      </trkpt>
      <trkpt lat="47.89086" lon="6.89787">
        <ele>802.6</ele>
        <time>2023-04-30T04:25:06.000Z</time>
      </trkpt>
      <trkpt lat="47.8909" lon="6.89791">
        <ele>803.2</ele>
        <time>2023-04-30T04:25:11.000Z</time>
      </trkpt>
      <trkpt lat="47.89091" lon="6.89792">
        <ele>803.4</ele>
        <time>2023-04-30T04:25:12.000Z</time>
      </trkpt>
      <trkpt lat="47.89094" lon="6.89803">
        <ele>803.2</ele>
        <time>2023-04-30T04:25:25.000Z</time>
      </trkpt>
      <trkpt lat="47.89094" lon="6.89804">
        <ele>803.6</ele>
        <time>2023-04-30T04:25:28.000Z</time>
      </trkpt>
      <trkpt lat="47.89095" lon="6.89806">
        <ele>804</ele>
        <time>2023-04-30T04:25:34.000Z</time>
      </trkpt>
      <trkpt lat="47.89104" lon="6.89822">
        <ele>805.6</ele>
        <time>2023-04-30T04:25:52.000Z</time>
      </trkpt>
      <trkpt lat="47.89113" lon="6.89836">
        <ele>807.2</ele>
        <time>2023-04-30T04:26:07.000Z</time>
      </trkpt>
      <trkpt lat="47.89128" lon="6.89849">
        <ele>809</ele>
        <time>2023-04-30T04:26:24.000Z</time>
      </trkpt>
      <trkpt lat="47.89145" lon="6.89862">
        <ele>811.8</ele>
        <time>2023-04-30T04:26:46.000Z</time>
      </trkpt>
      <trkpt lat="47.89178" lon="6.89887">
        <ele>815.8</ele>
        <time>2023-04-30T04:27:20.000Z</time>
      </trkpt>
      <trkpt lat="47.89197" lon="6.89899">
        <ele>818</ele>
        <time>2023-04-30T04:27:39.000Z</time>
      </trkpt>
      <trkpt lat="47.89289" lon="6.89907">
        <ele>828.6</ele>
        <time>2023-04-30T04:28:59.000Z</time>
      </trkpt>
      <trkpt lat="47.893" lon="6.89892">
        <ele>831.6</ele>
        <time>2023-04-30T04:29:16.000Z</time>
      </trkpt>
      <trkpt lat="47.8931" lon="6.89887">
        <ele>834.6</ele>
        <time>2023-04-30T04:29:33.000Z</time>
      </trkpt>
      <trkpt lat="47.89323" lon="6.8988">
        <ele>837.6</ele>
        <time>2023-04-30T04:29:49.000Z</time>
      </trkpt>
      <trkpt lat="47.89337" lon="6.89869">
        <ele>840.8</ele>
        <time>2023-04-30T04:30:10.000Z</time>
      </trkpt>
      <trkpt lat="47.89349" lon="6.89867">
        <ele>843.8</ele>
        <time>2023-04-30T04:30:28.000Z</time>
      </trkpt>
      <trkpt lat="47.89363" lon="6.89862">
        <ele>846.8</ele>
        <time>2023-04-30T04:30:47.000Z</time>
      </trkpt>
      <trkpt lat="47.89381" lon="6.89856">
        <ele>850</ele>
        <time>2023-04-30T04:31:06.000Z</time>
      </trkpt>
      <trkpt lat="47.89391" lon="6.89852">
        <ele>853.2</ele>
        <time>2023-04-30T04:31:24.000Z</time>
      </trkpt>
      <trkpt lat="47.89401" lon="6.89857">
        <ele>856</ele>
        <time>2023-04-30T04:31:44.000Z</time>
      </trkpt>
      <trkpt lat="47.89411" lon="6.89865">
        <ele>859.2</ele>
        <time>2023-04-30T04:32:02.000Z</time>
      </trkpt>
      <trkpt lat="47.89419" lon="6.89878">
        <ele>862.2</ele>
        <time>2023-04-30T04:32:20.000Z</time>
      </trkpt>
      <trkpt lat="47.89428" lon="6.89893">
        <ele>865.4</ele>
        <time>2023-04-30T04:32:39.000Z</time>
      </trkpt>
      <trkpt lat="47.89432" lon="6.89905">
        <ele>868.6</ele>
        <time>2023-04-30T04:32:56.000Z</time>
      </trkpt>
      <trkpt lat="47.8944" lon="6.8992">
        <ele>871.6</ele>
        <time>2023-04-30T04:33:14.000Z</time>
      </trkpt>
      <trkpt lat="47.89453" lon="6.89939">
        <ele>874.6</ele>
        <time>2023-04-30T04:33:34.000Z</time>
      </trkpt>
      <trkpt lat="47.89465" lon="6.89956">
        <ele>877.6</ele>
        <time>2023-04-30T04:33:52.000Z</time>
      </trkpt>
      <trkpt lat="47.89472" lon="6.89973">
        <ele>880.8</ele>
        <time>2023-04-30T04:34:08.000Z</time>
      </trkpt>
      <trkpt lat="47.89481" lon="6.89989">
        <ele>883.8</ele>
        <time>2023-04-30T04:34:27.000Z</time>
      </trkpt>
      <trkpt lat="47.89491" lon="6.90007">
        <ele>887</ele>
        <time>2023-04-30T04:34:46.000Z</time>
      </trkpt>
      <trkpt lat="47.89503" lon="6.90026">
        <ele>890.4</ele>
        <time>2023-04-30T04:35:05.000Z</time>
      </trkpt>
      <trkpt lat="47.89504" lon="6.90045">
        <ele>893.4</ele>
        <time>2023-04-30T04:35:24.000Z</time>
      </trkpt>
      <trkpt lat="47.89505" lon="6.90056">
        <ele>896.4</ele>
        <time>2023-04-30T04:35:41.000Z</time>
      </trkpt>
      <trkpt lat="47.89508" lon="6.90072">
        <ele>899.4</ele>
        <time>2023-04-30T04:36:02.000Z</time>
      </trkpt>
      <trkpt lat="47.89515" lon="6.90128">
        <ele>905.6</ele>
        <time>2023-04-30T04:36:42.000Z</time>
      </trkpt>
      <trkpt lat="47.89519" lon="6.90154">
        <ele>908.8</ele>
        <time>2023-04-30T04:37:01.000Z</time>
      </trkpt>
      <trkpt lat="47.89523" lon="6.90175">
        <ele>911.8</ele>
        <time>2023-04-30T04:37:20.000Z</time>
      </trkpt>
      <trkpt lat="47.8953" lon="6.90193">
        <ele>915</ele>
        <time>2023-04-30T04:37:41.000Z</time>
      </trkpt>
      <trkpt lat="47.89533" lon="6.90204">
        <ele>917.8</ele>
        <time>2023-04-30T04:37:56.000Z</time>
      </trkpt>
      <trkpt lat="47.89536" lon="6.90211">
        <ele>920.8</ele>
        <time>2023-04-30T04:38:12.000Z</time>
      </trkpt>
      <trkpt lat="47.8955" lon="6.9022">
        <ele>922.8</ele>
        <time>2023-04-30T04:38:31.000Z</time>
      </trkpt>
      <trkpt lat="47.89562" lon="6.90227">
        <ele>926</ele>
        <time>2023-04-30T04:38:50.000Z</time>
      </trkpt>
      <trkpt lat="47.89573" lon="6.90234">
        <ele>929</ele>
        <time>2023-04-30T04:39:08.000Z</time>
      </trkpt>
      <trkpt lat="47.8959" lon="6.90244">
        <ele>931.8</ele>
        <time>2023-04-30T04:39:27.000Z</time>
      </trkpt>
      <trkpt lat="47.89597" lon="6.90249">
        <ele>934.8</ele>
        <time>2023-04-30T04:39:44.000Z</time>
      </trkpt>
      <trkpt lat="47.89607" lon="6.90261">
        <ele>937.6</ele>
        <time>2023-04-30T04:40:05.000Z</time>
      </trkpt>
      <trkpt lat="47.89618" lon="6.90272">
        <ele>940.6</ele>
        <time>2023-04-30T04:40:23.000Z</time>
      </trkpt>
      <trkpt lat="47.8963" lon="6.90281">
        <ele>943.8</ele>
        <time>2023-04-30T04:40:41.000Z</time>
      </trkpt>
      <trkpt lat="47.89641" lon="6.90294">
        <ele>946.8</ele>
        <time>2023-04-30T04:40:57.000Z</time>
      </trkpt>
      <trkpt lat="47.89653" lon="6.90306">
        <ele>950</ele>
        <time>2023-04-30T04:41:19.000Z</time>
      </trkpt>
      <trkpt lat="47.89666" lon="6.90317">
        <ele>953</ele>
        <time>2023-04-30T04:41:39.000Z</time>
      </trkpt>
      <trkpt lat="47.89672" lon="6.9033">
        <ele>955.8</ele>
        <time>2023-04-30T04:41:57.000Z</time>
      </trkpt>
      <trkpt lat="47.89685" lon="6.90353">
        <ele>958.8</ele>
        <time>2023-04-30T04:42:19.000Z</time>
      </trkpt>
      <trkpt lat="47.89693" lon="6.90373">
        <ele>962</ele>
        <time>2023-04-30T04:42:39.000Z</time>
      </trkpt>
      <trkpt lat="47.89694" lon="6.90387">
        <ele>964.8</ele>
        <time>2023-04-30T04:42:56.000Z</time>
      </trkpt>
      <trkpt lat="47.89697" lon="6.90406">
        <ele>967.8</ele>
        <time>2023-04-30T04:43:16.000Z</time>
      </trkpt>
      <trkpt lat="47.89703" lon="6.90429">
        <ele>971</ele>
        <time>2023-04-30T04:43:34.000Z</time>
      </trkpt>
      <trkpt lat="47.89706" lon="6.90453">
        <ele>973.4</ele>
        <time>2023-04-30T04:43:57.000Z</time>
      </trkpt>
      <trkpt lat="47.89707" lon="6.9047">
        <ele>976.4</ele>
        <time>2023-04-30T04:44:15.000Z</time>
      </trkpt>
      <trkpt lat="47.8971" lon="6.90488">
        <ele>979.6</ele>
        <time>2023-04-30T04:44:32.000Z</time>
      </trkpt>
      <trkpt lat="47.8971" lon="6.90506">
        <ele>982.6</ele>
        <time>2023-04-30T04:44:51.000Z</time>
      </trkpt>
      <trkpt lat="47.89711" lon="6.90534">
        <ele>985.6</ele>
        <time>2023-04-30T04:45:09.000Z</time>
      </trkpt>
      <trkpt lat="47.8971" lon="6.90555">
        <ele>987.4</ele>
        <time>2023-04-30T04:45:30.000Z</time>
      </trkpt>
      <trkpt lat="47.8971" lon="6.90563">
        <ele>990.4</ele>
        <time>2023-04-30T04:45:45.000Z</time>
      </trkpt>
      <trkpt lat="47.89709" lon="6.90574">
        <ele>993.6</ele>
        <time>2023-04-30T04:46:00.000Z</time>
      </trkpt>
      <trkpt lat="47.89712" lon="6.90596">
        <ele>996.6</ele>
        <time>2023-04-30T04:46:19.000Z</time>
      </trkpt>
      <trkpt lat="47.89715" lon="6.90619">
        <ele>999.6</ele>
        <time>2023-04-30T04:46:39.000Z</time>
      </trkpt>
      <trkpt lat="47.89714" lon="6.90626">
        <ele>1001</ele>
        <time>2023-04-30T04:46:48.000Z</time>
      </trkpt>
      <trkpt lat="47.89716" lon="6.90647">
        <ele>1004.2</ele>
        <time>2023-04-30T04:47:06.000Z</time>
      </trkpt>
      <trkpt lat="47.89723" lon="6.90667">
        <ele>1007.2</ele>
        <time>2023-04-30T04:47:24.000Z</time>
      </trkpt>
      <trkpt lat="47.89729" lon="6.90693">
        <ele>1010.2</ele>
        <time>2023-04-30T04:47:44.000Z</time>
      </trkpt>
      <trkpt lat="47.89732" lon="6.90704">
        <ele>1013.4</ele>
        <time>2023-04-30T04:48:02.000Z</time>
      </trkpt>
      <trkpt lat="47.89734" lon="6.90718">
        <ele>1016.2</ele>
        <time>2023-04-30T04:48:21.000Z</time>
      </trkpt>
      <trkpt lat="47.89744" lon="6.9076">
        <ele>1022.4</ele>
        <time>2023-04-30T04:48:58.000Z</time>
      </trkpt>
      <trkpt lat="47.89752" lon="6.90783">
        <ele>1025.2</ele>
        <time>2023-04-30T04:49:20.000Z</time>
      </trkpt>
      <trkpt lat="47.89756" lon="6.90794">
        <ele>1028.2</ele>
        <time>2023-04-30T04:49:36.000Z</time>
      </trkpt>
      <trkpt lat="47.89762" lon="6.90811">
        <ele>1031.4</ele>
        <time>2023-04-30T04:49:54.000Z</time>
      </trkpt>
      <trkpt lat="47.89772" lon="6.90836">
        <ele>1034.4</ele>
        <time>2023-04-30T04:50:18.000Z</time>
      </trkpt>
      <trkpt lat="47.89774" lon="6.90849">
        <ele>1037.6</ele>
        <time>2023-04-30T04:50:34.000Z</time>
      </trkpt>
      <trkpt lat="47.89773" lon="6.9087">
        <ele>1040.8</ele>
        <time>2023-04-30T04:50:54.000Z</time>
      </trkpt>
      <trkpt lat="47.89776" lon="6.90883">
        <ele>1044</ele>
        <time>2023-04-30T04:51:11.000Z</time>
      </trkpt>
      <trkpt lat="47.89781" lon="6.90904">
        <ele>1047.2</ele>
        <time>2023-04-30T04:51:30.000Z</time>
      </trkpt>
      <trkpt lat="47.89787" lon="6.90928">
        <ele>1050.2</ele>
        <time>2023-04-30T04:51:51.000Z</time>
      </trkpt>
      <trkpt lat="47.89791" lon="6.90948">
        <ele>1053.4</ele>
        <time>2023-04-30T04:52:09.000Z</time>
      </trkpt>
      <trkpt lat="47.89791" lon="6.90964">
        <ele>1056.4</ele>
        <time>2023-04-30T04:52:29.000Z</time>
      </trkpt>
      <trkpt lat="47.89793" lon="6.90984">
        <ele>1059.8</ele>
        <time>2023-04-30T04:52:47.000Z</time>
      </trkpt>
      <trkpt lat="47.89793" lon="6.91005">
        <ele>1063</ele>
        <time>2023-04-30T04:53:06.000Z</time>
      </trkpt>
      <trkpt lat="47.89792" lon="6.91024">
        <ele>1066</ele>
        <time>2023-04-30T04:53:25.000Z</time>
      </trkpt>
      <trkpt lat="47.89788" lon="6.91042">
        <ele>1069.2</ele>
        <time>2023-04-30T04:53:44.000Z</time>
      </trkpt>
      <trkpt lat="47.89782" lon="6.91061">
        <ele>1072.2</ele>
        <time>2023-04-30T04:54:05.000Z</time>
      </trkpt>
      <trkpt lat="47.89775" lon="6.9107">
        <ele>1075.4</ele>
        <time>2023-04-30T04:54:20.000Z</time>
      </trkpt>
      <trkpt lat="47.89774" lon="6.91084">
        <ele>1078.4</ele>
        <time>2023-04-30T04:54:37.000Z</time>
      </trkpt>
      <trkpt lat="47.89772" lon="6.91107">
        <ele>1081.2</ele>
        <time>2023-04-30T04:54:58.000Z</time>
      </trkpt>
      <trkpt lat="47.89766" lon="6.9113">
        <ele>1084.2</ele>
        <time>2023-04-30T04:55:18.000Z</time>
      </trkpt>
      <trkpt lat="47.89759" lon="6.91146">
        <ele>1087.4</ele>
        <time>2023-04-30T04:55:37.000Z</time>
      </trkpt>
      <trkpt lat="47.89753" lon="6.91157">
        <ele>1090.6</ele>
        <time>2023-04-30T04:55:52.000Z</time>
      </trkpt>
      <trkpt lat="47.89744" lon="6.9117">
        <ele>1093.6</ele>
        <time>2023-04-30T04:56:12.000Z</time>
      </trkpt>
      <trkpt lat="47.89736" lon="6.91181">
        <ele>1096.8</ele>
        <time>2023-04-30T04:56:29.000Z</time>
      </trkpt>
      <trkpt lat="47.89737" lon="6.9121">
        <ele>1099.8</ele>
        <time>2023-04-30T04:56:49.000Z</time>
      </trkpt>
      <trkpt lat="47.89736" lon="6.91232">
        <ele>1103</ele>
        <time>2023-04-30T04:57:07.000Z</time>
      </trkpt>
      <trkpt lat="47.89735" lon="6.91239">
        <ele>1104.8</ele>
        <time>2023-04-30T04:57:28.000Z</time>
      </trkpt>
      <trkpt lat="47.89732" lon="6.91236">
        <ele>1104.8</ele>
        <time>2023-04-30T04:57:58.000Z</time>
      </trkpt>
      <trkpt lat="47.89738" lon="6.91238">
        <ele>1105</ele>
        <time>2023-04-30T04:58:24.000Z</time>
      </trkpt>
      <trkpt lat="47.89738" lon="6.91238">
        <ele>1104.8</ele>
        <time>2023-04-30T04:58:53.000Z</time>
      </trkpt>
      <trkpt lat="47.89747" lon="6.91241">
        <ele>1104.8</ele>
        <time>2023-04-30T04:59:23.000Z</time>
      </trkpt>
      <trkpt lat="47.89747" lon="6.9124">
        <ele>1104.8</ele>
        <time>2023-04-30T04:59:52.000Z</time>
      </trkpt>
      <trkpt lat="47.89741" lon="6.91249">
        <ele>1104.8</ele>
        <time>2023-04-30T05:00:30.000Z</time>
      </trkpt>
      <trkpt lat="47.89738" lon="6.91244">
        <ele>1104.8</ele>
        <time>2023-04-30T05:00:56.000Z</time>
      </trkpt>
      <trkpt lat="47.89742" lon="6.91243">
        <ele>1104.8</ele>
        <time>2023-04-30T05:01:20.000Z</time>
      </trkpt>
      <trkpt lat="47.89739" lon="6.91256">
        <ele>1104.8</ele>
        <time>2023-04-30T05:01:40.000Z</time>
      </trkpt>
      <trkpt lat="47.8974" lon="6.91272">
        <ele>1104.8</ele>
        <time>2023-04-30T05:02:01.000Z</time>
      </trkpt>
      <trkpt lat="47.8974" lon="6.91278">
        <ele>1113</ele>
        <time>2023-04-30T05:02:06.000Z</time>
      </trkpt>
      <trkpt lat="47.8974" lon="6.91279">
        <ele>1113</ele>
        <time>2023-04-30T05:02:07.000Z</time>
      </trkpt>
      <trkpt lat="47.89739" lon="6.91295">
        <ele>1116</ele>
        <time>2023-04-30T05:02:27.000Z</time>
      </trkpt>
      <trkpt lat="47.89739" lon="6.91314">
        <ele>1119</ele>
        <time>2023-04-30T05:02:43.000Z</time>
      </trkpt>
      <trkpt lat="47.89743" lon="6.91338">
        <ele>1122.2</ele>
        <time>2023-04-30T05:03:03.000Z</time>
      </trkpt>
      <trkpt lat="47.89742" lon="6.91354">
        <ele>1125.2</ele>
        <time>2023-04-30T05:03:23.000Z</time>
      </trkpt>
      <trkpt lat="47.89744" lon="6.91377">
        <ele>1128.4</ele>
        <time>2023-04-30T05:03:40.000Z</time>
      </trkpt>
      <trkpt lat="47.89744" lon="6.91395">
        <ele>1131.6</ele>
        <time>2023-04-30T05:04:00.000Z</time>
      </trkpt>
      <trkpt lat="47.89745" lon="6.9142">
        <ele>1134.8</ele>
        <time>2023-04-30T05:04:21.000Z</time>
      </trkpt>
      <trkpt lat="47.89746" lon="6.91438">
        <ele>1138</ele>
        <time>2023-04-30T05:04:36.000Z</time>
      </trkpt>
      <trkpt lat="47.89747" lon="6.91453">
        <ele>1141.2</ele>
        <time>2023-04-30T05:04:52.000Z</time>
      </trkpt>
      <trkpt lat="47.89754" lon="6.91472">
        <ele>1144</ele>
        <time>2023-04-30T05:05:11.000Z</time>
      </trkpt>
      <trkpt lat="47.8976" lon="6.91495">
        <ele>1147.2</ele>
        <time>2023-04-30T05:05:31.000Z</time>
      </trkpt>
      <trkpt lat="47.89765" lon="6.91507">
        <ele>1149.4</ele>
        <time>2023-04-30T05:05:47.000Z</time>
      </trkpt>
      <trkpt lat="47.89771" lon="6.9152">
        <ele>1151.8</ele>
        <time>2023-04-30T05:06:02.000Z</time>
      </trkpt>
      <trkpt lat="47.89778" lon="6.91536">
        <ele>1154.6</ele>
        <time>2023-04-30T05:06:19.000Z</time>
      </trkpt>
      <trkpt lat="47.89781" lon="6.91551">
        <ele>1157.6</ele>
        <time>2023-04-30T05:06:35.000Z</time>
      </trkpt>
      <trkpt lat="47.8979" lon="6.9157">
        <ele>1160.6</ele>
        <time>2023-04-30T05:06:55.000Z</time>
      </trkpt>
      <trkpt lat="47.89796" lon="6.91584">
        <ele>1163.8</ele>
        <time>2023-04-30T05:07:10.000Z</time>
      </trkpt>
      <trkpt lat="47.89804" lon="6.91597">
        <ele>1166.4</ele>
        <time>2023-04-30T05:07:26.000Z</time>
      </trkpt>
      <trkpt lat="47.89811" lon="6.91609">
        <ele>1169.4</ele>
        <time>2023-04-30T05:07:41.000Z</time>
      </trkpt>
      <trkpt lat="47.89819" lon="6.91626">
        <ele>1172.4</ele>
        <time>2023-04-30T05:07:57.000Z</time>
      </trkpt>
      <trkpt lat="47.89826" lon="6.9164">
        <ele>1175.4</ele>
        <time>2023-04-30T05:08:13.000Z</time>
      </trkpt>
      <trkpt lat="47.89831" lon="6.91644">
        <ele>1176.8</ele>
        <time>2023-04-30T05:08:36.000Z</time>
      </trkpt>
      <trkpt lat="47.89843" lon="6.91656">
        <ele>1177.4</ele>
        <time>2023-04-30T05:09:05.000Z</time>
      </trkpt>
      <trkpt lat="47.89844" lon="6.91659">
        <ele>1178.2</ele>
        <time>2023-04-30T05:09:24.000Z</time>
      </trkpt>
      <trkpt lat="47.89848" lon="6.9166">
        <ele>1177.2</ele>
        <time>2023-04-30T05:09:44.000Z</time>
      </trkpt>
      <trkpt lat="47.8985" lon="6.91665">
        <ele>1177.4</ele>
        <time>2023-04-30T05:09:59.000Z</time>
      </trkpt>
      <trkpt lat="47.89852" lon="6.91667">
        <ele>1177.4</ele>
        <time>2023-04-30T05:10:02.000Z</time>
      </trkpt>
      <trkpt lat="47.89862" lon="6.91673">
        <ele>1178.4</ele>
        <time>2023-04-30T05:10:20.000Z</time>
      </trkpt>
      <trkpt lat="47.89865" lon="6.91674">
        <ele>1178.4</ele>
        <time>2023-04-30T05:10:46.000Z</time>
      </trkpt>
      <trkpt lat="47.89868" lon="6.9168">
        <ele>1178.4</ele>
        <time>2023-04-30T05:11:14.000Z</time>
      </trkpt>
      <trkpt lat="47.89873" lon="6.91685">
        <ele>1178.4</ele>
        <time>2023-04-30T05:11:31.000Z</time>
      </trkpt>
      <trkpt lat="47.89876" lon="6.91687">
        <ele>1178.4</ele>
        <time>2023-04-30T05:11:49.000Z</time>
      </trkpt>
      <trkpt lat="47.89879" lon="6.91689">
        <ele>1181.6</ele>
        <time>2023-04-30T05:11:54.000Z</time>
      </trkpt>
      <trkpt lat="47.89885" lon="6.91697">
        <ele>1182.8</ele>
        <time>2023-04-30T05:12:06.000Z</time>
      </trkpt>
      <trkpt lat="47.89889" lon="6.91701">
        <ele>1183.4</ele>
        <time>2023-04-30T05:12:11.000Z</time>
      </trkpt>
      <trkpt lat="47.89895" lon="6.91704">
        <ele>1183.6</ele>
        <time>2023-04-30T05:12:18.000Z</time>
      </trkpt>
      <trkpt lat="47.89902" lon="6.91708">
        <ele>1184</ele>
        <time>2023-04-30T05:12:25.000Z</time>
      </trkpt>
      <trkpt lat="47.89906" lon="6.91715">
        <ele>1184.4</ele>
        <time>2023-04-30T05:12:33.000Z</time>
      </trkpt>
      <trkpt lat="47.89907" lon="6.91716">
        <ele>1184.6</ele>
        <time>2023-04-30T05:12:34.000Z</time>
      </trkpt>
      <trkpt lat="47.89908" lon="6.91716">
        <ele>1184.6</ele>
        <time>2023-04-30T05:12:35.000Z</time>
      </trkpt>
      <trkpt lat="47.89912" lon="6.91717">
        <ele>1185.6</ele>
        <time>2023-04-30T05:12:47.000Z</time>
      </trkpt>
      <trkpt lat="47.89916" lon="6.91718">
        <ele>1185.6</ele>
        <time>2023-04-30T05:12:51.000Z</time>
      </trkpt>
      <trkpt lat="47.89937" lon="6.91736">
        <ele>1187.6</ele>
        <time>2023-04-30T05:13:12.000Z</time>
      </trkpt>
      <trkpt lat="47.89956" lon="6.91756">
        <ele>1189.6</ele>
        <time>2023-04-30T05:13:31.000Z</time>
      </trkpt>
      <trkpt lat="47.89973" lon="6.91768">
        <ele>1191.4</ele>
        <time>2023-04-30T05:13:48.000Z</time>
      </trkpt>
      <trkpt lat="47.89975" lon="6.91768">
        <ele>1191.6</ele>
        <time>2023-04-30T05:13:57.000Z</time>
      </trkpt>
      <trkpt lat="47.89982" lon="6.91767">
        <ele>1191.8</ele>
        <time>2023-04-30T05:14:11.000Z</time>
      </trkpt>
      <trkpt lat="47.89985" lon="6.91767">
        <ele>1192</ele>
        <time>2023-04-30T05:14:14.000Z</time>
      </trkpt>
      <trkpt lat="47.9" lon="6.91766">
        <ele>1193.2</ele>
        <time>2023-04-30T05:14:30.000Z</time>
      </trkpt>
      <trkpt lat="47.9002" lon="6.91766">
        <ele>1195.6</ele>
        <time>2023-04-30T05:14:48.000Z</time>
      </trkpt>
      <trkpt lat="47.90045" lon="6.91767">
        <ele>1198.4</ele>
        <time>2023-04-30T05:15:10.000Z</time>
      </trkpt>
      <trkpt lat="47.90063" lon="6.91764">
        <ele>1201</ele>
        <time>2023-04-30T05:15:30.000Z</time>
      </trkpt>
      <trkpt lat="47.90064" lon="6.91764">
        <ele>1201</ele>
        <time>2023-04-30T05:15:31.000Z</time>
      </trkpt>
      <trkpt lat="47.90066" lon="6.91764">
        <ele>1201</ele>
        <time>2023-04-30T05:15:33.000Z</time>
      </trkpt>
      <trkpt lat="47.9009" lon="6.91759">
        <ele>1202.8</ele>
        <time>2023-04-30T05:15:53.000Z</time>
      </trkpt>
      <trkpt lat="47.90107" lon="6.91738">
        <ele>1205.4</ele>
        <time>2023-04-30T05:16:13.000Z</time>
      </trkpt>
      <trkpt lat="47.90128" lon="6.91711">
        <ele>1205.4</ele>
        <time>2023-04-30T05:16:35.000Z</time>
      </trkpt>
      <trkpt lat="47.90149" lon="6.91702">
        <ele>1207.4</ele>
        <time>2023-04-30T05:16:55.000Z</time>
      </trkpt>
      <trkpt lat="47.90163" lon="6.91698">
        <ele>1210.4</ele>
        <time>2023-04-30T05:17:08.000Z</time>
      </trkpt>
      <trkpt lat="47.90173" lon="6.91693">
        <ele>1213.4</ele>
        <time>2023-04-30T05:17:20.000Z</time>
      </trkpt>
      <trkpt lat="47.90194" lon="6.91685">
        <ele>1215.4</ele>
        <time>2023-04-30T05:17:39.000Z</time>
      </trkpt>
      <trkpt lat="47.90215" lon="6.91683">
        <ele>1216.8</ele>
        <time>2023-04-30T05:17:59.000Z</time>
      </trkpt>
      <trkpt lat="47.90215" lon="6.91683">
        <ele>1220.2</ele>
        <time>2023-04-30T05:18:05.000Z</time>
      </trkpt>
      <trkpt lat="47.90215" lon="6.91682">
        <ele>1221</ele>
        <time>2023-04-30T05:18:07.000Z</time>
      </trkpt>
      <trkpt lat="47.90215" lon="6.91679">
        <ele>1218.6</ele>
        <time>2023-04-30T05:18:25.000Z</time>
      </trkpt>
      <trkpt lat="47.90218" lon="6.91678">
        <ele>1221.6</ele>
        <time>2023-04-30T05:18:37.000Z</time>
      </trkpt>
      <trkpt lat="47.90216" lon="6.91677">
        <ele>1220</ele>
        <time>2023-04-30T05:18:55.000Z</time>
      </trkpt>
      <trkpt lat="47.90215" lon="6.91678">
        <ele>1219.4</ele>
        <time>2023-04-30T05:19:23.000Z</time>
      </trkpt>
      <trkpt lat="47.90214" lon="6.91679">
        <ele>1220.2</ele>
        <time>2023-04-30T05:19:49.000Z</time>
      </trkpt>
      <trkpt lat="47.90214" lon="6.91677">
        <ele>1220.2</ele>
        <time>2023-04-30T05:20:09.000Z</time>
      </trkpt>
      <trkpt lat="47.90213" lon="6.91677">
        <ele>1220.4</ele>
        <time>2023-04-30T05:20:22.000Z</time>
      </trkpt>
      <trkpt lat="47.90212" lon="6.91677">
        <ele>1220.4</ele>
        <time>2023-04-30T05:20:23.000Z</time>
      </trkpt>
      <trkpt lat="47.90211" lon="6.91677">
        <ele>1220.4</ele>
        <time>2023-04-30T05:20:24.000Z</time>
      </trkpt>
      <trkpt lat="47.90209" lon="6.91678">
        <ele>1220.4</ele>
        <time>2023-04-30T05:20:25.000Z</time>
      </trkpt>
      <trkpt lat="47.90208" lon="6.91679">
        <ele>1220.4</ele>
        <time>2023-04-30T05:20:26.000Z</time>
      </trkpt>
      <trkpt lat="47.90207" lon="6.91679">
        <ele>1220.2</ele>
        <time>2023-04-30T05:20:27.000Z</time>
      </trkpt>
      <trkpt lat="47.90206" lon="6.91679">
        <ele>1220.2</ele>
        <time>2023-04-30T05:20:28.000Z</time>
      </trkpt>
      <trkpt lat="47.90204" lon="6.9168">
        <ele>1220</ele>
        <time>2023-04-30T05:20:29.000Z</time>
      </trkpt>
      <trkpt lat="47.90203" lon="6.9168">
        <ele>1220</ele>
        <time>2023-04-30T05:20:30.000Z</time>
      </trkpt>
      <trkpt lat="47.90192" lon="6.91682">
        <ele>1218.2</ele>
        <time>2023-04-30T05:20:44.000Z</time>
      </trkpt>
      <trkpt lat="47.9019" lon="6.91683">
        <ele>1218</ele>
        <time>2023-04-30T05:20:45.000Z</time>
      </trkpt>
      <trkpt lat="47.90189" lon="6.91684">
        <ele>1217.8</ele>
        <time>2023-04-30T05:20:46.000Z</time>
      </trkpt>
      <trkpt lat="47.90166" lon="6.9169">
        <ele>1214.8</ele>
        <time>2023-04-30T05:21:04.000Z</time>
      </trkpt>
      <trkpt lat="47.90151" lon="6.91697">
        <ele>1211.4</ele>
        <time>2023-04-30T05:21:16.000Z</time>
      </trkpt>
      <trkpt lat="47.90148" lon="6.91697">
        <ele>1210.6</ele>
        <time>2023-04-30T05:21:18.000Z</time>
      </trkpt>
      <trkpt lat="47.90146" lon="6.91697">
        <ele>1210.2</ele>
        <time>2023-04-30T05:21:19.000Z</time>
      </trkpt>
      <trkpt lat="47.90145" lon="6.91698">
        <ele>1209.8</ele>
        <time>2023-04-30T05:21:20.000Z</time>
      </trkpt>
      <trkpt lat="47.90131" lon="6.91708">
        <ele>1207.4</ele>
        <time>2023-04-30T05:21:35.000Z</time>
      </trkpt>
      <trkpt lat="47.90111" lon="6.9173">
        <ele>1204.8</ele>
        <time>2023-04-30T05:21:53.000Z</time>
      </trkpt>
      <trkpt lat="47.90094" lon="6.91753">
        <ele>1204.8</ele>
        <time>2023-04-30T05:22:10.000Z</time>
      </trkpt>
      <trkpt lat="47.90074" lon="6.91764">
        <ele>1204.2</ele>
        <time>2023-04-30T05:22:27.000Z</time>
      </trkpt>
      <trkpt lat="47.90049" lon="6.91765">
        <ele>1201</ele>
        <time>2023-04-30T05:22:46.000Z</time>
      </trkpt>
      <trkpt lat="47.90026" lon="6.91765">
        <ele>1197.8</ele>
        <time>2023-04-30T05:23:03.000Z</time>
      </trkpt>
      <trkpt lat="47.89998" lon="6.91767">
        <ele>1194.8</ele>
        <time>2023-04-30T05:23:23.000Z</time>
      </trkpt>
      <trkpt lat="47.89974" lon="6.9177">
        <ele>1192.2</ele>
        <time>2023-04-30T05:23:41.000Z</time>
      </trkpt>
      <trkpt lat="47.89969" lon="6.91771">
        <ele>1192.2</ele>
        <time>2023-04-30T05:23:57.000Z</time>
      </trkpt>
      <trkpt lat="47.89966" lon="6.91779">
        <ele>1192</ele>
        <time>2023-04-30T05:24:12.000Z</time>
      </trkpt>
      <trkpt lat="47.89965" lon="6.91782">
        <ele>1191.8</ele>
        <time>2023-04-30T05:24:14.000Z</time>
      </trkpt>
      <trkpt lat="47.89965" lon="6.91784">
        <ele>1191.8</ele>
        <time>2023-04-30T05:24:15.000Z</time>
      </trkpt>
      <trkpt lat="47.89964" lon="6.91785">
        <ele>1191.6</ele>
        <time>2023-04-30T05:24:16.000Z</time>
      </trkpt>
      <trkpt lat="47.89964" lon="6.91787">
        <ele>1191.4</ele>
        <time>2023-04-30T05:24:17.000Z</time>
      </trkpt>
      <trkpt lat="47.89953" lon="6.9181">
        <ele>1190.6</ele>
        <time>2023-04-30T05:24:32.000Z</time>
      </trkpt>
      <trkpt lat="47.89947" lon="6.91821">
        <ele>1190.8</ele>
        <time>2023-04-30T05:24:40.000Z</time>
      </trkpt>
      <trkpt lat="47.89946" lon="6.91822">
        <ele>1191</ele>
        <time>2023-04-30T05:24:41.000Z</time>
      </trkpt>
      <trkpt lat="47.89945" lon="6.91824">
        <ele>1191</ele>
        <time>2023-04-30T05:24:42.000Z</time>
      </trkpt>
      <trkpt lat="47.89925" lon="6.91853">
        <ele>1191.4</ele>
        <time>2023-04-30T05:25:03.000Z</time>
      </trkpt>
      <trkpt lat="47.8991" lon="6.91878">
        <ele>1191.8</ele>
        <time>2023-04-30T05:25:22.000Z</time>
      </trkpt>
      <trkpt lat="47.89886" lon="6.91908">
        <ele>1191.4</ele>
        <time>2023-04-30T05:25:46.000Z</time>
      </trkpt>
      <trkpt lat="47.89871" lon="6.91928">
        <ele>1190</ele>
        <time>2023-04-30T05:26:02.000Z</time>
      </trkpt>
      <trkpt lat="47.89864" lon="6.91943">
        <ele>1187</ele>
        <time>2023-04-30T05:26:18.000Z</time>
      </trkpt>
      <trkpt lat="47.89862" lon="6.91947">
        <ele>1186.8</ele>
        <time>2023-04-30T05:26:44.000Z</time>
      </trkpt>
      <trkpt lat="47.89858" lon="6.91953">
        <ele>1186.4</ele>
        <time>2023-04-30T05:26:52.000Z</time>
      </trkpt>
      <trkpt lat="47.89857" lon="6.91955">
        <ele>1186.2</ele>
        <time>2023-04-30T05:26:53.000Z</time>
      </trkpt>
      <trkpt lat="47.89857" lon="6.91956">
        <ele>1186</ele>
        <time>2023-04-30T05:26:54.000Z</time>
      </trkpt>
      <trkpt lat="47.89856" lon="6.91958">
        <ele>1185.6</ele>
        <time>2023-04-30T05:26:55.000Z</time>
      </trkpt>
      <trkpt lat="47.89856" lon="6.91959">
        <ele>1185.2</ele>
        <time>2023-04-30T05:26:56.000Z</time>
      </trkpt>
      <trkpt lat="47.89855" lon="6.91961">
        <ele>1185.2</ele>
        <time>2023-04-30T05:26:57.000Z</time>
      </trkpt>
      <trkpt lat="47.89855" lon="6.91962">
        <ele>1185</ele>
        <time>2023-04-30T05:26:58.000Z</time>
      </trkpt>
      <trkpt lat="47.89854" lon="6.91964">
        <ele>1184.8</ele>
        <time>2023-04-30T05:26:59.000Z</time>
      </trkpt>
      <trkpt lat="47.89853" lon="6.91965">
        <ele>1184.6</ele>
        <time>2023-04-30T05:27:00.000Z</time>
      </trkpt>
      <trkpt lat="47.89845" lon="6.91983">
        <ele>1181.4</ele>
        <time>2023-04-30T05:27:13.000Z</time>
      </trkpt>
      <trkpt lat="47.89838" lon="6.92002">
        <ele>1178.8</ele>
        <time>2023-04-30T05:27:28.000Z</time>
      </trkpt>
      <trkpt lat="47.89837" lon="6.92004">
        <ele>1178.2</ele>
        <time>2023-04-30T05:27:32.000Z</time>
      </trkpt>
      <trkpt lat="47.89835" lon="6.92009">
        <ele>1178</ele>
        <time>2023-04-30T05:27:35.000Z</time>
      </trkpt>
      <trkpt lat="47.89826" lon="6.92025">
        <ele>1176.2</ele>
        <time>2023-04-30T05:27:52.000Z</time>
      </trkpt>
      <trkpt lat="47.89822" lon="6.92033">
        <ele>1174.8</ele>
        <time>2023-04-30T05:28:08.000Z</time>
      </trkpt>
      <trkpt lat="47.8982" lon="6.9204">
        <ele>1173.6</ele>
        <time>2023-04-30T05:28:32.000Z</time>
      </trkpt>
      <trkpt lat="47.89821" lon="6.92046">
        <ele>1171.4</ele>
        <time>2023-04-30T05:28:53.000Z</time>
      </trkpt>
      <trkpt lat="47.89816" lon="6.92052">
        <ele>1169.4</ele>
        <time>2023-04-30T05:29:10.000Z</time>
      </trkpt>
      <trkpt lat="47.89813" lon="6.92055">
        <ele>1169</ele>
        <time>2023-04-30T05:29:42.000Z</time>
      </trkpt>
      <trkpt lat="47.8981" lon="6.92058">
        <ele>1169</ele>
        <time>2023-04-30T05:29:57.000Z</time>
      </trkpt>
      <trkpt lat="47.89801" lon="6.9207">
        <ele>1166</ele>
        <time>2023-04-30T05:30:09.000Z</time>
      </trkpt>
      <trkpt lat="47.89798" lon="6.92074">
        <ele>1164</ele>
        <time>2023-04-30T05:30:15.000Z</time>
      </trkpt>
      <trkpt lat="47.89797" lon="6.92075">
        <ele>1163.6</ele>
        <time>2023-04-30T05:30:16.000Z</time>
      </trkpt>
      <trkpt lat="47.89792" lon="6.92086">
        <ele>1160.6</ele>
        <time>2023-04-30T05:30:26.000Z</time>
      </trkpt>
      <trkpt lat="47.89785" lon="6.92102">
        <ele>1157.4</ele>
        <time>2023-04-30T05:30:36.000Z</time>
      </trkpt>
      <trkpt lat="47.89781" lon="6.92112">
        <ele>1154</ele>
        <time>2023-04-30T05:30:42.000Z</time>
      </trkpt>
      <trkpt lat="47.89778" lon="6.92118">
        <ele>1152.2</ele>
        <time>2023-04-30T05:30:49.000Z</time>
      </trkpt>
      <trkpt lat="47.89778" lon="6.9212">
        <ele>1152.2</ele>
        <time>2023-04-30T05:30:50.000Z</time>
      </trkpt>
      <trkpt lat="47.89778" lon="6.92122">
        <ele>1152</ele>
        <time>2023-04-30T05:30:51.000Z</time>
      </trkpt>
      <trkpt lat="47.89774" lon="6.9214">
        <ele>1148.8</ele>
        <time>2023-04-30T05:31:02.000Z</time>
      </trkpt>
      <trkpt lat="47.89767" lon="6.92154">
        <ele>1145.6</ele>
        <time>2023-04-30T05:31:11.000Z</time>
      </trkpt>
      <trkpt lat="47.89765" lon="6.9216">
        <ele>1144.6</ele>
        <time>2023-04-30T05:31:15.000Z</time>
      </trkpt>
      <trkpt lat="47.89764" lon="6.92161">
        <ele>1144.4</ele>
        <time>2023-04-30T05:31:16.000Z</time>
      </trkpt>
      <trkpt lat="47.89754" lon="6.92186">
        <ele>1141.2</ele>
        <time>2023-04-30T05:31:31.000Z</time>
      </trkpt>
      <trkpt lat="47.89739" lon="6.92208">
        <ele>1138.2</ele>
        <time>2023-04-30T05:31:49.000Z</time>
      </trkpt>
      <trkpt lat="47.89735" lon="6.92222">
        <ele>1135</ele>
        <time>2023-04-30T05:31:57.000Z</time>
      </trkpt>
      <trkpt lat="47.89732" lon="6.92234">
        <ele>1131.8</ele>
        <time>2023-04-30T05:32:04.000Z</time>
      </trkpt>
      <trkpt lat="47.89729" lon="6.92247">
        <ele>1128.8</ele>
        <time>2023-04-30T05:32:13.000Z</time>
      </trkpt>
      <trkpt lat="47.89725" lon="6.92258">
        <ele>1125.6</ele>
        <time>2023-04-30T05:32:26.000Z</time>
      </trkpt>
      <trkpt lat="47.89721" lon="6.92265">
        <ele>1122.6</ele>
        <time>2023-04-30T05:32:37.000Z</time>
      </trkpt>
      <trkpt lat="47.89717" lon="6.92277">
        <ele>1119.8</ele>
        <time>2023-04-30T05:32:47.000Z</time>
      </trkpt>
      <trkpt lat="47.8971" lon="6.92284">
        <ele>1116.4</ele>
        <time>2023-04-30T05:32:58.000Z</time>
      </trkpt>
      <trkpt lat="47.89708" lon="6.92292">
        <ele>1113.2</ele>
        <time>2023-04-30T05:33:12.000Z</time>
      </trkpt>
      <trkpt lat="47.89704" lon="6.92302">
        <ele>1110</ele>
        <time>2023-04-30T05:33:22.000Z</time>
      </trkpt>
      <trkpt lat="47.89702" lon="6.92307">
        <ele>1106.8</ele>
        <time>2023-04-30T05:33:32.000Z</time>
      </trkpt>
      <trkpt lat="47.897" lon="6.92316">
        <ele>1105.4</ele>
        <time>2023-04-30T05:33:57.000Z</time>
      </trkpt>
      <trkpt lat="47.89701" lon="6.92328">
        <ele>1105</ele>
        <time>2023-04-30T05:34:22.000Z</time>
      </trkpt>
      <trkpt lat="47.89693" lon="6.92335">
        <ele>1102</ele>
        <time>2023-04-30T05:34:33.000Z</time>
      </trkpt>
      <trkpt lat="47.89688" lon="6.92349">
        <ele>1098.6</ele>
        <time>2023-04-30T05:34:44.000Z</time>
      </trkpt>
      <trkpt lat="47.89679" lon="6.92361">
        <ele>1095.8</ele>
        <time>2023-04-30T05:34:57.000Z</time>
      </trkpt>
      <trkpt lat="47.89672" lon="6.92373">
        <ele>1093.2</ele>
        <time>2023-04-30T05:35:07.000Z</time>
      </trkpt>
      <trkpt lat="47.89672" lon="6.92374">
        <ele>1093</ele>
        <time>2023-04-30T05:35:08.000Z</time>
      </trkpt>
      <trkpt lat="47.8966" lon="6.92389">
        <ele>1089.8</ele>
        <time>2023-04-30T05:35:19.000Z</time>
      </trkpt>
      <trkpt lat="47.89648" lon="6.9241">
        <ele>1086.2</ele>
        <time>2023-04-30T05:35:31.000Z</time>
      </trkpt>
      <trkpt lat="47.89639" lon="6.92428">
        <ele>1083</ele>
        <time>2023-04-30T05:35:42.000Z</time>
      </trkpt>
      <trkpt lat="47.89635" lon="6.92439">
        <ele>1080</ele>
        <time>2023-04-30T05:35:51.000Z</time>
      </trkpt>
      <trkpt lat="47.8963" lon="6.92456">
        <ele>1077</ele>
        <time>2023-04-30T05:36:02.000Z</time>
      </trkpt>
      <trkpt lat="47.89621" lon="6.92468">
        <ele>1073.8</ele>
        <time>2023-04-30T05:36:13.000Z</time>
      </trkpt>
      <trkpt lat="47.89618" lon="6.92471">
        <ele>1073.4</ele>
        <time>2023-04-30T05:36:15.000Z</time>
      </trkpt>
      <trkpt lat="47.89617" lon="6.92472">
        <ele>1073.2</ele>
        <time>2023-04-30T05:36:16.000Z</time>
      </trkpt>
      <trkpt lat="47.89609" lon="6.92483">
        <ele>1070</ele>
        <time>2023-04-30T05:36:26.000Z</time>
      </trkpt>
      <trkpt lat="47.89603" lon="6.92488">
        <ele>1068.4</ele>
        <time>2023-04-30T05:36:33.000Z</time>
      </trkpt>
      <trkpt lat="47.89589" lon="6.92506">
        <ele>1065.2</ele>
        <time>2023-04-30T05:36:47.000Z</time>
      </trkpt>
      <trkpt lat="47.89578" lon="6.92521">
        <ele>1062</ele>
        <time>2023-04-30T05:37:02.000Z</time>
      </trkpt>
      <trkpt lat="47.89567" lon="6.92529">
        <ele>1059.4</ele>
        <time>2023-04-30T05:37:10.000Z</time>
      </trkpt>
      <trkpt lat="47.89556" lon="6.92537">
        <ele>1056.6</ele>
        <time>2023-04-30T05:37:23.000Z</time>
      </trkpt>
      <trkpt lat="47.89555" lon="6.92547">
        <ele>1055.8</ele>
        <time>2023-04-30T05:37:50.000Z</time>
      </trkpt>
      <trkpt lat="47.8956" lon="6.92562">
        <ele>1052.6</ele>
        <time>2023-04-30T05:38:02.000Z</time>
      </trkpt>
      <trkpt lat="47.89558" lon="6.92568">
        <ele>1051.6</ele>
        <time>2023-04-30T05:38:07.000Z</time>
      </trkpt>
      <trkpt lat="47.89554" lon="6.92587">
        <ele>1048.4</ele>
        <time>2023-04-30T05:38:18.000Z</time>
      </trkpt>
      <trkpt lat="47.89551" lon="6.92604">
        <ele>1045.2</ele>
        <time>2023-04-30T05:38:27.000Z</time>
      </trkpt>
      <trkpt lat="47.89549" lon="6.92623">
        <ele>1042.2</ele>
        <time>2023-04-30T05:38:38.000Z</time>
      </trkpt>
      <trkpt lat="47.89548" lon="6.92633">
        <ele>1040</ele>
        <time>2023-04-30T05:38:44.000Z</time>
      </trkpt>
      <trkpt lat="47.89544" lon="6.92661">
        <ele>1037</ele>
        <time>2023-04-30T05:38:59.000Z</time>
      </trkpt>
      <trkpt lat="47.8954" lon="6.92682">
        <ele>1034</ele>
        <time>2023-04-30T05:39:14.000Z</time>
      </trkpt>
      <trkpt lat="47.89539" lon="6.92683">
        <ele>1033.8</ele>
        <time>2023-04-30T05:39:15.000Z</time>
      </trkpt>
      <trkpt lat="47.89539" lon="6.92685">
        <ele>1033.8</ele>
        <time>2023-04-30T05:39:16.000Z</time>
      </trkpt>
      <trkpt lat="47.89539" lon="6.92687">
        <ele>1033.8</ele>
        <time>2023-04-30T05:39:17.000Z</time>
      </trkpt>
      <trkpt lat="47.89539" lon="6.92688">
        <ele>1033.8</ele>
        <time>2023-04-30T05:39:18.000Z</time>
      </trkpt>
      <trkpt lat="47.89538" lon="6.9269">
        <ele>1033.6</ele>
        <time>2023-04-30T05:39:19.000Z</time>
      </trkpt>
      <trkpt lat="47.89538" lon="6.92692">
        <ele>1033.6</ele>
        <time>2023-04-30T05:39:20.000Z</time>
      </trkpt>
      <trkpt lat="47.89537" lon="6.92694">
        <ele>1033.4</ele>
        <time>2023-04-30T05:39:21.000Z</time>
      </trkpt>
      <trkpt lat="47.89532" lon="6.92729">
        <ele>1030.4</ele>
        <time>2023-04-30T05:39:38.000Z</time>
      </trkpt>
      <trkpt lat="47.89522" lon="6.92771">
        <ele>1028.4</ele>
        <time>2023-04-30T05:39:59.000Z</time>
      </trkpt>
      <trkpt lat="47.89507" lon="6.92813">
        <ele>1027.8</ele>
        <time>2023-04-30T05:40:23.000Z</time>
      </trkpt>
      <trkpt lat="47.89498" lon="6.92826">
        <ele>1027.4</ele>
        <time>2023-04-30T05:40:40.000Z</time>
      </trkpt>
      <trkpt lat="47.89499" lon="6.92828">
        <ele>1026.8</ele>
        <time>2023-04-30T05:40:56.000Z</time>
      </trkpt>
      <trkpt lat="47.89499" lon="6.92827">
        <ele>1026.2</ele>
        <time>2023-04-30T05:42:36.000Z</time>
      </trkpt>
      <trkpt lat="47.895" lon="6.92827">
        <ele>1026.4</ele>
        <time>2023-04-30T05:43:21.000Z</time>
      </trkpt>
      <trkpt lat="47.89492" lon="6.92833">
        <ele>1026.4</ele>
        <time>2023-04-30T05:43:42.000Z</time>
      </trkpt>
      <trkpt lat="47.89491" lon="6.92834">
        <ele>1026.4</ele>
        <time>2023-04-30T05:43:43.000Z</time>
      </trkpt>
      <trkpt lat="47.8949" lon="6.92835">
        <ele>1026.4</ele>
        <time>2023-04-30T05:43:44.000Z</time>
      </trkpt>
      <trkpt lat="47.89489" lon="6.92835">
        <ele>1026.4</ele>
        <time>2023-04-30T05:43:45.000Z</time>
      </trkpt>
      <trkpt lat="47.89488" lon="6.92836">
        <ele>1026.6</ele>
        <time>2023-04-30T05:43:46.000Z</time>
      </trkpt>
      <trkpt lat="47.89472" lon="6.92858">
        <ele>1026.4</ele>
        <time>2023-04-30T05:44:02.000Z</time>
      </trkpt>
      <trkpt lat="47.89462" lon="6.92898">
        <ele>1025</ele>
        <time>2023-04-30T05:44:23.000Z</time>
      </trkpt>
      <trkpt lat="47.89462" lon="6.92903">
        <ele>1025</ele>
        <time>2023-04-30T05:44:26.000Z</time>
      </trkpt>
      <trkpt lat="47.89461" lon="6.92905">
        <ele>1024.8</ele>
        <time>2023-04-30T05:44:27.000Z</time>
      </trkpt>
      <trkpt lat="47.89456" lon="6.92941">
        <ele>1023.2</ele>
        <time>2023-04-30T05:44:46.000Z</time>
      </trkpt>
      <trkpt lat="47.89455" lon="6.92969">
        <ele>1021</ele>
        <time>2023-04-30T05:45:01.000Z</time>
      </trkpt>
      <trkpt lat="47.89451" lon="6.92992">
        <ele>1019.6</ele>
        <time>2023-04-30T05:45:13.000Z</time>
      </trkpt>
      <trkpt lat="47.89449" lon="6.92993">
        <ele>1019.4</ele>
        <time>2023-04-30T05:45:14.000Z</time>
      </trkpt>
      <trkpt lat="47.89446" lon="6.92991">
        <ele>1019</ele>
        <time>2023-04-30T05:45:19.000Z</time>
      </trkpt>
      <trkpt lat="47.89446" lon="6.92989">
        <ele>1018.8</ele>
        <time>2023-04-30T05:45:20.000Z</time>
      </trkpt>
      <trkpt lat="47.89445" lon="6.92987">
        <ele>1018.8</ele>
        <time>2023-04-30T05:45:21.000Z</time>
      </trkpt>
      <trkpt lat="47.89445" lon="6.92985">
        <ele>1018.6</ele>
        <time>2023-04-30T05:45:22.000Z</time>
      </trkpt>
      <trkpt lat="47.89445" lon="6.92984">
        <ele>1018.6</ele>
        <time>2023-04-30T05:45:23.000Z</time>
      </trkpt>
      <trkpt lat="47.89444" lon="6.92982">
        <ele>1018.4</ele>
        <time>2023-04-30T05:45:24.000Z</time>
      </trkpt>
      <trkpt lat="47.89444" lon="6.92981">
        <ele>1018.4</ele>
        <time>2023-04-30T05:45:25.000Z</time>
      </trkpt>
      <trkpt lat="47.89438" lon="6.92961">
        <ele>1016</ele>
        <time>2023-04-30T05:45:37.000Z</time>
      </trkpt>
      <trkpt lat="47.89437" lon="6.92959">
        <ele>1016</ele>
        <time>2023-04-30T05:45:38.000Z</time>
      </trkpt>
      <trkpt lat="47.89426" lon="6.92932">
        <ele>1013.8</ele>
        <time>2023-04-30T05:45:54.000Z</time>
      </trkpt>
      <trkpt lat="47.89418" lon="6.92906">
        <ele>1011.4</ele>
        <time>2023-04-30T05:46:12.000Z</time>
      </trkpt>
      <trkpt lat="47.8941" lon="6.92875">
        <ele>1008.2</ele>
        <time>2023-04-30T05:46:29.000Z</time>
      </trkpt>
      <trkpt lat="47.8941" lon="6.92869">
        <ele>1007.4</ele>
        <time>2023-04-30T05:46:36.000Z</time>
      </trkpt>
      <trkpt lat="47.8941" lon="6.92868">
        <ele>1007.2</ele>
        <time>2023-04-30T05:46:37.000Z</time>
      </trkpt>
      <trkpt lat="47.8941" lon="6.92865">
        <ele>1007.2</ele>
        <time>2023-04-30T05:46:38.000Z</time>
      </trkpt>
      <trkpt lat="47.8941" lon="6.92863">
        <ele>1007.2</ele>
        <time>2023-04-30T05:46:39.000Z</time>
      </trkpt>
      <trkpt lat="47.89409" lon="6.92861">
        <ele>1007</ele>
        <time>2023-04-30T05:46:40.000Z</time>
      </trkpt>
      <trkpt lat="47.89409" lon="6.92859">
        <ele>1006.8</ele>
        <time>2023-04-30T05:46:41.000Z</time>
      </trkpt>
      <trkpt lat="47.89404" lon="6.92825">
        <ele>1003.8</ele>
        <time>2023-04-30T05:47:00.000Z</time>
      </trkpt>
      <trkpt lat="47.89406" lon="6.92795">
        <ele>1000.8</ele>
        <time>2023-04-30T05:47:16.000Z</time>
      </trkpt>
      <trkpt lat="47.89409" lon="6.92764">
        <ele>998</ele>
        <time>2023-04-30T05:47:33.000Z</time>
      </trkpt>
      <trkpt lat="47.89413" lon="6.92731">
        <ele>995.2</ele>
        <time>2023-04-30T05:47:51.000Z</time>
      </trkpt>
      <trkpt lat="47.89413" lon="6.92699">
        <ele>992</ele>
        <time>2023-04-30T05:48:09.000Z</time>
      </trkpt>
      <trkpt lat="47.89413" lon="6.9266">
        <ele>989.4</ele>
        <time>2023-04-30T05:48:30.000Z</time>
      </trkpt>
      <trkpt lat="47.89412" lon="6.92653">
        <ele>988.8</ele>
        <time>2023-04-30T05:48:34.000Z</time>
      </trkpt>
      <trkpt lat="47.89412" lon="6.92651">
        <ele>988.6</ele>
        <time>2023-04-30T05:48:35.000Z</time>
      </trkpt>
      <trkpt lat="47.89412" lon="6.92648">
        <ele>988.4</ele>
        <time>2023-04-30T05:48:36.000Z</time>
      </trkpt>
      <trkpt lat="47.8941" lon="6.9262">
        <ele>985.6</ele>
        <time>2023-04-30T05:48:51.000Z</time>
      </trkpt>
      <trkpt lat="47.89406" lon="6.92589">
        <ele>983.2</ele>
        <time>2023-04-30T05:49:08.000Z</time>
      </trkpt>
      <trkpt lat="47.89405" lon="6.92583">
        <ele>982.8</ele>
        <time>2023-04-30T05:49:11.000Z</time>
      </trkpt>
      <trkpt lat="47.89406" lon="6.92567">
        <ele>981</ele>
        <time>2023-04-30T05:49:23.000Z</time>
      </trkpt>
      <trkpt lat="47.89406" lon="6.92555">
        <ele>980.4</ele>
        <time>2023-04-30T05:49:28.000Z</time>
      </trkpt>
      <trkpt lat="47.89403" lon="6.9254">
        <ele>979.2</ele>
        <time>2023-04-30T05:49:37.000Z</time>
      </trkpt>
      <trkpt lat="47.89401" lon="6.92533">
        <ele>978.6</ele>
        <time>2023-04-30T05:49:41.000Z</time>
      </trkpt>
      <trkpt lat="47.89393" lon="6.92502">
        <ele>977.4</ele>
        <time>2023-04-30T05:49:56.000Z</time>
      </trkpt>
      <trkpt lat="47.89389" lon="6.92485">
        <ele>975.6</ele>
        <time>2023-04-30T05:50:07.000Z</time>
      </trkpt>
      <trkpt lat="47.89383" lon="6.9248">
        <ele>974.8</ele>
        <time>2023-04-30T05:50:11.000Z</time>
      </trkpt>
      <trkpt lat="47.89382" lon="6.92478">
        <ele>974.8</ele>
        <time>2023-04-30T05:50:12.000Z</time>
      </trkpt>
      <trkpt lat="47.89381" lon="6.92476">
        <ele>974.6</ele>
        <time>2023-04-30T05:50:13.000Z</time>
      </trkpt>
      <trkpt lat="47.8938" lon="6.92474">
        <ele>974.6</ele>
        <time>2023-04-30T05:50:14.000Z</time>
      </trkpt>
      <trkpt lat="47.89379" lon="6.92471">
        <ele>974.6</ele>
        <time>2023-04-30T05:50:15.000Z</time>
      </trkpt>
      <trkpt lat="47.89378" lon="6.92469">
        <ele>974.6</ele>
        <time>2023-04-30T05:50:16.000Z</time>
      </trkpt>
      <trkpt lat="47.89378" lon="6.92468">
        <ele>974.6</ele>
        <time>2023-04-30T05:50:17.000Z</time>
      </trkpt>
      <trkpt lat="47.89374" lon="6.92456">
        <ele>974.6</ele>
        <time>2023-04-30T05:50:23.000Z</time>
      </trkpt>
      <trkpt lat="47.89373" lon="6.92453">
        <ele>974.6</ele>
        <time>2023-04-30T05:50:25.000Z</time>
      </trkpt>
      <trkpt lat="47.89372" lon="6.92451">
        <ele>974.6</ele>
        <time>2023-04-30T05:50:26.000Z</time>
      </trkpt>
      <trkpt lat="47.89371" lon="6.92449">
        <ele>974.8</ele>
        <time>2023-04-30T05:50:27.000Z</time>
      </trkpt>
      <trkpt lat="47.89356" lon="6.92423">
        <ele>974.8</ele>
        <time>2023-04-30T05:50:44.000Z</time>
      </trkpt>
      <trkpt lat="47.89349" lon="6.92413">
        <ele>974.6</ele>
        <time>2023-04-30T05:50:50.000Z</time>
      </trkpt>
      <trkpt lat="47.89327" lon="6.92391">
        <ele>974.8</ele>
        <time>2023-04-30T05:51:09.000Z</time>
      </trkpt>
      <trkpt lat="47.89303" lon="6.92376">
        <ele>974.6</ele>
        <time>2023-04-30T05:51:27.000Z</time>
      </trkpt>
      <trkpt lat="47.8929" lon="6.92358">
        <ele>974</ele>
        <time>2023-04-30T05:51:41.000Z</time>
      </trkpt>
      <trkpt lat="47.8929" lon="6.92354">
        <ele>974</ele>
        <time>2023-04-30T05:51:43.000Z</time>
      </trkpt>
      <trkpt lat="47.8929" lon="6.92352">
        <ele>974</ele>
        <time>2023-04-30T05:51:44.000Z</time>
      </trkpt>
      <trkpt lat="47.8929" lon="6.9235">
        <ele>974</ele>
        <time>2023-04-30T05:51:45.000Z</time>
      </trkpt>
      <trkpt lat="47.8929" lon="6.92348">
        <ele>974</ele>
        <time>2023-04-30T05:51:46.000Z</time>
      </trkpt>
      <trkpt lat="47.89289" lon="6.92346">
        <ele>974</ele>
        <time>2023-04-30T05:51:47.000Z</time>
      </trkpt>
      <trkpt lat="47.89289" lon="6.92344">
        <ele>974</ele>
        <time>2023-04-30T05:51:48.000Z</time>
      </trkpt>
      <trkpt lat="47.89289" lon="6.92342">
        <ele>974</ele>
        <time>2023-04-30T05:51:49.000Z</time>
      </trkpt>
      <trkpt lat="47.89288" lon="6.9234">
        <ele>974</ele>
        <time>2023-04-30T05:51:50.000Z</time>
      </trkpt>
      <trkpt lat="47.89288" lon="6.92338">
        <ele>974</ele>
        <time>2023-04-30T05:51:51.000Z</time>
      </trkpt>
      <trkpt lat="47.89288" lon="6.92335">
        <ele>974</ele>
        <time>2023-04-30T05:51:52.000Z</time>
      </trkpt>
      <trkpt lat="47.89288" lon="6.92332">
        <ele>974</ele>
        <time>2023-04-30T05:51:53.000Z</time>
      </trkpt>
      <trkpt lat="47.89288" lon="6.9233">
        <ele>974</ele>
        <time>2023-04-30T05:51:54.000Z</time>
      </trkpt>
      <trkpt lat="47.89288" lon="6.92328">
        <ele>973.8</ele>
        <time>2023-04-30T05:51:55.000Z</time>
      </trkpt>
      <trkpt lat="47.89288" lon="6.9232">
        <ele>973.6</ele>
        <time>2023-04-30T05:51:59.000Z</time>
      </trkpt>
      <trkpt lat="47.89288" lon="6.92317">
        <ele>973.6</ele>
        <time>2023-04-30T05:52:00.000Z</time>
      </trkpt>
      <trkpt lat="47.89288" lon="6.92283">
        <ele>972.6</ele>
        <time>2023-04-30T05:52:17.000Z</time>
      </trkpt>
      <trkpt lat="47.8929" lon="6.92267">
        <ele>972.6</ele>
        <time>2023-04-30T05:52:28.000Z</time>
      </trkpt>
      <trkpt lat="47.89292" lon="6.92252">
        <ele>972.2</ele>
        <time>2023-04-30T05:52:39.000Z</time>
      </trkpt>
      <trkpt lat="47.89293" lon="6.92245">
        <ele>972</ele>
        <time>2023-04-30T05:52:43.000Z</time>
      </trkpt>
      <trkpt lat="47.89292" lon="6.92239">
        <ele>971.8</ele>
        <time>2023-04-30T05:52:47.000Z</time>
      </trkpt>
      <trkpt lat="47.89297" lon="6.92222">
        <ele>971.4</ele>
        <time>2023-04-30T05:52:57.000Z</time>
      </trkpt>
      <trkpt lat="47.89304" lon="6.92211">
        <ele>971.2</ele>
        <time>2023-04-30T05:53:03.000Z</time>
      </trkpt>
      <trkpt lat="47.89311" lon="6.92193">
        <ele>970.8</ele>
        <time>2023-04-30T05:53:13.000Z</time>
      </trkpt>
      <trkpt lat="47.89318" lon="6.92176">
        <ele>970.4</ele>
        <time>2023-04-30T05:53:21.000Z</time>
      </trkpt>
      <trkpt lat="47.89322" lon="6.92165">
        <ele>970</ele>
        <time>2023-04-30T05:53:27.000Z</time>
      </trkpt>
      <trkpt lat="47.89326" lon="6.92153">
        <ele>969.8</ele>
        <time>2023-04-30T05:53:36.000Z</time>
      </trkpt>
      <trkpt lat="47.89328" lon="6.92143">
        <ele>969.4</ele>
        <time>2023-04-30T05:53:43.000Z</time>
      </trkpt>
      <trkpt lat="47.89333" lon="6.92124">
        <ele>968.8</ele>
        <time>2023-04-30T05:53:53.000Z</time>
      </trkpt>
      <trkpt lat="47.89335" lon="6.92116">
        <ele>968.8</ele>
        <time>2023-04-30T05:53:58.000Z</time>
      </trkpt>
      <trkpt lat="47.89343" lon="6.92099">
        <ele>968.2</ele>
        <time>2023-04-30T05:54:09.000Z</time>
      </trkpt>
      <trkpt lat="47.89351" lon="6.92088">
        <ele>968</ele>
        <time>2023-04-30T05:54:17.000Z</time>
      </trkpt>
      <trkpt lat="47.89362" lon="6.9207">
        <ele>967.8</ele>
        <time>2023-04-30T05:54:29.000Z</time>
      </trkpt>
      <trkpt lat="47.89364" lon="6.92064">
        <ele>967.6</ele>
        <time>2023-04-30T05:54:34.000Z</time>
      </trkpt>
      <trkpt lat="47.89371" lon="6.92044">
        <ele>967.2</ele>
        <time>2023-04-30T05:54:50.000Z</time>
      </trkpt>
      <trkpt lat="47.89383" lon="6.92013">
        <ele>966.6</ele>
        <time>2023-04-30T05:55:07.000Z</time>
      </trkpt>
      <trkpt lat="47.89387" lon="6.91981">
        <ele>966.2</ele>
        <time>2023-04-30T05:55:20.000Z</time>
      </trkpt>
      <trkpt lat="47.89387" lon="6.91962">
        <ele>965.8</ele>
        <time>2023-04-30T05:55:27.000Z</time>
      </trkpt>
      <trkpt lat="47.89387" lon="6.91951">
        <ele>965.6</ele>
        <time>2023-04-30T05:55:31.000Z</time>
      </trkpt>
      <trkpt lat="47.89387" lon="6.91937">
        <ele>965.4</ele>
        <time>2023-04-30T05:55:37.000Z</time>
      </trkpt>
      <trkpt lat="47.89388" lon="6.91932">
        <ele>965.2</ele>
        <time>2023-04-30T05:55:39.000Z</time>
      </trkpt>
      <trkpt lat="47.89388" lon="6.91926">
        <ele>965</ele>
        <time>2023-04-30T05:55:42.000Z</time>
      </trkpt>
      <trkpt lat="47.89387" lon="6.91925">
        <ele>965</ele>
        <time>2023-04-30T05:55:43.000Z</time>
      </trkpt>
      <trkpt lat="47.89387" lon="6.91921">
        <ele>964.8</ele>
        <time>2023-04-30T05:55:45.000Z</time>
      </trkpt>
      <trkpt lat="47.89386" lon="6.91915">
        <ele>964.6</ele>
        <time>2023-04-30T05:55:48.000Z</time>
      </trkpt>
      <trkpt lat="47.89386" lon="6.91913">
        <ele>964.6</ele>
        <time>2023-04-30T05:55:49.000Z</time>
      </trkpt>
      <trkpt lat="47.89387" lon="6.91893">
        <ele>964.4</ele>
        <time>2023-04-30T05:55:59.000Z</time>
      </trkpt>
      <trkpt lat="47.89388" lon="6.91889">
        <ele>964.4</ele>
        <time>2023-04-30T05:56:01.000Z</time>
      </trkpt>
      <trkpt lat="47.89389" lon="6.91886">
        <ele>964.4</ele>
        <time>2023-04-30T05:56:02.000Z</time>
      </trkpt>
      <trkpt lat="47.89389" lon="6.91885">
        <ele>964.4</ele>
        <time>2023-04-30T05:56:03.000Z</time>
      </trkpt>
      <trkpt lat="47.89389" lon="6.91883">
        <ele>964.4</ele>
        <time>2023-04-30T05:56:04.000Z</time>
      </trkpt>
      <trkpt lat="47.89389" lon="6.9188">
        <ele>964.2</ele>
        <time>2023-04-30T05:56:06.000Z</time>
      </trkpt>
      <trkpt lat="47.89392" lon="6.91861">
        <ele>964.2</ele>
        <time>2023-04-30T05:56:18.000Z</time>
      </trkpt>
      <trkpt lat="47.89395" lon="6.91851">
        <ele>964.2</ele>
        <time>2023-04-30T05:56:23.000Z</time>
      </trkpt>
      <trkpt lat="47.89402" lon="6.91835">
        <ele>964.2</ele>
        <time>2023-04-30T05:56:32.000Z</time>
      </trkpt>
      <trkpt lat="47.89405" lon="6.91826">
        <ele>963.8</ele>
        <time>2023-04-30T05:56:36.000Z</time>
      </trkpt>
      <trkpt lat="47.89408" lon="6.91815">
        <ele>962.4</ele>
        <time>2023-04-30T05:56:42.000Z</time>
      </trkpt>
      <trkpt lat="47.8941" lon="6.91805">
        <ele>961</ele>
        <time>2023-04-30T05:56:48.000Z</time>
      </trkpt>
      <trkpt lat="47.89414" lon="6.91788">
        <ele>959</ele>
        <time>2023-04-30T05:56:59.000Z</time>
      </trkpt>
      <trkpt lat="47.89415" lon="6.91787">
        <ele>958.8</ele>
        <time>2023-04-30T05:57:00.000Z</time>
      </trkpt>
      <trkpt lat="47.89418" lon="6.91772">
        <ele>957.4</ele>
        <time>2023-04-30T05:57:09.000Z</time>
      </trkpt>
      <trkpt lat="47.8942" lon="6.9177">
        <ele>957</ele>
        <time>2023-04-30T05:57:11.000Z</time>
      </trkpt>
      <trkpt lat="47.89426" lon="6.91757">
        <ele>956</ele>
        <time>2023-04-30T05:57:17.000Z</time>
      </trkpt>
      <trkpt lat="47.89428" lon="6.91752">
        <ele>955.4</ele>
        <time>2023-04-30T05:57:19.000Z</time>
      </trkpt>
      <trkpt lat="47.89406" lon="6.9173">
        <ele>952</ele>
        <time>2023-04-30T05:57:37.000Z</time>
      </trkpt>
      <trkpt lat="47.89398" lon="6.91727">
        <ele>951</ele>
        <time>2023-04-30T05:57:42.000Z</time>
      </trkpt>
      <trkpt lat="47.89396" lon="6.91727">
        <ele>951</ele>
        <time>2023-04-30T05:57:43.000Z</time>
      </trkpt>
      <trkpt lat="47.89388" lon="6.91729">
        <ele>949.8</ele>
        <time>2023-04-30T05:57:49.000Z</time>
      </trkpt>
      <trkpt lat="47.89383" lon="6.91731">
        <ele>946.8</ele>
        <time>2023-04-30T05:58:02.000Z</time>
      </trkpt>
      <trkpt lat="47.89372" lon="6.91738">
        <ele>945</ele>
        <time>2023-04-30T05:58:10.000Z</time>
      </trkpt>
      <trkpt lat="47.89371" lon="6.91739">
        <ele>944.8</ele>
        <time>2023-04-30T05:58:11.000Z</time>
      </trkpt>
      <trkpt lat="47.89365" lon="6.91743">
        <ele>943.8</ele>
        <time>2023-04-30T05:58:15.000Z</time>
      </trkpt>
      <trkpt lat="47.8935" lon="6.9176">
        <ele>940.6</ele>
        <time>2023-04-30T05:58:25.000Z</time>
      </trkpt>
      <trkpt lat="47.89351" lon="6.91778">
        <ele>938.2</ele>
        <time>2023-04-30T05:58:38.000Z</time>
      </trkpt>
      <trkpt lat="47.89351" lon="6.91784">
        <ele>938</ele>
        <time>2023-04-30T05:58:42.000Z</time>
      </trkpt>
      <trkpt lat="47.89349" lon="6.91791">
        <ele>937.8</ele>
        <time>2023-04-30T05:58:47.000Z</time>
      </trkpt>
      <trkpt lat="47.89348" lon="6.91795">
        <ele>937.8</ele>
        <time>2023-04-30T05:58:49.000Z</time>
      </trkpt>
      <trkpt lat="47.89344" lon="6.91811">
        <ele>937.6</ele>
        <time>2023-04-30T05:58:58.000Z</time>
      </trkpt>
      <trkpt lat="47.8934" lon="6.9182">
        <ele>937</ele>
        <time>2023-04-30T05:59:05.000Z</time>
      </trkpt>
      <trkpt lat="47.89339" lon="6.91821">
        <ele>936.8</ele>
        <time>2023-04-30T05:59:06.000Z</time>
      </trkpt>
      <trkpt lat="47.89338" lon="6.91823">
        <ele>936.8</ele>
        <time>2023-04-30T05:59:07.000Z</time>
      </trkpt>
      <trkpt lat="47.89337" lon="6.91825">
        <ele>936.6</ele>
        <time>2023-04-30T05:59:08.000Z</time>
      </trkpt>
      <trkpt lat="47.89336" lon="6.91826">
        <ele>936.6</ele>
        <time>2023-04-30T05:59:09.000Z</time>
      </trkpt>
      <trkpt lat="47.89334" lon="6.91837">
        <ele>935.8</ele>
        <time>2023-04-30T05:59:19.000Z</time>
      </trkpt>
      <trkpt lat="47.89334" lon="6.91841">
        <ele>935</ele>
        <time>2023-04-30T05:59:22.000Z</time>
      </trkpt>
      <trkpt lat="47.89324" lon="6.91867">
        <ele>933.6</ele>
        <time>2023-04-30T05:59:37.000Z</time>
      </trkpt>
      <trkpt lat="47.89322" lon="6.9189">
        <ele>931.2</ele>
        <time>2023-04-30T05:59:48.000Z</time>
      </trkpt>
      <trkpt lat="47.89319" lon="6.91897">
        <ele>930.6</ele>
        <time>2023-04-30T05:59:51.000Z</time>
      </trkpt>
      <trkpt lat="47.89318" lon="6.91899">
        <ele>930.4</ele>
        <time>2023-04-30T05:59:52.000Z</time>
      </trkpt>
      <trkpt lat="47.89316" lon="6.91908">
        <ele>928.6</ele>
        <time>2023-04-30T05:59:58.000Z</time>
      </trkpt>
      <trkpt lat="47.89315" lon="6.91917">
        <ele>927</ele>
        <time>2023-04-30T06:00:04.000Z</time>
      </trkpt>
      <trkpt lat="47.89312" lon="6.91929">
        <ele>924.8</ele>
        <time>2023-04-30T06:00:13.000Z</time>
      </trkpt>
      <trkpt lat="47.8931" lon="6.91945">
        <ele>923.2</ele>
        <time>2023-04-30T06:00:23.000Z</time>
      </trkpt>
      <trkpt lat="47.8931" lon="6.91949">
        <ele>922.8</ele>
        <time>2023-04-30T06:00:25.000Z</time>
      </trkpt>
      <trkpt lat="47.89305" lon="6.91969">
        <ele>918.6</ele>
        <time>2023-04-30T06:00:39.000Z</time>
      </trkpt>
      <trkpt lat="47.893" lon="6.91976">
        <ele>915.6</ele>
        <time>2023-04-30T06:00:51.000Z</time>
      </trkpt>
      <trkpt lat="47.89301" lon="6.91974">
        <ele>915.2</ele>
        <time>2023-04-30T06:00:53.000Z</time>
      </trkpt>
      <trkpt lat="47.89302" lon="6.91964">
        <ele>914.2</ele>
        <time>2023-04-30T06:01:07.000Z</time>
      </trkpt>
      <trkpt lat="47.893" lon="6.91966">
        <ele>911.8</ele>
        <time>2023-04-30T06:01:21.000Z</time>
      </trkpt>
      <trkpt lat="47.89302" lon="6.91958">
        <ele>909.8</ele>
        <time>2023-04-30T06:01:42.000Z</time>
      </trkpt>
      <trkpt lat="47.89294" lon="6.91963">
        <ele>906.8</ele>
        <time>2023-04-30T06:01:55.000Z</time>
      </trkpt>
      <trkpt lat="47.89284" lon="6.91974">
        <ele>904</ele>
        <time>2023-04-30T06:02:12.000Z</time>
      </trkpt>
      <trkpt lat="47.89283" lon="6.91975">
        <ele>903.6</ele>
        <time>2023-04-30T06:02:13.000Z</time>
      </trkpt>
      <trkpt lat="47.89277" lon="6.91988">
        <ele>900.6</ele>
        <time>2023-04-30T06:02:24.000Z</time>
      </trkpt>
      <trkpt lat="47.89273" lon="6.91982">
        <ele>897.4</ele>
        <time>2023-04-30T06:02:38.000Z</time>
      </trkpt>
      <trkpt lat="47.89274" lon="6.91974">
        <ele>896</ele>
        <time>2023-04-30T06:02:44.000Z</time>
      </trkpt>
      <trkpt lat="47.89273" lon="6.91962">
        <ele>894.2</ele>
        <time>2023-04-30T06:02:54.000Z</time>
      </trkpt>
      <trkpt lat="47.89271" lon="6.91952">
        <ele>891.2</ele>
        <time>2023-04-30T06:03:05.000Z</time>
      </trkpt>
      <trkpt lat="47.8927" lon="6.91944">
        <ele>889.8</ele>
        <time>2023-04-30T06:03:12.000Z</time>
      </trkpt>
      <trkpt lat="47.89262" lon="6.91945">
        <ele>887.6</ele>
        <time>2023-04-30T06:03:22.000Z</time>
      </trkpt>
      <trkpt lat="47.89255" lon="6.91954">
        <ele>885.4</ele>
        <time>2023-04-30T06:03:34.000Z</time>
      </trkpt>
      <trkpt lat="47.89254" lon="6.91968">
        <ele>885</ele>
        <time>2023-04-30T06:03:49.000Z</time>
      </trkpt>
      <trkpt lat="47.8925" lon="6.91978">
        <ele>883.4</ele>
        <time>2023-04-30T06:03:59.000Z</time>
      </trkpt>
      <trkpt lat="47.89249" lon="6.9198">
        <ele>883</ele>
        <time>2023-04-30T06:04:00.000Z</time>
      </trkpt>
      <trkpt lat="47.89245" lon="6.91985">
        <ele>881.6</ele>
        <time>2023-04-30T06:04:05.000Z</time>
      </trkpt>
      <trkpt lat="47.89242" lon="6.91992">
        <ele>879.2</ele>
        <time>2023-04-30T06:04:18.000Z</time>
      </trkpt>
      <trkpt lat="47.89241" lon="6.91985">
        <ele>876.4</ele>
        <time>2023-04-30T06:04:38.000Z</time>
      </trkpt>
      <trkpt lat="47.89234" lon="6.91989">
        <ele>873.4</ele>
        <time>2023-04-30T06:04:54.000Z</time>
      </trkpt>
      <trkpt lat="47.89227" lon="6.91994">
        <ele>870.2</ele>
        <time>2023-04-30T06:05:05.000Z</time>
      </trkpt>
      <trkpt lat="47.89219" lon="6.91998">
        <ele>867.2</ele>
        <time>2023-04-30T06:05:25.000Z</time>
      </trkpt>
      <trkpt lat="47.89215" lon="6.92007">
        <ele>864.6</ele>
        <time>2023-04-30T06:05:39.000Z</time>
      </trkpt>
      <trkpt lat="47.89218" lon="6.92011">
        <ele>862.4</ele>
        <time>2023-04-30T06:06:01.000Z</time>
      </trkpt>
      <trkpt lat="47.89208" lon="6.92018">
        <ele>859.4</ele>
        <time>2023-04-30T06:06:14.000Z</time>
      </trkpt>
      <trkpt lat="47.89204" lon="6.92023">
        <ele>856.2</ele>
        <time>2023-04-30T06:06:29.000Z</time>
      </trkpt>
      <trkpt lat="47.89199" lon="6.92019">
        <ele>853</ele>
        <time>2023-04-30T06:06:44.000Z</time>
      </trkpt>
      <trkpt lat="47.89186" lon="6.92022">
        <ele>850.2</ele>
        <time>2023-04-30T06:07:05.000Z</time>
      </trkpt>
      <trkpt lat="47.89179" lon="6.92034">
        <ele>849.6</ele>
        <time>2023-04-30T06:07:15.000Z</time>
      </trkpt>
      <trkpt lat="47.89176" lon="6.92047">
        <ele>849</ele>
        <time>2023-04-30T06:07:24.000Z</time>
      </trkpt>
      <trkpt lat="47.89168" lon="6.92062">
        <ele>846.6</ele>
        <time>2023-04-30T06:07:37.000Z</time>
      </trkpt>
      <trkpt lat="47.89162" lon="6.92072">
        <ele>844</ele>
        <time>2023-04-30T06:07:49.000Z</time>
      </trkpt>
      <trkpt lat="47.89155" lon="6.9208">
        <ele>840.8</ele>
        <time>2023-04-30T06:08:01.000Z</time>
      </trkpt>
      <trkpt lat="47.89149" lon="6.9209">
        <ele>837.6</ele>
        <time>2023-04-30T06:08:14.000Z</time>
      </trkpt>
      <trkpt lat="47.89146" lon="6.92096">
        <ele>835.8</ele>
        <time>2023-04-30T06:08:22.000Z</time>
      </trkpt>
      <trkpt lat="47.8914" lon="6.92099">
        <ele>834</ele>
        <time>2023-04-30T06:08:36.000Z</time>
      </trkpt>
      <trkpt lat="47.89128" lon="6.92112">
        <ele>831</ele>
        <time>2023-04-30T06:08:52.000Z</time>
      </trkpt>
      <trkpt lat="47.89118" lon="6.92124">
        <ele>828.4</ele>
        <time>2023-04-30T06:09:05.000Z</time>
      </trkpt>
      <trkpt lat="47.89117" lon="6.92125">
        <ele>828.2</ele>
        <time>2023-04-30T06:09:06.000Z</time>
      </trkpt>
      <trkpt lat="47.89111" lon="6.92138">
        <ele>826.2</ele>
        <time>2023-04-30T06:09:17.000Z</time>
      </trkpt>
      <trkpt lat="47.891" lon="6.9215">
        <ele>823.2</ele>
        <time>2023-04-30T06:09:31.000Z</time>
      </trkpt>
      <trkpt lat="47.89085" lon="6.92162">
        <ele>820.2</ele>
        <time>2023-04-30T06:09:47.000Z</time>
      </trkpt>
      <trkpt lat="47.89073" lon="6.92175">
        <ele>817</ele>
        <time>2023-04-30T06:10:00.000Z</time>
      </trkpt>
      <trkpt lat="47.89062" lon="6.92191">
        <ele>813.8</ele>
        <time>2023-04-30T06:10:15.000Z</time>
      </trkpt>
      <trkpt lat="47.89054" lon="6.922">
        <ele>810.6</ele>
        <time>2023-04-30T06:10:28.000Z</time>
      </trkpt>
      <trkpt lat="47.89045" lon="6.92207">
        <ele>807.6</ele>
        <time>2023-04-30T06:10:40.000Z</time>
      </trkpt>
      <trkpt lat="47.89045" lon="6.92197">
        <ele>805.8</ele>
        <time>2023-04-30T06:10:57.000Z</time>
      </trkpt>
      <trkpt lat="47.89056" lon="6.92178">
        <ele>803.4</ele>
        <time>2023-04-30T06:11:13.000Z</time>
      </trkpt>
      <trkpt lat="47.89059" lon="6.92174">
        <ele>803</ele>
        <time>2023-04-30T06:11:18.000Z</time>
      </trkpt>
      <trkpt lat="47.8906" lon="6.92173">
        <ele>803</ele>
        <time>2023-04-30T06:11:19.000Z</time>
      </trkpt>
      <trkpt lat="47.89063" lon="6.92158">
        <ele>801.4</ele>
        <time>2023-04-30T06:11:29.000Z</time>
      </trkpt>
      <trkpt lat="47.89067" lon="6.9214">
        <ele>800.6</ele>
        <time>2023-04-30T06:11:43.000Z</time>
      </trkpt>
      <trkpt lat="47.89069" lon="6.9213">
        <ele>800</ele>
        <time>2023-04-30T06:11:47.000Z</time>
      </trkpt>
      <trkpt lat="47.89069" lon="6.92128">
        <ele>799.6</ele>
        <time>2023-04-30T06:11:48.000Z</time>
      </trkpt>
      <trkpt lat="47.8907" lon="6.92127">
        <ele>799.6</ele>
        <time>2023-04-30T06:11:49.000Z</time>
      </trkpt>
      <trkpt lat="47.89071" lon="6.92125">
        <ele>799.4</ele>
        <time>2023-04-30T06:11:50.000Z</time>
      </trkpt>
      <trkpt lat="47.89072" lon="6.92122">
        <ele>799.4</ele>
        <time>2023-04-30T06:11:51.000Z</time>
      </trkpt>
      <trkpt lat="47.89073" lon="6.92121">
        <ele>799.2</ele>
        <time>2023-04-30T06:11:52.000Z</time>
      </trkpt>
      <trkpt lat="47.89073" lon="6.92119">
        <ele>799</ele>
        <time>2023-04-30T06:11:53.000Z</time>
      </trkpt>
      <trkpt lat="47.89074" lon="6.92118">
        <ele>799</ele>
        <time>2023-04-30T06:11:54.000Z</time>
      </trkpt>
      <trkpt lat="47.89074" lon="6.92116">
        <ele>798.8</ele>
        <time>2023-04-30T06:11:55.000Z</time>
      </trkpt>
      <trkpt lat="47.89075" lon="6.92115">
        <ele>798.6</ele>
        <time>2023-04-30T06:11:56.000Z</time>
      </trkpt>
      <trkpt lat="47.89077" lon="6.92114">
        <ele>798.6</ele>
        <time>2023-04-30T06:11:57.000Z</time>
      </trkpt>
      <trkpt lat="47.89078" lon="6.92112">
        <ele>798.4</ele>
        <time>2023-04-30T06:11:58.000Z</time>
      </trkpt>
      <trkpt lat="47.89078" lon="6.9211">
        <ele>798.2</ele>
        <time>2023-04-30T06:11:59.000Z</time>
      </trkpt>
      <trkpt lat="47.89082" lon="6.92108">
        <ele>797.8</ele>
        <time>2023-04-30T06:12:02.000Z</time>
      </trkpt>
      <trkpt lat="47.89083" lon="6.92106">
        <ele>797.6</ele>
        <time>2023-04-30T06:12:03.000Z</time>
      </trkpt>
      <trkpt lat="47.89084" lon="6.92104">
        <ele>797.4</ele>
        <time>2023-04-30T06:12:04.000Z</time>
      </trkpt>
      <trkpt lat="47.89085" lon="6.92102">
        <ele>797.2</ele>
        <time>2023-04-30T06:12:05.000Z</time>
      </trkpt>
      <trkpt lat="47.89085" lon="6.921">
        <ele>797.2</ele>
        <time>2023-04-30T06:12:06.000Z</time>
      </trkpt>
      <trkpt lat="47.89086" lon="6.92098">
        <ele>797</ele>
        <time>2023-04-30T06:12:07.000Z</time>
      </trkpt>
      <trkpt lat="47.89087" lon="6.92094">
        <ele>796.6</ele>
        <time>2023-04-30T06:12:09.000Z</time>
      </trkpt>
      <trkpt lat="47.89091" lon="6.92081">
        <ele>795.6</ele>
        <time>2023-04-30T06:12:16.000Z</time>
      </trkpt>
      <trkpt lat="47.89095" lon="6.9207">
        <ele>794.8</ele>
        <time>2023-04-30T06:12:23.000Z</time>
      </trkpt>
      <trkpt lat="47.89096" lon="6.9205">
        <ele>793</ele>
        <time>2023-04-30T06:12:35.000Z</time>
      </trkpt>
      <trkpt lat="47.89097" lon="6.91993">
        <ele>790</ele>
        <time>2023-04-30T06:13:01.000Z</time>
      </trkpt>
      <trkpt lat="47.89093" lon="6.91982">
        <ele>789.4</ele>
        <time>2023-04-30T06:13:05.000Z</time>
      </trkpt>
      <trkpt lat="47.89092" lon="6.91979">
        <ele>789</ele>
        <time>2023-04-30T06:13:07.000Z</time>
      </trkpt>
      <trkpt lat="47.89092" lon="6.91977">
        <ele>788.8</ele>
        <time>2023-04-30T06:13:08.000Z</time>
      </trkpt>
      <trkpt lat="47.89091" lon="6.91974">
        <ele>788.6</ele>
        <time>2023-04-30T06:13:10.000Z</time>
      </trkpt>
      <trkpt lat="47.89088" lon="6.91963">
        <ele>787.8</ele>
        <time>2023-04-30T06:13:17.000Z</time>
      </trkpt>
      <trkpt lat="47.89087" lon="6.91952">
        <ele>787</ele>
        <time>2023-04-30T06:13:23.000Z</time>
      </trkpt>
      <trkpt lat="47.89086" lon="6.9195">
        <ele>787</ele>
        <time>2023-04-30T06:13:24.000Z</time>
      </trkpt>
      <trkpt lat="47.89086" lon="6.91948">
        <ele>786.8</ele>
        <time>2023-04-30T06:13:25.000Z</time>
      </trkpt>
      <trkpt lat="47.89085" lon="6.91946">
        <ele>786.8</ele>
        <time>2023-04-30T06:13:26.000Z</time>
      </trkpt>
      <trkpt lat="47.89085" lon="6.91944">
        <ele>786.8</ele>
        <time>2023-04-30T06:13:27.000Z</time>
      </trkpt>
      <trkpt lat="47.89084" lon="6.91942">
        <ele>786.6</ele>
        <time>2023-04-30T06:13:28.000Z</time>
      </trkpt>
      <trkpt lat="47.89084" lon="6.91941">
        <ele>786.6</ele>
        <time>2023-04-30T06:13:29.000Z</time>
      </trkpt>
      <trkpt lat="47.89083" lon="6.91939">
        <ele>786.4</ele>
        <time>2023-04-30T06:13:30.000Z</time>
      </trkpt>
      <trkpt lat="47.89082" lon="6.91937">
        <ele>786.2</ele>
        <time>2023-04-30T06:13:31.000Z</time>
      </trkpt>
      <trkpt lat="47.8908" lon="6.91935">
        <ele>786.2</ele>
        <time>2023-04-30T06:13:33.000Z</time>
      </trkpt>
      <trkpt lat="47.89079" lon="6.91934">
        <ele>786</ele>
        <time>2023-04-30T06:13:34.000Z</time>
      </trkpt>
      <trkpt lat="47.89079" lon="6.91932">
        <ele>786</ele>
        <time>2023-04-30T06:13:35.000Z</time>
      </trkpt>
      <trkpt lat="47.89077" lon="6.9193">
        <ele>785.6</ele>
        <time>2023-04-30T06:13:37.000Z</time>
      </trkpt>
      <trkpt lat="47.89071" lon="6.91921">
        <ele>785.2</ele>
        <time>2023-04-30T06:13:44.000Z</time>
      </trkpt>
      <trkpt lat="47.89063" lon="6.91908">
        <ele>784.4</ele>
        <time>2023-04-30T06:13:52.000Z</time>
      </trkpt>
      <trkpt lat="47.89062" lon="6.91906">
        <ele>784.2</ele>
        <time>2023-04-30T06:13:53.000Z</time>
      </trkpt>
      <trkpt lat="47.89059" lon="6.91901">
        <ele>784</ele>
        <time>2023-04-30T06:13:56.000Z</time>
      </trkpt>
      <trkpt lat="47.89059" lon="6.919">
        <ele>784</ele>
        <time>2023-04-30T06:13:57.000Z</time>
      </trkpt>
      <trkpt lat="47.89057" lon="6.91896">
        <ele>783.8</ele>
        <time>2023-04-30T06:13:59.000Z</time>
      </trkpt>
      <trkpt lat="47.89056" lon="6.91893">
        <ele>783.8</ele>
        <time>2023-04-30T06:14:01.000Z</time>
      </trkpt>
      <trkpt lat="47.89056" lon="6.9189">
        <ele>783.6</ele>
        <time>2023-04-30T06:14:02.000Z</time>
      </trkpt>
      <trkpt lat="47.89056" lon="6.91888">
        <ele>783.6</ele>
        <time>2023-04-30T06:14:03.000Z</time>
      </trkpt>
      <trkpt lat="47.89055" lon="6.91885">
        <ele>783.4</ele>
        <time>2023-04-30T06:14:04.000Z</time>
      </trkpt>
      <trkpt lat="47.89054" lon="6.91883">
        <ele>783.2</ele>
        <time>2023-04-30T06:14:05.000Z</time>
      </trkpt>
      <trkpt lat="47.89054" lon="6.91882">
        <ele>783.2</ele>
        <time>2023-04-30T06:14:06.000Z</time>
      </trkpt>
      <trkpt lat="47.89052" lon="6.91876">
        <ele>783</ele>
        <time>2023-04-30T06:14:09.000Z</time>
      </trkpt>
      <trkpt lat="47.89052" lon="6.91874">
        <ele>783</ele>
        <time>2023-04-30T06:14:10.000Z</time>
      </trkpt>
      <trkpt lat="47.89051" lon="6.91872">
        <ele>782.8</ele>
        <time>2023-04-30T06:14:11.000Z</time>
      </trkpt>
      <trkpt lat="47.89051" lon="6.9187">
        <ele>782.8</ele>
        <time>2023-04-30T06:14:12.000Z</time>
      </trkpt>
      <trkpt lat="47.8905" lon="6.91869">
        <ele>782.6</ele>
        <time>2023-04-30T06:14:13.000Z</time>
      </trkpt>
      <trkpt lat="47.89047" lon="6.91865">
        <ele>782.2</ele>
        <time>2023-04-30T06:14:16.000Z</time>
      </trkpt>
      <trkpt lat="47.89042" lon="6.91858">
        <ele>781.8</ele>
        <time>2023-04-30T06:14:21.000Z</time>
      </trkpt>
      <trkpt lat="47.8904" lon="6.91854">
        <ele>781.6</ele>
        <time>2023-04-30T06:14:24.000Z</time>
      </trkpt>
      <trkpt lat="47.89039" lon="6.91853">
        <ele>781.6</ele>
        <time>2023-04-30T06:14:25.000Z</time>
      </trkpt>
      <trkpt lat="47.89039" lon="6.91851">
        <ele>781.4</ele>
        <time>2023-04-30T06:14:26.000Z</time>
      </trkpt>
      <trkpt lat="47.89038" lon="6.9185">
        <ele>781.2</ele>
        <time>2023-04-30T06:14:27.000Z</time>
      </trkpt>
      <trkpt lat="47.89036" lon="6.91846">
        <ele>781</ele>
        <time>2023-04-30T06:14:29.000Z</time>
      </trkpt>
      <trkpt lat="47.89035" lon="6.91845">
        <ele>781</ele>
        <time>2023-04-30T06:14:30.000Z</time>
      </trkpt>
      <trkpt lat="47.89034" lon="6.91843">
        <ele>781</ele>
        <time>2023-04-30T06:14:31.000Z</time>
      </trkpt>
      <trkpt lat="47.89033" lon="6.91841">
        <ele>781</ele>
        <time>2023-04-30T06:14:32.000Z</time>
      </trkpt>
      <trkpt lat="47.89033" lon="6.91839">
        <ele>781</ele>
        <time>2023-04-30T06:14:33.000Z</time>
      </trkpt>
      <trkpt lat="47.89027" lon="6.91826">
        <ele>780.6</ele>
        <time>2023-04-30T06:14:40.000Z</time>
      </trkpt>
      <trkpt lat="47.89026" lon="6.9182">
        <ele>780.6</ele>
        <time>2023-04-30T06:14:43.000Z</time>
      </trkpt>
      <trkpt lat="47.89023" lon="6.91812">
        <ele>780.4</ele>
        <time>2023-04-30T06:14:49.000Z</time>
      </trkpt>
      <trkpt lat="47.89022" lon="6.9181">
        <ele>780.4</ele>
        <time>2023-04-30T06:14:50.000Z</time>
      </trkpt>
      <trkpt lat="47.89021" lon="6.91809">
        <ele>780.4</ele>
        <time>2023-04-30T06:14:51.000Z</time>
      </trkpt>
      <trkpt lat="47.89017" lon="6.91792">
        <ele>780.2</ele>
        <time>2023-04-30T06:15:02.000Z</time>
      </trkpt>
      <trkpt lat="47.89017" lon="6.91786">
        <ele>780.4</ele>
        <time>2023-04-30T06:15:05.000Z</time>
      </trkpt>
      <trkpt lat="47.89016" lon="6.91785">
        <ele>780.4</ele>
        <time>2023-04-30T06:15:06.000Z</time>
      </trkpt>
      <trkpt lat="47.89008" lon="6.91752">
        <ele>780.6</ele>
        <time>2023-04-30T06:15:22.000Z</time>
      </trkpt>
      <trkpt lat="47.89007" lon="6.91733">
        <ele>780.8</ele>
        <time>2023-04-30T06:15:32.000Z</time>
      </trkpt>
      <trkpt lat="47.89001" lon="6.91703">
        <ele>781</ele>
        <time>2023-04-30T06:15:48.000Z</time>
      </trkpt>
      <trkpt lat="47.89" lon="6.91688">
        <ele>780.4</ele>
        <time>2023-04-30T06:15:56.000Z</time>
      </trkpt>
      <trkpt lat="47.89001" lon="6.91686">
        <ele>780.4</ele>
        <time>2023-04-30T06:15:57.000Z</time>
      </trkpt>
      <trkpt lat="47.89002" lon="6.91683">
        <ele>780</ele>
        <time>2023-04-30T06:15:59.000Z</time>
      </trkpt>
      <trkpt lat="47.89003" lon="6.91678">
        <ele>779.8</ele>
        <time>2023-04-30T06:16:02.000Z</time>
      </trkpt>
      <trkpt lat="47.89003" lon="6.91676">
        <ele>779.6</ele>
        <time>2023-04-30T06:16:03.000Z</time>
      </trkpt>
      <trkpt lat="47.89006" lon="6.9167">
        <ele>778.8</ele>
        <time>2023-04-30T06:16:07.000Z</time>
      </trkpt>
      <trkpt lat="47.89007" lon="6.91668">
        <ele>778.8</ele>
        <time>2023-04-30T06:16:08.000Z</time>
      </trkpt>
      <trkpt lat="47.89007" lon="6.91666">
        <ele>778.6</ele>
        <time>2023-04-30T06:16:09.000Z</time>
      </trkpt>
      <trkpt lat="47.89007" lon="6.91665">
        <ele>778.6</ele>
        <time>2023-04-30T06:16:10.000Z</time>
      </trkpt>
      <trkpt lat="47.8901" lon="6.91649">
        <ele>777.4</ele>
        <time>2023-04-30T06:16:19.000Z</time>
      </trkpt>
      <trkpt lat="47.89012" lon="6.91646">
        <ele>777.2</ele>
        <time>2023-04-30T06:16:21.000Z</time>
      </trkpt>
      <trkpt lat="47.89012" lon="6.91644">
        <ele>777.2</ele>
        <time>2023-04-30T06:16:22.000Z</time>
      </trkpt>
      <trkpt lat="47.89012" lon="6.91641">
        <ele>777</ele>
        <time>2023-04-30T06:16:23.000Z</time>
      </trkpt>
      <trkpt lat="47.89012" lon="6.91639">
        <ele>777</ele>
        <time>2023-04-30T06:16:24.000Z</time>
      </trkpt>
      <trkpt lat="47.89012" lon="6.91637">
        <ele>776.8</ele>
        <time>2023-04-30T06:16:25.000Z</time>
      </trkpt>
      <trkpt lat="47.89012" lon="6.91635">
        <ele>776.6</ele>
        <time>2023-04-30T06:16:26.000Z</time>
      </trkpt>
      <trkpt lat="47.89013" lon="6.91633">
        <ele>776.4</ele>
        <time>2023-04-30T06:16:27.000Z</time>
      </trkpt>
      <trkpt lat="47.89013" lon="6.91631">
        <ele>776.2</ele>
        <time>2023-04-30T06:16:28.000Z</time>
      </trkpt>
      <trkpt lat="47.89015" lon="6.91623">
        <ele>775.8</ele>
        <time>2023-04-30T06:16:32.000Z</time>
      </trkpt>
      <trkpt lat="47.89016" lon="6.91621">
        <ele>775.6</ele>
        <time>2023-04-30T06:16:33.000Z</time>
      </trkpt>
      <trkpt lat="47.89017" lon="6.91619">
        <ele>775.6</ele>
        <time>2023-04-30T06:16:34.000Z</time>
      </trkpt>
      <trkpt lat="47.89018" lon="6.91618">
        <ele>775.4</ele>
        <time>2023-04-30T06:16:35.000Z</time>
      </trkpt>
      <trkpt lat="47.89019" lon="6.91615">
        <ele>775</ele>
        <time>2023-04-30T06:16:37.000Z</time>
      </trkpt>
      <trkpt lat="47.8902" lon="6.91613">
        <ele>774.8</ele>
        <time>2023-04-30T06:16:38.000Z</time>
      </trkpt>
      <trkpt lat="47.89021" lon="6.91611">
        <ele>774.6</ele>
        <time>2023-04-30T06:16:39.000Z</time>
      </trkpt>
      <trkpt lat="47.89022" lon="6.9161">
        <ele>774.6</ele>
        <time>2023-04-30T06:16:40.000Z</time>
      </trkpt>
      <trkpt lat="47.89023" lon="6.91609">
        <ele>774.4</ele>
        <time>2023-04-30T06:16:41.000Z</time>
      </trkpt>
      <trkpt lat="47.89025" lon="6.91601">
        <ele>773.6</ele>
        <time>2023-04-30T06:16:45.000Z</time>
      </trkpt>
      <trkpt lat="47.89025" lon="6.91599">
        <ele>773.4</ele>
        <time>2023-04-30T06:16:46.000Z</time>
      </trkpt>
      <trkpt lat="47.89026" lon="6.91595">
        <ele>773.2</ele>
        <time>2023-04-30T06:16:48.000Z</time>
      </trkpt>
      <trkpt lat="47.89029" lon="6.91585">
        <ele>772.4</ele>
        <time>2023-04-30T06:16:52.000Z</time>
      </trkpt>
      <trkpt lat="47.8903" lon="6.91583">
        <ele>772.4</ele>
        <time>2023-04-30T06:16:53.000Z</time>
      </trkpt>
      <trkpt lat="47.89032" lon="6.91572">
        <ele>771.4</ele>
        <time>2023-04-30T06:16:58.000Z</time>
      </trkpt>
      <trkpt lat="47.8903" lon="6.91562">
        <ele>770.8</ele>
        <time>2023-04-30T06:17:03.000Z</time>
      </trkpt>
      <trkpt lat="47.89029" lon="6.91556">
        <ele>769.8</ele>
        <time>2023-04-30T06:17:07.000Z</time>
      </trkpt>
      <trkpt lat="47.89028" lon="6.91549">
        <ele>769.4</ele>
        <time>2023-04-30T06:17:11.000Z</time>
      </trkpt>
      <trkpt lat="47.89025" lon="6.91537">
        <ele>768.4</ele>
        <time>2023-04-30T06:17:17.000Z</time>
      </trkpt>
      <trkpt lat="47.89024" lon="6.91531">
        <ele>767.8</ele>
        <time>2023-04-30T06:17:20.000Z</time>
      </trkpt>
      <trkpt lat="47.89023" lon="6.91529">
        <ele>767.6</ele>
        <time>2023-04-30T06:17:21.000Z</time>
      </trkpt>
      <trkpt lat="47.89023" lon="6.91527">
        <ele>767.6</ele>
        <time>2023-04-30T06:17:22.000Z</time>
      </trkpt>
      <trkpt lat="47.89023" lon="6.91526">
        <ele>767.4</ele>
        <time>2023-04-30T06:17:23.000Z</time>
      </trkpt>
      <trkpt lat="47.89022" lon="6.91524">
        <ele>767.2</ele>
        <time>2023-04-30T06:17:24.000Z</time>
      </trkpt>
      <trkpt lat="47.89017" lon="6.91504">
        <ele>765.4</ele>
        <time>2023-04-30T06:17:35.000Z</time>
      </trkpt>
      <trkpt lat="47.89015" lon="6.915">
        <ele>765.2</ele>
        <time>2023-04-30T06:17:37.000Z</time>
      </trkpt>
      <trkpt lat="47.89015" lon="6.91498">
        <ele>765</ele>
        <time>2023-04-30T06:17:38.000Z</time>
      </trkpt>
      <trkpt lat="47.89015" lon="6.91496">
        <ele>764.8</ele>
        <time>2023-04-30T06:17:39.000Z</time>
      </trkpt>
      <trkpt lat="47.89016" lon="6.91491">
        <ele>764.6</ele>
        <time>2023-04-30T06:17:41.000Z</time>
      </trkpt>
      <trkpt lat="47.89015" lon="6.91485">
        <ele>764</ele>
        <time>2023-04-30T06:17:44.000Z</time>
      </trkpt>
      <trkpt lat="47.89016" lon="6.91477">
        <ele>763.4</ele>
        <time>2023-04-30T06:17:49.000Z</time>
      </trkpt>
      <trkpt lat="47.89015" lon="6.91469">
        <ele>762.4</ele>
        <time>2023-04-30T06:17:55.000Z</time>
      </trkpt>
      <trkpt lat="47.89015" lon="6.91466">
        <ele>762.2</ele>
        <time>2023-04-30T06:17:57.000Z</time>
      </trkpt>
      <trkpt lat="47.89015" lon="6.91454">
        <ele>761</ele>
        <time>2023-04-30T06:18:04.000Z</time>
      </trkpt>
      <trkpt lat="47.89015" lon="6.91452">
        <ele>761</ele>
        <time>2023-04-30T06:18:05.000Z</time>
      </trkpt>
      <trkpt lat="47.8902" lon="6.91442">
        <ele>760.2</ele>
        <time>2023-04-30T06:18:11.000Z</time>
      </trkpt>
      <trkpt lat="47.89019" lon="6.91441">
        <ele>760.2</ele>
        <time>2023-04-30T06:18:12.000Z</time>
      </trkpt>
      <trkpt lat="47.89019" lon="6.91438">
        <ele>759.8</ele>
        <time>2023-04-30T06:18:14.000Z</time>
      </trkpt>
      <trkpt lat="47.8902" lon="6.91434">
        <ele>759.2</ele>
        <time>2023-04-30T06:18:25.000Z</time>
      </trkpt>
      <trkpt lat="47.89008" lon="6.91439">
        <ele>759</ele>
        <time>2023-04-30T06:18:50.000Z</time>
      </trkpt>
      <trkpt lat="47.89006" lon="6.91436">
        <ele>759.4</ele>
        <time>2023-04-30T06:19:15.000Z</time>
      </trkpt>
      <trkpt lat="47.89006" lon="6.91435">
        <ele>759.4</ele>
        <time>2023-04-30T06:19:18.000Z</time>
      </trkpt>
      <trkpt lat="47.89012" lon="6.91416">
        <ele>757.8</ele>
        <time>2023-04-30T06:19:29.000Z</time>
      </trkpt>
      <trkpt lat="47.89009" lon="6.91412">
        <ele>757.6</ele>
        <time>2023-04-30T06:19:31.000Z</time>
      </trkpt>
      <trkpt lat="47.89008" lon="6.91408">
        <ele>757</ele>
        <time>2023-04-30T06:19:33.000Z</time>
      </trkpt>
      <trkpt lat="47.89008" lon="6.91401">
        <ele>756.6</ele>
        <time>2023-04-30T06:19:36.000Z</time>
      </trkpt>
      <trkpt lat="47.89008" lon="6.91399">
        <ele>756.4</ele>
        <time>2023-04-30T06:19:37.000Z</time>
      </trkpt>
      <trkpt lat="47.89003" lon="6.91395">
        <ele>756.2</ele>
        <time>2023-04-30T06:19:40.000Z</time>
      </trkpt>
      <trkpt lat="47.89002" lon="6.91392">
        <ele>756</ele>
        <time>2023-04-30T06:19:42.000Z</time>
      </trkpt>
      <trkpt lat="47.89002" lon="6.9139">
        <ele>755.8</ele>
        <time>2023-04-30T06:19:43.000Z</time>
      </trkpt>
      <trkpt lat="47.89001" lon="6.91384">
        <ele>755.4</ele>
        <time>2023-04-30T06:19:46.000Z</time>
      </trkpt>
      <trkpt lat="47.89002" lon="6.91382">
        <ele>755.2</ele>
        <time>2023-04-30T06:19:47.000Z</time>
      </trkpt>
      <trkpt lat="47.88997" lon="6.9137">
        <ele>754</ele>
        <time>2023-04-30T06:19:54.000Z</time>
      </trkpt>
      <trkpt lat="47.88968" lon="6.91349">
        <ele>751.8</ele>
        <time>2023-04-30T06:20:11.000Z</time>
      </trkpt>
      <trkpt lat="47.88963" lon="6.91344">
        <ele>750.8</ele>
        <time>2023-04-30T06:20:22.000Z</time>
      </trkpt>
      <trkpt lat="47.88948" lon="6.91346">
        <ele>750.8</ele>
        <time>2023-04-30T06:20:43.000Z</time>
      </trkpt>
      <trkpt lat="47.88948" lon="6.91341">
        <ele>750.8</ele>
        <time>2023-04-30T06:20:52.000Z</time>
      </trkpt>
      <trkpt lat="47.88949" lon="6.9133">
        <ele>750</ele>
        <time>2023-04-30T06:21:00.000Z</time>
      </trkpt>
      <trkpt lat="47.88943" lon="6.91317">
        <ele>748.6</ele>
        <time>2023-04-30T06:21:10.000Z</time>
      </trkpt>
      <trkpt lat="47.88935" lon="6.91296">
        <ele>746.8</ele>
        <time>2023-04-30T06:21:24.000Z</time>
      </trkpt>
      <trkpt lat="47.8893" lon="6.91278">
        <ele>745.2</ele>
        <time>2023-04-30T06:21:34.000Z</time>
      </trkpt>
      <trkpt lat="47.8893" lon="6.91276">
        <ele>745</ele>
        <time>2023-04-30T06:21:35.000Z</time>
      </trkpt>
      <trkpt lat="47.88929" lon="6.91274">
        <ele>744.8</ele>
        <time>2023-04-30T06:21:36.000Z</time>
      </trkpt>
      <trkpt lat="47.88928" lon="6.91273">
        <ele>744.8</ele>
        <time>2023-04-30T06:21:37.000Z</time>
      </trkpt>
      <trkpt lat="47.88928" lon="6.91272">
        <ele>744.6</ele>
        <time>2023-04-30T06:21:38.000Z</time>
      </trkpt>
      <trkpt lat="47.88927" lon="6.9127">
        <ele>744.6</ele>
        <time>2023-04-30T06:21:39.000Z</time>
      </trkpt>
      <trkpt lat="47.88925" lon="6.91265">
        <ele>744.2</ele>
        <time>2023-04-30T06:21:42.000Z</time>
      </trkpt>
      <trkpt lat="47.88925" lon="6.91263">
        <ele>744</ele>
        <time>2023-04-30T06:21:43.000Z</time>
      </trkpt>
      <trkpt lat="47.88925" lon="6.91261">
        <ele>743.8</ele>
        <time>2023-04-30T06:21:44.000Z</time>
      </trkpt>
      <trkpt lat="47.88925" lon="6.91259">
        <ele>743.6</ele>
        <time>2023-04-30T06:21:45.000Z</time>
      </trkpt>
      <trkpt lat="47.88924" lon="6.91258">
        <ele>743.6</ele>
        <time>2023-04-30T06:21:46.000Z</time>
      </trkpt>
      <trkpt lat="47.88923" lon="6.91256">
        <ele>743.4</ele>
        <time>2023-04-30T06:21:47.000Z</time>
      </trkpt>
      <trkpt lat="47.88923" lon="6.91255">
        <ele>743.2</ele>
        <time>2023-04-30T06:21:48.000Z</time>
      </trkpt>
      <trkpt lat="47.88923" lon="6.91253">
        <ele>743</ele>
        <time>2023-04-30T06:21:49.000Z</time>
      </trkpt>
      <trkpt lat="47.88922" lon="6.91252">
        <ele>742.8</ele>
        <time>2023-04-30T06:21:50.000Z</time>
      </trkpt>
      <trkpt lat="47.88922" lon="6.9125">
        <ele>742.6</ele>
        <time>2023-04-30T06:21:51.000Z</time>
      </trkpt>
      <trkpt lat="47.8892" lon="6.9124">
        <ele>741.8</ele>
        <time>2023-04-30T06:21:57.000Z</time>
      </trkpt>
      <trkpt lat="47.8892" lon="6.91238">
        <ele>741.6</ele>
        <time>2023-04-30T06:21:58.000Z</time>
      </trkpt>
      <trkpt lat="47.88919" lon="6.91236">
        <ele>741.4</ele>
        <time>2023-04-30T06:21:59.000Z</time>
      </trkpt>
      <trkpt lat="47.88917" lon="6.91203">
        <ele>739</ele>
        <time>2023-04-30T06:22:16.000Z</time>
      </trkpt>
      <trkpt lat="47.88916" lon="6.91196">
        <ele>738.4</ele>
        <time>2023-04-30T06:22:20.000Z</time>
      </trkpt>
      <trkpt lat="47.88915" lon="6.91194">
        <ele>738.2</ele>
        <time>2023-04-30T06:22:21.000Z</time>
      </trkpt>
      <trkpt lat="47.88912" lon="6.91163">
        <ele>736.4</ele>
        <time>2023-04-30T06:22:37.000Z</time>
      </trkpt>
      <trkpt lat="47.88912" lon="6.91161">
        <ele>736.2</ele>
        <time>2023-04-30T06:22:38.000Z</time>
      </trkpt>
      <trkpt lat="47.88912" lon="6.91159">
        <ele>736.2</ele>
        <time>2023-04-30T06:22:39.000Z</time>
      </trkpt>
      <trkpt lat="47.88912" lon="6.91157">
        <ele>736</ele>
        <time>2023-04-30T06:22:40.000Z</time>
      </trkpt>
      <trkpt lat="47.88912" lon="6.91155">
        <ele>736</ele>
        <time>2023-04-30T06:22:41.000Z</time>
      </trkpt>
      <trkpt lat="47.88912" lon="6.91153">
        <ele>735.8</ele>
        <time>2023-04-30T06:22:42.000Z</time>
      </trkpt>
      <trkpt lat="47.88911" lon="6.91151">
        <ele>735.6</ele>
        <time>2023-04-30T06:22:43.000Z</time>
      </trkpt>
      <trkpt lat="47.88911" lon="6.91149">
        <ele>735.6</ele>
        <time>2023-04-30T06:22:44.000Z</time>
      </trkpt>
      <trkpt lat="47.8891" lon="6.91138">
        <ele>735</ele>
        <time>2023-04-30T06:22:56.000Z</time>
      </trkpt>
      <trkpt lat="47.88909" lon="6.91136">
        <ele>735</ele>
        <time>2023-04-30T06:22:57.000Z</time>
      </trkpt>
      <trkpt lat="47.88909" lon="6.91134">
        <ele>734.8</ele>
        <time>2023-04-30T06:22:58.000Z</time>
      </trkpt>
      <trkpt lat="47.88908" lon="6.91132">
        <ele>734.8</ele>
        <time>2023-04-30T06:22:59.000Z</time>
      </trkpt>
      <trkpt lat="47.88912" lon="6.91126">
        <ele>734.4</ele>
        <time>2023-04-30T06:23:09.000Z</time>
      </trkpt>
      <trkpt lat="47.88911" lon="6.91124">
        <ele>734.4</ele>
        <time>2023-04-30T06:23:10.000Z</time>
      </trkpt>
      <trkpt lat="47.88911" lon="6.91121">
        <ele>734.2</ele>
        <time>2023-04-30T06:23:12.000Z</time>
      </trkpt>
      <trkpt lat="47.8891" lon="6.91119">
        <ele>734.2</ele>
        <time>2023-04-30T06:23:13.000Z</time>
      </trkpt>
      <trkpt lat="47.8891" lon="6.91117">
        <ele>734.2</ele>
        <time>2023-04-30T06:23:14.000Z</time>
      </trkpt>
      <trkpt lat="47.8891" lon="6.91115">
        <ele>734.2</ele>
        <time>2023-04-30T06:23:15.000Z</time>
      </trkpt>
      <trkpt lat="47.88909" lon="6.91113">
        <ele>734</ele>
        <time>2023-04-30T06:23:16.000Z</time>
      </trkpt>
      <trkpt lat="47.88901" lon="6.9109">
        <ele>733.2</ele>
        <time>2023-04-30T06:23:30.000Z</time>
      </trkpt>
      <trkpt lat="47.88902" lon="6.91086">
        <ele>733.2</ele>
        <time>2023-04-30T06:23:33.000Z</time>
      </trkpt>
      <trkpt lat="47.88902" lon="6.91084">
        <ele>733</ele>
        <time>2023-04-30T06:23:34.000Z</time>
      </trkpt>
      <trkpt lat="47.88902" lon="6.91082">
        <ele>733</ele>
        <time>2023-04-30T06:23:35.000Z</time>
      </trkpt>
      <trkpt lat="47.88902" lon="6.9108">
        <ele>733</ele>
        <time>2023-04-30T06:23:36.000Z</time>
      </trkpt>
      <trkpt lat="47.88901" lon="6.91079">
        <ele>733</ele>
        <time>2023-04-30T06:23:37.000Z</time>
      </trkpt>
      <trkpt lat="47.88901" lon="6.91077">
        <ele>733</ele>
        <time>2023-04-30T06:23:38.000Z</time>
      </trkpt>
      <trkpt lat="47.889" lon="6.91075">
        <ele>733</ele>
        <time>2023-04-30T06:23:39.000Z</time>
      </trkpt>
      <trkpt lat="47.889" lon="6.91073">
        <ele>733</ele>
        <time>2023-04-30T06:23:40.000Z</time>
      </trkpt>
      <trkpt lat="47.88899" lon="6.91071">
        <ele>733</ele>
        <time>2023-04-30T06:23:41.000Z</time>
      </trkpt>
      <trkpt lat="47.88899" lon="6.91069">
        <ele>733</ele>
        <time>2023-04-30T06:23:42.000Z</time>
      </trkpt>
      <trkpt lat="47.88896" lon="6.9105">
        <ele>732.6</ele>
        <time>2023-04-30T06:23:54.000Z</time>
      </trkpt>
      <trkpt lat="47.88895" lon="6.91049">
        <ele>732.4</ele>
        <time>2023-04-30T06:24:19.000Z</time>
      </trkpt>
      <trkpt lat="47.88894" lon="6.91041">
        <ele>732.4</ele>
        <time>2023-04-30T06:24:29.000Z</time>
      </trkpt>
      <trkpt lat="47.88894" lon="6.9104">
        <ele>732.4</ele>
        <time>2023-04-30T06:24:30.000Z</time>
      </trkpt>
      <trkpt lat="47.88894" lon="6.91039">
        <ele>732.4</ele>
        <time>2023-04-30T06:24:31.000Z</time>
      </trkpt>
      <trkpt lat="47.88894" lon="6.91037">
        <ele>732.2</ele>
        <time>2023-04-30T06:24:32.000Z</time>
      </trkpt>
      <trkpt lat="47.88894" lon="6.91035">
        <ele>732.2</ele>
        <time>2023-04-30T06:24:33.000Z</time>
      </trkpt>
      <trkpt lat="47.88894" lon="6.91033">
        <ele>732.2</ele>
        <time>2023-04-30T06:24:34.000Z</time>
      </trkpt>
      <trkpt lat="47.88893" lon="6.91031">
        <ele>732.2</ele>
        <time>2023-04-30T06:24:35.000Z</time>
      </trkpt>
      <trkpt lat="47.88893" lon="6.91029">
        <ele>732.2</ele>
        <time>2023-04-30T06:24:36.000Z</time>
      </trkpt>
      <trkpt lat="47.88892" lon="6.91028">
        <ele>732</ele>
        <time>2023-04-30T06:24:37.000Z</time>
      </trkpt>
      <trkpt lat="47.88892" lon="6.91026">
        <ele>732</ele>
        <time>2023-04-30T06:24:38.000Z</time>
      </trkpt>
      <trkpt lat="47.88892" lon="6.91024">
        <ele>732</ele>
        <time>2023-04-30T06:24:39.000Z</time>
      </trkpt>
      <trkpt lat="47.88892" lon="6.91022">
        <ele>732</ele>
        <time>2023-04-30T06:24:40.000Z</time>
      </trkpt>
      <trkpt lat="47.88892" lon="6.9102">
        <ele>732</ele>
        <time>2023-04-30T06:24:41.000Z</time>
      </trkpt>
      <trkpt lat="47.88892" lon="6.91019">
        <ele>731.8</ele>
        <time>2023-04-30T06:24:42.000Z</time>
      </trkpt>
      <trkpt lat="47.88892" lon="6.91017">
        <ele>731.8</ele>
        <time>2023-04-30T06:24:43.000Z</time>
      </trkpt>
      <trkpt lat="47.88892" lon="6.91015">
        <ele>731.8</ele>
        <time>2023-04-30T06:24:44.000Z</time>
      </trkpt>
      <trkpt lat="47.88892" lon="6.91014">
        <ele>731.8</ele>
        <time>2023-04-30T06:24:45.000Z</time>
      </trkpt>
      <trkpt lat="47.88888" lon="6.90985">
        <ele>731</ele>
        <time>2023-04-30T06:25:00.000Z</time>
      </trkpt>
      <trkpt lat="47.88887" lon="6.90983">
        <ele>731</ele>
        <time>2023-04-30T06:25:01.000Z</time>
      </trkpt>
      <trkpt lat="47.88886" lon="6.90982">
        <ele>730.8</ele>
        <time>2023-04-30T06:25:02.000Z</time>
      </trkpt>
      <trkpt lat="47.88886" lon="6.9098">
        <ele>730.8</ele>
        <time>2023-04-30T06:25:03.000Z</time>
      </trkpt>
      <trkpt lat="47.88881" lon="6.90966">
        <ele>730.6</ele>
        <time>2023-04-30T06:25:11.000Z</time>
      </trkpt>
      <trkpt lat="47.8888" lon="6.90964">
        <ele>730.4</ele>
        <time>2023-04-30T06:25:12.000Z</time>
      </trkpt>
      <trkpt lat="47.8888" lon="6.90962">
        <ele>730.4</ele>
        <time>2023-04-30T06:25:13.000Z</time>
      </trkpt>
      <trkpt lat="47.8888" lon="6.9096">
        <ele>730.2</ele>
        <time>2023-04-30T06:25:14.000Z</time>
      </trkpt>
      <trkpt lat="47.8888" lon="6.90958">
        <ele>730.2</ele>
        <time>2023-04-30T06:25:15.000Z</time>
      </trkpt>
      <trkpt lat="47.88881" lon="6.90952">
        <ele>729.6</ele>
        <time>2023-04-30T06:25:23.000Z</time>
      </trkpt>
      <trkpt lat="47.88874" lon="6.90943">
        <ele>729.2</ele>
        <time>2023-04-30T06:25:40.000Z</time>
      </trkpt>
      <trkpt lat="47.8887" lon="6.90915">
        <ele>728.2</ele>
        <time>2023-04-30T06:25:57.000Z</time>
      </trkpt>
      <trkpt lat="47.88869" lon="6.90884">
        <ele>726.4</ele>
        <time>2023-04-30T06:26:15.000Z</time>
      </trkpt>
      <trkpt lat="47.8887" lon="6.90851">
        <ele>724.4</ele>
        <time>2023-04-30T06:26:34.000Z</time>
      </trkpt>
      <trkpt lat="47.88869" lon="6.90839">
        <ele>723.2</ele>
        <time>2023-04-30T06:26:50.000Z</time>
      </trkpt>
      <trkpt lat="47.88866" lon="6.90828">
        <ele>722.8</ele>
        <time>2023-04-30T06:27:09.000Z</time>
      </trkpt>
      <trkpt lat="47.88866" lon="6.90822">
        <ele>722.4</ele>
        <time>2023-04-30T06:27:12.000Z</time>
      </trkpt>
      <trkpt lat="47.88866" lon="6.90821">
        <ele>722.4</ele>
        <time>2023-04-30T06:27:13.000Z</time>
      </trkpt>
      <trkpt lat="47.88858" lon="6.90794">
        <ele>721.6</ele>
        <time>2023-04-30T06:27:30.000Z</time>
      </trkpt>
      <trkpt lat="47.88849" lon="6.90777">
        <ele>721.2</ele>
        <time>2023-04-30T06:27:45.000Z</time>
      </trkpt>
      <trkpt lat="47.88844" lon="6.90773">
        <ele>720.6</ele>
        <time>2023-04-30T06:27:50.000Z</time>
      </trkpt>
      <trkpt lat="47.88839" lon="6.9077">
        <ele>720.2</ele>
        <time>2023-04-30T06:28:05.000Z</time>
      </trkpt>
      <trkpt lat="47.88828" lon="6.90777">
        <ele>719.8</ele>
        <time>2023-04-30T06:28:33.000Z</time>
      </trkpt>
      <trkpt lat="47.88826" lon="6.9078">
        <ele>719.8</ele>
        <time>2023-04-30T06:28:35.000Z</time>
      </trkpt>
      <trkpt lat="47.88825" lon="6.90782">
        <ele>719.8</ele>
        <time>2023-04-30T06:28:36.000Z</time>
      </trkpt>
      <trkpt lat="47.88824" lon="6.90783">
        <ele>719.8</ele>
        <time>2023-04-30T06:28:37.000Z</time>
      </trkpt>
      <trkpt lat="47.88823" lon="6.90785">
        <ele>719.8</ele>
        <time>2023-04-30T06:28:38.000Z</time>
      </trkpt>
      <trkpt lat="47.88816" lon="6.90794">
        <ele>719.6</ele>
        <time>2023-04-30T06:28:45.000Z</time>
      </trkpt>
      <trkpt lat="47.88815" lon="6.90797">
        <ele>719.6</ele>
        <time>2023-04-30T06:28:46.000Z</time>
      </trkpt>
      <trkpt lat="47.88815" lon="6.90798">
        <ele>719.6</ele>
        <time>2023-04-30T06:28:47.000Z</time>
      </trkpt>
      <trkpt lat="47.88812" lon="6.90807">
        <ele>719.4</ele>
        <time>2023-04-30T06:28:52.000Z</time>
      </trkpt>
      <trkpt lat="47.88811" lon="6.90809">
        <ele>719.4</ele>
        <time>2023-04-30T06:28:53.000Z</time>
      </trkpt>
      <trkpt lat="47.88808" lon="6.90823">
        <ele>719.4</ele>
        <time>2023-04-30T06:29:00.000Z</time>
      </trkpt>
      <trkpt lat="47.88804" lon="6.90832">
        <ele>719</ele>
        <time>2023-04-30T06:29:05.000Z</time>
      </trkpt>
      <trkpt lat="47.88799" lon="6.90841">
        <ele>719</ele>
        <time>2023-04-30T06:29:10.000Z</time>
      </trkpt>
      <trkpt lat="47.88799" lon="6.90842">
        <ele>719</ele>
        <time>2023-04-30T06:29:11.000Z</time>
      </trkpt>
      <trkpt lat="47.88792" lon="6.90852">
        <ele>718.6</ele>
        <time>2023-04-30T06:29:17.000Z</time>
      </trkpt>
      <trkpt lat="47.88792" lon="6.90853">
        <ele>718.4</ele>
        <time>2023-04-30T06:29:18.000Z</time>
      </trkpt>
      <trkpt lat="47.88791" lon="6.90855">
        <ele>718.4</ele>
        <time>2023-04-30T06:29:19.000Z</time>
      </trkpt>
      <trkpt lat="47.88783" lon="6.90865">
        <ele>718.2</ele>
        <time>2023-04-30T06:29:29.000Z</time>
      </trkpt>
      <trkpt lat="47.88781" lon="6.90875">
        <ele>717.8</ele>
        <time>2023-04-30T06:29:40.000Z</time>
      </trkpt>
      <trkpt lat="47.88776" lon="6.90882">
        <ele>717.6</ele>
        <time>2023-04-30T06:29:46.000Z</time>
      </trkpt>
      <trkpt lat="47.88776" lon="6.90883">
        <ele>717.4</ele>
        <time>2023-04-30T06:29:47.000Z</time>
      </trkpt>
      <trkpt lat="47.88775" lon="6.90885">
        <ele>717.4</ele>
        <time>2023-04-30T06:29:48.000Z</time>
      </trkpt>
      <trkpt lat="47.88775" lon="6.90888">
        <ele>717.4</ele>
        <time>2023-04-30T06:29:49.000Z</time>
      </trkpt>
      <trkpt lat="47.88774" lon="6.90889">
        <ele>717.4</ele>
        <time>2023-04-30T06:29:50.000Z</time>
      </trkpt>
      <trkpt lat="47.88772" lon="6.90892">
        <ele>717.2</ele>
        <time>2023-04-30T06:29:52.000Z</time>
      </trkpt>
      <trkpt lat="47.88771" lon="6.90894">
        <ele>717.2</ele>
        <time>2023-04-30T06:29:53.000Z</time>
      </trkpt>
      <trkpt lat="47.8877" lon="6.90896">
        <ele>717.2</ele>
        <time>2023-04-30T06:29:54.000Z</time>
      </trkpt>
      <trkpt lat="47.8877" lon="6.90897">
        <ele>717</ele>
        <time>2023-04-30T06:29:55.000Z</time>
      </trkpt>
      <trkpt lat="47.88769" lon="6.90898">
        <ele>717</ele>
        <time>2023-04-30T06:29:56.000Z</time>
      </trkpt>
      <trkpt lat="47.88769" lon="6.909">
        <ele>716.8</ele>
        <time>2023-04-30T06:29:57.000Z</time>
      </trkpt>
      <trkpt lat="47.88759" lon="6.90909">
        <ele>716.4</ele>
        <time>2023-04-30T06:30:07.000Z</time>
      </trkpt>
      <trkpt lat="47.88758" lon="6.9091">
        <ele>716.4</ele>
        <time>2023-04-30T06:30:08.000Z</time>
      </trkpt>
      <trkpt lat="47.88757" lon="6.90912">
        <ele>716.2</ele>
        <time>2023-04-30T06:30:09.000Z</time>
      </trkpt>
      <trkpt lat="47.88756" lon="6.90913">
        <ele>716.2</ele>
        <time>2023-04-30T06:30:10.000Z</time>
      </trkpt>
      <trkpt lat="47.88756" lon="6.90915">
        <ele>716</ele>
        <time>2023-04-30T06:30:11.000Z</time>
      </trkpt>
      <trkpt lat="47.88756" lon="6.90917">
        <ele>716</ele>
        <time>2023-04-30T06:30:12.000Z</time>
      </trkpt>
      <trkpt lat="47.88755" lon="6.90919">
        <ele>715.8</ele>
        <time>2023-04-30T06:30:13.000Z</time>
      </trkpt>
      <trkpt lat="47.8875" lon="6.9096">
        <ele>714</ele>
        <time>2023-04-30T06:30:32.000Z</time>
      </trkpt>
      <trkpt lat="47.88748" lon="6.90967">
        <ele>714</ele>
        <time>2023-04-30T06:30:36.000Z</time>
      </trkpt>
      <trkpt lat="47.88747" lon="6.90969">
        <ele>714</ele>
        <time>2023-04-30T06:30:37.000Z</time>
      </trkpt>
      <trkpt lat="47.88747" lon="6.90971">
        <ele>714</ele>
        <time>2023-04-30T06:30:38.000Z</time>
      </trkpt>
      <trkpt lat="47.88743" lon="6.90983">
        <ele>714</ele>
        <time>2023-04-30T06:30:46.000Z</time>
      </trkpt>
      <trkpt lat="47.88742" lon="6.9099">
        <ele>713.4</ele>
        <time>2023-04-30T06:30:50.000Z</time>
      </trkpt>
      <trkpt lat="47.88743" lon="6.90993">
        <ele>713.4</ele>
        <time>2023-04-30T06:30:51.000Z</time>
      </trkpt>
      <trkpt lat="47.88742" lon="6.90994">
        <ele>713.4</ele>
        <time>2023-04-30T06:30:52.000Z</time>
      </trkpt>
      <trkpt lat="47.88741" lon="6.90996">
        <ele>713.2</ele>
        <time>2023-04-30T06:30:53.000Z</time>
      </trkpt>
      <trkpt lat="47.8874" lon="6.90998">
        <ele>713.2</ele>
        <time>2023-04-30T06:30:54.000Z</time>
      </trkpt>
      <trkpt lat="47.8874" lon="6.91">
        <ele>713.2</ele>
        <time>2023-04-30T06:30:55.000Z</time>
      </trkpt>
      <trkpt lat="47.88739" lon="6.91002">
        <ele>713</ele>
        <time>2023-04-30T06:30:56.000Z</time>
      </trkpt>
      <trkpt lat="47.88736" lon="6.91022">
        <ele>712.4</ele>
        <time>2023-04-30T06:31:06.000Z</time>
      </trkpt>
      <trkpt lat="47.88736" lon="6.91038">
        <ele>712.2</ele>
        <time>2023-04-30T06:31:17.000Z</time>
      </trkpt>
      <trkpt lat="47.88735" lon="6.91041">
        <ele>712.2</ele>
        <time>2023-04-30T06:31:18.000Z</time>
      </trkpt>
      <trkpt lat="47.88735" lon="6.91043">
        <ele>712.2</ele>
        <time>2023-04-30T06:31:19.000Z</time>
      </trkpt>
      <trkpt lat="47.88735" lon="6.91046">
        <ele>712.2</ele>
        <time>2023-04-30T06:31:20.000Z</time>
      </trkpt>
      <trkpt lat="47.88735" lon="6.91048">
        <ele>712</ele>
        <time>2023-04-30T06:31:21.000Z</time>
      </trkpt>
      <trkpt lat="47.88735" lon="6.9105">
        <ele>712</ele>
        <time>2023-04-30T06:31:22.000Z</time>
      </trkpt>
      <trkpt lat="47.88735" lon="6.91073">
        <ele>711.2</ele>
        <time>2023-04-30T06:31:34.000Z</time>
      </trkpt>
      <trkpt lat="47.88735" lon="6.91075">
        <ele>711.2</ele>
        <time>2023-04-30T06:31:35.000Z</time>
      </trkpt>
      <trkpt lat="47.88736" lon="6.91078">
        <ele>711</ele>
        <time>2023-04-30T06:31:36.000Z</time>
      </trkpt>
      <trkpt lat="47.88736" lon="6.9108">
        <ele>711</ele>
        <time>2023-04-30T06:31:37.000Z</time>
      </trkpt>
      <trkpt lat="47.88736" lon="6.91082">
        <ele>711</ele>
        <time>2023-04-30T06:31:38.000Z</time>
      </trkpt>
      <trkpt lat="47.88737" lon="6.91093">
        <ele>710.8</ele>
        <time>2023-04-30T06:31:44.000Z</time>
      </trkpt>
      <trkpt lat="47.88735" lon="6.91104">
        <ele>710.6</ele>
        <time>2023-04-30T06:31:49.000Z</time>
      </trkpt>
      <trkpt lat="47.88735" lon="6.91106">
        <ele>710.6</ele>
        <time>2023-04-30T06:31:50.000Z</time>
      </trkpt>
      <trkpt lat="47.88728" lon="6.91141">
        <ele>709.4</ele>
        <time>2023-04-30T06:32:07.000Z</time>
      </trkpt>
      <trkpt lat="47.88729" lon="6.91175">
        <ele>708.4</ele>
        <time>2023-04-30T06:32:23.000Z</time>
      </trkpt>
      <trkpt lat="47.88726" lon="6.91204">
        <ele>707.8</ele>
        <time>2023-04-30T06:32:36.000Z</time>
      </trkpt>
      <trkpt lat="47.88724" lon="6.91225">
        <ele>707.4</ele>
        <time>2023-04-30T06:32:46.000Z</time>
      </trkpt>
      <trkpt lat="47.88723" lon="6.91226">
        <ele>707.2</ele>
        <time>2023-04-30T06:32:47.000Z</time>
      </trkpt>
      <trkpt lat="47.88717" lon="6.91245">
        <ele>706.8</ele>
        <time>2023-04-30T06:32:59.000Z</time>
      </trkpt>
      <trkpt lat="47.88716" lon="6.91246">
        <ele>706.8</ele>
        <time>2023-04-30T06:33:00.000Z</time>
      </trkpt>
      <trkpt lat="47.88714" lon="6.91249">
        <ele>706.8</ele>
        <time>2023-04-30T06:33:02.000Z</time>
      </trkpt>
      <trkpt lat="47.88714" lon="6.91251">
        <ele>706.8</ele>
        <time>2023-04-30T06:33:03.000Z</time>
      </trkpt>
      <trkpt lat="47.88713" lon="6.91253">
        <ele>706.6</ele>
        <time>2023-04-30T06:33:04.000Z</time>
      </trkpt>
      <trkpt lat="47.88705" lon="6.91278">
        <ele>705.6</ele>
        <time>2023-04-30T06:33:18.000Z</time>
      </trkpt>
      <trkpt lat="47.88703" lon="6.91292">
        <ele>705.4</ele>
        <time>2023-04-30T06:33:26.000Z</time>
      </trkpt>
      <trkpt lat="47.88702" lon="6.91293">
        <ele>705.4</ele>
        <time>2023-04-30T06:33:27.000Z</time>
      </trkpt>
      <trkpt lat="47.88701" lon="6.91296">
        <ele>705.2</ele>
        <time>2023-04-30T06:33:28.000Z</time>
      </trkpt>
      <trkpt lat="47.88701" lon="6.91297">
        <ele>705</ele>
        <time>2023-04-30T06:33:29.000Z</time>
      </trkpt>
      <trkpt lat="47.88693" lon="6.91317">
        <ele>704.6</ele>
        <time>2023-04-30T06:33:42.000Z</time>
      </trkpt>
      <trkpt lat="47.88675" lon="6.91329">
        <ele>704.2</ele>
        <time>2023-04-30T06:33:58.000Z</time>
      </trkpt>
      <trkpt lat="47.88671" lon="6.9133">
        <ele>704</ele>
        <time>2023-04-30T06:34:01.000Z</time>
      </trkpt>
      <trkpt lat="47.8867" lon="6.91332">
        <ele>704</ele>
        <time>2023-04-30T06:34:02.000Z</time>
      </trkpt>
      <trkpt lat="47.88669" lon="6.91333">
        <ele>704</ele>
        <time>2023-04-30T06:34:03.000Z</time>
      </trkpt>
      <trkpt lat="47.88667" lon="6.91334">
        <ele>704</ele>
        <time>2023-04-30T06:34:04.000Z</time>
      </trkpt>
      <trkpt lat="47.88667" lon="6.91335">
        <ele>704</ele>
        <time>2023-04-30T06:34:05.000Z</time>
      </trkpt>
      <trkpt lat="47.88667" lon="6.91337">
        <ele>704</ele>
        <time>2023-04-30T06:34:06.000Z</time>
      </trkpt>
      <trkpt lat="47.8868" lon="6.91347">
        <ele>703.6</ele>
        <time>2023-04-30T06:34:21.000Z</time>
      </trkpt>
      <trkpt lat="47.88691" lon="6.91346">
        <ele>703.4</ele>
        <time>2023-04-30T06:34:27.000Z</time>
      </trkpt>
      <trkpt lat="47.88696" lon="6.91341">
        <ele>703.6</ele>
        <time>2023-04-30T06:34:32.000Z</time>
      </trkpt>
      <trkpt lat="47.88697" lon="6.91339">
        <ele>703.6</ele>
        <time>2023-04-30T06:34:33.000Z</time>
      </trkpt>
      <trkpt lat="47.88697" lon="6.91337">
        <ele>703.6</ele>
        <time>2023-04-30T06:34:34.000Z</time>
      </trkpt>
      <trkpt lat="47.88698" lon="6.91334">
        <ele>703.6</ele>
        <time>2023-04-30T06:34:35.000Z</time>
      </trkpt>
      <trkpt lat="47.88699" lon="6.91332">
        <ele>703.6</ele>
        <time>2023-04-30T06:34:36.000Z</time>
      </trkpt>
      <trkpt lat="47.88699" lon="6.9133">
        <ele>703.8</ele>
        <time>2023-04-30T06:34:37.000Z</time>
      </trkpt>
      <trkpt lat="47.88703" lon="6.91324">
        <ele>704</ele>
        <time>2023-04-30T06:34:40.000Z</time>
      </trkpt>
      <trkpt lat="47.88715" lon="6.91305">
        <ele>704.6</ele>
        <time>2023-04-30T06:34:54.000Z</time>
      </trkpt>
      <trkpt lat="47.8871" lon="6.91286">
        <ele>705.2</ele>
        <time>2023-04-30T06:35:16.000Z</time>
      </trkpt>
      <trkpt lat="47.88711" lon="6.91283">
        <ele>705.2</ele>
        <time>2023-04-30T06:35:18.000Z</time>
      </trkpt>
      <trkpt lat="47.88717" lon="6.91271">
        <ele>705.8</ele>
        <time>2023-04-30T06:35:37.000Z</time>
      </trkpt>
      <trkpt lat="47.88715" lon="6.91271">
        <ele>706</ele>
        <time>2023-04-30T06:36:03.000Z</time>
      </trkpt>
      <trkpt lat="47.88714" lon="6.91278">
        <ele>705.8</ele>
        <time>2023-04-30T06:36:22.000Z</time>
      </trkpt>
      <trkpt lat="47.8872" lon="6.91271">
        <ele>705.6</ele>
        <time>2023-04-30T06:36:53.000Z</time>
      </trkpt>
      <trkpt lat="47.88721" lon="6.9127">
        <ele>704.2</ele>
        <time>2023-04-30T06:37:21.000Z</time>
      </trkpt>
      <trkpt lat="47.88723" lon="6.91272">
        <ele>701.2</ele>
        <time>2023-04-30T06:37:36.000Z</time>
      </trkpt>
      <trkpt lat="47.8874" lon="6.91278">
        <ele>696.8</ele>
        <time>2023-04-30T06:38:49.000Z</time>
      </trkpt>
      <trkpt lat="47.88741" lon="6.91276">
        <ele>696.8</ele>
        <time>2023-04-30T06:39:13.000Z</time>
      </trkpt>
      <trkpt lat="47.88737" lon="6.91273">
        <ele>696.8</ele>
        <time>2023-04-30T06:39:35.000Z</time>
      </trkpt>
      <trkpt lat="47.88743" lon="6.9127">
        <ele>697</ele>
        <time>2023-04-30T06:40:06.000Z</time>
      </trkpt>
      <trkpt lat="47.88743" lon="6.91272">
        <ele>696.8</ele>
        <time>2023-04-30T06:40:19.000Z</time>
      </trkpt>
      <trkpt lat="47.88743" lon="6.91277">
        <ele>694</ele>
        <time>2023-04-30T06:40:38.000Z</time>
      </trkpt>
      <trkpt lat="47.88752" lon="6.91275">
        <ele>687.8</ele>
        <time>2023-04-30T06:41:17.000Z</time>
      </trkpt>
      <trkpt lat="47.88756" lon="6.91277">
        <ele>684.6</ele>
        <time>2023-04-30T06:41:38.000Z</time>
      </trkpt>
      <trkpt lat="47.88767" lon="6.91292">
        <ele>674.8</ele>
        <time>2023-04-30T06:42:38.000Z</time>
      </trkpt>
      <trkpt lat="47.88769" lon="6.91291">
        <ele>672</ele>
        <time>2023-04-30T06:42:56.000Z</time>
      </trkpt>
      <trkpt lat="47.8877" lon="6.91297">
        <ele>669.8</ele>
        <time>2023-04-30T06:43:15.000Z</time>
      </trkpt>
      <trkpt lat="47.88772" lon="6.91299">
        <ele>666.6</ele>
        <time>2023-04-30T06:43:33.000Z</time>
      </trkpt>
      <trkpt lat="47.88774" lon="6.91301">
        <ele>663.6</ele>
        <time>2023-04-30T06:43:49.000Z</time>
      </trkpt>
      <trkpt lat="47.88776" lon="6.91309">
        <ele>661.6</ele>
        <time>2023-04-30T06:44:09.000Z</time>
      </trkpt>
      <trkpt lat="47.88773" lon="6.91319">
        <ele>659.2</ele>
        <time>2023-04-30T06:44:23.000Z</time>
      </trkpt>
      <trkpt lat="47.8878" lon="6.91331">
        <ele>656</ele>
        <time>2023-04-30T06:44:38.000Z</time>
      </trkpt>
      <trkpt lat="47.88784" lon="6.91346">
        <ele>653.4</ele>
        <time>2023-04-30T06:44:51.000Z</time>
      </trkpt>
      <trkpt lat="47.88786" lon="6.9136">
        <ele>650.4</ele>
        <time>2023-04-30T06:45:05.000Z</time>
      </trkpt>
      <trkpt lat="47.8879" lon="6.9137">
        <ele>648.6</ele>
        <time>2023-04-30T06:45:13.000Z</time>
      </trkpt>
      <trkpt lat="47.8879" lon="6.91374">
        <ele>648.2</ele>
        <time>2023-04-30T06:45:15.000Z</time>
      </trkpt>
      <trkpt lat="47.88793" lon="6.91395">
        <ele>644.6</ele>
        <time>2023-04-30T06:45:25.000Z</time>
      </trkpt>
      <trkpt lat="47.88793" lon="6.914">
        <ele>644</ele>
        <time>2023-04-30T06:45:27.000Z</time>
      </trkpt>
      <trkpt lat="47.88794" lon="6.91407">
        <ele>642.6</ele>
        <time>2023-04-30T06:45:32.000Z</time>
      </trkpt>
      <trkpt lat="47.88794" lon="6.91409">
        <ele>642.4</ele>
        <time>2023-04-30T06:45:33.000Z</time>
      </trkpt>
      <trkpt lat="47.88794" lon="6.91411">
        <ele>642</ele>
        <time>2023-04-30T06:45:34.000Z</time>
      </trkpt>
      <trkpt lat="47.88794" lon="6.91414">
        <ele>641.4</ele>
        <time>2023-04-30T06:45:36.000Z</time>
      </trkpt>
      <trkpt lat="47.88788" lon="6.91425">
        <ele>640.2</ele>
        <time>2023-04-30T06:45:42.000Z</time>
      </trkpt>
      <trkpt lat="47.88782" lon="6.91443">
        <ele>638.2</ele>
        <time>2023-04-30T06:45:52.000Z</time>
      </trkpt>
      <trkpt lat="47.88775" lon="6.91464">
        <ele>636.2</ele>
        <time>2023-04-30T06:46:05.000Z</time>
      </trkpt>
      <trkpt lat="47.88773" lon="6.9147">
        <ele>636</ele>
        <time>2023-04-30T06:46:08.000Z</time>
      </trkpt>
      <trkpt lat="47.88772" lon="6.91472">
        <ele>635.8</ele>
        <time>2023-04-30T06:46:10.000Z</time>
      </trkpt>
      <trkpt lat="47.88771" lon="6.91474">
        <ele>635.6</ele>
        <time>2023-04-30T06:46:11.000Z</time>
      </trkpt>
      <trkpt lat="47.8877" lon="6.91476">
        <ele>635.4</ele>
        <time>2023-04-30T06:46:12.000Z</time>
      </trkpt>
      <trkpt lat="47.88769" lon="6.91477">
        <ele>635.2</ele>
        <time>2023-04-30T06:46:13.000Z</time>
      </trkpt>
      <trkpt lat="47.88768" lon="6.91478">
        <ele>635</ele>
        <time>2023-04-30T06:46:14.000Z</time>
      </trkpt>
      <trkpt lat="47.88767" lon="6.9148">
        <ele>634.8</ele>
        <time>2023-04-30T06:46:15.000Z</time>
      </trkpt>
      <trkpt lat="47.88766" lon="6.91482">
        <ele>634.8</ele>
        <time>2023-04-30T06:46:16.000Z</time>
      </trkpt>
      <trkpt lat="47.88755" lon="6.91507">
        <ele>633.8</ele>
        <time>2023-04-30T06:46:29.000Z</time>
      </trkpt>
      <trkpt lat="47.88751" lon="6.9153">
        <ele>632.6</ele>
        <time>2023-04-30T06:46:40.000Z</time>
      </trkpt>
      <trkpt lat="47.88746" lon="6.91543">
        <ele>632</ele>
        <time>2023-04-30T06:46:49.000Z</time>
      </trkpt>
      <trkpt lat="47.88749" lon="6.91577">
        <ele>630</ele>
        <time>2023-04-30T06:47:04.000Z</time>
      </trkpt>
      <trkpt lat="47.88748" lon="6.91579">
        <ele>629.8</ele>
        <time>2023-04-30T06:47:05.000Z</time>
      </trkpt>
      <trkpt lat="47.88746" lon="6.91603">
        <ele>628</ele>
        <time>2023-04-30T06:47:16.000Z</time>
      </trkpt>
      <trkpt lat="47.88744" lon="6.91612">
        <ele>627</ele>
        <time>2023-04-30T06:47:21.000Z</time>
      </trkpt>
      <trkpt lat="47.88744" lon="6.91616">
        <ele>626.6</ele>
        <time>2023-04-30T06:47:24.000Z</time>
      </trkpt>
      <trkpt lat="47.88749" lon="6.91624">
        <ele>625.8</ele>
        <time>2023-04-30T06:47:47.000Z</time>
      </trkpt>
      <trkpt lat="47.88755" lon="6.91639">
        <ele>625</ele>
        <time>2023-04-30T06:48:11.000Z</time>
      </trkpt>
      <trkpt lat="47.88754" lon="6.91644">
        <ele>624.8</ele>
        <time>2023-04-30T06:48:13.000Z</time>
      </trkpt>
      <trkpt lat="47.88754" lon="6.91649">
        <ele>624.6</ele>
        <time>2023-04-30T06:48:15.000Z</time>
      </trkpt>
      <trkpt lat="47.88754" lon="6.91651">
        <ele>624.6</ele>
        <time>2023-04-30T06:48:16.000Z</time>
      </trkpt>
      <trkpt lat="47.88754" lon="6.91664">
        <ele>623.8</ele>
        <time>2023-04-30T06:48:22.000Z</time>
      </trkpt>
      <trkpt lat="47.88753" lon="6.91666">
        <ele>623.8</ele>
        <time>2023-04-30T06:48:23.000Z</time>
      </trkpt>
      <trkpt lat="47.88739" lon="6.91682">
        <ele>620.8</ele>
        <time>2023-04-30T06:48:37.000Z</time>
      </trkpt>
      <trkpt lat="47.88732" lon="6.91689">
        <ele>619.6</ele>
        <time>2023-04-30T06:48:44.000Z</time>
      </trkpt>
      <trkpt lat="47.88731" lon="6.91691">
        <ele>619.4</ele>
        <time>2023-04-30T06:48:45.000Z</time>
      </trkpt>
      <trkpt lat="47.88731" lon="6.91693">
        <ele>619.2</ele>
        <time>2023-04-30T06:48:46.000Z</time>
      </trkpt>
      <trkpt lat="47.88731" lon="6.91695">
        <ele>619</ele>
        <time>2023-04-30T06:48:47.000Z</time>
      </trkpt>
      <trkpt lat="47.8873" lon="6.91697">
        <ele>618.8</ele>
        <time>2023-04-30T06:48:48.000Z</time>
      </trkpt>
      <trkpt lat="47.8873" lon="6.91699">
        <ele>618.6</ele>
        <time>2023-04-30T06:48:49.000Z</time>
      </trkpt>
      <trkpt lat="47.88731" lon="6.91701">
        <ele>618.6</ele>
        <time>2023-04-30T06:48:50.000Z</time>
      </trkpt>
      <trkpt lat="47.8873" lon="6.91703">
        <ele>618.4</ele>
        <time>2023-04-30T06:48:51.000Z</time>
      </trkpt>
      <trkpt lat="47.88729" lon="6.91706">
        <ele>617.8</ele>
        <time>2023-04-30T06:48:53.000Z</time>
      </trkpt>
      <trkpt lat="47.8873" lon="6.91711">
        <ele>617.4</ele>
        <time>2023-04-30T06:48:55.000Z</time>
      </trkpt>
      <trkpt lat="47.8873" lon="6.91717">
        <ele>616.6</ele>
        <time>2023-04-30T06:48:58.000Z</time>
      </trkpt>
      <trkpt lat="47.88733" lon="6.91728">
        <ele>615.6</ele>
        <time>2023-04-30T06:49:03.000Z</time>
      </trkpt>
      <trkpt lat="47.88734" lon="6.9173">
        <ele>615.4</ele>
        <time>2023-04-30T06:49:04.000Z</time>
      </trkpt>
      <trkpt lat="47.88737" lon="6.91748">
        <ele>613</ele>
        <time>2023-04-30T06:49:18.000Z</time>
      </trkpt>
      <trkpt lat="47.88741" lon="6.91755">
        <ele>612.8</ele>
        <time>2023-04-30T06:49:22.000Z</time>
      </trkpt>
      <trkpt lat="47.88743" lon="6.9176">
        <ele>612.8</ele>
        <time>2023-04-30T06:49:24.000Z</time>
      </trkpt>
      <trkpt lat="47.8875" lon="6.91773">
        <ele>609.6</ele>
        <time>2023-04-30T06:49:34.000Z</time>
      </trkpt>
      <trkpt lat="47.88754" lon="6.91789">
        <ele>606.4</ele>
        <time>2023-04-30T06:49:45.000Z</time>
      </trkpt>
      <trkpt lat="47.88758" lon="6.91805">
        <ele>603.2</ele>
        <time>2023-04-30T06:49:57.000Z</time>
      </trkpt>
      <trkpt lat="47.88762" lon="6.91821">
        <ele>600.2</ele>
        <time>2023-04-30T06:50:12.000Z</time>
      </trkpt>
      <trkpt lat="47.88762" lon="6.91836">
        <ele>597</ele>
        <time>2023-04-30T06:50:22.000Z</time>
      </trkpt>
      <trkpt lat="47.88765" lon="6.91854">
        <ele>593.8</ele>
        <time>2023-04-30T06:50:35.000Z</time>
      </trkpt>
      <trkpt lat="47.88764" lon="6.91865">
        <ele>590.6</ele>
        <time>2023-04-30T06:50:46.000Z</time>
      </trkpt>
      <trkpt lat="47.88764" lon="6.91881">
        <ele>587.6</ele>
        <time>2023-04-30T06:50:58.000Z</time>
      </trkpt>
      <trkpt lat="47.8876" lon="6.91892">
        <ele>584.4</ele>
        <time>2023-04-30T06:51:10.000Z</time>
      </trkpt>
      <trkpt lat="47.88757" lon="6.91899">
        <ele>582.6</ele>
        <time>2023-04-30T06:51:15.000Z</time>
      </trkpt>
      <trkpt lat="47.88744" lon="6.91916">
        <ele>579.4</ele>
        <time>2023-04-30T06:51:29.000Z</time>
      </trkpt>
      <trkpt lat="47.88723" lon="6.91933">
        <ele>578.2</ele>
        <time>2023-04-30T06:51:45.000Z</time>
      </trkpt>
      <trkpt lat="47.88718" lon="6.91936">
        <ele>578.2</ele>
        <time>2023-04-30T06:51:48.000Z</time>
      </trkpt>
      <trkpt lat="47.88716" lon="6.91937">
        <ele>578.4</ele>
        <time>2023-04-30T06:51:49.000Z</time>
      </trkpt>
      <trkpt lat="47.88714" lon="6.91942">
        <ele>578</ele>
        <time>2023-04-30T06:51:53.000Z</time>
      </trkpt>
      <trkpt lat="47.88705" lon="6.91955">
        <ele>577.4</ele>
        <time>2023-04-30T06:52:02.000Z</time>
      </trkpt>
      <trkpt lat="47.88704" lon="6.91957">
        <ele>577.2</ele>
        <time>2023-04-30T06:52:03.000Z</time>
      </trkpt>
      <trkpt lat="47.88689" lon="6.91982">
        <ele>576.8</ele>
        <time>2023-04-30T06:52:16.000Z</time>
      </trkpt>
      <trkpt lat="47.88682" lon="6.92007">
        <ele>576</ele>
        <time>2023-04-30T06:52:28.000Z</time>
      </trkpt>
      <trkpt lat="47.88682" lon="6.92015">
        <ele>575.6</ele>
        <time>2023-04-30T06:52:31.000Z</time>
      </trkpt>
      <trkpt lat="47.88669" lon="6.92054">
        <ele>574</ele>
        <time>2023-04-30T06:52:51.000Z</time>
      </trkpt>
      <trkpt lat="47.88665" lon="6.92067">
        <ele>572.8</ele>
        <time>2023-04-30T06:53:02.000Z</time>
      </trkpt>
      <trkpt lat="47.88663" lon="6.92079">
        <ele>572</ele>
        <time>2023-04-30T06:53:09.000Z</time>
      </trkpt>
      <trkpt lat="47.88656" lon="6.92113">
        <ele>569.6</ele>
        <time>2023-04-30T06:53:27.000Z</time>
      </trkpt>
      <trkpt lat="47.88656" lon="6.92125">
        <ele>569</ele>
        <time>2023-04-30T06:53:33.000Z</time>
      </trkpt>
      <trkpt lat="47.88655" lon="6.92127">
        <ele>568.8</ele>
        <time>2023-04-30T06:53:34.000Z</time>
      </trkpt>
      <trkpt lat="47.88655" lon="6.9213">
        <ele>568.6</ele>
        <time>2023-04-30T06:53:35.000Z</time>
      </trkpt>
      <trkpt lat="47.88655" lon="6.92132">
        <ele>568.6</ele>
        <time>2023-04-30T06:53:36.000Z</time>
      </trkpt>
      <trkpt lat="47.88655" lon="6.92134">
        <ele>568.6</ele>
        <time>2023-04-30T06:53:37.000Z</time>
      </trkpt>
      <trkpt lat="47.88655" lon="6.92136">
        <ele>568.6</ele>
        <time>2023-04-30T06:53:38.000Z</time>
      </trkpt>
      <trkpt lat="47.88654" lon="6.92138">
        <ele>568.4</ele>
        <time>2023-04-30T06:53:39.000Z</time>
      </trkpt>
      <trkpt lat="47.88654" lon="6.92142">
        <ele>568.2</ele>
        <time>2023-04-30T06:53:41.000Z</time>
      </trkpt>
      <trkpt lat="47.88652" lon="6.92148">
        <ele>568</ele>
        <time>2023-04-30T06:53:44.000Z</time>
      </trkpt>
      <trkpt lat="47.88647" lon="6.9216">
        <ele>567.8</ele>
        <time>2023-04-30T06:53:52.000Z</time>
      </trkpt>
      <trkpt lat="47.88646" lon="6.92164">
        <ele>567.8</ele>
        <time>2023-04-30T06:53:54.000Z</time>
      </trkpt>
      <trkpt lat="47.88645" lon="6.92166">
        <ele>567.8</ele>
        <time>2023-04-30T06:53:55.000Z</time>
      </trkpt>
      <trkpt lat="47.88644" lon="6.92167">
        <ele>567.6</ele>
        <time>2023-04-30T06:53:56.000Z</time>
      </trkpt>
      <trkpt lat="47.88644" lon="6.92169">
        <ele>567.6</ele>
        <time>2023-04-30T06:53:57.000Z</time>
      </trkpt>
      <trkpt lat="47.88644" lon="6.9217">
        <ele>567.6</ele>
        <time>2023-04-30T06:53:58.000Z</time>
      </trkpt>
      <trkpt lat="47.88643" lon="6.92172">
        <ele>567.6</ele>
        <time>2023-04-30T06:53:59.000Z</time>
      </trkpt>
      <trkpt lat="47.88642" lon="6.92173">
        <ele>567.4</ele>
        <time>2023-04-30T06:54:00.000Z</time>
      </trkpt>
      <trkpt lat="47.88642" lon="6.92175">
        <ele>567.4</ele>
        <time>2023-04-30T06:54:01.000Z</time>
      </trkpt>
      <trkpt lat="47.88638" lon="6.9219">
        <ele>566.8</ele>
        <time>2023-04-30T06:54:09.000Z</time>
      </trkpt>
      <trkpt lat="47.88637" lon="6.92192">
        <ele>566.6</ele>
        <time>2023-04-30T06:54:10.000Z</time>
      </trkpt>
      <trkpt lat="47.88635" lon="6.92196">
        <ele>566.4</ele>
        <time>2023-04-30T06:54:13.000Z</time>
      </trkpt>
      <trkpt lat="47.88631" lon="6.92197">
        <ele>566.4</ele>
        <time>2023-04-30T06:54:15.000Z</time>
      </trkpt>
      <trkpt lat="47.88631" lon="6.92198">
        <ele>566.4</ele>
        <time>2023-04-30T06:54:16.000Z</time>
      </trkpt>
      <trkpt lat="47.88635" lon="6.92209">
        <ele>566.2</ele>
        <time>2023-04-30T06:54:31.000Z</time>
      </trkpt>
      <trkpt lat="47.88635" lon="6.92211">
        <ele>566.2</ele>
        <time>2023-04-30T06:54:32.000Z</time>
      </trkpt>
      <trkpt lat="47.88636" lon="6.92213">
        <ele>566.2</ele>
        <time>2023-04-30T06:54:33.000Z</time>
      </trkpt>
      <trkpt lat="47.88636" lon="6.92215">
        <ele>566.4</ele>
        <time>2023-04-30T06:54:34.000Z</time>
      </trkpt>
      <trkpt lat="47.88635" lon="6.92218">
        <ele>566.4</ele>
        <time>2023-04-30T06:54:36.000Z</time>
      </trkpt>
      <trkpt lat="47.88635" lon="6.9222">
        <ele>566.4</ele>
        <time>2023-04-30T06:54:37.000Z</time>
      </trkpt>
      <trkpt lat="47.88635" lon="6.92222">
        <ele>566.4</ele>
        <time>2023-04-30T06:54:38.000Z</time>
      </trkpt>
      <trkpt lat="47.88635" lon="6.92224">
        <ele>566.4</ele>
        <time>2023-04-30T06:54:39.000Z</time>
      </trkpt>
      <trkpt lat="47.88635" lon="6.92226">
        <ele>566.4</ele>
        <time>2023-04-30T06:54:40.000Z</time>
      </trkpt>
      <trkpt lat="47.88636" lon="6.92231">
        <ele>566.2</ele>
        <time>2023-04-30T06:54:42.000Z</time>
      </trkpt>
      <trkpt lat="47.88639" lon="6.92253">
        <ele>566</ele>
        <time>2023-04-30T06:54:59.000Z</time>
      </trkpt>
      <trkpt lat="47.88637" lon="6.9228">
        <ele>565.4</ele>
        <time>2023-04-30T06:55:15.000Z</time>
      </trkpt>
      <trkpt lat="47.88638" lon="6.92294">
        <ele>565.2</ele>
        <time>2023-04-30T06:55:23.000Z</time>
      </trkpt>
      <trkpt lat="47.88639" lon="6.9231">
        <ele>564.6</ele>
        <time>2023-04-30T06:55:35.000Z</time>
      </trkpt>
      <trkpt lat="47.88638" lon="6.92314">
        <ele>564.6</ele>
        <time>2023-04-30T06:55:37.000Z</time>
      </trkpt>
      <trkpt lat="47.88638" lon="6.92315">
        <ele>564.6</ele>
        <time>2023-04-30T06:55:38.000Z</time>
      </trkpt>
      <trkpt lat="47.88638" lon="6.92317">
        <ele>564.4</ele>
        <time>2023-04-30T06:55:39.000Z</time>
      </trkpt>
      <trkpt lat="47.88638" lon="6.92322">
        <ele>564.4</ele>
        <time>2023-04-30T06:55:52.000Z</time>
      </trkpt>
      <trkpt lat="47.88638" lon="6.92324">
        <ele>564.4</ele>
        <time>2023-04-30T06:55:53.000Z</time>
      </trkpt>
      <trkpt lat="47.88638" lon="6.92325">
        <ele>564.4</ele>
        <time>2023-04-30T06:55:54.000Z</time>
      </trkpt>
      <trkpt lat="47.88638" lon="6.92327">
        <ele>564.4</ele>
        <time>2023-04-30T06:55:55.000Z</time>
      </trkpt>
      <trkpt lat="47.88639" lon="6.92329">
        <ele>564.4</ele>
        <time>2023-04-30T06:55:56.000Z</time>
      </trkpt>
      <trkpt lat="47.88638" lon="6.92352">
        <ele>564.4</ele>
        <time>2023-04-30T06:56:09.000Z</time>
      </trkpt>
      <trkpt lat="47.88638" lon="6.92371">
        <ele>564.4</ele>
        <time>2023-04-30T06:56:20.000Z</time>
      </trkpt>
      <trkpt lat="47.88638" lon="6.92372">
        <ele>564.4</ele>
        <time>2023-04-30T06:56:21.000Z</time>
      </trkpt>
      <trkpt lat="47.88637" lon="6.92375">
        <ele>564.4</ele>
        <time>2023-04-30T06:56:22.000Z</time>
      </trkpt>
      <trkpt lat="47.88633" lon="6.92389">
        <ele>564.4</ele>
        <time>2023-04-30T06:56:30.000Z</time>
      </trkpt>
      <trkpt lat="47.88632" lon="6.92391">
        <ele>564.4</ele>
        <time>2023-04-30T06:56:31.000Z</time>
      </trkpt>
      <trkpt lat="47.88631" lon="6.92393">
        <ele>564.4</ele>
        <time>2023-04-30T06:56:32.000Z</time>
      </trkpt>
      <trkpt lat="47.88631" lon="6.92396">
        <ele>564.4</ele>
        <time>2023-04-30T06:56:34.000Z</time>
      </trkpt>
      <trkpt lat="47.88621" lon="6.92409">
        <ele>564.4</ele>
        <time>2023-04-30T06:56:44.000Z</time>
      </trkpt>
      <trkpt lat="47.8862" lon="6.9241">
        <ele>564.4</ele>
        <time>2023-04-30T06:56:45.000Z</time>
      </trkpt>
      <trkpt lat="47.88619" lon="6.92412">
        <ele>564.4</ele>
        <time>2023-04-30T06:56:46.000Z</time>
      </trkpt>
      <trkpt lat="47.88617" lon="6.92418">
        <ele>564.4</ele>
        <time>2023-04-30T06:56:51.000Z</time>
      </trkpt>
      <trkpt lat="47.88613" lon="6.92421">
        <ele>564.4</ele>
        <time>2023-04-30T06:56:54.000Z</time>
      </trkpt>
      <trkpt lat="47.8861" lon="6.92424">
        <ele>564.4</ele>
        <time>2023-04-30T06:56:57.000Z</time>
      </trkpt>
      <trkpt lat="47.88606" lon="6.92429">
        <ele>564.8</ele>
        <time>2023-04-30T06:57:01.000Z</time>
      </trkpt>
      <trkpt lat="47.88605" lon="6.9243">
        <ele>564.8</ele>
        <time>2023-04-30T06:57:02.000Z</time>
      </trkpt>
      <trkpt lat="47.88601" lon="6.92433">
        <ele>565</ele>
        <time>2023-04-30T06:57:05.000Z</time>
      </trkpt>
      <trkpt lat="47.88596" lon="6.92435">
        <ele>565.2</ele>
        <time>2023-04-30T06:57:08.000Z</time>
      </trkpt>
      <trkpt lat="47.88595" lon="6.92436">
        <ele>565.2</ele>
        <time>2023-04-30T06:57:09.000Z</time>
      </trkpt>
      <trkpt lat="47.8859" lon="6.92444">
        <ele>565.4</ele>
        <time>2023-04-30T06:57:15.000Z</time>
      </trkpt>
      <trkpt lat="47.88589" lon="6.92446">
        <ele>565.4</ele>
        <time>2023-04-30T06:57:16.000Z</time>
      </trkpt>
      <trkpt lat="47.88575" lon="6.92458">
        <ele>565.8</ele>
        <time>2023-04-30T06:57:29.000Z</time>
      </trkpt>
      <trkpt lat="47.88574" lon="6.92459">
        <ele>565.8</ele>
        <time>2023-04-30T06:57:30.000Z</time>
      </trkpt>
      <trkpt lat="47.88573" lon="6.9246">
        <ele>565.6</ele>
        <time>2023-04-30T06:57:31.000Z</time>
      </trkpt>
      <trkpt lat="47.88569" lon="6.92473">
        <ele>565.8</ele>
        <time>2023-04-30T06:57:45.000Z</time>
      </trkpt>
      <trkpt lat="47.88577" lon="6.92476">
        <ele>564.8</ele>
        <time>2023-04-30T06:58:12.000Z</time>
      </trkpt>
      <trkpt lat="47.88579" lon="6.92478">
        <ele>564.8</ele>
        <time>2023-04-30T06:58:16.000Z</time>
      </trkpt>
      <trkpt lat="47.88588" lon="6.92487">
        <ele>564.6</ele>
        <time>2023-04-30T06:58:57.000Z</time>
      </trkpt>
      <trkpt lat="47.88581" lon="6.92496">
        <ele>565.6</ele>
        <time>2023-04-30T06:59:07.000Z</time>
      </trkpt>
      <trkpt lat="47.88575" lon="6.92504">
        <ele>565.8</ele>
        <time>2023-04-30T06:59:13.000Z</time>
      </trkpt>
      <trkpt lat="47.88574" lon="6.92505">
        <ele>565.6</ele>
        <time>2023-04-30T06:59:14.000Z</time>
      </trkpt>
      <trkpt lat="47.88572" lon="6.92506">
        <ele>565.6</ele>
        <time>2023-04-30T06:59:15.000Z</time>
      </trkpt>
      <trkpt lat="47.88572" lon="6.92507">
        <ele>565.6</ele>
        <time>2023-04-30T06:59:16.000Z</time>
      </trkpt>
      <trkpt lat="47.8857" lon="6.92508">
        <ele>565.6</ele>
        <time>2023-04-30T06:59:17.000Z</time>
      </trkpt>
      <trkpt lat="47.88569" lon="6.92509">
        <ele>565.6</ele>
        <time>2023-04-30T06:59:18.000Z</time>
      </trkpt>
      <trkpt lat="47.88568" lon="6.9251">
        <ele>565.6</ele>
        <time>2023-04-30T06:59:19.000Z</time>
      </trkpt>
      <trkpt lat="47.88568" lon="6.92512">
        <ele>565.4</ele>
        <time>2023-04-30T06:59:20.000Z</time>
      </trkpt>
      <trkpt lat="47.88561" lon="6.92528">
        <ele>565</ele>
        <time>2023-04-30T06:59:30.000Z</time>
      </trkpt>
      <trkpt lat="47.8856" lon="6.9253">
        <ele>565</ele>
        <time>2023-04-30T06:59:31.000Z</time>
      </trkpt>
      <trkpt lat="47.88549" lon="6.9256">
        <ele>564.6</ele>
        <time>2023-04-30T06:59:48.000Z</time>
      </trkpt>
      <trkpt lat="47.88545" lon="6.92576">
        <ele>564.6</ele>
        <time>2023-04-30T06:59:57.000Z</time>
      </trkpt>
      <trkpt lat="47.88544" lon="6.92577">
        <ele>564.6</ele>
        <time>2023-04-30T06:59:58.000Z</time>
      </trkpt>
      <trkpt lat="47.88514" lon="6.92618">
        <ele>564.2</ele>
        <time>2023-04-30T07:00:44.000Z</time>
      </trkpt>
      <trkpt lat="47.88516" lon="6.92622">
        <ele>564.2</ele>
        <time>2023-04-30T07:01:20.000Z</time>
      </trkpt>
      <trkpt lat="47.88515" lon="6.92622">
        <ele>563.8</ele>
        <time>2023-04-30T07:01:54.000Z</time>
      </trkpt>
      <trkpt lat="47.88515" lon="6.92622">
        <ele>563.8</ele>
        <time>2023-04-30T07:02:32.000Z</time>
      </trkpt>
      <trkpt lat="47.88521" lon="6.92621">
        <ele>563.8</ele>
        <time>2023-04-30T07:03:11.000Z</time>
      </trkpt>
      <trkpt lat="47.8852" lon="6.92619">
        <ele>563.8</ele>
        <time>2023-04-30T07:03:37.000Z</time>
      </trkpt>
      <trkpt lat="47.88513" lon="6.92616">
        <ele>563.4</ele>
        <time>2023-04-30T07:04:50.000Z</time>
      </trkpt>
      <trkpt lat="47.88516" lon="6.92616">
        <ele>563.4</ele>
        <time>2023-04-30T07:05:24.000Z</time>
      </trkpt>
      <trkpt lat="47.88519" lon="6.92622">
        <ele>563.4</ele>
        <time>2023-04-30T07:05:55.000Z</time>
      </trkpt>
      <trkpt lat="47.88515" lon="6.92623">
        <ele>563</ele>
        <time>2023-04-30T07:06:30.000Z</time>
      </trkpt>
      <trkpt lat="47.88512" lon="6.92617">
        <ele>562.8</ele>
        <time>2023-04-30T07:07:02.000Z</time>
      </trkpt>
      <trkpt lat="47.88514" lon="6.92619">
        <ele>562.8</ele>
        <time>2023-04-30T07:07:37.000Z</time>
      </trkpt>
      <trkpt lat="47.8851" lon="6.92608">
        <ele>562.8</ele>
        <time>2023-04-30T07:08:32.000Z</time>
      </trkpt>
      <trkpt lat="47.88514" lon="6.92618">
        <ele>562.6</ele>
        <time>2023-04-30T07:10:40.000Z</time>
      </trkpt>
      <trkpt lat="47.8851" lon="6.92615">
        <ele>562.6</ele>
        <time>2023-04-30T07:11:08.000Z</time>
      </trkpt>
      <trkpt lat="47.88515" lon="6.92616">
        <ele>563</ele>
        <time>2023-04-30T07:11:53.000Z</time>
      </trkpt>
      <trkpt lat="47.88518" lon="6.92617">
        <ele>563.4</ele>
        <time>2023-04-30T07:12:26.000Z</time>
      </trkpt>
      <trkpt lat="47.8851" lon="6.9261">
        <ele>563.2</ele>
        <time>2023-04-30T07:13:36.000Z</time>
      </trkpt>
      <trkpt lat="47.88517" lon="6.92617">
        <ele>563</ele>
        <time>2023-04-30T07:14:33.000Z</time>
      </trkpt>
      <trkpt lat="47.88516" lon="6.92619">
        <ele>562.8</ele>
        <time>2023-04-30T07:14:53.000Z</time>
      </trkpt>
      <trkpt lat="47.88515" lon="6.9262">
        <ele>563</ele>
        <time>2023-04-30T07:15:29.000Z</time>
      </trkpt>
      <trkpt lat="47.88518" lon="6.92616">
        <ele>562.8</ele>
        <time>2023-04-30T07:16:00.000Z</time>
      </trkpt>
      <trkpt lat="47.88511" lon="6.92611">
        <ele>562.8</ele>
        <time>2023-04-30T07:16:34.000Z</time>
      </trkpt>
      <trkpt lat="47.88512" lon="6.92611">
        <ele>562.8</ele>
        <time>2023-04-30T07:16:41.000Z</time>
      </trkpt>
      <trkpt lat="47.88516" lon="6.92617">
        <ele>562.8</ele>
        <time>2023-04-30T07:17:15.000Z</time>
      </trkpt>
      <trkpt lat="47.88521" lon="6.9262">
        <ele>562.8</ele>
        <time>2023-04-30T07:17:50.000Z</time>
      </trkpt>
      <trkpt lat="47.88518" lon="6.92616">
        <ele>562.8</ele>
        <time>2023-04-30T07:18:30.000Z</time>
      </trkpt>
      <trkpt lat="47.88515" lon="6.92621">
        <ele>562.8</ele>
        <time>2023-04-30T07:19:19.000Z</time>
      </trkpt>
      <trkpt lat="47.8851" lon="6.92618">
        <ele>562.6</ele>
        <time>2023-04-30T07:19:51.000Z</time>
      </trkpt>
      <trkpt lat="47.88514" lon="6.92622">
        <ele>562.8</ele>
        <time>2023-04-30T07:20:24.000Z</time>
      </trkpt>
      <trkpt lat="47.88516" lon="6.92621">
        <ele>562.4</ele>
        <time>2023-04-30T07:21:01.000Z</time>
      </trkpt>
      <trkpt lat="47.88511" lon="6.92617">
        <ele>562.4</ele>
        <time>2023-04-30T07:21:30.000Z</time>
      </trkpt>
      <trkpt lat="47.88513" lon="6.92617">
        <ele>562.4</ele>
        <time>2023-04-30T07:21:55.000Z</time>
      </trkpt>
      <trkpt lat="47.88509" lon="6.92607">
        <ele>562.4</ele>
        <time>2023-04-30T07:22:16.000Z</time>
      </trkpt>
      <trkpt lat="47.88504" lon="6.92588">
        <ele>563</ele>
        <time>2023-04-30T07:22:36.000Z</time>
      </trkpt>
      <trkpt lat="47.88498" lon="6.92578">
        <ele>563.6</ele>
        <time>2023-04-30T07:22:54.000Z</time>
      </trkpt>
      <trkpt lat="47.88492" lon="6.92563">
        <ele>565.6</ele>
        <time>2023-04-30T07:23:07.000Z</time>
      </trkpt>
      <trkpt lat="47.88492" lon="6.9255">
        <ele>568</ele>
        <time>2023-04-30T07:23:20.000Z</time>
      </trkpt>
      <trkpt lat="47.88492" lon="6.92537">
        <ele>570.8</ele>
        <time>2023-04-30T07:23:30.000Z</time>
      </trkpt>
      <trkpt lat="47.88489" lon="6.92501">
        <ele>569.8</ele>
        <time>2023-04-30T07:23:53.000Z</time>
      </trkpt>
      <trkpt lat="47.88486" lon="6.92479">
        <ele>570.2</ele>
        <time>2023-04-30T07:24:06.000Z</time>
      </trkpt>
      <trkpt lat="47.88488" lon="6.92453">
        <ele>571</ele>
        <time>2023-04-30T07:24:20.000Z</time>
      </trkpt>
      <trkpt lat="47.88485" lon="6.92425">
        <ele>573.6</ele>
        <time>2023-04-30T07:24:40.000Z</time>
      </trkpt>
      <trkpt lat="47.88466" lon="6.92435">
        <ele>574.8</ele>
        <time>2023-04-30T07:25:01.000Z</time>
      </trkpt>
      <trkpt lat="47.88459" lon="6.92442">
        <ele>576.2</ele>
        <time>2023-04-30T07:25:10.000Z</time>
      </trkpt>
      <trkpt lat="47.88443" lon="6.92451">
        <ele>578.8</ele>
        <time>2023-04-30T07:25:24.000Z</time>
      </trkpt>
      <trkpt lat="47.88434" lon="6.92462">
        <ele>580.8</ele>
        <time>2023-04-30T07:25:36.000Z</time>
      </trkpt>
      <trkpt lat="47.88433" lon="6.92454">
        <ele>583.6</ele>
        <time>2023-04-30T07:25:51.000Z</time>
      </trkpt>
      <trkpt lat="47.88436" lon="6.92438">
        <ele>586.6</ele>
        <time>2023-04-30T07:26:05.000Z</time>
      </trkpt>
      <trkpt lat="47.88434" lon="6.92422">
        <ele>589.8</ele>
        <time>2023-04-30T07:26:20.000Z</time>
      </trkpt>
      <trkpt lat="47.88421" lon="6.92415">
        <ele>593.2</ele>
        <time>2023-04-30T07:26:37.000Z</time>
      </trkpt>
      <trkpt lat="47.88402" lon="6.9241">
        <ele>595.6</ele>
        <time>2023-04-30T07:26:53.000Z</time>
      </trkpt>
      <trkpt lat="47.88394" lon="6.9239">
        <ele>597.4</ele>
        <time>2023-04-30T07:27:13.000Z</time>
      </trkpt>
      <trkpt lat="47.88392" lon="6.92375">
        <ele>599.4</ele>
        <time>2023-04-30T07:27:25.000Z</time>
      </trkpt>
      <trkpt lat="47.88387" lon="6.92363">
        <ele>601.4</ele>
        <time>2023-04-30T07:27:35.000Z</time>
      </trkpt>
      <trkpt lat="47.88382" lon="6.92343">
        <ele>604</ele>
        <time>2023-04-30T07:27:48.000Z</time>
      </trkpt>
      <trkpt lat="47.8838" lon="6.92325">
        <ele>606.4</ele>
        <time>2023-04-30T07:28:03.000Z</time>
      </trkpt>
      <trkpt lat="47.88378" lon="6.92316">
        <ele>607.4</ele>
        <time>2023-04-30T07:28:10.000Z</time>
      </trkpt>
      <trkpt lat="47.88375" lon="6.92289">
        <ele>609</ele>
        <time>2023-04-30T07:28:27.000Z</time>
      </trkpt>
      <trkpt lat="47.88372" lon="6.92259">
        <ele>612.2</ele>
        <time>2023-04-30T07:28:47.000Z</time>
      </trkpt>
      <trkpt lat="47.88372" lon="6.92241">
        <ele>615.2</ele>
        <time>2023-04-30T07:29:02.000Z</time>
      </trkpt>
      <trkpt lat="47.88373" lon="6.92227">
        <ele>618.2</ele>
        <time>2023-04-30T07:29:15.000Z</time>
      </trkpt>
      <trkpt lat="47.88373" lon="6.9221">
        <ele>621.4</ele>
        <time>2023-04-30T07:29:32.000Z</time>
      </trkpt>
      <trkpt lat="47.88369" lon="6.92186">
        <ele>624.4</ele>
        <time>2023-04-30T07:29:48.000Z</time>
      </trkpt>
      <trkpt lat="47.88353" lon="6.92164">
        <ele>627.4</ele>
        <time>2023-04-30T07:30:05.000Z</time>
      </trkpt>
      <trkpt lat="47.88335" lon="6.92148">
        <ele>629.8</ele>
        <time>2023-04-30T07:30:27.000Z</time>
      </trkpt>
      <trkpt lat="47.88327" lon="6.92134">
        <ele>632.8</ele>
        <time>2023-04-30T07:30:42.000Z</time>
      </trkpt>
      <trkpt lat="47.88321" lon="6.9213">
        <ele>636</ele>
        <time>2023-04-30T07:30:53.000Z</time>
      </trkpt>
      <trkpt lat="47.88306" lon="6.92119">
        <ele>639</ele>
        <time>2023-04-30T07:31:09.000Z</time>
      </trkpt>
      <trkpt lat="47.88294" lon="6.92108">
        <ele>640.8</ele>
        <time>2023-04-30T07:31:23.000Z</time>
      </trkpt>
      <trkpt lat="47.88291" lon="6.92107">
        <ele>641.4</ele>
        <time>2023-04-30T07:31:26.000Z</time>
      </trkpt>
      <trkpt lat="47.8829" lon="6.92106">
        <ele>641.6</ele>
        <time>2023-04-30T07:31:27.000Z</time>
      </trkpt>
      <trkpt lat="47.88289" lon="6.92106">
        <ele>641.6</ele>
        <time>2023-04-30T07:31:28.000Z</time>
      </trkpt>
      <trkpt lat="47.88285" lon="6.92102">
        <ele>642</ele>
        <time>2023-04-30T07:31:44.000Z</time>
      </trkpt>
      <trkpt lat="47.88278" lon="6.92083">
        <ele>643</ele>
        <time>2023-04-30T07:31:58.000Z</time>
      </trkpt>
      <trkpt lat="47.88266" lon="6.92075">
        <ele>644.8</ele>
        <time>2023-04-30T07:32:13.000Z</time>
      </trkpt>
      <trkpt lat="47.88264" lon="6.92076">
        <ele>645</ele>
        <time>2023-04-30T07:32:15.000Z</time>
      </trkpt>
      <trkpt lat="47.88252" lon="6.92078">
        <ele>645.4</ele>
        <time>2023-04-30T07:32:23.000Z</time>
      </trkpt>
      <trkpt lat="47.88238" lon="6.92089">
        <ele>645.8</ele>
        <time>2023-04-30T07:32:38.000Z</time>
      </trkpt>
      <trkpt lat="47.88222" lon="6.92083">
        <ele>646</ele>
        <time>2023-04-30T07:32:52.000Z</time>
      </trkpt>
      <trkpt lat="47.88175" lon="6.92068">
        <ele>647</ele>
        <time>2023-04-30T07:33:31.000Z</time>
      </trkpt>
      <trkpt lat="47.88157" lon="6.92074">
        <ele>647</ele>
        <time>2023-04-30T07:33:47.000Z</time>
      </trkpt>
      <trkpt lat="47.88141" lon="6.9208">
        <ele>647.2</ele>
        <time>2023-04-30T07:34:01.000Z</time>
      </trkpt>
      <trkpt lat="47.88122" lon="6.92093">
        <ele>646.2</ele>
        <time>2023-04-30T07:34:18.000Z</time>
      </trkpt>
      <trkpt lat="47.88108" lon="6.92109">
        <ele>645</ele>
        <time>2023-04-30T07:34:34.000Z</time>
      </trkpt>
      <trkpt lat="47.88098" lon="6.92118">
        <ele>645</ele>
        <time>2023-04-30T07:34:50.000Z</time>
      </trkpt>
      <trkpt lat="47.8809" lon="6.92114">
        <ele>646</ele>
        <time>2023-04-30T07:35:07.000Z</time>
      </trkpt>
      <trkpt lat="47.88088" lon="6.9211">
        <ele>646</ele>
        <time>2023-04-30T07:35:34.000Z</time>
      </trkpt>
      <trkpt lat="47.88084" lon="6.92108">
        <ele>649</ele>
        <time>2023-04-30T07:35:54.000Z</time>
      </trkpt>
      <trkpt lat="47.88079" lon="6.92105">
        <ele>652</ele>
        <time>2023-04-30T07:36:07.000Z</time>
      </trkpt>
      <trkpt lat="47.88068" lon="6.92103">
        <ele>655</ele>
        <time>2023-04-30T07:36:20.000Z</time>
      </trkpt>
      <trkpt lat="47.88064" lon="6.92094">
        <ele>658.2</ele>
        <time>2023-04-30T07:36:31.000Z</time>
      </trkpt>
      <trkpt lat="47.88059" lon="6.92089">
        <ele>660.6</ele>
        <time>2023-04-30T07:36:45.000Z</time>
      </trkpt>
      <trkpt lat="47.88052" lon="6.92094">
        <ele>663.8</ele>
        <time>2023-04-30T07:36:59.000Z</time>
      </trkpt>
      <trkpt lat="47.88049" lon="6.92091">
        <ele>666</ele>
        <time>2023-04-30T07:37:12.000Z</time>
      </trkpt>
      <trkpt lat="47.88043" lon="6.92091">
        <ele>667.4</ele>
        <time>2023-04-30T07:37:19.000Z</time>
      </trkpt>
      <trkpt lat="47.88041" lon="6.92077">
        <ele>670.8</ele>
        <time>2023-04-30T07:37:37.000Z</time>
      </trkpt>
      <trkpt lat="47.88039" lon="6.92077">
        <ele>671</ele>
        <time>2023-04-30T07:38:11.000Z</time>
      </trkpt>
      <trkpt lat="47.88028" lon="6.92082">
        <ele>672.2</ele>
        <time>2023-04-30T07:38:21.000Z</time>
      </trkpt>
      <trkpt lat="47.88021" lon="6.92097">
        <ele>673.4</ele>
        <time>2023-04-30T07:38:32.000Z</time>
      </trkpt>
      <trkpt lat="47.88016" lon="6.92119">
        <ele>675.2</ele>
        <time>2023-04-30T07:38:46.000Z</time>
      </trkpt>
      <trkpt lat="47.88014" lon="6.92122">
        <ele>675.4</ele>
        <time>2023-04-30T07:38:48.000Z</time>
      </trkpt>
      <trkpt lat="47.88011" lon="6.92144">
        <ele>677</ele>
        <time>2023-04-30T07:39:00.000Z</time>
      </trkpt>
      <trkpt lat="47.88008" lon="6.92172">
        <ele>679.4</ele>
        <time>2023-04-30T07:39:18.000Z</time>
      </trkpt>
      <trkpt lat="47.87998" lon="6.92186">
        <ele>681.2</ele>
        <time>2023-04-30T07:39:37.000Z</time>
      </trkpt>
      <trkpt lat="47.87994" lon="6.92196">
        <ele>682.4</ele>
        <time>2023-04-30T07:39:44.000Z</time>
      </trkpt>
      <trkpt lat="47.87992" lon="6.92202">
        <ele>683</ele>
        <time>2023-04-30T07:39:49.000Z</time>
      </trkpt>
      <trkpt lat="47.87983" lon="6.92222">
        <ele>685.8</ele>
        <time>2023-04-30T07:40:06.000Z</time>
      </trkpt>
      <trkpt lat="47.87977" lon="6.92228">
        <ele>687.6</ele>
        <time>2023-04-30T07:40:17.000Z</time>
      </trkpt>
      <trkpt lat="47.87975" lon="6.92229">
        <ele>688.2</ele>
        <time>2023-04-30T07:40:19.000Z</time>
      </trkpt>
      <trkpt lat="47.87966" lon="6.92228">
        <ele>691</ele>
        <time>2023-04-30T07:40:35.000Z</time>
      </trkpt>
      <trkpt lat="47.87965" lon="6.92221">
        <ele>694.2</ele>
        <time>2023-04-30T07:40:52.000Z</time>
      </trkpt>
      <trkpt lat="47.87959" lon="6.92208">
        <ele>697.2</ele>
        <time>2023-04-30T07:41:09.000Z</time>
      </trkpt>
      <trkpt lat="47.87953" lon="6.92184">
        <ele>700.2</ele>
        <time>2023-04-30T07:41:29.000Z</time>
      </trkpt>
      <trkpt lat="47.87943" lon="6.92177">
        <ele>701.8</ele>
        <time>2023-04-30T07:41:47.000Z</time>
      </trkpt>
      <trkpt lat="47.87938" lon="6.92172">
        <ele>701.8</ele>
        <time>2023-04-30T07:42:15.000Z</time>
      </trkpt>
      <trkpt lat="47.87924" lon="6.9215">
        <ele>703.6</ele>
        <time>2023-04-30T07:42:31.000Z</time>
      </trkpt>
      <trkpt lat="47.87923" lon="6.92132">
        <ele>706</ele>
        <time>2023-04-30T07:42:49.000Z</time>
      </trkpt>
      <trkpt lat="47.87914" lon="6.92107">
        <ele>708.8</ele>
        <time>2023-04-30T07:43:08.000Z</time>
      </trkpt>
      <trkpt lat="47.87905" lon="6.92082">
        <ele>710.8</ele>
        <time>2023-04-30T07:43:23.000Z</time>
      </trkpt>
      <trkpt lat="47.8789" lon="6.92057">
        <ele>713.2</ele>
        <time>2023-04-30T07:43:43.000Z</time>
      </trkpt>
      <trkpt lat="47.87889" lon="6.92057">
        <ele>713.4</ele>
        <time>2023-04-30T07:43:44.000Z</time>
      </trkpt>
      <trkpt lat="47.87881" lon="6.92047">
        <ele>715.2</ele>
        <time>2023-04-30T07:43:56.000Z</time>
      </trkpt>
      <trkpt lat="47.87876" lon="6.92025">
        <ele>717.8</ele>
        <time>2023-04-30T07:44:10.000Z</time>
      </trkpt>
      <trkpt lat="47.87869" lon="6.92013">
        <ele>719.2</ele>
        <time>2023-04-30T07:44:19.000Z</time>
      </trkpt>
      <trkpt lat="47.87869" lon="6.92012">
        <ele>719.4</ele>
        <time>2023-04-30T07:44:20.000Z</time>
      </trkpt>
      <trkpt lat="47.87864" lon="6.91989">
        <ele>721.8</ele>
        <time>2023-04-30T07:44:36.000Z</time>
      </trkpt>
      <trkpt lat="47.87856" lon="6.91965">
        <ele>723.4</ele>
        <time>2023-04-30T07:44:52.000Z</time>
      </trkpt>
      <trkpt lat="47.87853" lon="6.91945">
        <ele>724.6</ele>
        <time>2023-04-30T07:45:04.000Z</time>
      </trkpt>
      <trkpt lat="47.87846" lon="6.9192">
        <ele>726.8</ele>
        <time>2023-04-30T07:45:23.000Z</time>
      </trkpt>
      <trkpt lat="47.87839" lon="6.91895">
        <ele>728</ele>
        <time>2023-04-30T07:45:36.000Z</time>
      </trkpt>
      <trkpt lat="47.87834" lon="6.91876">
        <ele>729.8</ele>
        <time>2023-04-30T07:45:47.000Z</time>
      </trkpt>
      <trkpt lat="47.87833" lon="6.91873">
        <ele>730.2</ele>
        <time>2023-04-30T07:45:49.000Z</time>
      </trkpt>
      <trkpt lat="47.8783" lon="6.91852">
        <ele>731.8</ele>
        <time>2023-04-30T07:46:01.000Z</time>
      </trkpt>
      <trkpt lat="47.87831" lon="6.91838">
        <ele>732.8</ele>
        <time>2023-04-30T07:46:08.000Z</time>
      </trkpt>
      <trkpt lat="47.87829" lon="6.91827">
        <ele>733.8</ele>
        <time>2023-04-30T07:46:15.000Z</time>
      </trkpt>
      <trkpt lat="47.87827" lon="6.91817">
        <ele>734.6</ele>
        <time>2023-04-30T07:46:21.000Z</time>
      </trkpt>
      <trkpt lat="47.87827" lon="6.91814">
        <ele>734.8</ele>
        <time>2023-04-30T07:46:22.000Z</time>
      </trkpt>
      <trkpt lat="47.87826" lon="6.91806">
        <ele>735.2</ele>
        <time>2023-04-30T07:46:28.000Z</time>
      </trkpt>
      <trkpt lat="47.87829" lon="6.91782">
        <ele>738.2</ele>
        <time>2023-04-30T07:46:49.000Z</time>
      </trkpt>
      <trkpt lat="47.87831" lon="6.91773">
        <ele>739.6</ele>
        <time>2023-04-30T07:46:58.000Z</time>
      </trkpt>
      <trkpt lat="47.87829" lon="6.9175">
        <ele>741.6</ele>
        <time>2023-04-30T07:47:13.000Z</time>
      </trkpt>
      <trkpt lat="47.8783" lon="6.91726">
        <ele>743.8</ele>
        <time>2023-04-30T07:47:29.000Z</time>
      </trkpt>
      <trkpt lat="47.87833" lon="6.91705">
        <ele>746</ele>
        <time>2023-04-30T07:47:43.000Z</time>
      </trkpt>
      <trkpt lat="47.8783" lon="6.91693">
        <ele>747.8</ele>
        <time>2023-04-30T07:47:55.000Z</time>
      </trkpt>
      <trkpt lat="47.87829" lon="6.91683">
        <ele>750</ele>
        <time>2023-04-30T07:48:09.000Z</time>
      </trkpt>
      <trkpt lat="47.87829" lon="6.91665">
        <ele>752.8</ele>
        <time>2023-04-30T07:48:23.000Z</time>
      </trkpt>
      <trkpt lat="47.87829" lon="6.91654">
        <ele>755</ele>
        <time>2023-04-30T07:48:34.000Z</time>
      </trkpt>
      <trkpt lat="47.87831" lon="6.9164">
        <ele>758</ele>
        <time>2023-04-30T07:48:50.000Z</time>
      </trkpt>
      <trkpt lat="47.87831" lon="6.91627">
        <ele>760.2</ele>
        <time>2023-04-30T07:49:01.000Z</time>
      </trkpt>
      <trkpt lat="47.87831" lon="6.91609">
        <ele>762.2</ele>
        <time>2023-04-30T07:49:13.000Z</time>
      </trkpt>
      <trkpt lat="47.87832" lon="6.9159">
        <ele>764.6</ele>
        <time>2023-04-30T07:49:25.000Z</time>
      </trkpt>
      <trkpt lat="47.87829" lon="6.91572">
        <ele>767.2</ele>
        <time>2023-04-30T07:49:39.000Z</time>
      </trkpt>
      <trkpt lat="47.87828" lon="6.91558">
        <ele>770.2</ele>
        <time>2023-04-30T07:49:53.000Z</time>
      </trkpt>
      <trkpt lat="47.87831" lon="6.91547">
        <ele>772.4</ele>
        <time>2023-04-30T07:50:05.000Z</time>
      </trkpt>
      <trkpt lat="47.87829" lon="6.91531">
        <ele>775.2</ele>
        <time>2023-04-30T07:50:22.000Z</time>
      </trkpt>
      <trkpt lat="47.87835" lon="6.9152">
        <ele>777.4</ele>
        <time>2023-04-30T07:50:36.000Z</time>
      </trkpt>
      <trkpt lat="47.87837" lon="6.91505">
        <ele>778.8</ele>
        <time>2023-04-30T07:50:46.000Z</time>
      </trkpt>
      <trkpt lat="47.87837" lon="6.9148">
        <ele>781.6</ele>
        <time>2023-04-30T07:51:03.000Z</time>
      </trkpt>
      <trkpt lat="47.87835" lon="6.91465">
        <ele>783.2</ele>
        <time>2023-04-30T07:51:14.000Z</time>
      </trkpt>
      <trkpt lat="47.87831" lon="6.91454">
        <ele>785.4</ele>
        <time>2023-04-30T07:51:25.000Z</time>
      </trkpt>
      <trkpt lat="47.87827" lon="6.91446">
        <ele>786.6</ele>
        <time>2023-04-30T07:51:33.000Z</time>
      </trkpt>
      <trkpt lat="47.87826" lon="6.91443">
        <ele>787.2</ele>
        <time>2023-04-30T07:51:36.000Z</time>
      </trkpt>
      <trkpt lat="47.87819" lon="6.91431">
        <ele>788.8</ele>
        <time>2023-04-30T07:51:46.000Z</time>
      </trkpt>
      <trkpt lat="47.8782" lon="6.91415">
        <ele>790.8</ele>
        <time>2023-04-30T07:51:57.000Z</time>
      </trkpt>
      <trkpt lat="47.87815" lon="6.91393">
        <ele>793.2</ele>
        <time>2023-04-30T07:52:11.000Z</time>
      </trkpt>
      <trkpt lat="47.87815" lon="6.91382">
        <ele>795</ele>
        <time>2023-04-30T07:52:22.000Z</time>
      </trkpt>
      <trkpt lat="47.87819" lon="6.91368">
        <ele>797</ele>
        <time>2023-04-30T07:52:35.000Z</time>
      </trkpt>
      <trkpt lat="47.87825" lon="6.91348">
        <ele>798.8</ele>
        <time>2023-04-30T07:52:50.000Z</time>
      </trkpt>
      <trkpt lat="47.87831" lon="6.91332">
        <ele>799.8</ele>
        <time>2023-04-30T07:53:02.000Z</time>
      </trkpt>
      <trkpt lat="47.87834" lon="6.91328">
        <ele>800.2</ele>
        <time>2023-04-30T07:53:06.000Z</time>
      </trkpt>
      <trkpt lat="47.87846" lon="6.91305">
        <ele>802</ele>
        <time>2023-04-30T07:53:24.000Z</time>
      </trkpt>
      <trkpt lat="47.87829" lon="6.9126">
        <ele>808.4</ele>
        <time>2023-04-30T07:54:00.000Z</time>
      </trkpt>
      <trkpt lat="47.87811" lon="6.91261">
        <ele>811.2</ele>
        <time>2023-04-30T07:54:15.000Z</time>
      </trkpt>
      <trkpt lat="47.87799" lon="6.91268">
        <ele>812.4</ele>
        <time>2023-04-30T07:54:26.000Z</time>
      </trkpt>
      <trkpt lat="47.87793" lon="6.91275">
        <ele>813.2</ele>
        <time>2023-04-30T07:54:33.000Z</time>
      </trkpt>
      <trkpt lat="47.87787" lon="6.91282">
        <ele>814</ele>
        <time>2023-04-30T07:54:40.000Z</time>
      </trkpt>
      <trkpt lat="47.87768" lon="6.91307">
        <ele>815.2</ele>
        <time>2023-04-30T07:54:59.000Z</time>
      </trkpt>
      <trkpt lat="47.87764" lon="6.91316">
        <ele>817.2</ele>
        <time>2023-04-30T07:55:09.000Z</time>
      </trkpt>
      <trkpt lat="47.8776" lon="6.91346">
        <ele>819.6</ele>
        <time>2023-04-30T07:55:25.000Z</time>
      </trkpt>
      <trkpt lat="47.87755" lon="6.91368">
        <ele>822.4</ele>
        <time>2023-04-30T07:55:43.000Z</time>
      </trkpt>
      <trkpt lat="47.87753" lon="6.91377">
        <ele>823.6</ele>
        <time>2023-04-30T07:55:51.000Z</time>
      </trkpt>
      <trkpt lat="47.87747" lon="6.91402">
        <ele>826.8</ele>
        <time>2023-04-30T07:56:10.000Z</time>
      </trkpt>
      <trkpt lat="47.87744" lon="6.9142">
        <ele>828.2</ele>
        <time>2023-04-30T07:56:22.000Z</time>
      </trkpt>
      <trkpt lat="47.87743" lon="6.91436">
        <ele>829.4</ele>
        <time>2023-04-30T07:56:34.000Z</time>
      </trkpt>
      <trkpt lat="47.87737" lon="6.91457">
        <ele>832.6</ele>
        <time>2023-04-30T07:56:50.000Z</time>
      </trkpt>
      <trkpt lat="47.87731" lon="6.91475">
        <ele>835</ele>
        <time>2023-04-30T07:57:04.000Z</time>
      </trkpt>
      <trkpt lat="47.87727" lon="6.91483">
        <ele>836.2</ele>
        <time>2023-04-30T07:57:16.000Z</time>
      </trkpt>
      <trkpt lat="47.87719" lon="6.91488">
        <ele>837.6</ele>
        <time>2023-04-30T07:57:26.000Z</time>
      </trkpt>
      <trkpt lat="47.87714" lon="6.91492">
        <ele>839.4</ele>
        <time>2023-04-30T07:57:38.000Z</time>
      </trkpt>
      <trkpt lat="47.87708" lon="6.91494">
        <ele>841.8</ele>
        <time>2023-04-30T07:58:00.000Z</time>
      </trkpt>
      <trkpt lat="47.87711" lon="6.9149">
        <ele>844.2</ele>
        <time>2023-04-30T07:58:14.000Z</time>
      </trkpt>
      <trkpt lat="47.87719" lon="6.91473">
        <ele>847.2</ele>
        <time>2023-04-30T07:58:32.000Z</time>
      </trkpt>
      <trkpt lat="47.87713" lon="6.9147">
        <ele>849</ele>
        <time>2023-04-30T07:58:41.000Z</time>
      </trkpt>
      <trkpt lat="47.87698" lon="6.91464">
        <ele>851.8</ele>
        <time>2023-04-30T07:58:57.000Z</time>
      </trkpt>
      <trkpt lat="47.87688" lon="6.91465">
        <ele>854</ele>
        <time>2023-04-30T07:59:07.000Z</time>
      </trkpt>
      <trkpt lat="47.87676" lon="6.91474">
        <ele>856.8</ele>
        <time>2023-04-30T07:59:22.000Z</time>
      </trkpt>
      <trkpt lat="47.87665" lon="6.91483">
        <ele>860</ele>
        <time>2023-04-30T07:59:36.000Z</time>
      </trkpt>
      <trkpt lat="47.87662" lon="6.91486">
        <ele>863.2</ele>
        <time>2023-04-30T07:59:50.000Z</time>
      </trkpt>
      <trkpt lat="47.87669" lon="6.91467">
        <ele>865.6</ele>
        <time>2023-04-30T08:00:10.000Z</time>
      </trkpt>
      <trkpt lat="47.87665" lon="6.91471">
        <ele>867.2</ele>
        <time>2023-04-30T08:00:21.000Z</time>
      </trkpt>
      <trkpt lat="47.87637" lon="6.91498">
        <ele>870.4</ele>
        <time>2023-04-30T08:00:46.000Z</time>
      </trkpt>
      <trkpt lat="47.87637" lon="6.91501">
        <ele>870.8</ele>
        <time>2023-04-30T08:00:48.000Z</time>
      </trkpt>
      <trkpt lat="47.87637" lon="6.91508">
        <ele>871.8</ele>
        <time>2023-04-30T08:01:09.000Z</time>
      </trkpt>
      <trkpt lat="47.87634" lon="6.91513">
        <ele>872.6</ele>
        <time>2023-04-30T08:01:15.000Z</time>
      </trkpt>
      <trkpt lat="47.87628" lon="6.9152">
        <ele>873.8</ele>
        <time>2023-04-30T08:01:24.000Z</time>
      </trkpt>
      <trkpt lat="47.87624" lon="6.91537">
        <ele>875.4</ele>
        <time>2023-04-30T08:01:36.000Z</time>
      </trkpt>
      <trkpt lat="47.87611" lon="6.91556">
        <ele>878</ele>
        <time>2023-04-30T08:01:52.000Z</time>
      </trkpt>
      <trkpt lat="47.87603" lon="6.9157">
        <ele>880.2</ele>
        <time>2023-04-30T08:02:04.000Z</time>
      </trkpt>
      <trkpt lat="47.876" lon="6.91597">
        <ele>883</ele>
        <time>2023-04-30T08:02:19.000Z</time>
      </trkpt>
      <trkpt lat="47.87599" lon="6.91629">
        <ele>885.8</ele>
        <time>2023-04-30T08:02:35.000Z</time>
      </trkpt>
      <trkpt lat="47.87598" lon="6.91639">
        <ele>886.6</ele>
        <time>2023-04-30T08:02:40.000Z</time>
      </trkpt>
      <trkpt lat="47.87599" lon="6.91661">
        <ele>888.2</ele>
        <time>2023-04-30T08:02:52.000Z</time>
      </trkpt>
      <trkpt lat="47.87602" lon="6.91679">
        <ele>890.2</ele>
        <time>2023-04-30T08:03:10.000Z</time>
      </trkpt>
      <trkpt lat="47.87603" lon="6.91679">
        <ele>890.4</ele>
        <time>2023-04-30T08:03:11.000Z</time>
      </trkpt>
      <trkpt lat="47.87616" lon="6.91671">
        <ele>890.2</ele>
        <time>2023-04-30T08:03:33.000Z</time>
      </trkpt>
      <trkpt lat="47.87622" lon="6.91674">
        <ele>890.2</ele>
        <time>2023-04-30T08:03:53.000Z</time>
      </trkpt>
      <trkpt lat="47.87624" lon="6.91677">
        <ele>890.4</ele>
        <time>2023-04-30T08:04:16.000Z</time>
      </trkpt>
      <trkpt lat="47.87626" lon="6.91672">
        <ele>890.4</ele>
        <time>2023-04-30T08:04:25.000Z</time>
      </trkpt>
      <trkpt lat="47.8762" lon="6.91686">
        <ele>890.4</ele>
        <time>2023-04-30T08:04:42.000Z</time>
      </trkpt>
      <trkpt lat="47.87625" lon="6.91681">
        <ele>890.2</ele>
        <time>2023-04-30T08:05:06.000Z</time>
      </trkpt>
      <trkpt lat="47.87634" lon="6.91676">
        <ele>890.2</ele>
        <time>2023-04-30T08:05:43.000Z</time>
      </trkpt>
      <trkpt lat="47.87641" lon="6.91666">
        <ele>890.2</ele>
        <time>2023-04-30T08:06:29.000Z</time>
      </trkpt>
      <trkpt lat="47.87618" lon="6.91665">
        <ele>890.6</ele>
        <time>2023-04-30T08:06:47.000Z</time>
      </trkpt>
      <trkpt lat="47.87607" lon="6.9168">
        <ele>890.2</ele>
        <time>2023-04-30T08:06:59.000Z</time>
      </trkpt>
      <trkpt lat="47.87607" lon="6.91682">
        <ele>890.2</ele>
        <time>2023-04-30T08:07:00.000Z</time>
      </trkpt>
      <trkpt lat="47.87602" lon="6.91703">
        <ele>890.4</ele>
        <time>2023-04-30T08:07:13.000Z</time>
      </trkpt>
      <trkpt lat="47.87603" lon="6.91705">
        <ele>890.4</ele>
        <time>2023-04-30T08:07:14.000Z</time>
      </trkpt>
      <trkpt lat="47.87603" lon="6.91707">
        <ele>890.4</ele>
        <time>2023-04-30T08:07:15.000Z</time>
      </trkpt>
      <trkpt lat="47.87602" lon="6.91733">
        <ele>890</ele>
        <time>2023-04-30T08:07:29.000Z</time>
      </trkpt>
      <trkpt lat="47.876" lon="6.91773">
        <ele>889.2</ele>
        <time>2023-04-30T08:07:50.000Z</time>
      </trkpt>
      <trkpt lat="47.87603" lon="6.91804">
        <ele>888</ele>
        <time>2023-04-30T08:08:11.000Z</time>
      </trkpt>
      <trkpt lat="47.87612" lon="6.91828">
        <ele>887.6</ele>
        <time>2023-04-30T08:08:34.000Z</time>
      </trkpt>
      <trkpt lat="47.87612" lon="6.91832">
        <ele>887.8</ele>
        <time>2023-04-30T08:08:36.000Z</time>
      </trkpt>
      <trkpt lat="47.87612" lon="6.91834">
        <ele>887.8</ele>
        <time>2023-04-30T08:08:37.000Z</time>
      </trkpt>
      <trkpt lat="47.87612" lon="6.91836">
        <ele>887.6</ele>
        <time>2023-04-30T08:08:38.000Z</time>
      </trkpt>
      <trkpt lat="47.87606" lon="6.91859">
        <ele>886.4</ele>
        <time>2023-04-30T08:08:51.000Z</time>
      </trkpt>
      <trkpt lat="47.87606" lon="6.91861">
        <ele>886.2</ele>
        <time>2023-04-30T08:08:52.000Z</time>
      </trkpt>
      <trkpt lat="47.87606" lon="6.91863">
        <ele>886.2</ele>
        <time>2023-04-30T08:08:53.000Z</time>
      </trkpt>
      <trkpt lat="47.87606" lon="6.91865">
        <ele>886.2</ele>
        <time>2023-04-30T08:08:54.000Z</time>
      </trkpt>
      <trkpt lat="47.87606" lon="6.9187">
        <ele>886</ele>
        <time>2023-04-30T08:08:57.000Z</time>
      </trkpt>
      <trkpt lat="47.87606" lon="6.91872">
        <ele>885.8</ele>
        <time>2023-04-30T08:08:58.000Z</time>
      </trkpt>
      <trkpt lat="47.87606" lon="6.919">
        <ele>884.8</ele>
        <time>2023-04-30T08:09:14.000Z</time>
      </trkpt>
      <trkpt lat="47.87609" lon="6.91923">
        <ele>883.6</ele>
        <time>2023-04-30T08:09:30.000Z</time>
      </trkpt>
      <trkpt lat="47.87608" lon="6.91933">
        <ele>883.2</ele>
        <time>2023-04-30T08:09:34.000Z</time>
      </trkpt>
      <trkpt lat="47.87613" lon="6.91956">
        <ele>882.6</ele>
        <time>2023-04-30T08:09:44.000Z</time>
      </trkpt>
      <trkpt lat="47.87612" lon="6.91958">
        <ele>882.6</ele>
        <time>2023-04-30T08:09:45.000Z</time>
      </trkpt>
      <trkpt lat="47.87613" lon="6.9196">
        <ele>882.6</ele>
        <time>2023-04-30T08:09:46.000Z</time>
      </trkpt>
      <trkpt lat="47.87614" lon="6.91961">
        <ele>882.4</ele>
        <time>2023-04-30T08:09:47.000Z</time>
      </trkpt>
      <trkpt lat="47.87615" lon="6.91963">
        <ele>882.4</ele>
        <time>2023-04-30T08:09:48.000Z</time>
      </trkpt>
      <trkpt lat="47.87616" lon="6.91965">
        <ele>882.4</ele>
        <time>2023-04-30T08:09:49.000Z</time>
      </trkpt>
      <trkpt lat="47.87616" lon="6.91966">
        <ele>882.4</ele>
        <time>2023-04-30T08:09:50.000Z</time>
      </trkpt>
      <trkpt lat="47.87616" lon="6.91968">
        <ele>882.2</ele>
        <time>2023-04-30T08:09:51.000Z</time>
      </trkpt>
      <trkpt lat="47.87616" lon="6.9197">
        <ele>882.2</ele>
        <time>2023-04-30T08:09:52.000Z</time>
      </trkpt>
      <trkpt lat="47.87617" lon="6.91971">
        <ele>882.2</ele>
        <time>2023-04-30T08:09:53.000Z</time>
      </trkpt>
      <trkpt lat="47.8762" lon="6.91985">
        <ele>881.4</ele>
        <time>2023-04-30T08:10:00.000Z</time>
      </trkpt>
      <trkpt lat="47.87619" lon="6.91987">
        <ele>881.2</ele>
        <time>2023-04-30T08:10:01.000Z</time>
      </trkpt>
      <trkpt lat="47.87619" lon="6.91989">
        <ele>881.2</ele>
        <time>2023-04-30T08:10:02.000Z</time>
      </trkpt>
      <trkpt lat="47.8762" lon="6.91991">
        <ele>881.2</ele>
        <time>2023-04-30T08:10:03.000Z</time>
      </trkpt>
      <trkpt lat="47.87621" lon="6.91993">
        <ele>881.2</ele>
        <time>2023-04-30T08:10:04.000Z</time>
      </trkpt>
      <trkpt lat="47.87622" lon="6.91994">
        <ele>881</ele>
        <time>2023-04-30T08:10:05.000Z</time>
      </trkpt>
      <trkpt lat="47.87623" lon="6.91996">
        <ele>881</ele>
        <time>2023-04-30T08:10:06.000Z</time>
      </trkpt>
      <trkpt lat="47.87624" lon="6.91997">
        <ele>880.8</ele>
        <time>2023-04-30T08:10:07.000Z</time>
      </trkpt>
      <trkpt lat="47.87634" lon="6.92022">
        <ele>880</ele>
        <time>2023-04-30T08:10:20.000Z</time>
      </trkpt>
      <trkpt lat="47.87635" lon="6.92055">
        <ele>878</ele>
        <time>2023-04-30T08:10:36.000Z</time>
      </trkpt>
      <trkpt lat="47.87636" lon="6.92077">
        <ele>877.2</ele>
        <time>2023-04-30T08:10:46.000Z</time>
      </trkpt>
      <trkpt lat="47.87636" lon="6.92079">
        <ele>877</ele>
        <time>2023-04-30T08:10:47.000Z</time>
      </trkpt>
      <trkpt lat="47.87638" lon="6.92087">
        <ele>876.8</ele>
        <time>2023-04-30T08:10:51.000Z</time>
      </trkpt>
      <trkpt lat="47.87639" lon="6.92088">
        <ele>876.6</ele>
        <time>2023-04-30T08:10:52.000Z</time>
      </trkpt>
      <trkpt lat="47.8764" lon="6.92089">
        <ele>876.6</ele>
        <time>2023-04-30T08:10:53.000Z</time>
      </trkpt>
      <trkpt lat="47.87641" lon="6.92091">
        <ele>876.6</ele>
        <time>2023-04-30T08:10:54.000Z</time>
      </trkpt>
      <trkpt lat="47.87642" lon="6.92093">
        <ele>876.6</ele>
        <time>2023-04-30T08:10:55.000Z</time>
      </trkpt>
      <trkpt lat="47.87642" lon="6.92094">
        <ele>876.6</ele>
        <time>2023-04-30T08:10:56.000Z</time>
      </trkpt>
      <trkpt lat="47.87648" lon="6.92109">
        <ele>875.8</ele>
        <time>2023-04-30T08:11:04.000Z</time>
      </trkpt>
      <trkpt lat="47.87649" lon="6.92111">
        <ele>875.8</ele>
        <time>2023-04-30T08:11:05.000Z</time>
      </trkpt>
      <trkpt lat="47.8765" lon="6.92112">
        <ele>875.6</ele>
        <time>2023-04-30T08:11:06.000Z</time>
      </trkpt>
      <trkpt lat="47.87652" lon="6.92117">
        <ele>875.4</ele>
        <time>2023-04-30T08:11:09.000Z</time>
      </trkpt>
      <trkpt lat="47.87652" lon="6.92119">
        <ele>875.2</ele>
        <time>2023-04-30T08:11:10.000Z</time>
      </trkpt>
      <trkpt lat="47.87662" lon="6.92145">
        <ele>873.8</ele>
        <time>2023-04-30T08:11:24.000Z</time>
      </trkpt>
      <trkpt lat="47.87674" lon="6.92174">
        <ele>872.4</ele>
        <time>2023-04-30T08:11:40.000Z</time>
      </trkpt>
      <trkpt lat="47.87678" lon="6.92183">
        <ele>872</ele>
        <time>2023-04-30T08:11:45.000Z</time>
      </trkpt>
      <trkpt lat="47.87679" lon="6.92185">
        <ele>871.8</ele>
        <time>2023-04-30T08:11:46.000Z</time>
      </trkpt>
      <trkpt lat="47.87683" lon="6.92194">
        <ele>871.6</ele>
        <time>2023-04-30T08:11:51.000Z</time>
      </trkpt>
      <trkpt lat="47.87684" lon="6.92196">
        <ele>871.6</ele>
        <time>2023-04-30T08:11:52.000Z</time>
      </trkpt>
      <trkpt lat="47.87684" lon="6.92198">
        <ele>871.6</ele>
        <time>2023-04-30T08:11:53.000Z</time>
      </trkpt>
      <trkpt lat="47.87685" lon="6.922">
        <ele>871.6</ele>
        <time>2023-04-30T08:11:54.000Z</time>
      </trkpt>
      <trkpt lat="47.87686" lon="6.92202">
        <ele>871.8</ele>
        <time>2023-04-30T08:11:55.000Z</time>
      </trkpt>
      <trkpt lat="47.87686" lon="6.92204">
        <ele>871.8</ele>
        <time>2023-04-30T08:11:56.000Z</time>
      </trkpt>
      <trkpt lat="47.87687" lon="6.92207">
        <ele>871.8</ele>
        <time>2023-04-30T08:11:57.000Z</time>
      </trkpt>
      <trkpt lat="47.87687" lon="6.92208">
        <ele>871.8</ele>
        <time>2023-04-30T08:11:58.000Z</time>
      </trkpt>
      <trkpt lat="47.87688" lon="6.92223">
        <ele>871.8</ele>
        <time>2023-04-30T08:12:05.000Z</time>
      </trkpt>
      <trkpt lat="47.87688" lon="6.92225">
        <ele>872</ele>
        <time>2023-04-30T08:12:06.000Z</time>
      </trkpt>
      <trkpt lat="47.87689" lon="6.92241">
        <ele>872.8</ele>
        <time>2023-04-30T08:12:15.000Z</time>
      </trkpt>
      <trkpt lat="47.87689" lon="6.92243">
        <ele>873</ele>
        <time>2023-04-30T08:12:16.000Z</time>
      </trkpt>
      <trkpt lat="47.87689" lon="6.92246">
        <ele>873</ele>
        <time>2023-04-30T08:12:17.000Z</time>
      </trkpt>
      <trkpt lat="47.8769" lon="6.92257">
        <ele>874</ele>
        <time>2023-04-30T08:12:23.000Z</time>
      </trkpt>
      <trkpt lat="47.87691" lon="6.92263">
        <ele>874.4</ele>
        <time>2023-04-30T08:12:26.000Z</time>
      </trkpt>
      <trkpt lat="47.87691" lon="6.92265">
        <ele>874.4</ele>
        <time>2023-04-30T08:12:27.000Z</time>
      </trkpt>
      <trkpt lat="47.87692" lon="6.92267">
        <ele>874.4</ele>
        <time>2023-04-30T08:12:28.000Z</time>
      </trkpt>
      <trkpt lat="47.87693" lon="6.92269">
        <ele>874.6</ele>
        <time>2023-04-30T08:12:29.000Z</time>
      </trkpt>
      <trkpt lat="47.87698" lon="6.92285">
        <ele>875.8</ele>
        <time>2023-04-30T08:12:38.000Z</time>
      </trkpt>
      <trkpt lat="47.87699" lon="6.92286">
        <ele>876</ele>
        <time>2023-04-30T08:12:39.000Z</time>
      </trkpt>
      <trkpt lat="47.877" lon="6.92288">
        <ele>876.2</ele>
        <time>2023-04-30T08:12:40.000Z</time>
      </trkpt>
      <trkpt lat="47.87701" lon="6.9229">
        <ele>876.6</ele>
        <time>2023-04-30T08:12:41.000Z</time>
      </trkpt>
      <trkpt lat="47.87702" lon="6.92291">
        <ele>876.8</ele>
        <time>2023-04-30T08:12:42.000Z</time>
      </trkpt>
      <trkpt lat="47.87702" lon="6.92293">
        <ele>877</ele>
        <time>2023-04-30T08:12:43.000Z</time>
      </trkpt>
      <trkpt lat="47.87702" lon="6.92295">
        <ele>877</ele>
        <time>2023-04-30T08:12:44.000Z</time>
      </trkpt>
      <trkpt lat="47.87703" lon="6.92296">
        <ele>877.2</ele>
        <time>2023-04-30T08:12:45.000Z</time>
      </trkpt>
      <trkpt lat="47.87703" lon="6.92298">
        <ele>877.4</ele>
        <time>2023-04-30T08:12:46.000Z</time>
      </trkpt>
      <trkpt lat="47.87703" lon="6.92299">
        <ele>877.6</ele>
        <time>2023-04-30T08:12:47.000Z</time>
      </trkpt>
      <trkpt lat="47.87703" lon="6.92301">
        <ele>877.6</ele>
        <time>2023-04-30T08:12:48.000Z</time>
      </trkpt>
      <trkpt lat="47.87708" lon="6.92324">
        <ele>879.8</ele>
        <time>2023-04-30T08:13:02.000Z</time>
      </trkpt>
      <trkpt lat="47.87708" lon="6.92335">
        <ele>880.6</ele>
        <time>2023-04-30T08:13:09.000Z</time>
      </trkpt>
      <trkpt lat="47.87707" lon="6.92336">
        <ele>880.8</ele>
        <time>2023-04-30T08:13:10.000Z</time>
      </trkpt>
      <trkpt lat="47.87714" lon="6.92356">
        <ele>882.8</ele>
        <time>2023-04-30T08:13:25.000Z</time>
      </trkpt>
      <trkpt lat="47.87717" lon="6.92388">
        <ele>885.6</ele>
        <time>2023-04-30T08:13:44.000Z</time>
      </trkpt>
      <trkpt lat="47.87717" lon="6.92401">
        <ele>886.6</ele>
        <time>2023-04-30T08:13:51.000Z</time>
      </trkpt>
      <trkpt lat="47.87717" lon="6.92403">
        <ele>886.8</ele>
        <time>2023-04-30T08:13:52.000Z</time>
      </trkpt>
      <trkpt lat="47.87717" lon="6.92409">
        <ele>887</ele>
        <time>2023-04-30T08:13:55.000Z</time>
      </trkpt>
      <trkpt lat="47.87717" lon="6.92411">
        <ele>887</ele>
        <time>2023-04-30T08:13:56.000Z</time>
      </trkpt>
      <trkpt lat="47.87717" lon="6.92419">
        <ele>887.6</ele>
        <time>2023-04-30T08:14:00.000Z</time>
      </trkpt>
      <trkpt lat="47.87719" lon="6.92449">
        <ele>889.8</ele>
        <time>2023-04-30T08:14:16.000Z</time>
      </trkpt>
      <trkpt lat="47.87722" lon="6.92474">
        <ele>892.2</ele>
        <time>2023-04-30T08:14:32.000Z</time>
      </trkpt>
      <trkpt lat="47.87724" lon="6.92479">
        <ele>892.8</ele>
        <time>2023-04-30T08:14:36.000Z</time>
      </trkpt>
      <trkpt lat="47.87725" lon="6.92482">
        <ele>893</ele>
        <time>2023-04-30T08:14:38.000Z</time>
      </trkpt>
      <trkpt lat="47.87725" lon="6.92484">
        <ele>893.2</ele>
        <time>2023-04-30T08:14:39.000Z</time>
      </trkpt>
      <trkpt lat="47.87724" lon="6.92509">
        <ele>895.4</ele>
        <time>2023-04-30T08:14:55.000Z</time>
      </trkpt>
      <trkpt lat="47.87718" lon="6.92533">
        <ele>898</ele>
        <time>2023-04-30T08:15:14.000Z</time>
      </trkpt>
      <trkpt lat="47.87718" lon="6.92534">
        <ele>898.2</ele>
        <time>2023-04-30T08:15:15.000Z</time>
      </trkpt>
      <trkpt lat="47.87715" lon="6.92538">
        <ele>898.8</ele>
        <time>2023-04-30T08:15:19.000Z</time>
      </trkpt>
      <trkpt lat="47.87702" lon="6.92539">
        <ele>900.8</ele>
        <time>2023-04-30T08:15:35.000Z</time>
      </trkpt>
      <trkpt lat="47.87687" lon="6.92526">
        <ele>903.8</ele>
        <time>2023-04-30T08:15:54.000Z</time>
      </trkpt>
      <trkpt lat="47.87675" lon="6.92504">
        <ele>906.8</ele>
        <time>2023-04-30T08:16:14.000Z</time>
      </trkpt>
      <trkpt lat="47.87666" lon="6.92486">
        <ele>908.6</ele>
        <time>2023-04-30T08:16:27.000Z</time>
      </trkpt>
      <trkpt lat="47.87649" lon="6.92472">
        <ele>911</ele>
        <time>2023-04-30T08:16:44.000Z</time>
      </trkpt>
      <trkpt lat="47.87647" lon="6.92468">
        <ele>911.2</ele>
        <time>2023-04-30T08:16:46.000Z</time>
      </trkpt>
      <trkpt lat="47.87627" lon="6.92444">
        <ele>914.2</ele>
        <time>2023-04-30T08:17:08.000Z</time>
      </trkpt>
      <trkpt lat="47.87612" lon="6.92431">
        <ele>916.8</ele>
        <time>2023-04-30T08:17:22.000Z</time>
      </trkpt>
      <trkpt lat="47.87611" lon="6.9243">
        <ele>917</ele>
        <time>2023-04-30T08:17:23.000Z</time>
      </trkpt>
      <trkpt lat="47.8761" lon="6.92429">
        <ele>917.2</ele>
        <time>2023-04-30T08:17:24.000Z</time>
      </trkpt>
      <trkpt lat="47.87593" lon="6.92415">
        <ele>920.2</ele>
        <time>2023-04-30T08:17:43.000Z</time>
      </trkpt>
      <trkpt lat="47.87592" lon="6.92415">
        <ele>920.4</ele>
        <time>2023-04-30T08:17:44.000Z</time>
      </trkpt>
      <trkpt lat="47.87571" lon="6.92406">
        <ele>922.4</ele>
        <time>2023-04-30T08:18:01.000Z</time>
      </trkpt>
      <trkpt lat="47.87568" lon="6.92404">
        <ele>922.6</ele>
        <time>2023-04-30T08:18:03.000Z</time>
      </trkpt>
      <trkpt lat="47.87566" lon="6.92404">
        <ele>922.8</ele>
        <time>2023-04-30T08:18:04.000Z</time>
      </trkpt>
      <trkpt lat="47.87564" lon="6.92404">
        <ele>923</ele>
        <time>2023-04-30T08:18:05.000Z</time>
      </trkpt>
      <trkpt lat="47.87563" lon="6.92403">
        <ele>923</ele>
        <time>2023-04-30T08:18:06.000Z</time>
      </trkpt>
      <trkpt lat="47.87561" lon="6.92403">
        <ele>923.2</ele>
        <time>2023-04-30T08:18:07.000Z</time>
      </trkpt>
      <trkpt lat="47.8756" lon="6.92403">
        <ele>923.4</ele>
        <time>2023-04-30T08:18:08.000Z</time>
      </trkpt>
      <trkpt lat="47.87557" lon="6.92402">
        <ele>923.6</ele>
        <time>2023-04-30T08:18:10.000Z</time>
      </trkpt>
      <trkpt lat="47.87551" lon="6.92396">
        <ele>924.2</ele>
        <time>2023-04-30T08:18:16.000Z</time>
      </trkpt>
      <trkpt lat="47.87547" lon="6.92391">
        <ele>924.8</ele>
        <time>2023-04-30T08:18:20.000Z</time>
      </trkpt>
      <trkpt lat="47.87542" lon="6.92385">
        <ele>925.2</ele>
        <time>2023-04-30T08:18:25.000Z</time>
      </trkpt>
      <trkpt lat="47.87541" lon="6.92384">
        <ele>925.2</ele>
        <time>2023-04-30T08:18:26.000Z</time>
      </trkpt>
      <trkpt lat="47.87539" lon="6.92383">
        <ele>925.2</ele>
        <time>2023-04-30T08:18:27.000Z</time>
      </trkpt>
      <trkpt lat="47.87521" lon="6.92373">
        <ele>927</ele>
        <time>2023-04-30T08:18:43.000Z</time>
      </trkpt>
      <trkpt lat="47.87517" lon="6.9237">
        <ele>927.2</ele>
        <time>2023-04-30T08:18:46.000Z</time>
      </trkpt>
      <trkpt lat="47.87513" lon="6.92366">
        <ele>927.6</ele>
        <time>2023-04-30T08:18:49.000Z</time>
      </trkpt>
      <trkpt lat="47.87512" lon="6.92364">
        <ele>927.6</ele>
        <time>2023-04-30T08:18:50.000Z</time>
      </trkpt>
      <trkpt lat="47.87511" lon="6.92363">
        <ele>927.8</ele>
        <time>2023-04-30T08:18:51.000Z</time>
      </trkpt>
      <trkpt lat="47.87508" lon="6.92361">
        <ele>927.8</ele>
        <time>2023-04-30T08:18:53.000Z</time>
      </trkpt>
      <trkpt lat="47.87507" lon="6.9236">
        <ele>927.8</ele>
        <time>2023-04-30T08:18:54.000Z</time>
      </trkpt>
      <trkpt lat="47.87499" lon="6.92354">
        <ele>928</ele>
        <time>2023-04-30T08:19:00.000Z</time>
      </trkpt>
      <trkpt lat="47.87498" lon="6.92353">
        <ele>928</ele>
        <time>2023-04-30T08:19:01.000Z</time>
      </trkpt>
      <trkpt lat="47.87497" lon="6.92352">
        <ele>928</ele>
        <time>2023-04-30T08:19:02.000Z</time>
      </trkpt>
      <trkpt lat="47.87496" lon="6.9235">
        <ele>928</ele>
        <time>2023-04-30T08:19:03.000Z</time>
      </trkpt>
      <trkpt lat="47.87489" lon="6.92345">
        <ele>928.2</ele>
        <time>2023-04-30T08:19:09.000Z</time>
      </trkpt>
      <trkpt lat="47.87474" lon="6.92332">
        <ele>928.2</ele>
        <time>2023-04-30T08:19:22.000Z</time>
      </trkpt>
      <trkpt lat="47.87452" lon="6.92316">
        <ele>928.6</ele>
        <time>2023-04-30T08:19:37.000Z</time>
      </trkpt>
      <trkpt lat="47.87436" lon="6.92299">
        <ele>928.8</ele>
        <time>2023-04-30T08:19:52.000Z</time>
      </trkpt>
      <trkpt lat="47.87416" lon="6.92283">
        <ele>929.4</ele>
        <time>2023-04-30T08:20:07.000Z</time>
      </trkpt>
      <trkpt lat="47.87406" lon="6.92272">
        <ele>929.4</ele>
        <time>2023-04-30T08:20:16.000Z</time>
      </trkpt>
      <trkpt lat="47.87404" lon="6.92271">
        <ele>929.2</ele>
        <time>2023-04-30T08:20:17.000Z</time>
      </trkpt>
      <trkpt lat="47.87399" lon="6.92265">
        <ele>929.2</ele>
        <time>2023-04-30T08:20:22.000Z</time>
      </trkpt>
      <trkpt lat="47.87389" lon="6.92253">
        <ele>929.2</ele>
        <time>2023-04-30T08:20:31.000Z</time>
      </trkpt>
      <trkpt lat="47.87387" lon="6.92252">
        <ele>929.2</ele>
        <time>2023-04-30T08:20:32.000Z</time>
      </trkpt>
      <trkpt lat="47.87385" lon="6.9225">
        <ele>929.2</ele>
        <time>2023-04-30T08:20:34.000Z</time>
      </trkpt>
      <trkpt lat="47.87382" lon="6.92248">
        <ele>929.4</ele>
        <time>2023-04-30T08:20:36.000Z</time>
      </trkpt>
      <trkpt lat="47.87377" lon="6.9224">
        <ele>929.4</ele>
        <time>2023-04-30T08:20:41.000Z</time>
      </trkpt>
      <trkpt lat="47.87376" lon="6.92237">
        <ele>929.4</ele>
        <time>2023-04-30T08:20:42.000Z</time>
      </trkpt>
      <trkpt lat="47.87375" lon="6.92235">
        <ele>929.4</ele>
        <time>2023-04-30T08:20:43.000Z</time>
      </trkpt>
      <trkpt lat="47.87372" lon="6.92233">
        <ele>929.4</ele>
        <time>2023-04-30T08:20:45.000Z</time>
      </trkpt>
      <trkpt lat="47.87371" lon="6.92231">
        <ele>929.4</ele>
        <time>2023-04-30T08:20:46.000Z</time>
      </trkpt>
      <trkpt lat="47.87358" lon="6.92214">
        <ele>929.8</ele>
        <time>2023-04-30T08:20:59.000Z</time>
      </trkpt>
      <trkpt lat="47.87347" lon="6.92201">
        <ele>930</ele>
        <time>2023-04-30T08:21:08.000Z</time>
      </trkpt>
      <trkpt lat="47.87346" lon="6.92199">
        <ele>930.2</ele>
        <time>2023-04-30T08:21:09.000Z</time>
      </trkpt>
      <trkpt lat="47.87345" lon="6.92197">
        <ele>930.2</ele>
        <time>2023-04-30T08:21:10.000Z</time>
      </trkpt>
      <trkpt lat="47.87343" lon="6.92196">
        <ele>930.2</ele>
        <time>2023-04-30T08:21:11.000Z</time>
      </trkpt>
      <trkpt lat="47.87341" lon="6.92194">
        <ele>930.2</ele>
        <time>2023-04-30T08:21:12.000Z</time>
      </trkpt>
      <trkpt lat="47.87337" lon="6.9219">
        <ele>930.2</ele>
        <time>2023-04-30T08:21:15.000Z</time>
      </trkpt>
      <trkpt lat="47.87326" lon="6.92167">
        <ele>930.4</ele>
        <time>2023-04-30T08:21:29.000Z</time>
      </trkpt>
      <trkpt lat="47.87319" lon="6.92142">
        <ele>930.4</ele>
        <time>2023-04-30T08:21:43.000Z</time>
      </trkpt>
      <trkpt lat="47.87299" lon="6.92113">
        <ele>930.8</ele>
        <time>2023-04-30T08:22:04.000Z</time>
      </trkpt>
      <trkpt lat="47.87282" lon="6.92088">
        <ele>930.8</ele>
        <time>2023-04-30T08:22:23.000Z</time>
      </trkpt>
      <trkpt lat="47.87255" lon="6.92055">
        <ele>931.4</ele>
        <time>2023-04-30T08:22:44.000Z</time>
      </trkpt>
      <trkpt lat="47.87227" lon="6.92038">
        <ele>932.2</ele>
        <time>2023-04-30T08:23:05.000Z</time>
      </trkpt>
      <trkpt lat="47.87216" lon="6.92031">
        <ele>932.8</ele>
        <time>2023-04-30T08:23:13.000Z</time>
      </trkpt>
      <trkpt lat="47.87215" lon="6.92029">
        <ele>932.8</ele>
        <time>2023-04-30T08:23:14.000Z</time>
      </trkpt>
      <trkpt lat="47.87204" lon="6.92014">
        <ele>933.4</ele>
        <time>2023-04-30T08:23:24.000Z</time>
      </trkpt>
      <trkpt lat="47.87183" lon="6.92008">
        <ele>934.2</ele>
        <time>2023-04-30T08:23:43.000Z</time>
      </trkpt>
      <trkpt lat="47.87164" lon="6.92009">
        <ele>936.4</ele>
        <time>2023-04-30T08:24:02.000Z</time>
      </trkpt>
      <trkpt lat="47.87132" lon="6.92028">
        <ele>938.4</ele>
        <time>2023-04-30T08:24:25.000Z</time>
      </trkpt>
      <trkpt lat="47.87118" lon="6.92038">
        <ele>939.6</ele>
        <time>2023-04-30T08:24:35.000Z</time>
      </trkpt>
      <trkpt lat="47.87116" lon="6.92039">
        <ele>939.6</ele>
        <time>2023-04-30T08:24:36.000Z</time>
      </trkpt>
      <trkpt lat="47.87115" lon="6.9204">
        <ele>939.8</ele>
        <time>2023-04-30T08:24:37.000Z</time>
      </trkpt>
      <trkpt lat="47.87115" lon="6.92041">
        <ele>940</ele>
        <time>2023-04-30T08:24:38.000Z</time>
      </trkpt>
      <trkpt lat="47.87089" lon="6.9206">
        <ele>941.4</ele>
        <time>2023-04-30T08:24:53.000Z</time>
      </trkpt>
      <trkpt lat="47.87073" lon="6.92077">
        <ele>942.6</ele>
        <time>2023-04-30T08:25:06.000Z</time>
      </trkpt>
      <trkpt lat="47.87062" lon="6.92101">
        <ele>944.2</ele>
        <time>2023-04-30T08:25:22.000Z</time>
      </trkpt>
      <trkpt lat="47.87048" lon="6.92123">
        <ele>945.8</ele>
        <time>2023-04-30T08:25:36.000Z</time>
      </trkpt>
      <trkpt lat="47.87041" lon="6.92138">
        <ele>946.6</ele>
        <time>2023-04-30T08:25:44.000Z</time>
      </trkpt>
      <trkpt lat="47.87041" lon="6.9214">
        <ele>946.6</ele>
        <time>2023-04-30T08:25:45.000Z</time>
      </trkpt>
      <trkpt lat="47.87041" lon="6.92142">
        <ele>946.6</ele>
        <time>2023-04-30T08:25:46.000Z</time>
      </trkpt>
      <trkpt lat="47.87041" lon="6.92144">
        <ele>946.8</ele>
        <time>2023-04-30T08:25:47.000Z</time>
      </trkpt>
      <trkpt lat="47.8704" lon="6.92145">
        <ele>946.8</ele>
        <time>2023-04-30T08:25:48.000Z</time>
      </trkpt>
      <trkpt lat="47.87039" lon="6.92147">
        <ele>946.8</ele>
        <time>2023-04-30T08:25:49.000Z</time>
      </trkpt>
      <trkpt lat="47.87039" lon="6.92149">
        <ele>947</ele>
        <time>2023-04-30T08:25:50.000Z</time>
      </trkpt>
      <trkpt lat="47.87038" lon="6.9215">
        <ele>947.2</ele>
        <time>2023-04-30T08:25:51.000Z</time>
      </trkpt>
      <trkpt lat="47.87038" lon="6.92152">
        <ele>947.2</ele>
        <time>2023-04-30T08:25:52.000Z</time>
      </trkpt>
      <trkpt lat="47.87028" lon="6.92172">
        <ele>948.8</ele>
        <time>2023-04-30T08:26:05.000Z</time>
      </trkpt>
      <trkpt lat="47.87027" lon="6.92174">
        <ele>948.8</ele>
        <time>2023-04-30T08:26:06.000Z</time>
      </trkpt>
      <trkpt lat="47.87027" lon="6.92176">
        <ele>948.8</ele>
        <time>2023-04-30T08:26:07.000Z</time>
      </trkpt>
      <trkpt lat="47.87026" lon="6.92179">
        <ele>949.4</ele>
        <time>2023-04-30T08:26:09.000Z</time>
      </trkpt>
      <trkpt lat="47.87025" lon="6.92181">
        <ele>949.4</ele>
        <time>2023-04-30T08:26:10.000Z</time>
      </trkpt>
      <trkpt lat="47.87025" lon="6.92183">
        <ele>949.4</ele>
        <time>2023-04-30T08:26:11.000Z</time>
      </trkpt>
      <trkpt lat="47.87024" lon="6.92185">
        <ele>949.6</ele>
        <time>2023-04-30T08:26:12.000Z</time>
      </trkpt>
      <trkpt lat="47.87024" lon="6.92186">
        <ele>949.6</ele>
        <time>2023-04-30T08:26:13.000Z</time>
      </trkpt>
      <trkpt lat="47.87023" lon="6.92188">
        <ele>949.8</ele>
        <time>2023-04-30T08:26:14.000Z</time>
      </trkpt>
      <trkpt lat="47.87023" lon="6.9219">
        <ele>950</ele>
        <time>2023-04-30T08:26:15.000Z</time>
      </trkpt>
      <trkpt lat="47.87022" lon="6.92192">
        <ele>950</ele>
        <time>2023-04-30T08:26:16.000Z</time>
      </trkpt>
      <trkpt lat="47.87022" lon="6.92194">
        <ele>950.2</ele>
        <time>2023-04-30T08:26:17.000Z</time>
      </trkpt>
      <trkpt lat="47.87021" lon="6.92195">
        <ele>950.4</ele>
        <time>2023-04-30T08:26:18.000Z</time>
      </trkpt>
      <trkpt lat="47.8702" lon="6.92196">
        <ele>950.4</ele>
        <time>2023-04-30T08:26:19.000Z</time>
      </trkpt>
      <trkpt lat="47.87018" lon="6.92198">
        <ele>950.6</ele>
        <time>2023-04-30T08:26:20.000Z</time>
      </trkpt>
      <trkpt lat="47.87009" lon="6.92215">
        <ele>951.6</ele>
        <time>2023-04-30T08:26:33.000Z</time>
      </trkpt>
      <trkpt lat="47.87003" lon="6.92241">
        <ele>953</ele>
        <time>2023-04-30T08:26:49.000Z</time>
      </trkpt>
      <trkpt lat="47.87002" lon="6.92252">
        <ele>953.4</ele>
        <time>2023-04-30T08:27:08.000Z</time>
      </trkpt>
      <trkpt lat="47.87003" lon="6.92244">
        <ele>954.6</ele>
        <time>2023-04-30T08:27:30.000Z</time>
      </trkpt>
      <trkpt lat="47.86997" lon="6.92234">
        <ele>957.8</ele>
        <time>2023-04-30T08:27:50.000Z</time>
      </trkpt>
      <trkpt lat="47.86993" lon="6.9223">
        <ele>960.2</ele>
        <time>2023-04-30T08:28:08.000Z</time>
      </trkpt>
      <trkpt lat="47.86992" lon="6.92223">
        <ele>962</ele>
        <time>2023-04-30T08:28:29.000Z</time>
      </trkpt>
      <trkpt lat="47.86986" lon="6.9221">
        <ele>965.4</ele>
        <time>2023-04-30T08:28:45.000Z</time>
      </trkpt>
      <trkpt lat="47.86978" lon="6.9219">
        <ele>968.4</ele>
        <time>2023-04-30T08:29:04.000Z</time>
      </trkpt>
      <trkpt lat="47.86972" lon="6.92168">
        <ele>970.2</ele>
        <time>2023-04-30T08:29:21.000Z</time>
      </trkpt>
      <trkpt lat="47.86967" lon="6.92138">
        <ele>972.6</ele>
        <time>2023-04-30T08:29:40.000Z</time>
      </trkpt>
      <trkpt lat="47.86964" lon="6.92117">
        <ele>975</ele>
        <time>2023-04-30T08:29:53.000Z</time>
      </trkpt>
      <trkpt lat="47.86964" lon="6.92101">
        <ele>975.8</ele>
        <time>2023-04-30T08:30:02.000Z</time>
      </trkpt>
      <trkpt lat="47.86959" lon="6.92086">
        <ele>977.4</ele>
        <time>2023-04-30T08:30:13.000Z</time>
      </trkpt>
      <trkpt lat="47.86956" lon="6.92067">
        <ele>978.8</ele>
        <time>2023-04-30T08:30:25.000Z</time>
      </trkpt>
      <trkpt lat="47.86956" lon="6.9205">
        <ele>981.2</ele>
        <time>2023-04-30T08:30:40.000Z</time>
      </trkpt>
      <trkpt lat="47.86957" lon="6.92061">
        <ele>984.2</ele>
        <time>2023-04-30T08:31:00.000Z</time>
      </trkpt>
      <trkpt lat="47.86964" lon="6.92054">
        <ele>987.2</ele>
        <time>2023-04-30T08:31:12.000Z</time>
      </trkpt>
      <trkpt lat="47.86964" lon="6.92045">
        <ele>989</ele>
        <time>2023-04-30T08:31:21.000Z</time>
      </trkpt>
      <trkpt lat="47.86963" lon="6.92026">
        <ele>991.2</ele>
        <time>2023-04-30T08:31:35.000Z</time>
      </trkpt>
      <trkpt lat="47.8696" lon="6.9201">
        <ele>992.4</ele>
        <time>2023-04-30T08:31:46.000Z</time>
      </trkpt>
      <trkpt lat="47.8696" lon="6.92005">
        <ele>992.8</ele>
        <time>2023-04-30T08:31:49.000Z</time>
      </trkpt>
      <trkpt lat="47.8696" lon="6.91998">
        <ele>993.6</ele>
        <time>2023-04-30T08:31:54.000Z</time>
      </trkpt>
      <trkpt lat="47.86959" lon="6.91977">
        <ele>994.8</ele>
        <time>2023-04-30T08:32:08.000Z</time>
      </trkpt>
      <trkpt lat="47.86963" lon="6.91948">
        <ele>997.6</ele>
        <time>2023-04-30T08:32:25.000Z</time>
      </trkpt>
      <trkpt lat="47.86962" lon="6.91928">
        <ele>999.2</ele>
        <time>2023-04-30T08:32:38.000Z</time>
      </trkpt>
      <trkpt lat="47.86964" lon="6.91906">
        <ele>1002.2</ele>
        <time>2023-04-30T08:32:53.000Z</time>
      </trkpt>
      <trkpt lat="47.86964" lon="6.91885">
        <ele>1003.6</ele>
        <time>2023-04-30T08:33:08.000Z</time>
      </trkpt>
      <trkpt lat="47.86959" lon="6.91861">
        <ele>1004.8</ele>
        <time>2023-04-30T08:33:21.000Z</time>
      </trkpt>
      <trkpt lat="47.86961" lon="6.9184">
        <ele>1006.6</ele>
        <time>2023-04-30T08:33:35.000Z</time>
      </trkpt>
      <trkpt lat="47.86965" lon="6.91819">
        <ele>1008</ele>
        <time>2023-04-30T08:33:48.000Z</time>
      </trkpt>
      <trkpt lat="47.86963" lon="6.91797">
        <ele>1009.4</ele>
        <time>2023-04-30T08:34:03.000Z</time>
      </trkpt>
      <trkpt lat="47.86965" lon="6.91771">
        <ele>1010.6</ele>
        <time>2023-04-30T08:34:16.000Z</time>
      </trkpt>
      <trkpt lat="47.86956" lon="6.9174">
        <ele>1012.8</ele>
        <time>2023-04-30T08:34:35.000Z</time>
      </trkpt>
      <trkpt lat="47.86955" lon="6.91704">
        <ele>1015.8</ele>
        <time>2023-04-30T08:34:55.000Z</time>
      </trkpt>
      <trkpt lat="47.86949" lon="6.91681">
        <ele>1016.8</ele>
        <time>2023-04-30T08:35:12.000Z</time>
      </trkpt>
      <trkpt lat="47.86953" lon="6.91675">
        <ele>1017</ele>
        <time>2023-04-30T08:35:30.000Z</time>
      </trkpt>
      <trkpt lat="47.86963" lon="6.91668">
        <ele>1017.4</ele>
        <time>2023-04-30T08:35:44.000Z</time>
      </trkpt>
      <trkpt lat="47.86964" lon="6.91664">
        <ele>1017.4</ele>
        <time>2023-04-30T08:35:46.000Z</time>
      </trkpt>
      <trkpt lat="47.86965" lon="6.91637">
        <ele>1017.6</ele>
        <time>2023-04-30T08:35:58.000Z</time>
      </trkpt>
      <trkpt lat="47.86964" lon="6.91602">
        <ele>1018.2</ele>
        <time>2023-04-30T08:36:16.000Z</time>
      </trkpt>
      <trkpt lat="47.86967" lon="6.91581">
        <ele>1017.8</ele>
        <time>2023-04-30T08:36:28.000Z</time>
      </trkpt>
      <trkpt lat="47.86977" lon="6.91558">
        <ele>1018.8</ele>
        <time>2023-04-30T08:36:45.000Z</time>
      </trkpt>
      <trkpt lat="47.86976" lon="6.91556">
        <ele>1019</ele>
        <time>2023-04-30T08:36:46.000Z</time>
      </trkpt>
      <trkpt lat="47.86985" lon="6.91539">
        <ele>1019.6</ele>
        <time>2023-04-30T08:37:03.000Z</time>
      </trkpt>
      <trkpt lat="47.86987" lon="6.9153">
        <ele>1019.8</ele>
        <time>2023-04-30T08:37:07.000Z</time>
      </trkpt>
      <trkpt lat="47.86983" lon="6.91509">
        <ele>1020.6</ele>
        <time>2023-04-30T08:37:24.000Z</time>
      </trkpt>
      <trkpt lat="47.86983" lon="6.91497">
        <ele>1021.4</ele>
        <time>2023-04-30T08:37:35.000Z</time>
      </trkpt>
      <trkpt lat="47.86982" lon="6.9148">
        <ele>1023.4</ele>
        <time>2023-04-30T08:37:46.000Z</time>
      </trkpt>
      <trkpt lat="47.86965" lon="6.91457">
        <ele>1026</ele>
        <time>2023-04-30T08:38:11.000Z</time>
      </trkpt>
      <trkpt lat="47.8696" lon="6.9145">
        <ele>1028.8</ele>
        <time>2023-04-30T08:38:22.000Z</time>
      </trkpt>
      <trkpt lat="47.86953" lon="6.91432">
        <ele>1031.8</ele>
        <time>2023-04-30T08:38:39.000Z</time>
      </trkpt>
      <trkpt lat="47.86943" lon="6.91416">
        <ele>1032.4</ele>
        <time>2023-04-30T08:38:53.000Z</time>
      </trkpt>
      <trkpt lat="47.86929" lon="6.91399">
        <ele>1033.6</ele>
        <time>2023-04-30T08:39:08.000Z</time>
      </trkpt>
      <trkpt lat="47.86919" lon="6.91385">
        <ele>1035</ele>
        <time>2023-04-30T08:39:20.000Z</time>
      </trkpt>
      <trkpt lat="47.86911" lon="6.91375">
        <ele>1036.4</ele>
        <time>2023-04-30T08:39:31.000Z</time>
      </trkpt>
      <trkpt lat="47.86894" lon="6.91365">
        <ele>1037.8</ele>
        <time>2023-04-30T08:39:44.000Z</time>
      </trkpt>
      <trkpt lat="47.86887" lon="6.9136">
        <ele>1038.2</ele>
        <time>2023-04-30T08:39:50.000Z</time>
      </trkpt>
      <trkpt lat="47.86876" lon="6.91348">
        <ele>1038.8</ele>
        <time>2023-04-30T08:40:02.000Z</time>
      </trkpt>
      <trkpt lat="47.86872" lon="6.91329">
        <ele>1040.6</ele>
        <time>2023-04-30T08:40:13.000Z</time>
      </trkpt>
      <trkpt lat="47.86865" lon="6.91307">
        <ele>1041.8</ele>
        <time>2023-04-30T08:40:27.000Z</time>
      </trkpt>
      <trkpt lat="47.86853" lon="6.91285">
        <ele>1043.6</ele>
        <time>2023-04-30T08:40:45.000Z</time>
      </trkpt>
      <trkpt lat="47.86853" lon="6.91273">
        <ele>1044</ele>
        <time>2023-04-30T08:41:01.000Z</time>
      </trkpt>
      <trkpt lat="47.86856" lon="6.91261">
        <ele>1043.8</ele>
        <time>2023-04-30T08:41:33.000Z</time>
      </trkpt>
      <trkpt lat="47.86859" lon="6.9124">
        <ele>1044.2</ele>
        <time>2023-04-30T08:41:52.000Z</time>
      </trkpt>
      <trkpt lat="47.86866" lon="6.91227">
        <ele>1045.2</ele>
        <time>2023-04-30T08:42:00.000Z</time>
      </trkpt>
      <trkpt lat="47.86866" lon="6.91223">
        <ele>1045.2</ele>
        <time>2023-04-30T08:42:02.000Z</time>
      </trkpt>
      <trkpt lat="47.86863" lon="6.91209">
        <ele>1044.8</ele>
        <time>2023-04-30T08:42:11.000Z</time>
      </trkpt>
      <trkpt lat="47.86852" lon="6.91185">
        <ele>1045.4</ele>
        <time>2023-04-30T08:42:23.000Z</time>
      </trkpt>
      <trkpt lat="47.86847" lon="6.91155">
        <ele>1046</ele>
        <time>2023-04-30T08:42:38.000Z</time>
      </trkpt>
      <trkpt lat="47.86837" lon="6.91138">
        <ele>1046.6</ele>
        <time>2023-04-30T08:42:52.000Z</time>
      </trkpt>
      <trkpt lat="47.8682" lon="6.91115">
        <ele>1046.4</ele>
        <time>2023-04-30T08:43:07.000Z</time>
      </trkpt>
      <trkpt lat="47.86815" lon="6.91105">
        <ele>1046.8</ele>
        <time>2023-04-30T08:43:15.000Z</time>
      </trkpt>
      <trkpt lat="47.86812" lon="6.91096">
        <ele>1048.2</ele>
        <time>2023-04-30T08:43:22.000Z</time>
      </trkpt>
      <trkpt lat="47.86811" lon="6.91095">
        <ele>1048.2</ele>
        <time>2023-04-30T08:43:23.000Z</time>
      </trkpt>
      <trkpt lat="47.8681" lon="6.91093">
        <ele>1048.2</ele>
        <time>2023-04-30T08:43:25.000Z</time>
      </trkpt>
      <trkpt lat="47.86807" lon="6.9109">
        <ele>1048</ele>
        <time>2023-04-30T08:43:27.000Z</time>
      </trkpt>
      <trkpt lat="47.86798" lon="6.91079">
        <ele>1048.2</ele>
        <time>2023-04-30T08:43:35.000Z</time>
      </trkpt>
      <trkpt lat="47.86794" lon="6.91073">
        <ele>1048.6</ele>
        <time>2023-04-30T08:43:40.000Z</time>
      </trkpt>
      <trkpt lat="47.86786" lon="6.91043">
        <ele>1049.4</ele>
        <time>2023-04-30T08:43:54.000Z</time>
      </trkpt>
      <trkpt lat="47.86782" lon="6.91038">
        <ele>1049</ele>
        <time>2023-04-30T08:44:00.000Z</time>
      </trkpt>
      <trkpt lat="47.8677" lon="6.91027">
        <ele>1050.6</ele>
        <time>2023-04-30T08:44:16.000Z</time>
      </trkpt>
      <trkpt lat="47.86757" lon="6.91013">
        <ele>1050.4</ele>
        <time>2023-04-30T08:44:27.000Z</time>
      </trkpt>
      <trkpt lat="47.86754" lon="6.91011">
        <ele>1050.2</ele>
        <time>2023-04-30T08:44:29.000Z</time>
      </trkpt>
      <trkpt lat="47.86753" lon="6.9101">
        <ele>1050.2</ele>
        <time>2023-04-30T08:44:30.000Z</time>
      </trkpt>
      <trkpt lat="47.86751" lon="6.91009">
        <ele>1050.4</ele>
        <time>2023-04-30T08:44:31.000Z</time>
      </trkpt>
      <trkpt lat="47.8675" lon="6.91007">
        <ele>1050.6</ele>
        <time>2023-04-30T08:44:33.000Z</time>
      </trkpt>
      <trkpt lat="47.86749" lon="6.91006">
        <ele>1050.8</ele>
        <time>2023-04-30T08:44:34.000Z</time>
      </trkpt>
      <trkpt lat="47.86735" lon="6.90994">
        <ele>1052</ele>
        <time>2023-04-30T08:44:47.000Z</time>
      </trkpt>
      <trkpt lat="47.86734" lon="6.90992">
        <ele>1052.2</ele>
        <time>2023-04-30T08:44:48.000Z</time>
      </trkpt>
      <trkpt lat="47.86734" lon="6.9099">
        <ele>1052.2</ele>
        <time>2023-04-30T08:44:49.000Z</time>
      </trkpt>
      <trkpt lat="47.86734" lon="6.90987">
        <ele>1052.2</ele>
        <time>2023-04-30T08:44:50.000Z</time>
      </trkpt>
      <trkpt lat="47.86734" lon="6.90985">
        <ele>1052.2</ele>
        <time>2023-04-30T08:44:51.000Z</time>
      </trkpt>
      <trkpt lat="47.86731" lon="6.90977">
        <ele>1052</ele>
        <time>2023-04-30T08:44:56.000Z</time>
      </trkpt>
      <trkpt lat="47.86731" lon="6.90975">
        <ele>1052</ele>
        <time>2023-04-30T08:44:57.000Z</time>
      </trkpt>
      <trkpt lat="47.8673" lon="6.90973">
        <ele>1052</ele>
        <time>2023-04-30T08:44:58.000Z</time>
      </trkpt>
      <trkpt lat="47.8673" lon="6.90972">
        <ele>1052</ele>
        <time>2023-04-30T08:44:59.000Z</time>
      </trkpt>
      <trkpt lat="47.86732" lon="6.90949">
        <ele>1052.6</ele>
        <time>2023-04-30T08:45:12.000Z</time>
      </trkpt>
      <trkpt lat="47.8673" lon="6.90937">
        <ele>1054.4</ele>
        <time>2023-04-30T08:45:21.000Z</time>
      </trkpt>
      <trkpt lat="47.86711" lon="6.9091">
        <ele>1052</ele>
        <time>2023-04-30T08:45:39.000Z</time>
      </trkpt>
      <trkpt lat="47.86688" lon="6.90885">
        <ele>1051.2</ele>
        <time>2023-04-30T08:45:58.000Z</time>
      </trkpt>
      <trkpt lat="47.86687" lon="6.90884">
        <ele>1051.2</ele>
        <time>2023-04-30T08:45:59.000Z</time>
      </trkpt>
      <trkpt lat="47.86679" lon="6.90884">
        <ele>1052</ele>
        <time>2023-04-30T08:46:09.000Z</time>
      </trkpt>
      <trkpt lat="47.86659" lon="6.9089">
        <ele>1050.6</ele>
        <time>2023-04-30T08:46:22.000Z</time>
      </trkpt>
      <trkpt lat="47.86645" lon="6.90895">
        <ele>1050.8</ele>
        <time>2023-04-30T08:46:33.000Z</time>
      </trkpt>
      <trkpt lat="47.86552" lon="6.90932">
        <ele>1051.6</ele>
        <time>2023-04-30T08:47:37.000Z</time>
      </trkpt>
      <trkpt lat="47.86543" lon="6.90933">
        <ele>1053</ele>
        <time>2023-04-30T08:47:53.000Z</time>
      </trkpt>
      <trkpt lat="47.86531" lon="6.9094">
        <ele>1052.6</ele>
        <time>2023-04-30T08:48:17.000Z</time>
      </trkpt>
      <trkpt lat="47.86531" lon="6.90943">
        <ele>1052.6</ele>
        <time>2023-04-30T08:48:43.000Z</time>
      </trkpt>
      <trkpt lat="47.8653" lon="6.90944">
        <ele>1053</ele>
        <time>2023-04-30T08:49:09.000Z</time>
      </trkpt>
      <trkpt lat="47.86535" lon="6.90942">
        <ele>1052.8</ele>
        <time>2023-04-30T08:49:33.000Z</time>
      </trkpt>
      <trkpt lat="47.86548" lon="6.90941">
        <ele>1052.4</ele>
        <time>2023-04-30T08:49:46.000Z</time>
      </trkpt>
      <trkpt lat="47.86552" lon="6.90941">
        <ele>1052.2</ele>
        <time>2023-04-30T08:49:56.000Z</time>
      </trkpt>
      <trkpt lat="47.86559" lon="6.90954">
        <ele>1046.2</ele>
        <time>2023-04-30T08:50:21.000Z</time>
      </trkpt>
      <trkpt lat="47.86574" lon="6.90956">
        <ele>1043.6</ele>
        <time>2023-04-30T08:50:40.000Z</time>
      </trkpt>
      <trkpt lat="47.86587" lon="6.90956">
        <ele>1040.6</ele>
        <time>2023-04-30T08:50:53.000Z</time>
      </trkpt>
      <trkpt lat="47.86593" lon="6.90957">
        <ele>1037.6</ele>
        <time>2023-04-30T08:51:03.000Z</time>
      </trkpt>
      <trkpt lat="47.86593" lon="6.90956">
        <ele>1036.6</ele>
        <time>2023-04-30T08:51:06.000Z</time>
      </trkpt>
      <trkpt lat="47.86591" lon="6.90956">
        <ele>1033.2</ele>
        <time>2023-04-30T08:51:27.000Z</time>
      </trkpt>
      <trkpt lat="47.86596" lon="6.90964">
        <ele>1029.8</ele>
        <time>2023-04-30T08:51:38.000Z</time>
      </trkpt>
      <trkpt lat="47.86602" lon="6.9097">
        <ele>1026.8</ele>
        <time>2023-04-30T08:51:46.000Z</time>
      </trkpt>
      <trkpt lat="47.86599" lon="6.90979">
        <ele>1023.4</ele>
        <time>2023-04-30T08:51:57.000Z</time>
      </trkpt>
      <trkpt lat="47.86601" lon="6.90982">
        <ele>1020.2</ele>
        <time>2023-04-30T08:52:05.000Z</time>
      </trkpt>
      <trkpt lat="47.86606" lon="6.90986">
        <ele>1017</ele>
        <time>2023-04-30T08:52:12.000Z</time>
      </trkpt>
      <trkpt lat="47.86616" lon="6.90992">
        <ele>1010.4</ele>
        <time>2023-04-30T08:52:23.000Z</time>
      </trkpt>
      <trkpt lat="47.86622" lon="6.90999">
        <ele>1007.2</ele>
        <time>2023-04-30T08:52:33.000Z</time>
      </trkpt>
      <trkpt lat="47.86626" lon="6.91007">
        <ele>1004.2</ele>
        <time>2023-04-30T08:52:42.000Z</time>
      </trkpt>
      <trkpt lat="47.86636" lon="6.91018">
        <ele>1001</ele>
        <time>2023-04-30T08:52:52.000Z</time>
      </trkpt>
      <trkpt lat="47.86649" lon="6.91023">
        <ele>998</ele>
        <time>2023-04-30T08:53:05.000Z</time>
      </trkpt>
      <trkpt lat="47.86652" lon="6.91029">
        <ele>996.6</ele>
        <time>2023-04-30T08:53:11.000Z</time>
      </trkpt>
      <trkpt lat="47.86654" lon="6.91046">
        <ele>994.2</ele>
        <time>2023-04-30T08:53:20.000Z</time>
      </trkpt>
      <trkpt lat="47.86656" lon="6.9105">
        <ele>993.2</ele>
        <time>2023-04-30T08:53:23.000Z</time>
      </trkpt>
      <trkpt lat="47.86667" lon="6.91073">
        <ele>988.8</ele>
        <time>2023-04-30T08:53:38.000Z</time>
      </trkpt>
      <trkpt lat="47.86672" lon="6.91082">
        <ele>985.6</ele>
        <time>2023-04-30T08:53:51.000Z</time>
      </trkpt>
      <trkpt lat="47.86669" lon="6.91076">
        <ele>982.2</ele>
        <time>2023-04-30T08:54:00.000Z</time>
      </trkpt>
      <trkpt lat="47.86667" lon="6.91073">
        <ele>978.8</ele>
        <time>2023-04-30T08:54:09.000Z</time>
      </trkpt>
      <trkpt lat="47.86658" lon="6.91091">
        <ele>973.6</ele>
        <time>2023-04-30T08:54:21.000Z</time>
      </trkpt>
      <trkpt lat="47.8665" lon="6.91099">
        <ele>970.4</ele>
        <time>2023-04-30T08:54:32.000Z</time>
      </trkpt>
      <trkpt lat="47.86652" lon="6.91105">
        <ele>967.4</ele>
        <time>2023-04-30T08:54:43.000Z</time>
      </trkpt>
      <trkpt lat="47.86648" lon="6.91111">
        <ele>965.2</ele>
        <time>2023-04-30T08:54:51.000Z</time>
      </trkpt>
      <trkpt lat="47.86644" lon="6.91116">
        <ele>963.8</ele>
        <time>2023-04-30T08:54:57.000Z</time>
      </trkpt>
      <trkpt lat="47.86646" lon="6.91123">
        <ele>962.8</ele>
        <time>2023-04-30T08:55:01.000Z</time>
      </trkpt>
      <trkpt lat="47.86646" lon="6.91135">
        <ele>959.6</ele>
        <time>2023-04-30T08:55:11.000Z</time>
      </trkpt>
      <trkpt lat="47.86636" lon="6.91141">
        <ele>956.6</ele>
        <time>2023-04-30T08:55:29.000Z</time>
      </trkpt>
      <trkpt lat="47.86634" lon="6.91147">
        <ele>953.2</ele>
        <time>2023-04-30T08:55:37.000Z</time>
      </trkpt>
      <trkpt lat="47.86634" lon="6.91148">
        <ele>953</ele>
        <time>2023-04-30T08:55:38.000Z</time>
      </trkpt>
      <trkpt lat="47.86641" lon="6.91158">
        <ele>950</ele>
        <time>2023-04-30T08:55:48.000Z</time>
      </trkpt>
      <trkpt lat="47.86642" lon="6.91164">
        <ele>946.8</ele>
        <time>2023-04-30T08:56:01.000Z</time>
      </trkpt>
      <trkpt lat="47.8664" lon="6.91164">
        <ele>945</ele>
        <time>2023-04-30T08:56:07.000Z</time>
      </trkpt>
      <trkpt lat="47.86614" lon="6.91205">
        <ele>936.2</ele>
        <time>2023-04-30T08:56:39.000Z</time>
      </trkpt>
      <trkpt lat="47.86611" lon="6.91215">
        <ele>934.2</ele>
        <time>2023-04-30T08:56:45.000Z</time>
      </trkpt>
      <trkpt lat="47.86609" lon="6.91227">
        <ele>931</ele>
        <time>2023-04-30T08:56:57.000Z</time>
      </trkpt>
      <trkpt lat="47.86602" lon="6.91236">
        <ele>928</ele>
        <time>2023-04-30T08:57:07.000Z</time>
      </trkpt>
      <trkpt lat="47.86609" lon="6.9124">
        <ele>925</ele>
        <time>2023-04-30T08:57:19.000Z</time>
      </trkpt>
      <trkpt lat="47.86611" lon="6.91254">
        <ele>921.2</ele>
        <time>2023-04-30T08:57:31.000Z</time>
      </trkpt>
      <trkpt lat="47.86613" lon="6.91269">
        <ele>918.6</ele>
        <time>2023-04-30T08:57:45.000Z</time>
      </trkpt>
      <trkpt lat="47.86614" lon="6.9127">
        <ele>918.6</ele>
        <time>2023-04-30T08:57:46.000Z</time>
      </trkpt>
      <trkpt lat="47.86626" lon="6.9127">
        <ele>918.8</ele>
        <time>2023-04-30T08:58:11.000Z</time>
      </trkpt>
      <trkpt lat="47.86626" lon="6.91255">
        <ele>918.6</ele>
        <time>2023-04-30T08:58:28.000Z</time>
      </trkpt>
      <trkpt lat="47.86575" lon="6.91317">
        <ele>906.4</ele>
        <time>2023-04-30T08:59:26.000Z</time>
      </trkpt>
      <trkpt lat="47.86567" lon="6.91332">
        <ele>903.4</ele>
        <time>2023-04-30T08:59:38.000Z</time>
      </trkpt>
      <trkpt lat="47.8655" lon="6.91352">
        <ele>902.4</ele>
        <time>2023-04-30T08:59:53.000Z</time>
      </trkpt>
      <trkpt lat="47.86547" lon="6.91377">
        <ele>901.2</ele>
        <time>2023-04-30T09:00:05.000Z</time>
      </trkpt>
      <trkpt lat="47.86542" lon="6.91402">
        <ele>900.2</ele>
        <time>2023-04-30T09:00:17.000Z</time>
      </trkpt>
      <trkpt lat="47.86541" lon="6.91403">
        <ele>900.2</ele>
        <time>2023-04-30T09:00:18.000Z</time>
      </trkpt>
      <trkpt lat="47.86541" lon="6.91405">
        <ele>900</ele>
        <time>2023-04-30T09:00:19.000Z</time>
      </trkpt>
      <trkpt lat="47.86537" lon="6.91425">
        <ele>899</ele>
        <time>2023-04-30T09:00:33.000Z</time>
      </trkpt>
      <trkpt lat="47.86537" lon="6.91429">
        <ele>898.8</ele>
        <time>2023-04-30T09:00:35.000Z</time>
      </trkpt>
      <trkpt lat="47.86533" lon="6.91457">
        <ele>895.8</ele>
        <time>2023-04-30T09:00:49.000Z</time>
      </trkpt>
      <trkpt lat="47.86529" lon="6.91463">
        <ele>895</ele>
        <time>2023-04-30T09:00:52.000Z</time>
      </trkpt>
      <trkpt lat="47.86522" lon="6.91477">
        <ele>893.2</ele>
        <time>2023-04-30T09:00:58.000Z</time>
      </trkpt>
      <trkpt lat="47.86521" lon="6.9148">
        <ele>892.8</ele>
        <time>2023-04-30T09:00:59.000Z</time>
      </trkpt>
      <trkpt lat="47.86521" lon="6.91482">
        <ele>892.6</ele>
        <time>2023-04-30T09:01:00.000Z</time>
      </trkpt>
      <trkpt lat="47.86518" lon="6.91505">
        <ele>889.6</ele>
        <time>2023-04-30T09:01:12.000Z</time>
      </trkpt>
      <trkpt lat="47.86514" lon="6.91541">
        <ele>887.6</ele>
        <time>2023-04-30T09:01:30.000Z</time>
      </trkpt>
      <trkpt lat="47.86506" lon="6.91553">
        <ele>886.4</ele>
        <time>2023-04-30T09:01:39.000Z</time>
      </trkpt>
      <trkpt lat="47.86505" lon="6.91554">
        <ele>886.2</ele>
        <time>2023-04-30T09:01:40.000Z</time>
      </trkpt>
      <trkpt lat="47.86503" lon="6.91555">
        <ele>886.2</ele>
        <time>2023-04-30T09:01:41.000Z</time>
      </trkpt>
      <trkpt lat="47.86502" lon="6.91556">
        <ele>886</ele>
        <time>2023-04-30T09:01:42.000Z</time>
      </trkpt>
      <trkpt lat="47.86501" lon="6.91558">
        <ele>885.8</ele>
        <time>2023-04-30T09:01:44.000Z</time>
      </trkpt>
      <trkpt lat="47.865" lon="6.91559">
        <ele>885.6</ele>
        <time>2023-04-30T09:01:45.000Z</time>
      </trkpt>
      <trkpt lat="47.86499" lon="6.91561">
        <ele>885.4</ele>
        <time>2023-04-30T09:01:46.000Z</time>
      </trkpt>
      <trkpt lat="47.86499" lon="6.91562">
        <ele>885.4</ele>
        <time>2023-04-30T09:01:47.000Z</time>
      </trkpt>
      <trkpt lat="47.86498" lon="6.91563">
        <ele>885.2</ele>
        <time>2023-04-30T09:01:48.000Z</time>
      </trkpt>
      <trkpt lat="47.86498" lon="6.91582">
        <ele>883.4</ele>
        <time>2023-04-30T09:02:00.000Z</time>
      </trkpt>
      <trkpt lat="47.86493" lon="6.91597">
        <ele>882.4</ele>
        <time>2023-04-30T09:02:13.000Z</time>
      </trkpt>
      <trkpt lat="47.86491" lon="6.91594">
        <ele>882.2</ele>
        <time>2023-04-30T09:02:38.000Z</time>
      </trkpt>
      <trkpt lat="47.8649" lon="6.91601">
        <ele>882.8</ele>
        <time>2023-04-30T09:03:05.000Z</time>
      </trkpt>
      <trkpt lat="47.86485" lon="6.91595">
        <ele>885.8</ele>
        <time>2023-04-30T09:03:20.000Z</time>
      </trkpt>
      <trkpt lat="47.8647" lon="6.91587">
        <ele>888.8</ele>
        <time>2023-04-30T09:03:38.000Z</time>
      </trkpt>
      <trkpt lat="47.86463" lon="6.9159">
        <ele>891.6</ele>
        <time>2023-04-30T09:03:55.000Z</time>
      </trkpt>
      <trkpt lat="47.86462" lon="6.91596">
        <ele>894.6</ele>
        <time>2023-04-30T09:04:12.000Z</time>
      </trkpt>
      <trkpt lat="47.86452" lon="6.91604">
        <ele>896.6</ele>
        <time>2023-04-30T09:04:30.000Z</time>
      </trkpt>
      <trkpt lat="47.86441" lon="6.91607">
        <ele>898.2</ele>
        <time>2023-04-30T09:04:40.000Z</time>
      </trkpt>
      <trkpt lat="47.86435" lon="6.91608">
        <ele>898.2</ele>
        <time>2023-04-30T09:04:45.000Z</time>
      </trkpt>
      <trkpt lat="47.86434" lon="6.91609">
        <ele>898.2</ele>
        <time>2023-04-30T09:04:46.000Z</time>
      </trkpt>
      <trkpt lat="47.86433" lon="6.91609">
        <ele>898.2</ele>
        <time>2023-04-30T09:04:47.000Z</time>
      </trkpt>
      <trkpt lat="47.86409" lon="6.91626">
        <ele>899</ele>
        <time>2023-04-30T09:05:08.000Z</time>
      </trkpt>
      <trkpt lat="47.86397" lon="6.91637">
        <ele>899</ele>
        <time>2023-04-30T09:05:21.000Z</time>
      </trkpt>
      <trkpt lat="47.86395" lon="6.91638">
        <ele>899.4</ele>
        <time>2023-04-30T09:05:23.000Z</time>
      </trkpt>
      <trkpt lat="47.86386" lon="6.91662">
        <ele>901</ele>
        <time>2023-04-30T09:05:43.000Z</time>
      </trkpt>
      <trkpt lat="47.86371" lon="6.91677">
        <ele>903</ele>
        <time>2023-04-30T09:06:01.000Z</time>
      </trkpt>
      <trkpt lat="47.86354" lon="6.91686">
        <ele>905.2</ele>
        <time>2023-04-30T09:06:21.000Z</time>
      </trkpt>
      <trkpt lat="47.86336" lon="6.9169">
        <ele>907.4</ele>
        <time>2023-04-30T09:06:41.000Z</time>
      </trkpt>
      <trkpt lat="47.86324" lon="6.91693">
        <ele>910.6</ele>
        <time>2023-04-30T09:06:55.000Z</time>
      </trkpt>
      <trkpt lat="47.8631" lon="6.91701">
        <ele>913.8</ele>
        <time>2023-04-30T09:07:12.000Z</time>
      </trkpt>
      <trkpt lat="47.86313" lon="6.91703">
        <ele>916.2</ele>
        <time>2023-04-30T09:07:31.000Z</time>
      </trkpt>
      <trkpt lat="47.86315" lon="6.91703">
        <ele>918.8</ele>
        <time>2023-04-30T09:07:54.000Z</time>
      </trkpt>
      <trkpt lat="47.86317" lon="6.917">
        <ele>919.4</ele>
        <time>2023-04-30T09:08:11.000Z</time>
      </trkpt>
      <trkpt lat="47.86309" lon="6.91693">
        <ele>919.2</ele>
        <time>2023-04-30T09:08:56.000Z</time>
      </trkpt>
      <trkpt lat="47.86292" lon="6.91686">
        <ele>919.2</ele>
        <time>2023-04-30T09:09:42.000Z</time>
      </trkpt>
      <trkpt lat="47.86292" lon="6.91684">
        <ele>922.6</ele>
        <time>2023-04-30T09:09:47.000Z</time>
      </trkpt>
      <trkpt lat="47.86269" lon="6.91687">
        <ele>930.2</ele>
        <time>2023-04-30T09:10:20.000Z</time>
      </trkpt>
      <trkpt lat="47.86263" lon="6.91684">
        <ele>933</ele>
        <time>2023-04-30T09:10:40.000Z</time>
      </trkpt>
      <trkpt lat="47.86253" lon="6.91684">
        <ele>936</ele>
        <time>2023-04-30T09:10:58.000Z</time>
      </trkpt>
      <trkpt lat="47.8625" lon="6.91679">
        <ele>939.2</ele>
        <time>2023-04-30T09:11:12.000Z</time>
      </trkpt>
      <trkpt lat="47.86258" lon="6.91676">
        <ele>942.2</ele>
        <time>2023-04-30T09:11:28.000Z</time>
      </trkpt>
      <trkpt lat="47.86225" lon="6.91663">
        <ele>951.4</ele>
        <time>2023-04-30T09:12:17.000Z</time>
      </trkpt>
      <trkpt lat="47.86225" lon="6.91675">
        <ele>952.8</ele>
        <time>2023-04-30T09:12:40.000Z</time>
      </trkpt>
      <trkpt lat="47.86218" lon="6.91687">
        <ele>954</ele>
        <time>2023-04-30T09:13:00.000Z</time>
      </trkpt>
      <trkpt lat="47.86215" lon="6.91678">
        <ele>957.2</ele>
        <time>2023-04-30T09:13:13.000Z</time>
      </trkpt>
      <trkpt lat="47.86211" lon="6.91673">
        <ele>960.2</ele>
        <time>2023-04-30T09:13:36.000Z</time>
      </trkpt>
      <trkpt lat="47.86208" lon="6.91674">
        <ele>961.2</ele>
        <time>2023-04-30T09:13:58.000Z</time>
      </trkpt>
      <trkpt lat="47.86199" lon="6.91678">
        <ele>963</ele>
        <time>2023-04-30T09:14:25.000Z</time>
      </trkpt>
      <trkpt lat="47.862" lon="6.91684">
        <ele>962.4</ele>
        <time>2023-04-30T09:14:44.000Z</time>
      </trkpt>
      <trkpt lat="47.86201" lon="6.91687">
        <ele>961.4</ele>
        <time>2023-04-30T09:15:07.000Z</time>
      </trkpt>
      <trkpt lat="47.86195" lon="6.91701">
        <ele>960.6</ele>
        <time>2023-04-30T09:15:23.000Z</time>
      </trkpt>
      <trkpt lat="47.86188" lon="6.91708">
        <ele>960.6</ele>
        <time>2023-04-30T09:15:43.000Z</time>
      </trkpt>
      <trkpt lat="47.86154" lon="6.9174">
        <ele>966</ele>
        <time>2023-04-30T09:16:23.000Z</time>
      </trkpt>
      <trkpt lat="47.86151" lon="6.91745">
        <ele>966.8</ele>
        <time>2023-04-30T09:16:34.000Z</time>
      </trkpt>
      <trkpt lat="47.86147" lon="6.91755">
        <ele>969.8</ele>
        <time>2023-04-30T09:16:48.000Z</time>
      </trkpt>
      <trkpt lat="47.86146" lon="6.9177">
        <ele>973</ele>
        <time>2023-04-30T09:17:08.000Z</time>
      </trkpt>
      <trkpt lat="47.86148" lon="6.9177">
        <ele>976</ele>
        <time>2023-04-30T09:17:23.000Z</time>
      </trkpt>
      <trkpt lat="47.86145" lon="6.91771">
        <ele>977.2</ele>
        <time>2023-04-30T09:17:28.000Z</time>
      </trkpt>
      <trkpt lat="47.86139" lon="6.91769">
        <ele>980.6</ele>
        <time>2023-04-30T09:17:45.000Z</time>
      </trkpt>
      <trkpt lat="47.86125" lon="6.91768">
        <ele>983.8</ele>
        <time>2023-04-30T09:18:01.000Z</time>
      </trkpt>
      <trkpt lat="47.861" lon="6.91788">
        <ele>988.8</ele>
        <time>2023-04-30T09:18:38.000Z</time>
      </trkpt>
      <trkpt lat="47.86088" lon="6.91822">
        <ele>994.4</ele>
        <time>2023-04-30T09:19:19.000Z</time>
      </trkpt>
      <trkpt lat="47.8609" lon="6.91819">
        <ele>997.4</ele>
        <time>2023-04-30T09:19:37.000Z</time>
      </trkpt>
      <trkpt lat="47.86071" lon="6.91821">
        <ele>1003.6</ele>
        <time>2023-04-30T09:20:09.000Z</time>
      </trkpt>
      <trkpt lat="47.86065" lon="6.9182">
        <ele>1006.8</ele>
        <time>2023-04-30T09:20:27.000Z</time>
      </trkpt>
      <trkpt lat="47.86058" lon="6.91823">
        <ele>1009.8</ele>
        <time>2023-04-30T09:20:40.000Z</time>
      </trkpt>
      <trkpt lat="47.86023" lon="6.9186">
        <ele>1015.6</ele>
        <time>2023-04-30T09:21:32.000Z</time>
      </trkpt>
      <trkpt lat="47.86015" lon="6.91866">
        <ele>1018.4</ele>
        <time>2023-04-30T09:21:52.000Z</time>
      </trkpt>
      <trkpt lat="47.86017" lon="6.91868">
        <ele>1021.4</ele>
        <time>2023-04-30T09:22:09.000Z</time>
      </trkpt>
      <trkpt lat="47.86009" lon="6.91866">
        <ele>1024.4</ele>
        <time>2023-04-30T09:22:26.000Z</time>
      </trkpt>
      <trkpt lat="47.86016" lon="6.91869">
        <ele>1026</ele>
        <time>2023-04-30T09:22:38.000Z</time>
      </trkpt>
      <trkpt lat="47.86017" lon="6.91864">
        <ele>1029.2</ele>
        <time>2023-04-30T09:22:54.000Z</time>
      </trkpt>
      <trkpt lat="47.86001" lon="6.91849">
        <ele>1034.6</ele>
        <time>2023-04-30T09:23:22.000Z</time>
      </trkpt>
      <trkpt lat="47.86005" lon="6.91845">
        <ele>1035.6</ele>
        <time>2023-04-30T09:23:30.000Z</time>
      </trkpt>
      <trkpt lat="47.86008" lon="6.91841">
        <ele>1038.4</ele>
        <time>2023-04-30T09:23:48.000Z</time>
      </trkpt>
      <trkpt lat="47.85997" lon="6.91836">
        <ele>1040.8</ele>
        <time>2023-04-30T09:24:02.000Z</time>
      </trkpt>
      <trkpt lat="47.8599" lon="6.91835">
        <ele>1043.8</ele>
        <time>2023-04-30T09:24:16.000Z</time>
      </trkpt>
      <trkpt lat="47.85983" lon="6.91839">
        <ele>1046.6</ele>
        <time>2023-04-30T09:24:31.000Z</time>
      </trkpt>
      <trkpt lat="47.85986" lon="6.91843">
        <ele>1049.8</ele>
        <time>2023-04-30T09:24:48.000Z</time>
      </trkpt>
      <trkpt lat="47.85983" lon="6.91849">
        <ele>1050.6</ele>
        <time>2023-04-30T09:25:11.000Z</time>
      </trkpt>
      <trkpt lat="47.85992" lon="6.91843">
        <ele>1053.6</ele>
        <time>2023-04-30T09:25:27.000Z</time>
      </trkpt>
      <trkpt lat="47.8599" lon="6.91837">
        <ele>1056.6</ele>
        <time>2023-04-30T09:25:42.000Z</time>
      </trkpt>
      <trkpt lat="47.85986" lon="6.91828">
        <ele>1060.2</ele>
        <time>2023-04-30T09:26:00.000Z</time>
      </trkpt>
      <trkpt lat="47.85959" lon="6.91807">
        <ele>1065.4</ele>
        <time>2023-04-30T09:26:29.000Z</time>
      </trkpt>
      <trkpt lat="47.85947" lon="6.91813">
        <ele>1068.6</ele>
        <time>2023-04-30T09:26:45.000Z</time>
      </trkpt>
      <trkpt lat="47.8593" lon="6.91826">
        <ele>1071.6</ele>
        <time>2023-04-30T09:27:04.000Z</time>
      </trkpt>
      <trkpt lat="47.85929" lon="6.91843">
        <ele>1073.2</ele>
        <time>2023-04-30T09:27:17.000Z</time>
      </trkpt>
      <trkpt lat="47.85943" lon="6.91845">
        <ele>1076.4</ele>
        <time>2023-04-30T09:27:34.000Z</time>
      </trkpt>
      <trkpt lat="47.85949" lon="6.9183">
        <ele>1079.8</ele>
        <time>2023-04-30T09:27:51.000Z</time>
      </trkpt>
      <trkpt lat="47.85948" lon="6.9182">
        <ele>1082.6</ele>
        <time>2023-04-30T09:28:05.000Z</time>
      </trkpt>
      <trkpt lat="47.85905" lon="6.91824">
        <ele>1091.2</ele>
        <time>2023-04-30T09:28:58.000Z</time>
      </trkpt>
      <trkpt lat="47.85899" lon="6.91834">
        <ele>1094.4</ele>
        <time>2023-04-30T09:29:13.000Z</time>
      </trkpt>
      <trkpt lat="47.85904" lon="6.91835">
        <ele>1097.4</ele>
        <time>2023-04-30T09:29:27.000Z</time>
      </trkpt>
      <trkpt lat="47.8591" lon="6.91827">
        <ele>1099.4</ele>
        <time>2023-04-30T09:29:37.000Z</time>
      </trkpt>
      <trkpt lat="47.85894" lon="6.91838">
        <ele>1103.4</ele>
        <time>2023-04-30T09:29:59.000Z</time>
      </trkpt>
      <trkpt lat="47.8589" lon="6.91854">
        <ele>1106.6</ele>
        <time>2023-04-30T09:30:18.000Z</time>
      </trkpt>
      <trkpt lat="47.8589" lon="6.91858">
        <ele>1109.8</ele>
        <time>2023-04-30T09:30:35.000Z</time>
      </trkpt>
      <trkpt lat="47.85896" lon="6.91846">
        <ele>1112.8</ele>
        <time>2023-04-30T09:30:50.000Z</time>
      </trkpt>
      <trkpt lat="47.85886" lon="6.91839">
        <ele>1115.8</ele>
        <time>2023-04-30T09:31:06.000Z</time>
      </trkpt>
      <trkpt lat="47.85883" lon="6.91826">
        <ele>1117.8</ele>
        <time>2023-04-30T09:31:21.000Z</time>
      </trkpt>
      <trkpt lat="47.85862" lon="6.91828">
        <ele>1125.8</ele>
        <time>2023-04-30T09:32:08.000Z</time>
      </trkpt>
      <trkpt lat="47.85859" lon="6.91837">
        <ele>1128.8</ele>
        <time>2023-04-30T09:32:23.000Z</time>
      </trkpt>
      <trkpt lat="47.85858" lon="6.91849">
        <ele>1132</ele>
        <time>2023-04-30T09:32:41.000Z</time>
      </trkpt>
      <trkpt lat="47.85866" lon="6.91841">
        <ele>1135</ele>
        <time>2023-04-30T09:32:58.000Z</time>
      </trkpt>
      <trkpt lat="47.85859" lon="6.91852">
        <ele>1138.2</ele>
        <time>2023-04-30T09:33:16.000Z</time>
      </trkpt>
      <trkpt lat="47.85862" lon="6.91853">
        <ele>1141.2</ele>
        <time>2023-04-30T09:33:34.000Z</time>
      </trkpt>
      <trkpt lat="47.85855" lon="6.9186">
        <ele>1145.6</ele>
        <time>2023-04-30T09:33:55.000Z</time>
      </trkpt>
      <trkpt lat="47.85851" lon="6.91861">
        <ele>1148.6</ele>
        <time>2023-04-30T09:34:15.000Z</time>
      </trkpt>
      <trkpt lat="47.85845" lon="6.9185">
        <ele>1151.6</ele>
        <time>2023-04-30T09:34:33.000Z</time>
      </trkpt>
      <trkpt lat="47.85843" lon="6.91835">
        <ele>1154.8</ele>
        <time>2023-04-30T09:34:53.000Z</time>
      </trkpt>
      <trkpt lat="47.8584" lon="6.91828">
        <ele>1155.6</ele>
        <time>2023-04-30T09:35:22.000Z</time>
      </trkpt>
      <trkpt lat="47.85836" lon="6.9183">
        <ele>1157.2</ele>
        <time>2023-04-30T09:35:43.000Z</time>
      </trkpt>
      <trkpt lat="47.8583" lon="6.91827">
        <ele>1160.4</ele>
        <time>2023-04-30T09:35:55.000Z</time>
      </trkpt>
      <trkpt lat="47.85826" lon="6.91826">
        <ele>1163.2</ele>
        <time>2023-04-30T09:36:13.000Z</time>
      </trkpt>
      <trkpt lat="47.85827" lon="6.91828">
        <ele>1163.2</ele>
        <time>2023-04-30T09:36:33.000Z</time>
      </trkpt>
      <trkpt lat="47.85828" lon="6.91827">
        <ele>1163.2</ele>
        <time>2023-04-30T09:36:59.000Z</time>
      </trkpt>
      <trkpt lat="47.85818" lon="6.91825">
        <ele>1162.8</ele>
        <time>2023-04-30T09:37:18.000Z</time>
      </trkpt>
      <trkpt lat="47.85801" lon="6.91829">
        <ele>1162.4</ele>
        <time>2023-04-30T09:40:45.000Z</time>
      </trkpt>
      <trkpt lat="47.8581" lon="6.91833">
        <ele>1162.4</ele>
        <time>2023-04-30T09:41:08.000Z</time>
      </trkpt>
      <trkpt lat="47.85813" lon="6.91826">
        <ele>1162.4</ele>
        <time>2023-04-30T09:41:38.000Z</time>
      </trkpt>
      <trkpt lat="47.85808" lon="6.91828">
        <ele>1162.4</ele>
        <time>2023-04-30T09:42:07.000Z</time>
      </trkpt>
      <trkpt lat="47.85808" lon="6.91829">
        <ele>1162.4</ele>
        <time>2023-04-30T09:42:32.000Z</time>
      </trkpt>
      <trkpt lat="47.85801" lon="6.91842">
        <ele>1162.4</ele>
        <time>2023-04-30T09:43:00.000Z</time>
      </trkpt>
      <trkpt lat="47.858" lon="6.91842">
        <ele>1162.4</ele>
        <time>2023-04-30T09:43:01.000Z</time>
      </trkpt>
      <trkpt lat="47.85783" lon="6.91847">
        <ele>1162</ele>
        <time>2023-04-30T09:43:16.000Z</time>
      </trkpt>
      <trkpt lat="47.85768" lon="6.91859">
        <ele>1160.2</ele>
        <time>2023-04-30T09:43:31.000Z</time>
      </trkpt>
      <trkpt lat="47.85764" lon="6.91865">
        <ele>1159.4</ele>
        <time>2023-04-30T09:43:35.000Z</time>
      </trkpt>
      <trkpt lat="47.8576" lon="6.91868">
        <ele>1159</ele>
        <time>2023-04-30T09:43:38.000Z</time>
      </trkpt>
      <trkpt lat="47.85742" lon="6.91886">
        <ele>1156.4</ele>
        <time>2023-04-30T09:43:52.000Z</time>
      </trkpt>
      <trkpt lat="47.85738" lon="6.91884">
        <ele>1153.6</ele>
        <time>2023-04-30T09:44:06.000Z</time>
      </trkpt>
      <trkpt lat="47.85738" lon="6.91863">
        <ele>1150.6</ele>
        <time>2023-04-30T09:44:21.000Z</time>
      </trkpt>
      <trkpt lat="47.85738" lon="6.91861">
        <ele>1150.6</ele>
        <time>2023-04-30T09:44:22.000Z</time>
      </trkpt>
      <trkpt lat="47.8574" lon="6.91846">
        <ele>1148.2</ele>
        <time>2023-04-30T09:44:33.000Z</time>
      </trkpt>
      <trkpt lat="47.85735" lon="6.91832">
        <ele>1145</ele>
        <time>2023-04-30T09:44:45.000Z</time>
      </trkpt>
      <trkpt lat="47.85726" lon="6.91821">
        <ele>1142</ele>
        <time>2023-04-30T09:44:59.000Z</time>
      </trkpt>
      <trkpt lat="47.85718" lon="6.91808">
        <ele>1138.6</ele>
        <time>2023-04-30T09:45:07.000Z</time>
      </trkpt>
      <trkpt lat="47.85705" lon="6.91791">
        <ele>1133.8</ele>
        <time>2023-04-30T09:45:19.000Z</time>
      </trkpt>
      <trkpt lat="47.85704" lon="6.9179">
        <ele>1133.4</ele>
        <time>2023-04-30T09:45:20.000Z</time>
      </trkpt>
      <trkpt lat="47.85696" lon="6.91778">
        <ele>1130.4</ele>
        <time>2023-04-30T09:45:32.000Z</time>
      </trkpt>
      <trkpt lat="47.8569" lon="6.91766">
        <ele>1128.8</ele>
        <time>2023-04-30T09:45:56.000Z</time>
      </trkpt>
      <trkpt lat="47.85685" lon="6.91753">
        <ele>1126.2</ele>
        <time>2023-04-30T09:46:07.000Z</time>
      </trkpt>
      <trkpt lat="47.85677" lon="6.91734">
        <ele>1123.2</ele>
        <time>2023-04-30T09:46:22.000Z</time>
      </trkpt>
      <trkpt lat="47.8567" lon="6.9172">
        <ele>1120</ele>
        <time>2023-04-30T09:46:33.000Z</time>
      </trkpt>
      <trkpt lat="47.85664" lon="6.91688">
        <ele>1118.4</ele>
        <time>2023-04-30T09:46:50.000Z</time>
      </trkpt>
      <trkpt lat="47.85657" lon="6.91664">
        <ele>1116</ele>
        <time>2023-04-30T09:47:05.000Z</time>
      </trkpt>
      <trkpt lat="47.85649" lon="6.91634">
        <ele>1113.6</ele>
        <time>2023-04-30T09:47:22.000Z</time>
      </trkpt>
      <trkpt lat="47.8564" lon="6.91601">
        <ele>1111.8</ele>
        <time>2023-04-30T09:47:40.000Z</time>
      </trkpt>
      <trkpt lat="47.85636" lon="6.91569">
        <ele>1110</ele>
        <time>2023-04-30T09:47:57.000Z</time>
      </trkpt>
      <trkpt lat="47.85634" lon="6.91544">
        <ele>1108</ele>
        <time>2023-04-30T09:48:12.000Z</time>
      </trkpt>
      <trkpt lat="47.85634" lon="6.91531">
        <ele>1107.4</ele>
        <time>2023-04-30T09:48:19.000Z</time>
      </trkpt>
      <trkpt lat="47.85633" lon="6.91512">
        <ele>1105</ele>
        <time>2023-04-30T09:48:30.000Z</time>
      </trkpt>
      <trkpt lat="47.85631" lon="6.915">
        <ele>1103.8</ele>
        <time>2023-04-30T09:48:37.000Z</time>
      </trkpt>
      <trkpt lat="47.85631" lon="6.91498">
        <ele>1103.6</ele>
        <time>2023-04-30T09:48:38.000Z</time>
      </trkpt>
      <trkpt lat="47.85632" lon="6.91496">
        <ele>1103.4</ele>
        <time>2023-04-30T09:48:39.000Z</time>
      </trkpt>
      <trkpt lat="47.85632" lon="6.91494">
        <ele>1103.4</ele>
        <time>2023-04-30T09:48:40.000Z</time>
      </trkpt>
      <trkpt lat="47.85633" lon="6.91493">
        <ele>1103.4</ele>
        <time>2023-04-30T09:48:41.000Z</time>
      </trkpt>
      <trkpt lat="47.85634" lon="6.91491">
        <ele>1103.4</ele>
        <time>2023-04-30T09:48:42.000Z</time>
      </trkpt>
      <trkpt lat="47.85635" lon="6.9149">
        <ele>1103.4</ele>
        <time>2023-04-30T09:48:43.000Z</time>
      </trkpt>
      <trkpt lat="47.85647" lon="6.91462">
        <ele>1104.2</ele>
        <time>2023-04-30T09:49:00.000Z</time>
      </trkpt>
      <trkpt lat="47.85663" lon="6.91433">
        <ele>1105.8</ele>
        <time>2023-04-30T09:49:19.000Z</time>
      </trkpt>
      <trkpt lat="47.8568" lon="6.91407">
        <ele>1107.4</ele>
        <time>2023-04-30T09:49:37.000Z</time>
      </trkpt>
      <trkpt lat="47.85686" lon="6.91391">
        <ele>1108.8</ele>
        <time>2023-04-30T09:49:47.000Z</time>
      </trkpt>
      <trkpt lat="47.85687" lon="6.91389">
        <ele>1108.8</ele>
        <time>2023-04-30T09:49:48.000Z</time>
      </trkpt>
      <trkpt lat="47.85688" lon="6.91388">
        <ele>1108.8</ele>
        <time>2023-04-30T09:49:49.000Z</time>
      </trkpt>
      <trkpt lat="47.85689" lon="6.91386">
        <ele>1108.8</ele>
        <time>2023-04-30T09:49:50.000Z</time>
      </trkpt>
      <trkpt lat="47.85689" lon="6.91384">
        <ele>1109</ele>
        <time>2023-04-30T09:49:51.000Z</time>
      </trkpt>
      <trkpt lat="47.85689" lon="6.91383">
        <ele>1109</ele>
        <time>2023-04-30T09:49:52.000Z</time>
      </trkpt>
      <trkpt lat="47.85689" lon="6.91381">
        <ele>1109.2</ele>
        <time>2023-04-30T09:49:53.000Z</time>
      </trkpt>
      <trkpt lat="47.85689" lon="6.91379">
        <ele>1109.2</ele>
        <time>2023-04-30T09:49:54.000Z</time>
      </trkpt>
      <trkpt lat="47.85689" lon="6.91377">
        <ele>1109.2</ele>
        <time>2023-04-30T09:49:55.000Z</time>
      </trkpt>
      <trkpt lat="47.85689" lon="6.91375">
        <ele>1109.4</ele>
        <time>2023-04-30T09:49:56.000Z</time>
      </trkpt>
      <trkpt lat="47.8569" lon="6.91373">
        <ele>1109.4</ele>
        <time>2023-04-30T09:49:57.000Z</time>
      </trkpt>
      <trkpt lat="47.85691" lon="6.91372">
        <ele>1109.4</ele>
        <time>2023-04-30T09:49:58.000Z</time>
      </trkpt>
      <trkpt lat="47.85692" lon="6.9137">
        <ele>1109.4</ele>
        <time>2023-04-30T09:49:59.000Z</time>
      </trkpt>
      <trkpt lat="47.85692" lon="6.91368">
        <ele>1109.6</ele>
        <time>2023-04-30T09:50:00.000Z</time>
      </trkpt>
      <trkpt lat="47.85693" lon="6.91366">
        <ele>1109.8</ele>
        <time>2023-04-30T09:50:01.000Z</time>
      </trkpt>
      <trkpt lat="47.85693" lon="6.91365">
        <ele>1109.8</ele>
        <time>2023-04-30T09:50:02.000Z</time>
      </trkpt>
      <trkpt lat="47.85693" lon="6.91363">
        <ele>1110</ele>
        <time>2023-04-30T09:50:03.000Z</time>
      </trkpt>
      <trkpt lat="47.85694" lon="6.91362">
        <ele>1110.2</ele>
        <time>2023-04-30T09:50:04.000Z</time>
      </trkpt>
      <trkpt lat="47.85695" lon="6.9136">
        <ele>1110.4</ele>
        <time>2023-04-30T09:50:05.000Z</time>
      </trkpt>
      <trkpt lat="47.85695" lon="6.91358">
        <ele>1110.6</ele>
        <time>2023-04-30T09:50:06.000Z</time>
      </trkpt>
      <trkpt lat="47.85697" lon="6.91357">
        <ele>1110.6</ele>
        <time>2023-04-30T09:50:07.000Z</time>
      </trkpt>
      <trkpt lat="47.85698" lon="6.91355">
        <ele>1110.8</ele>
        <time>2023-04-30T09:50:08.000Z</time>
      </trkpt>
      <trkpt lat="47.85699" lon="6.91354">
        <ele>1110.8</ele>
        <time>2023-04-30T09:50:09.000Z</time>
      </trkpt>
      <trkpt lat="47.857" lon="6.91352">
        <ele>1111</ele>
        <time>2023-04-30T09:50:10.000Z</time>
      </trkpt>
      <trkpt lat="47.85701" lon="6.9135">
        <ele>1111.2</ele>
        <time>2023-04-30T09:50:11.000Z</time>
      </trkpt>
      <trkpt lat="47.85702" lon="6.91349">
        <ele>1111.2</ele>
        <time>2023-04-30T09:50:12.000Z</time>
      </trkpt>
      <trkpt lat="47.85703" lon="6.91347">
        <ele>1111.4</ele>
        <time>2023-04-30T09:50:13.000Z</time>
      </trkpt>
      <trkpt lat="47.85703" lon="6.91345">
        <ele>1111.6</ele>
        <time>2023-04-30T09:50:14.000Z</time>
      </trkpt>
      <trkpt lat="47.85716" lon="6.91315">
        <ele>1114.8</ele>
        <time>2023-04-30T09:50:32.000Z</time>
      </trkpt>
      <trkpt lat="47.85725" lon="6.91285">
        <ele>1117.2</ele>
        <time>2023-04-30T09:50:49.000Z</time>
      </trkpt>
      <trkpt lat="47.85731" lon="6.9126">
        <ele>1119.4</ele>
        <time>2023-04-30T09:51:04.000Z</time>
      </trkpt>
      <trkpt lat="47.85739" lon="6.9124">
        <ele>1120.8</ele>
        <time>2023-04-30T09:51:15.000Z</time>
      </trkpt>
      <trkpt lat="47.8574" lon="6.91238">
        <ele>1120.8</ele>
        <time>2023-04-30T09:51:16.000Z</time>
      </trkpt>
      <trkpt lat="47.8574" lon="6.91236">
        <ele>1120.8</ele>
        <time>2023-04-30T09:51:17.000Z</time>
      </trkpt>
      <trkpt lat="47.85741" lon="6.91234">
        <ele>1121</ele>
        <time>2023-04-30T09:51:18.000Z</time>
      </trkpt>
      <trkpt lat="47.85741" lon="6.91233">
        <ele>1121</ele>
        <time>2023-04-30T09:51:19.000Z</time>
      </trkpt>
      <trkpt lat="47.85745" lon="6.91217">
        <ele>1121.8</ele>
        <time>2023-04-30T09:51:28.000Z</time>
      </trkpt>
      <trkpt lat="47.85745" lon="6.91216">
        <ele>1122</ele>
        <time>2023-04-30T09:51:29.000Z</time>
      </trkpt>
      <trkpt lat="47.85747" lon="6.91215">
        <ele>1122.2</ele>
        <time>2023-04-30T09:51:30.000Z</time>
      </trkpt>
      <trkpt lat="47.85758" lon="6.91193">
        <ele>1124</ele>
        <time>2023-04-30T09:51:44.000Z</time>
      </trkpt>
      <trkpt lat="47.85771" lon="6.9117">
        <ele>1125.6</ele>
        <time>2023-04-30T09:52:02.000Z</time>
      </trkpt>
      <trkpt lat="47.8578" lon="6.91157">
        <ele>1126</ele>
        <time>2023-04-30T09:52:09.000Z</time>
      </trkpt>
      <trkpt lat="47.85792" lon="6.9113">
        <ele>1126.2</ele>
        <time>2023-04-30T09:52:25.000Z</time>
      </trkpt>
      <trkpt lat="47.85793" lon="6.91126">
        <ele>1126.4</ele>
        <time>2023-04-30T09:52:27.000Z</time>
      </trkpt>
      <trkpt lat="47.85794" lon="6.91123">
        <ele>1126.4</ele>
        <time>2023-04-30T09:52:28.000Z</time>
      </trkpt>
      <trkpt lat="47.85794" lon="6.91121">
        <ele>1126.4</ele>
        <time>2023-04-30T09:52:29.000Z</time>
      </trkpt>
      <trkpt lat="47.85795" lon="6.9112">
        <ele>1126.4</ele>
        <time>2023-04-30T09:52:30.000Z</time>
      </trkpt>
      <trkpt lat="47.85796" lon="6.91118">
        <ele>1126.4</ele>
        <time>2023-04-30T09:52:31.000Z</time>
      </trkpt>
      <trkpt lat="47.8581" lon="6.91091">
        <ele>1127</ele>
        <time>2023-04-30T09:52:47.000Z</time>
      </trkpt>
      <trkpt lat="47.85822" lon="6.91067">
        <ele>1126.8</ele>
        <time>2023-04-30T09:53:01.000Z</time>
      </trkpt>
      <trkpt lat="47.85841" lon="6.91039">
        <ele>1125.6</ele>
        <time>2023-04-30T09:53:18.000Z</time>
      </trkpt>
      <trkpt lat="47.85864" lon="6.91017">
        <ele>1124.8</ele>
        <time>2023-04-30T09:53:36.000Z</time>
      </trkpt>
      <trkpt lat="47.85887" lon="6.90998">
        <ele>1124.6</ele>
        <time>2023-04-30T09:53:55.000Z</time>
      </trkpt>
      <trkpt lat="47.85909" lon="6.90978">
        <ele>1125</ele>
        <time>2023-04-30T09:54:13.000Z</time>
      </trkpt>
      <trkpt lat="47.85927" lon="6.90959">
        <ele>1125.6</ele>
        <time>2023-04-30T09:54:29.000Z</time>
      </trkpt>
      <trkpt lat="47.85941" lon="6.90951">
        <ele>1123.8</ele>
        <time>2023-04-30T09:54:42.000Z</time>
      </trkpt>
      <trkpt lat="47.85942" lon="6.90952">
        <ele>1123.4</ele>
        <time>2023-04-30T09:54:43.000Z</time>
      </trkpt>
      <trkpt lat="47.85943" lon="6.90953">
        <ele>1123</ele>
        <time>2023-04-30T09:54:44.000Z</time>
      </trkpt>
      <trkpt lat="47.85944" lon="6.90954">
        <ele>1122.8</ele>
        <time>2023-04-30T09:54:45.000Z</time>
      </trkpt>
      <trkpt lat="47.85945" lon="6.90955">
        <ele>1122.6</ele>
        <time>2023-04-30T09:54:46.000Z</time>
      </trkpt>
      <trkpt lat="47.8596" lon="6.90967">
        <ele>1119.4</ele>
        <time>2023-04-30T09:55:00.000Z</time>
      </trkpt>
      <trkpt lat="47.85974" lon="6.90973">
        <ele>1116.4</ele>
        <time>2023-04-30T09:55:13.000Z</time>
      </trkpt>
      <trkpt lat="47.85982" lon="6.90976">
        <ele>1113.2</ele>
        <time>2023-04-30T09:55:23.000Z</time>
      </trkpt>
      <trkpt lat="47.85997" lon="6.90983">
        <ele>1110.2</ele>
        <time>2023-04-30T09:55:38.000Z</time>
      </trkpt>
      <trkpt lat="47.8601" lon="6.90982">
        <ele>1107</ele>
        <time>2023-04-30T09:55:52.000Z</time>
      </trkpt>
      <trkpt lat="47.86024" lon="6.90983">
        <ele>1104</ele>
        <time>2023-04-30T09:56:05.000Z</time>
      </trkpt>
      <trkpt lat="47.86027" lon="6.90984">
        <ele>1103.2</ele>
        <time>2023-04-30T09:56:08.000Z</time>
      </trkpt>
      <trkpt lat="47.86042" lon="6.90985">
        <ele>1101.4</ele>
        <time>2023-04-30T09:56:17.000Z</time>
      </trkpt>
      <trkpt lat="47.86043" lon="6.90985">
        <ele>1101.4</ele>
        <time>2023-04-30T09:56:18.000Z</time>
      </trkpt>
      <trkpt lat="47.86045" lon="6.90985">
        <ele>1101.2</ele>
        <time>2023-04-30T09:56:19.000Z</time>
      </trkpt>
      <trkpt lat="47.86059" lon="6.90984">
        <ele>1100.4</ele>
        <time>2023-04-30T09:56:29.000Z</time>
      </trkpt>
      <trkpt lat="47.86062" lon="6.90984">
        <ele>1099.6</ele>
        <time>2023-04-30T09:56:31.000Z</time>
      </trkpt>
      <trkpt lat="47.86063" lon="6.90984">
        <ele>1099.4</ele>
        <time>2023-04-30T09:56:32.000Z</time>
      </trkpt>
      <trkpt lat="47.8607" lon="6.90983">
        <ele>1098.4</ele>
        <time>2023-04-30T09:56:37.000Z</time>
      </trkpt>
      <trkpt lat="47.86073" lon="6.90983">
        <ele>1098.2</ele>
        <time>2023-04-30T09:56:39.000Z</time>
      </trkpt>
      <trkpt lat="47.86074" lon="6.90983">
        <ele>1098</ele>
        <time>2023-04-30T09:56:40.000Z</time>
      </trkpt>
      <trkpt lat="47.86076" lon="6.90984">
        <ele>1097.8</ele>
        <time>2023-04-30T09:56:41.000Z</time>
      </trkpt>
      <trkpt lat="47.86091" lon="6.90988">
        <ele>1096.4</ele>
        <time>2023-04-30T09:56:51.000Z</time>
      </trkpt>
      <trkpt lat="47.86094" lon="6.90989">
        <ele>1096.2</ele>
        <time>2023-04-30T09:56:53.000Z</time>
      </trkpt>
      <trkpt lat="47.86095" lon="6.9099">
        <ele>1095.8</ele>
        <time>2023-04-30T09:56:54.000Z</time>
      </trkpt>
      <trkpt lat="47.86096" lon="6.90991">
        <ele>1095.8</ele>
        <time>2023-04-30T09:56:55.000Z</time>
      </trkpt>
      <trkpt lat="47.86112" lon="6.90993">
        <ele>1093.4</ele>
        <time>2023-04-30T09:57:08.000Z</time>
      </trkpt>
      <trkpt lat="47.86114" lon="6.90994">
        <ele>1093.2</ele>
        <time>2023-04-30T09:57:09.000Z</time>
      </trkpt>
      <trkpt lat="47.86116" lon="6.90994">
        <ele>1093.2</ele>
        <time>2023-04-30T09:57:10.000Z</time>
      </trkpt>
      <trkpt lat="47.86118" lon="6.90994">
        <ele>1092.8</ele>
        <time>2023-04-30T09:57:11.000Z</time>
      </trkpt>
      <trkpt lat="47.86125" lon="6.90997">
        <ele>1091.8</ele>
        <time>2023-04-30T09:57:17.000Z</time>
      </trkpt>
      <trkpt lat="47.86137" lon="6.91001">
        <ele>1089.8</ele>
        <time>2023-04-30T09:57:27.000Z</time>
      </trkpt>
      <trkpt lat="47.8614" lon="6.91003">
        <ele>1088.8</ele>
        <time>2023-04-30T09:57:30.000Z</time>
      </trkpt>
      <trkpt lat="47.86153" lon="6.91002">
        <ele>1087</ele>
        <time>2023-04-30T09:57:38.000Z</time>
      </trkpt>
      <trkpt lat="47.86154" lon="6.91002">
        <ele>1086.8</ele>
        <time>2023-04-30T09:57:39.000Z</time>
      </trkpt>
      <trkpt lat="47.86171" lon="6.91004">
        <ele>1083.6</ele>
        <time>2023-04-30T09:57:50.000Z</time>
      </trkpt>
      <trkpt lat="47.86184" lon="6.91011">
        <ele>1080.6</ele>
        <time>2023-04-30T09:58:02.000Z</time>
      </trkpt>
      <trkpt lat="47.86192" lon="6.91018">
        <ele>1077.8</ele>
        <time>2023-04-30T09:58:15.000Z</time>
      </trkpt>
      <trkpt lat="47.86202" lon="6.91021">
        <ele>1074.8</ele>
        <time>2023-04-30T09:58:25.000Z</time>
      </trkpt>
      <trkpt lat="47.86214" lon="6.91026">
        <ele>1071.6</ele>
        <time>2023-04-30T09:58:34.000Z</time>
      </trkpt>
      <trkpt lat="47.86228" lon="6.91035">
        <ele>1069.4</ele>
        <time>2023-04-30T09:58:47.000Z</time>
      </trkpt>
      <trkpt lat="47.86245" lon="6.91045">
        <ele>1067</ele>
        <time>2023-04-30T09:59:02.000Z</time>
      </trkpt>
      <trkpt lat="47.86252" lon="6.91048">
        <ele>1066.4</ele>
        <time>2023-04-30T09:59:06.000Z</time>
      </trkpt>
      <trkpt lat="47.86253" lon="6.91049">
        <ele>1066.4</ele>
        <time>2023-04-30T09:59:07.000Z</time>
      </trkpt>
      <trkpt lat="47.86255" lon="6.91049">
        <ele>1066.2</ele>
        <time>2023-04-30T09:59:08.000Z</time>
      </trkpt>
      <trkpt lat="47.86257" lon="6.91051">
        <ele>1066</ele>
        <time>2023-04-30T09:59:10.000Z</time>
      </trkpt>
      <trkpt lat="47.86271" lon="6.91057">
        <ele>1063.8</ele>
        <time>2023-04-30T09:59:21.000Z</time>
      </trkpt>
      <trkpt lat="47.86286" lon="6.91059">
        <ele>1062</ele>
        <time>2023-04-30T09:59:33.000Z</time>
      </trkpt>
      <trkpt lat="47.86291" lon="6.91058">
        <ele>1061.6</ele>
        <time>2023-04-30T09:59:36.000Z</time>
      </trkpt>
      <trkpt lat="47.86307" lon="6.91058">
        <ele>1060</ele>
        <time>2023-04-30T09:59:46.000Z</time>
      </trkpt>
      <trkpt lat="47.86322" lon="6.91057">
        <ele>1059</ele>
        <time>2023-04-30T10:00:02.000Z</time>
      </trkpt>
      <trkpt lat="47.86344" lon="6.91024">
        <ele>1056.4</ele>
        <time>2023-04-30T10:00:22.000Z</time>
      </trkpt>
      <trkpt lat="47.86354" lon="6.90999">
        <ele>1054.8</ele>
        <time>2023-04-30T10:00:35.000Z</time>
      </trkpt>
      <trkpt lat="47.86354" lon="6.90997">
        <ele>1054.8</ele>
        <time>2023-04-30T10:00:36.000Z</time>
      </trkpt>
      <trkpt lat="47.86354" lon="6.90995">
        <ele>1054.8</ele>
        <time>2023-04-30T10:00:37.000Z</time>
      </trkpt>
      <trkpt lat="47.86354" lon="6.90994">
        <ele>1054.6</ele>
        <time>2023-04-30T10:00:38.000Z</time>
      </trkpt>
      <trkpt lat="47.86355" lon="6.90991">
        <ele>1054.6</ele>
        <time>2023-04-30T10:00:39.000Z</time>
      </trkpt>
      <trkpt lat="47.86355" lon="6.90988">
        <ele>1054.6</ele>
        <time>2023-04-30T10:00:41.000Z</time>
      </trkpt>
      <trkpt lat="47.86359" lon="6.90977">
        <ele>1053.6</ele>
        <time>2023-04-30T10:00:58.000Z</time>
      </trkpt>
      <trkpt lat="47.86365" lon="6.90974">
        <ele>1053.4</ele>
        <time>2023-04-30T10:01:05.000Z</time>
      </trkpt>
      <trkpt lat="47.86366" lon="6.90973">
        <ele>1053.4</ele>
        <time>2023-04-30T10:01:06.000Z</time>
      </trkpt>
      <trkpt lat="47.86373" lon="6.90969">
        <ele>1052.8</ele>
        <time>2023-04-30T10:01:12.000Z</time>
      </trkpt>
      <trkpt lat="47.86375" lon="6.90965">
        <ele>1052.4</ele>
        <time>2023-04-30T10:01:15.000Z</time>
      </trkpt>
      <trkpt lat="47.86389" lon="6.90953">
        <ele>1051.2</ele>
        <time>2023-04-30T10:01:29.000Z</time>
      </trkpt>
      <trkpt lat="47.86386" lon="6.90955">
        <ele>1051.6</ele>
        <time>2023-04-30T10:01:56.000Z</time>
      </trkpt>
      <trkpt lat="47.86372" lon="6.90966">
        <ele>1052.8</ele>
        <time>2023-04-30T10:02:14.000Z</time>
      </trkpt>
      <trkpt lat="47.86359" lon="6.90976">
        <ele>1053.6</ele>
        <time>2023-04-30T10:02:29.000Z</time>
      </trkpt>
      <trkpt lat="47.86354" lon="6.90975">
        <ele>1054.6</ele>
        <time>2023-04-30T10:02:47.000Z</time>
      </trkpt>
      <trkpt lat="47.8635" lon="6.90955">
        <ele>1055</ele>
        <time>2023-04-30T10:03:06.000Z</time>
      </trkpt>
      <trkpt lat="47.86348" lon="6.90952">
        <ele>1055.2</ele>
        <time>2023-04-30T10:03:08.000Z</time>
      </trkpt>
      <trkpt lat="47.86347" lon="6.90947">
        <ele>1055.4</ele>
        <time>2023-04-30T10:03:10.000Z</time>
      </trkpt>
      <trkpt lat="47.86347" lon="6.90945">
        <ele>1055.4</ele>
        <time>2023-04-30T10:03:11.000Z</time>
      </trkpt>
      <trkpt lat="47.86346" lon="6.90943">
        <ele>1055.4</ele>
        <time>2023-04-30T10:03:12.000Z</time>
      </trkpt>
      <trkpt lat="47.86349" lon="6.90917">
        <ele>1056.2</ele>
        <time>2023-04-30T10:03:27.000Z</time>
      </trkpt>
      <trkpt lat="47.86349" lon="6.90915">
        <ele>1056.2</ele>
        <time>2023-04-30T10:03:28.000Z</time>
      </trkpt>
      <trkpt lat="47.86348" lon="6.90913">
        <ele>1056.4</ele>
        <time>2023-04-30T10:03:29.000Z</time>
      </trkpt>
      <trkpt lat="47.86347" lon="6.90912">
        <ele>1056.4</ele>
        <time>2023-04-30T10:03:30.000Z</time>
      </trkpt>
      <trkpt lat="47.86347" lon="6.90911">
        <ele>1056.4</ele>
        <time>2023-04-30T10:03:31.000Z</time>
      </trkpt>
      <trkpt lat="47.86347" lon="6.9091">
        <ele>1056.6</ele>
        <time>2023-04-30T10:03:32.000Z</time>
      </trkpt>
      <trkpt lat="47.86344" lon="6.90877">
        <ele>1058.4</ele>
        <time>2023-04-30T10:03:52.000Z</time>
      </trkpt>
      <trkpt lat="47.86347" lon="6.90857">
        <ele>1059.6</ele>
        <time>2023-04-30T10:04:04.000Z</time>
      </trkpt>
      <trkpt lat="47.86347" lon="6.90855">
        <ele>1059.8</ele>
        <time>2023-04-30T10:04:05.000Z</time>
      </trkpt>
      <trkpt lat="47.86351" lon="6.90827">
        <ele>1061.8</ele>
        <time>2023-04-30T10:04:22.000Z</time>
      </trkpt>
      <trkpt lat="47.86352" lon="6.90792">
        <ele>1064</ele>
        <time>2023-04-30T10:04:41.000Z</time>
      </trkpt>
      <trkpt lat="47.86355" lon="6.90757">
        <ele>1066.6</ele>
        <time>2023-04-30T10:05:00.000Z</time>
      </trkpt>
      <trkpt lat="47.86362" lon="6.90719">
        <ele>1067.6</ele>
        <time>2023-04-30T10:05:20.000Z</time>
      </trkpt>
      <trkpt lat="47.86368" lon="6.90688">
        <ele>1070</ele>
        <time>2023-04-30T10:05:38.000Z</time>
      </trkpt>
      <trkpt lat="47.86382" lon="6.90658">
        <ele>1072</ele>
        <time>2023-04-30T10:05:57.000Z</time>
      </trkpt>
      <trkpt lat="47.86402" lon="6.90644">
        <ele>1073.4</ele>
        <time>2023-04-30T10:06:15.000Z</time>
      </trkpt>
      <trkpt lat="47.86406" lon="6.90634">
        <ele>1073.8</ele>
        <time>2023-04-30T10:06:21.000Z</time>
      </trkpt>
      <trkpt lat="47.86405" lon="6.90632">
        <ele>1073.8</ele>
        <time>2023-04-30T10:06:22.000Z</time>
      </trkpt>
      <trkpt lat="47.86405" lon="6.9063">
        <ele>1073.8</ele>
        <time>2023-04-30T10:06:23.000Z</time>
      </trkpt>
      <trkpt lat="47.86404" lon="6.90628">
        <ele>1073.8</ele>
        <time>2023-04-30T10:06:24.000Z</time>
      </trkpt>
      <trkpt lat="47.86404" lon="6.90625">
        <ele>1073.8</ele>
        <time>2023-04-30T10:06:25.000Z</time>
      </trkpt>
      <trkpt lat="47.86405" lon="6.90589">
        <ele>1076.2</ele>
        <time>2023-04-30T10:06:43.000Z</time>
      </trkpt>
      <trkpt lat="47.86421" lon="6.90555">
        <ele>1078.6</ele>
        <time>2023-04-30T10:07:05.000Z</time>
      </trkpt>
      <trkpt lat="47.86429" lon="6.90539">
        <ele>1079.2</ele>
        <time>2023-04-30T10:07:20.000Z</time>
      </trkpt>
      <trkpt lat="47.86443" lon="6.90518">
        <ele>1078.8</ele>
        <time>2023-04-30T10:07:36.000Z</time>
      </trkpt>
      <trkpt lat="47.86459" lon="6.90491">
        <ele>1079</ele>
        <time>2023-04-30T10:07:54.000Z</time>
      </trkpt>
      <trkpt lat="47.86475" lon="6.90468">
        <ele>1080</ele>
        <time>2023-04-30T10:08:12.000Z</time>
      </trkpt>
      <trkpt lat="47.86504" lon="6.9046">
        <ele>1080.4</ele>
        <time>2023-04-30T10:08:32.000Z</time>
      </trkpt>
      <trkpt lat="47.86526" lon="6.90451">
        <ele>1080.6</ele>
        <time>2023-04-30T10:08:49.000Z</time>
      </trkpt>
      <trkpt lat="47.86551" lon="6.90436">
        <ele>1081.6</ele>
        <time>2023-04-30T10:09:07.000Z</time>
      </trkpt>
      <trkpt lat="47.86571" lon="6.90426">
        <ele>1083.2</ele>
        <time>2023-04-30T10:09:23.000Z</time>
      </trkpt>
      <trkpt lat="47.86583" lon="6.90414">
        <ele>1084.4</ele>
        <time>2023-04-30T10:09:37.000Z</time>
      </trkpt>
      <trkpt lat="47.86597" lon="6.90404">
        <ele>1085.4</ele>
        <time>2023-04-30T10:09:52.000Z</time>
      </trkpt>
      <trkpt lat="47.86604" lon="6.90399">
        <ele>1086.4</ele>
        <time>2023-04-30T10:10:07.000Z</time>
      </trkpt>
      <trkpt lat="47.86614" lon="6.90383">
        <ele>1086.6</ele>
        <time>2023-04-30T10:10:23.000Z</time>
      </trkpt>
      <trkpt lat="47.86633" lon="6.90358">
        <ele>1087.8</ele>
        <time>2023-04-30T10:10:42.000Z</time>
      </trkpt>
      <trkpt lat="47.86646" lon="6.90336">
        <ele>1088.2</ele>
        <time>2023-04-30T10:10:55.000Z</time>
      </trkpt>
      <trkpt lat="47.86656" lon="6.90314">
        <ele>1088.6</ele>
        <time>2023-04-30T10:11:09.000Z</time>
      </trkpt>
      <trkpt lat="47.86658" lon="6.90304">
        <ele>1088.8</ele>
        <time>2023-04-30T10:11:14.000Z</time>
      </trkpt>
      <trkpt lat="47.86659" lon="6.90301">
        <ele>1088.8</ele>
        <time>2023-04-30T10:11:15.000Z</time>
      </trkpt>
      <trkpt lat="47.86659" lon="6.90299">
        <ele>1088.8</ele>
        <time>2023-04-30T10:11:16.000Z</time>
      </trkpt>
      <trkpt lat="47.86659" lon="6.90297">
        <ele>1088.8</ele>
        <time>2023-04-30T10:11:17.000Z</time>
      </trkpt>
      <trkpt lat="47.86662" lon="6.90285">
        <ele>1089.2</ele>
        <time>2023-04-30T10:11:23.000Z</time>
      </trkpt>
      <trkpt lat="47.86665" lon="6.90255">
        <ele>1090.2</ele>
        <time>2023-04-30T10:11:38.000Z</time>
      </trkpt>
      <trkpt lat="47.86666" lon="6.90253">
        <ele>1090.4</ele>
        <time>2023-04-30T10:11:39.000Z</time>
      </trkpt>
      <trkpt lat="47.86669" lon="6.90248">
        <ele>1090.6</ele>
        <time>2023-04-30T10:11:42.000Z</time>
      </trkpt>
      <trkpt lat="47.86669" lon="6.90246">
        <ele>1090.8</ele>
        <time>2023-04-30T10:11:43.000Z</time>
      </trkpt>
      <trkpt lat="47.86669" lon="6.90244">
        <ele>1091</ele>
        <time>2023-04-30T10:11:44.000Z</time>
      </trkpt>
      <trkpt lat="47.8667" lon="6.9024">
        <ele>1091</ele>
        <time>2023-04-30T10:11:46.000Z</time>
      </trkpt>
      <trkpt lat="47.86671" lon="6.90239">
        <ele>1091.2</ele>
        <time>2023-04-30T10:11:47.000Z</time>
      </trkpt>
      <trkpt lat="47.86672" lon="6.9023">
        <ele>1091.4</ele>
        <time>2023-04-30T10:11:52.000Z</time>
      </trkpt>
      <trkpt lat="47.86672" lon="6.90223">
        <ele>1091.6</ele>
        <time>2023-04-30T10:11:55.000Z</time>
      </trkpt>
      <trkpt lat="47.86672" lon="6.90221">
        <ele>1091.6</ele>
        <time>2023-04-30T10:11:56.000Z</time>
      </trkpt>
      <trkpt lat="47.86673" lon="6.9022">
        <ele>1091.6</ele>
        <time>2023-04-30T10:11:57.000Z</time>
      </trkpt>
      <trkpt lat="47.86673" lon="6.90217">
        <ele>1091.8</ele>
        <time>2023-04-30T10:11:58.000Z</time>
      </trkpt>
      <trkpt lat="47.86674" lon="6.90215">
        <ele>1091.8</ele>
        <time>2023-04-30T10:11:59.000Z</time>
      </trkpt>
      <trkpt lat="47.86677" lon="6.90199">
        <ele>1092.4</ele>
        <time>2023-04-30T10:12:08.000Z</time>
      </trkpt>
      <trkpt lat="47.86677" lon="6.90197">
        <ele>1092.4</ele>
        <time>2023-04-30T10:12:09.000Z</time>
      </trkpt>
      <trkpt lat="47.86677" lon="6.90191">
        <ele>1092.6</ele>
        <time>2023-04-30T10:12:12.000Z</time>
      </trkpt>
      <trkpt lat="47.86677" lon="6.90188">
        <ele>1092.6</ele>
        <time>2023-04-30T10:12:13.000Z</time>
      </trkpt>
      <trkpt lat="47.86677" lon="6.90185">
        <ele>1092.8</ele>
        <time>2023-04-30T10:12:15.000Z</time>
      </trkpt>
      <trkpt lat="47.86686" lon="6.90158">
        <ele>1094</ele>
        <time>2023-04-30T10:12:31.000Z</time>
      </trkpt>
      <trkpt lat="47.86693" lon="6.90143">
        <ele>1094.4</ele>
        <time>2023-04-30T10:12:41.000Z</time>
      </trkpt>
      <trkpt lat="47.86694" lon="6.90142">
        <ele>1094.6</ele>
        <time>2023-04-30T10:12:42.000Z</time>
      </trkpt>
      <trkpt lat="47.86696" lon="6.90139">
        <ele>1094.8</ele>
        <time>2023-04-30T10:12:44.000Z</time>
      </trkpt>
      <trkpt lat="47.86703" lon="6.90127">
        <ele>1095.4</ele>
        <time>2023-04-30T10:12:53.000Z</time>
      </trkpt>
      <trkpt lat="47.86707" lon="6.90121">
        <ele>1096</ele>
        <time>2023-04-30T10:12:58.000Z</time>
      </trkpt>
      <trkpt lat="47.86709" lon="6.90119">
        <ele>1096.2</ele>
        <time>2023-04-30T10:13:00.000Z</time>
      </trkpt>
      <trkpt lat="47.8671" lon="6.90117">
        <ele>1096.2</ele>
        <time>2023-04-30T10:13:01.000Z</time>
      </trkpt>
      <trkpt lat="47.86711" lon="6.90116">
        <ele>1096.2</ele>
        <time>2023-04-30T10:13:02.000Z</time>
      </trkpt>
      <trkpt lat="47.86712" lon="6.90113">
        <ele>1096.2</ele>
        <time>2023-04-30T10:13:03.000Z</time>
      </trkpt>
      <trkpt lat="47.86714" lon="6.90112">
        <ele>1096.2</ele>
        <time>2023-04-30T10:13:04.000Z</time>
      </trkpt>
      <trkpt lat="47.86723" lon="6.90094">
        <ele>1097</ele>
        <time>2023-04-30T10:13:15.000Z</time>
      </trkpt>
      <trkpt lat="47.86724" lon="6.90092">
        <ele>1097</ele>
        <time>2023-04-30T10:13:16.000Z</time>
      </trkpt>
      <trkpt lat="47.86736" lon="6.9007">
        <ele>1097.8</ele>
        <time>2023-04-30T10:13:30.000Z</time>
      </trkpt>
      <trkpt lat="47.86736" lon="6.90062">
        <ele>1098</ele>
        <time>2023-04-30T10:13:33.000Z</time>
      </trkpt>
      <trkpt lat="47.8675" lon="6.90027">
        <ele>1099</ele>
        <time>2023-04-30T10:13:52.000Z</time>
      </trkpt>
      <trkpt lat="47.86751" lon="6.90025">
        <ele>1099</ele>
        <time>2023-04-30T10:13:53.000Z</time>
      </trkpt>
      <trkpt lat="47.86753" lon="6.9002">
        <ele>1099.2</ele>
        <time>2023-04-30T10:13:57.000Z</time>
      </trkpt>
      <trkpt lat="47.86753" lon="6.90018">
        <ele>1099.2</ele>
        <time>2023-04-30T10:13:58.000Z</time>
      </trkpt>
      <trkpt lat="47.86757" lon="6.90004">
        <ele>1099.6</ele>
        <time>2023-04-30T10:14:07.000Z</time>
      </trkpt>
      <trkpt lat="47.86758" lon="6.90002">
        <ele>1099.8</ele>
        <time>2023-04-30T10:14:08.000Z</time>
      </trkpt>
      <trkpt lat="47.86761" lon="6.89996">
        <ele>1100</ele>
        <time>2023-04-30T10:14:12.000Z</time>
      </trkpt>
      <trkpt lat="47.86762" lon="6.89994">
        <ele>1100</ele>
        <time>2023-04-30T10:14:13.000Z</time>
      </trkpt>
      <trkpt lat="47.86763" lon="6.8999">
        <ele>1100</ele>
        <time>2023-04-30T10:14:15.000Z</time>
      </trkpt>
      <trkpt lat="47.86764" lon="6.89988">
        <ele>1100</ele>
        <time>2023-04-30T10:14:16.000Z</time>
      </trkpt>
      <trkpt lat="47.86765" lon="6.89986">
        <ele>1100</ele>
        <time>2023-04-30T10:14:17.000Z</time>
      </trkpt>
      <trkpt lat="47.86766" lon="6.89984">
        <ele>1100</ele>
        <time>2023-04-30T10:14:18.000Z</time>
      </trkpt>
      <trkpt lat="47.86767" lon="6.89982">
        <ele>1100.2</ele>
        <time>2023-04-30T10:14:19.000Z</time>
      </trkpt>
      <trkpt lat="47.86773" lon="6.89953">
        <ele>1101.6</ele>
        <time>2023-04-30T10:14:35.000Z</time>
      </trkpt>
      <trkpt lat="47.86777" lon="6.89923">
        <ele>1103</ele>
        <time>2023-04-30T10:14:53.000Z</time>
      </trkpt>
      <trkpt lat="47.86776" lon="6.89916">
        <ele>1103</ele>
        <time>2023-04-30T10:14:57.000Z</time>
      </trkpt>
      <trkpt lat="47.86776" lon="6.89912">
        <ele>1103</ele>
        <time>2023-04-30T10:14:59.000Z</time>
      </trkpt>
      <trkpt lat="47.86775" lon="6.8991">
        <ele>1103.2</ele>
        <time>2023-04-30T10:15:00.000Z</time>
      </trkpt>
      <trkpt lat="47.86768" lon="6.89878">
        <ele>1104</ele>
        <time>2023-04-30T10:15:16.000Z</time>
      </trkpt>
      <trkpt lat="47.86767" lon="6.89874">
        <ele>1104</ele>
        <time>2023-04-30T10:15:18.000Z</time>
      </trkpt>
      <trkpt lat="47.86767" lon="6.8987">
        <ele>1104</ele>
        <time>2023-04-30T10:15:20.000Z</time>
      </trkpt>
      <trkpt lat="47.86766" lon="6.89859">
        <ele>1104.4</ele>
        <time>2023-04-30T10:15:25.000Z</time>
      </trkpt>
      <trkpt lat="47.86765" lon="6.89856">
        <ele>1104.4</ele>
        <time>2023-04-30T10:15:26.000Z</time>
      </trkpt>
      <trkpt lat="47.86765" lon="6.89854">
        <ele>1104.6</ele>
        <time>2023-04-30T10:15:27.000Z</time>
      </trkpt>
      <trkpt lat="47.86765" lon="6.89852">
        <ele>1104.6</ele>
        <time>2023-04-30T10:15:28.000Z</time>
      </trkpt>
      <trkpt lat="47.86764" lon="6.89851">
        <ele>1104.6</ele>
        <time>2023-04-30T10:15:29.000Z</time>
      </trkpt>
      <trkpt lat="47.86762" lon="6.89836">
        <ele>1105.2</ele>
        <time>2023-04-30T10:15:36.000Z</time>
      </trkpt>
      <trkpt lat="47.8676" lon="6.89831">
        <ele>1105.4</ele>
        <time>2023-04-30T10:15:38.000Z</time>
      </trkpt>
      <trkpt lat="47.8676" lon="6.89829">
        <ele>1105.4</ele>
        <time>2023-04-30T10:15:39.000Z</time>
      </trkpt>
      <trkpt lat="47.8676" lon="6.89827">
        <ele>1105.4</ele>
        <time>2023-04-30T10:15:40.000Z</time>
      </trkpt>
      <trkpt lat="47.8676" lon="6.89825">
        <ele>1105.4</ele>
        <time>2023-04-30T10:15:41.000Z</time>
      </trkpt>
      <trkpt lat="47.8676" lon="6.89823">
        <ele>1105.6</ele>
        <time>2023-04-30T10:15:42.000Z</time>
      </trkpt>
      <trkpt lat="47.8676" lon="6.89821">
        <ele>1105.6</ele>
        <time>2023-04-30T10:15:43.000Z</time>
      </trkpt>
      <trkpt lat="47.86757" lon="6.89797">
        <ele>1106.4</ele>
        <time>2023-04-30T10:15:55.000Z</time>
      </trkpt>
      <trkpt lat="47.86756" lon="6.89792">
        <ele>1106.6</ele>
        <time>2023-04-30T10:15:58.000Z</time>
      </trkpt>
      <trkpt lat="47.86755" lon="6.8979">
        <ele>1106.6</ele>
        <time>2023-04-30T10:15:59.000Z</time>
      </trkpt>
      <trkpt lat="47.86749" lon="6.89754">
        <ele>1107.8</ele>
        <time>2023-04-30T10:16:16.000Z</time>
      </trkpt>
      <trkpt lat="47.86749" lon="6.89752">
        <ele>1107.8</ele>
        <time>2023-04-30T10:16:17.000Z</time>
      </trkpt>
      <trkpt lat="47.86749" lon="6.8975">
        <ele>1107.8</ele>
        <time>2023-04-30T10:16:18.000Z</time>
      </trkpt>
      <trkpt lat="47.86749" lon="6.89748">
        <ele>1107.8</ele>
        <time>2023-04-30T10:16:19.000Z</time>
      </trkpt>
      <trkpt lat="47.86749" lon="6.89741">
        <ele>1108</ele>
        <time>2023-04-30T10:16:22.000Z</time>
      </trkpt>
      <trkpt lat="47.86744" lon="6.89724">
        <ele>1108.2</ele>
        <time>2023-04-30T10:16:32.000Z</time>
      </trkpt>
      <trkpt lat="47.86744" lon="6.89722">
        <ele>1108.2</ele>
        <time>2023-04-30T10:16:33.000Z</time>
      </trkpt>
      <trkpt lat="47.86742" lon="6.89702">
        <ele>1109.2</ele>
        <time>2023-04-30T10:16:45.000Z</time>
      </trkpt>
      <trkpt lat="47.86741" lon="6.89683">
        <ele>1109.6</ele>
        <time>2023-04-30T10:16:55.000Z</time>
      </trkpt>
      <trkpt lat="47.86743" lon="6.89671">
        <ele>1109.8</ele>
        <time>2023-04-30T10:17:00.000Z</time>
      </trkpt>
      <trkpt lat="47.86743" lon="6.89668">
        <ele>1109.8</ele>
        <time>2023-04-30T10:17:01.000Z</time>
      </trkpt>
      <trkpt lat="47.86746" lon="6.89645">
        <ele>1110.4</ele>
        <time>2023-04-30T10:17:11.000Z</time>
      </trkpt>
      <trkpt lat="47.86746" lon="6.89643">
        <ele>1110.4</ele>
        <time>2023-04-30T10:17:12.000Z</time>
      </trkpt>
      <trkpt lat="47.86756" lon="6.89614">
        <ele>1111.6</ele>
        <time>2023-04-30T10:17:27.000Z</time>
      </trkpt>
      <trkpt lat="47.86761" lon="6.89601">
        <ele>1112.2</ele>
        <time>2023-04-30T10:17:35.000Z</time>
      </trkpt>
      <trkpt lat="47.86762" lon="6.89599">
        <ele>1112.2</ele>
        <time>2023-04-30T10:17:36.000Z</time>
      </trkpt>
      <trkpt lat="47.86763" lon="6.89597">
        <ele>1112.2</ele>
        <time>2023-04-30T10:17:37.000Z</time>
      </trkpt>
      <trkpt lat="47.86773" lon="6.89576">
        <ele>1113</ele>
        <time>2023-04-30T10:17:51.000Z</time>
      </trkpt>
      <trkpt lat="47.86774" lon="6.89574">
        <ele>1113</ele>
        <time>2023-04-30T10:17:52.000Z</time>
      </trkpt>
      <trkpt lat="47.8678" lon="6.89558">
        <ele>1113.4</ele>
        <time>2023-04-30T10:18:02.000Z</time>
      </trkpt>
      <trkpt lat="47.8679" lon="6.89539">
        <ele>1113.6</ele>
        <time>2023-04-30T10:18:13.000Z</time>
      </trkpt>
      <trkpt lat="47.86798" lon="6.89528">
        <ele>1113.4</ele>
        <time>2023-04-30T10:18:20.000Z</time>
      </trkpt>
      <trkpt lat="47.86805" lon="6.89518">
        <ele>1113.4</ele>
        <time>2023-04-30T10:18:27.000Z</time>
      </trkpt>
      <trkpt lat="47.86824" lon="6.89501">
        <ele>1113.6</ele>
        <time>2023-04-30T10:18:45.000Z</time>
      </trkpt>
      <trkpt lat="47.86838" lon="6.89484">
        <ele>1113.6</ele>
        <time>2023-04-30T10:19:00.000Z</time>
      </trkpt>
      <trkpt lat="47.8685" lon="6.8947">
        <ele>1113.4</ele>
        <time>2023-04-30T10:19:11.000Z</time>
      </trkpt>
      <trkpt lat="47.86866" lon="6.89455">
        <ele>1113.8</ele>
        <time>2023-04-30T10:19:23.000Z</time>
      </trkpt>
      <trkpt lat="47.86871" lon="6.89449">
        <ele>1113.8</ele>
        <time>2023-04-30T10:19:27.000Z</time>
      </trkpt>
      <trkpt lat="47.86896" lon="6.89418">
        <ele>1113.8</ele>
        <time>2023-04-30T10:19:48.000Z</time>
      </trkpt>
      <trkpt lat="47.86903" lon="6.894">
        <ele>1113.8</ele>
        <time>2023-04-30T10:19:57.000Z</time>
      </trkpt>
      <trkpt lat="47.86909" lon="6.89389">
        <ele>1113.8</ele>
        <time>2023-04-30T10:20:02.000Z</time>
      </trkpt>
      <trkpt lat="47.8691" lon="6.89386">
        <ele>1113.8</ele>
        <time>2023-04-30T10:20:03.000Z</time>
      </trkpt>
      <trkpt lat="47.86919" lon="6.89358">
        <ele>1114.4</ele>
        <time>2023-04-30T10:20:18.000Z</time>
      </trkpt>
      <trkpt lat="47.8692" lon="6.89356">
        <ele>1114.4</ele>
        <time>2023-04-30T10:20:19.000Z</time>
      </trkpt>
      <trkpt lat="47.86922" lon="6.89352">
        <ele>1114.6</ele>
        <time>2023-04-30T10:20:22.000Z</time>
      </trkpt>
      <trkpt lat="47.86927" lon="6.89345">
        <ele>1114.8</ele>
        <time>2023-04-30T10:20:27.000Z</time>
      </trkpt>
      <trkpt lat="47.86937" lon="6.89322">
        <ele>1115.4</ele>
        <time>2023-04-30T10:20:40.000Z</time>
      </trkpt>
      <trkpt lat="47.86949" lon="6.89292">
        <ele>1115.6</ele>
        <time>2023-04-30T10:20:57.000Z</time>
      </trkpt>
      <trkpt lat="47.8695" lon="6.89289">
        <ele>1115.6</ele>
        <time>2023-04-30T10:20:58.000Z</time>
      </trkpt>
      <trkpt lat="47.86953" lon="6.89272">
        <ele>1115.6</ele>
        <time>2023-04-30T10:21:05.000Z</time>
      </trkpt>
      <trkpt lat="47.86953" lon="6.89269">
        <ele>1115.6</ele>
        <time>2023-04-30T10:21:06.000Z</time>
      </trkpt>
      <trkpt lat="47.86965" lon="6.89248">
        <ele>1115.2</ele>
        <time>2023-04-30T10:21:19.000Z</time>
      </trkpt>
      <trkpt lat="47.86976" lon="6.89224">
        <ele>1114.2</ele>
        <time>2023-04-30T10:21:32.000Z</time>
      </trkpt>
      <trkpt lat="47.86983" lon="6.8921">
        <ele>1114</ele>
        <time>2023-04-30T10:21:40.000Z</time>
      </trkpt>
      <trkpt lat="47.86984" lon="6.89208">
        <ele>1114</ele>
        <time>2023-04-30T10:21:41.000Z</time>
      </trkpt>
      <trkpt lat="47.86986" lon="6.89204">
        <ele>1113.8</ele>
        <time>2023-04-30T10:21:43.000Z</time>
      </trkpt>
      <trkpt lat="47.86986" lon="6.89202">
        <ele>1113.8</ele>
        <time>2023-04-30T10:21:44.000Z</time>
      </trkpt>
      <trkpt lat="47.86986" lon="6.892">
        <ele>1113.8</ele>
        <time>2023-04-30T10:21:45.000Z</time>
      </trkpt>
      <trkpt lat="47.86987" lon="6.89198">
        <ele>1113.6</ele>
        <time>2023-04-30T10:21:46.000Z</time>
      </trkpt>
      <trkpt lat="47.86987" lon="6.89196">
        <ele>1113.6</ele>
        <time>2023-04-30T10:21:47.000Z</time>
      </trkpt>
      <trkpt lat="47.86994" lon="6.89172">
        <ele>1113.2</ele>
        <time>2023-04-30T10:22:01.000Z</time>
      </trkpt>
      <trkpt lat="47.86998" lon="6.89177">
        <ele>1116.4</ele>
        <time>2023-04-30T10:22:16.000Z</time>
      </trkpt>
      <trkpt lat="47.87005" lon="6.89189">
        <ele>1118</ele>
        <time>2023-04-30T10:22:24.000Z</time>
      </trkpt>
      <trkpt lat="47.87006" lon="6.89191">
        <ele>1118.4</ele>
        <time>2023-04-30T10:22:25.000Z</time>
      </trkpt>
      <trkpt lat="47.87019" lon="6.89214">
        <ele>1120</ele>
        <time>2023-04-30T10:22:39.000Z</time>
      </trkpt>
      <trkpt lat="47.87034" lon="6.89236">
        <ele>1120.8</ele>
        <time>2023-04-30T10:22:54.000Z</time>
      </trkpt>
      <trkpt lat="47.87042" lon="6.89253">
        <ele>1121.2</ele>
        <time>2023-04-30T10:23:05.000Z</time>
      </trkpt>
      <trkpt lat="47.87048" lon="6.89265">
        <ele>1121.4</ele>
        <time>2023-04-30T10:23:13.000Z</time>
      </trkpt>
      <trkpt lat="47.87055" lon="6.89291">
        <ele>1121.4</ele>
        <time>2023-04-30T10:23:26.000Z</time>
      </trkpt>
      <trkpt lat="47.87056" lon="6.89294">
        <ele>1121.6</ele>
        <time>2023-04-30T10:23:28.000Z</time>
      </trkpt>
      <trkpt lat="47.87056" lon="6.89297">
        <ele>1121.4</ele>
        <time>2023-04-30T10:23:29.000Z</time>
      </trkpt>
      <trkpt lat="47.8706" lon="6.89328">
        <ele>1118.8</ele>
        <time>2023-04-30T10:23:45.000Z</time>
      </trkpt>
      <trkpt lat="47.8706" lon="6.89339">
        <ele>1118.2</ele>
        <time>2023-04-30T10:23:50.000Z</time>
      </trkpt>
      <trkpt lat="47.87061" lon="6.89343">
        <ele>1117.8</ele>
        <time>2023-04-30T10:23:52.000Z</time>
      </trkpt>
      <trkpt lat="47.87064" lon="6.89349">
        <ele>1117</ele>
        <time>2023-04-30T10:23:57.000Z</time>
      </trkpt>
      <trkpt lat="47.87072" lon="6.89378">
        <ele>1114.4</ele>
        <time>2023-04-30T10:24:11.000Z</time>
      </trkpt>
      <trkpt lat="47.87078" lon="6.89396">
        <ele>1112.6</ele>
        <time>2023-04-30T10:24:19.000Z</time>
      </trkpt>
      <trkpt lat="47.87082" lon="6.89411">
        <ele>1111</ele>
        <time>2023-04-30T10:24:27.000Z</time>
      </trkpt>
      <trkpt lat="47.87089" lon="6.89426">
        <ele>1109</ele>
        <time>2023-04-30T10:24:37.000Z</time>
      </trkpt>
      <trkpt lat="47.87101" lon="6.89442">
        <ele>1107.6</ele>
        <time>2023-04-30T10:24:47.000Z</time>
      </trkpt>
      <trkpt lat="47.87109" lon="6.89452">
        <ele>1106</ele>
        <time>2023-04-30T10:24:55.000Z</time>
      </trkpt>
      <trkpt lat="47.87117" lon="6.89462">
        <ele>1104</ele>
        <time>2023-04-30T10:25:05.000Z</time>
      </trkpt>
      <trkpt lat="47.87131" lon="6.89481">
        <ele>1101.2</ele>
        <time>2023-04-30T10:25:19.000Z</time>
      </trkpt>
      <trkpt lat="47.87136" lon="6.89484">
        <ele>1100.4</ele>
        <time>2023-04-30T10:25:23.000Z</time>
      </trkpt>
      <trkpt lat="47.87137" lon="6.89484">
        <ele>1100.4</ele>
        <time>2023-04-30T10:25:24.000Z</time>
      </trkpt>
      <trkpt lat="47.87147" lon="6.89491">
        <ele>1099</ele>
        <time>2023-04-30T10:25:33.000Z</time>
      </trkpt>
      <trkpt lat="47.87157" lon="6.89501">
        <ele>1096.4</ele>
        <time>2023-04-30T10:25:43.000Z</time>
      </trkpt>
      <trkpt lat="47.87172" lon="6.89507">
        <ele>1094.2</ele>
        <time>2023-04-30T10:25:54.000Z</time>
      </trkpt>
      <trkpt lat="47.87184" lon="6.89502">
        <ele>1092.4</ele>
        <time>2023-04-30T10:26:14.000Z</time>
      </trkpt>
      <trkpt lat="47.87189" lon="6.89501">
        <ele>1092</ele>
        <time>2023-04-30T10:26:24.000Z</time>
      </trkpt>
      <trkpt lat="47.87193" lon="6.89505">
        <ele>1091.4</ele>
        <time>2023-04-30T10:26:44.000Z</time>
      </trkpt>
      <trkpt lat="47.872" lon="6.89525">
        <ele>1088.8</ele>
        <time>2023-04-30T10:26:59.000Z</time>
      </trkpt>
      <trkpt lat="47.87204" lon="6.89531">
        <ele>1088</ele>
        <time>2023-04-30T10:27:04.000Z</time>
      </trkpt>
      <trkpt lat="47.87211" lon="6.89541">
        <ele>1085.2</ele>
        <time>2023-04-30T10:27:12.000Z</time>
      </trkpt>
      <trkpt lat="47.8722" lon="6.89559">
        <ele>1082.4</ele>
        <time>2023-04-30T10:27:26.000Z</time>
      </trkpt>
      <trkpt lat="47.87232" lon="6.89571">
        <ele>1079.2</ele>
        <time>2023-04-30T10:27:39.000Z</time>
      </trkpt>
      <trkpt lat="47.87237" lon="6.89581">
        <ele>1077.4</ele>
        <time>2023-04-30T10:27:49.000Z</time>
      </trkpt>
      <trkpt lat="47.87239" lon="6.89582">
        <ele>1076.8</ele>
        <time>2023-04-30T10:27:52.000Z</time>
      </trkpt>
      <trkpt lat="47.87242" lon="6.89585">
        <ele>1075.8</ele>
        <time>2023-04-30T10:27:55.000Z</time>
      </trkpt>
      <trkpt lat="47.87248" lon="6.89593">
        <ele>1075</ele>
        <time>2023-04-30T10:28:01.000Z</time>
      </trkpt>
      <trkpt lat="47.8726" lon="6.89604">
        <ele>1072.8</ele>
        <time>2023-04-30T10:28:13.000Z</time>
      </trkpt>
      <trkpt lat="47.87266" lon="6.89614">
        <ele>1070</ele>
        <time>2023-04-30T10:28:24.000Z</time>
      </trkpt>
      <trkpt lat="47.87281" lon="6.89623">
        <ele>1067</ele>
        <time>2023-04-30T10:28:35.000Z</time>
      </trkpt>
      <trkpt lat="47.87296" lon="6.89633">
        <ele>1064.2</ele>
        <time>2023-04-30T10:28:48.000Z</time>
      </trkpt>
      <trkpt lat="47.87308" lon="6.89643">
        <ele>1062.2</ele>
        <time>2023-04-30T10:28:57.000Z</time>
      </trkpt>
      <trkpt lat="47.87318" lon="6.89656">
        <ele>1060</ele>
        <time>2023-04-30T10:29:07.000Z</time>
      </trkpt>
      <trkpt lat="47.87319" lon="6.89657">
        <ele>1059.8</ele>
        <time>2023-04-30T10:29:08.000Z</time>
      </trkpt>
      <trkpt lat="47.87326" lon="6.89671">
        <ele>1056.6</ele>
        <time>2023-04-30T10:29:19.000Z</time>
      </trkpt>
      <trkpt lat="47.87333" lon="6.8969">
        <ele>1053.6</ele>
        <time>2023-04-30T10:29:34.000Z</time>
      </trkpt>
      <trkpt lat="47.87331" lon="6.89702">
        <ele>1050.8</ele>
        <time>2023-04-30T10:29:45.000Z</time>
      </trkpt>
      <trkpt lat="47.87331" lon="6.89708">
        <ele>1047.8</ele>
        <time>2023-04-30T10:29:56.000Z</time>
      </trkpt>
      <trkpt lat="47.87345" lon="6.8971">
        <ele>1044.6</ele>
        <time>2023-04-30T10:30:10.000Z</time>
      </trkpt>
      <trkpt lat="47.87348" lon="6.89698">
        <ele>1041.4</ele>
        <time>2023-04-30T10:30:21.000Z</time>
      </trkpt>
      <trkpt lat="47.87353" lon="6.8968">
        <ele>1038.2</ele>
        <time>2023-04-30T10:30:33.000Z</time>
      </trkpt>
      <trkpt lat="47.87354" lon="6.89668">
        <ele>1037</ele>
        <time>2023-04-30T10:30:39.000Z</time>
      </trkpt>
      <trkpt lat="47.87359" lon="6.89646">
        <ele>1033.4</ele>
        <time>2023-04-30T10:30:53.000Z</time>
      </trkpt>
      <trkpt lat="47.87362" lon="6.89636">
        <ele>1031</ele>
        <time>2023-04-30T10:31:01.000Z</time>
      </trkpt>
      <trkpt lat="47.87365" lon="6.89634">
        <ele>1027.8</ele>
        <time>2023-04-30T10:31:15.000Z</time>
      </trkpt>
      <trkpt lat="47.87372" lon="6.8964">
        <ele>1024.6</ele>
        <time>2023-04-30T10:31:26.000Z</time>
      </trkpt>
      <trkpt lat="47.87383" lon="6.89654">
        <ele>1021.6</ele>
        <time>2023-04-30T10:31:38.000Z</time>
      </trkpt>
      <trkpt lat="47.87391" lon="6.89663">
        <ele>1019.4</ele>
        <time>2023-04-30T10:31:47.000Z</time>
      </trkpt>
      <trkpt lat="47.87403" lon="6.89674">
        <ele>1016.8</ele>
        <time>2023-04-30T10:31:58.000Z</time>
      </trkpt>
      <trkpt lat="47.8741" lon="6.89691">
        <ele>1013.8</ele>
        <time>2023-04-30T10:32:10.000Z</time>
      </trkpt>
      <trkpt lat="47.8741" lon="6.89707">
        <ele>1010.4</ele>
        <time>2023-04-30T10:32:21.000Z</time>
      </trkpt>
      <trkpt lat="47.87408" lon="6.8972">
        <ele>1008.6</ele>
        <time>2023-04-30T10:32:28.000Z</time>
      </trkpt>
      <trkpt lat="47.87408" lon="6.89735">
        <ele>1005.6</ele>
        <time>2023-04-30T10:32:39.000Z</time>
      </trkpt>
      <trkpt lat="47.87416" lon="6.89739">
        <ele>1002.4</ele>
        <time>2023-04-30T10:32:50.000Z</time>
      </trkpt>
      <trkpt lat="47.87422" lon="6.89737">
        <ele>1000.8</ele>
        <time>2023-04-30T10:32:55.000Z</time>
      </trkpt>
      <trkpt lat="47.87436" lon="6.89732">
        <ele>997.6</ele>
        <time>2023-04-30T10:33:08.000Z</time>
      </trkpt>
      <trkpt lat="47.87443" lon="6.89725">
        <ele>994.4</ele>
        <time>2023-04-30T10:33:18.000Z</time>
      </trkpt>
      <trkpt lat="47.87454" lon="6.89733">
        <ele>991.2</ele>
        <time>2023-04-30T10:33:30.000Z</time>
      </trkpt>
      <trkpt lat="47.87454" lon="6.89735">
        <ele>990.8</ele>
        <time>2023-04-30T10:33:31.000Z</time>
      </trkpt>
      <trkpt lat="47.87451" lon="6.89747">
        <ele>988.2</ele>
        <time>2023-04-30T10:33:41.000Z</time>
      </trkpt>
      <trkpt lat="47.87451" lon="6.89749">
        <ele>987.2</ele>
        <time>2023-04-30T10:33:43.000Z</time>
      </trkpt>
      <trkpt lat="47.87445" lon="6.89767">
        <ele>984.2</ele>
        <time>2023-04-30T10:33:57.000Z</time>
      </trkpt>
      <trkpt lat="47.87435" lon="6.89786">
        <ele>981</ele>
        <time>2023-04-30T10:34:10.000Z</time>
      </trkpt>
      <trkpt lat="47.87429" lon="6.89795">
        <ele>978.4</ele>
        <time>2023-04-30T10:34:19.000Z</time>
      </trkpt>
      <trkpt lat="47.87426" lon="6.89796">
        <ele>977.4</ele>
        <time>2023-04-30T10:34:23.000Z</time>
      </trkpt>
      <trkpt lat="47.87381" lon="6.89841">
        <ele>968.8</ele>
        <time>2023-04-30T10:35:04.000Z</time>
      </trkpt>
      <trkpt lat="47.87371" lon="6.89858">
        <ele>966.2</ele>
        <time>2023-04-30T10:35:16.000Z</time>
      </trkpt>
      <trkpt lat="47.87364" lon="6.89895">
        <ele>961.4</ele>
        <time>2023-04-30T10:35:38.000Z</time>
      </trkpt>
      <trkpt lat="47.87366" lon="6.89909">
        <ele>959.2</ele>
        <time>2023-04-30T10:35:52.000Z</time>
      </trkpt>
      <trkpt lat="47.87375" lon="6.89925">
        <ele>956</ele>
        <time>2023-04-30T10:36:12.000Z</time>
      </trkpt>
      <trkpt lat="47.87383" lon="6.8993">
        <ele>952.8</ele>
        <time>2023-04-30T10:36:21.000Z</time>
      </trkpt>
      <trkpt lat="47.87391" lon="6.89928">
        <ele>949.6</ele>
        <time>2023-04-30T10:36:31.000Z</time>
      </trkpt>
      <trkpt lat="47.87398" lon="6.89926">
        <ele>947.6</ele>
        <time>2023-04-30T10:36:38.000Z</time>
      </trkpt>
      <trkpt lat="47.8741" lon="6.89924">
        <ele>944.4</ele>
        <time>2023-04-30T10:36:48.000Z</time>
      </trkpt>
      <trkpt lat="47.87428" lon="6.8992">
        <ele>941.2</ele>
        <time>2023-04-30T10:37:01.000Z</time>
      </trkpt>
      <trkpt lat="47.87441" lon="6.89925">
        <ele>938</ele>
        <time>2023-04-30T10:37:13.000Z</time>
      </trkpt>
      <trkpt lat="47.8745" lon="6.89927">
        <ele>934</ele>
        <time>2023-04-30T10:37:22.000Z</time>
      </trkpt>
      <trkpt lat="47.87462" lon="6.8993">
        <ele>930.6</ele>
        <time>2023-04-30T10:37:35.000Z</time>
      </trkpt>
      <trkpt lat="47.87471" lon="6.89933">
        <ele>928.2</ele>
        <time>2023-04-30T10:37:50.000Z</time>
      </trkpt>
      <trkpt lat="47.87481" lon="6.89929">
        <ele>928.6</ele>
        <time>2023-04-30T10:38:17.000Z</time>
      </trkpt>
      <trkpt lat="47.87496" lon="6.8993">
        <ele>927.2</ele>
        <time>2023-04-30T10:38:42.000Z</time>
      </trkpt>
      <trkpt lat="47.87504" lon="6.89931">
        <ele>924.4</ele>
        <time>2023-04-30T10:38:57.000Z</time>
      </trkpt>
      <trkpt lat="47.87511" lon="6.89928">
        <ele>923</ele>
        <time>2023-04-30T10:39:03.000Z</time>
      </trkpt>
      <trkpt lat="47.87517" lon="6.89943">
        <ele>920.2</ele>
        <time>2023-04-30T10:39:21.000Z</time>
      </trkpt>
      <trkpt lat="47.87532" lon="6.8994">
        <ele>917.6</ele>
        <time>2023-04-30T10:39:45.000Z</time>
      </trkpt>
      <trkpt lat="47.87537" lon="6.89937">
        <ele>916.6</ele>
        <time>2023-04-30T10:39:50.000Z</time>
      </trkpt>
      <trkpt lat="47.87551" lon="6.89931">
        <ele>913.6</ele>
        <time>2023-04-30T10:40:02.000Z</time>
      </trkpt>
      <trkpt lat="47.87561" lon="6.8992">
        <ele>911.8</ele>
        <time>2023-04-30T10:40:13.000Z</time>
      </trkpt>
      <trkpt lat="47.87574" lon="6.89903">
        <ele>908.8</ele>
        <time>2023-04-30T10:40:27.000Z</time>
      </trkpt>
      <trkpt lat="47.87579" lon="6.89895">
        <ele>907.6</ele>
        <time>2023-04-30T10:40:32.000Z</time>
      </trkpt>
      <trkpt lat="47.87584" lon="6.89886">
        <ele>906.4</ele>
        <time>2023-04-30T10:40:37.000Z</time>
      </trkpt>
      <trkpt lat="47.87592" lon="6.89866">
        <ele>903.4</ele>
        <time>2023-04-30T10:40:48.000Z</time>
      </trkpt>
      <trkpt lat="47.87604" lon="6.89844">
        <ele>900.4</ele>
        <time>2023-04-30T10:41:01.000Z</time>
      </trkpt>
      <trkpt lat="47.87613" lon="6.89822">
        <ele>898.4</ele>
        <time>2023-04-30T10:41:16.000Z</time>
      </trkpt>
      <trkpt lat="47.8762" lon="6.89801">
        <ele>895.2</ele>
        <time>2023-04-30T10:41:28.000Z</time>
      </trkpt>
      <trkpt lat="47.8762" lon="6.89799">
        <ele>895</ele>
        <time>2023-04-30T10:41:29.000Z</time>
      </trkpt>
      <trkpt lat="47.87628" lon="6.89775">
        <ele>892</ele>
        <time>2023-04-30T10:41:45.000Z</time>
      </trkpt>
      <trkpt lat="47.87635" lon="6.89748">
        <ele>888.8</ele>
        <time>2023-04-30T10:42:01.000Z</time>
      </trkpt>
      <trkpt lat="47.87643" lon="6.89725">
        <ele>885.6</ele>
        <time>2023-04-30T10:42:16.000Z</time>
      </trkpt>
      <trkpt lat="47.87648" lon="6.89707">
        <ele>882.6</ele>
        <time>2023-04-30T10:42:29.000Z</time>
      </trkpt>
      <trkpt lat="47.87655" lon="6.89678">
        <ele>879.6</ele>
        <time>2023-04-30T10:42:44.000Z</time>
      </trkpt>
      <trkpt lat="47.87659" lon="6.89656">
        <ele>876.6</ele>
        <time>2023-04-30T10:42:57.000Z</time>
      </trkpt>
      <trkpt lat="47.87661" lon="6.89634">
        <ele>875</ele>
        <time>2023-04-30T10:43:13.000Z</time>
      </trkpt>
      <trkpt lat="47.87661" lon="6.89628">
        <ele>874.2</ele>
        <time>2023-04-30T10:43:16.000Z</time>
      </trkpt>
      <trkpt lat="47.87662" lon="6.89618">
        <ele>873.2</ele>
        <time>2023-04-30T10:43:22.000Z</time>
      </trkpt>
      <trkpt lat="47.87662" lon="6.89616">
        <ele>873.2</ele>
        <time>2023-04-30T10:43:23.000Z</time>
      </trkpt>
      <trkpt lat="47.87659" lon="6.89606">
        <ele>872.8</ele>
        <time>2023-04-30T10:43:29.000Z</time>
      </trkpt>
      <trkpt lat="47.87653" lon="6.8958">
        <ele>870</ele>
        <time>2023-04-30T10:43:44.000Z</time>
      </trkpt>
      <trkpt lat="47.87646" lon="6.89556">
        <ele>867.2</ele>
        <time>2023-04-30T10:43:59.000Z</time>
      </trkpt>
      <trkpt lat="47.87639" lon="6.89538">
        <ele>864</ele>
        <time>2023-04-30T10:44:14.000Z</time>
      </trkpt>
      <trkpt lat="47.87639" lon="6.89523">
        <ele>860.8</ele>
        <time>2023-04-30T10:44:30.000Z</time>
      </trkpt>
      <trkpt lat="47.87643" lon="6.89527">
        <ele>857.8</ele>
        <time>2023-04-30T10:44:40.000Z</time>
      </trkpt>
      <trkpt lat="47.87648" lon="6.89533">
        <ele>854.6</ele>
        <time>2023-04-30T10:44:55.000Z</time>
      </trkpt>
      <trkpt lat="47.87651" lon="6.89535">
        <ele>851.2</ele>
        <time>2023-04-30T10:45:03.000Z</time>
      </trkpt>
      <trkpt lat="47.87655" lon="6.89539">
        <ele>849.4</ele>
        <time>2023-04-30T10:45:08.000Z</time>
      </trkpt>
      <trkpt lat="47.87663" lon="6.89545">
        <ele>846.2</ele>
        <time>2023-04-30T10:45:18.000Z</time>
      </trkpt>
      <trkpt lat="47.87703" lon="6.89561">
        <ele>838</ele>
        <time>2023-04-30T10:45:47.000Z</time>
      </trkpt>
      <trkpt lat="47.87705" lon="6.89553">
        <ele>837.8</ele>
        <time>2023-04-30T10:46:10.000Z</time>
      </trkpt>
      <trkpt lat="47.87707" lon="6.89551">
        <ele>837.6</ele>
        <time>2023-04-30T10:46:37.000Z</time>
      </trkpt>
      <trkpt lat="47.87709" lon="6.89541">
        <ele>837.8</ele>
        <time>2023-04-30T10:47:00.000Z</time>
      </trkpt>
      <trkpt lat="47.87707" lon="6.89522">
        <ele>835</ele>
        <time>2023-04-30T10:47:22.000Z</time>
      </trkpt>
      <trkpt lat="47.87707" lon="6.89521">
        <ele>832</ele>
        <time>2023-04-30T10:47:24.000Z</time>
      </trkpt>
      <trkpt lat="47.87707" lon="6.89521">
        <ele>831.2</ele>
        <time>2023-04-30T10:47:26.000Z</time>
      </trkpt>
      <trkpt lat="47.87708" lon="6.89514">
        <ele>829.4</ele>
        <time>2023-04-30T10:47:49.000Z</time>
      </trkpt>
      <trkpt lat="47.87715" lon="6.89515">
        <ele>826.8</ele>
        <time>2023-04-30T10:47:58.000Z</time>
      </trkpt>
      <trkpt lat="47.87726" lon="6.89517">
        <ele>823.6</ele>
        <time>2023-04-30T10:48:12.000Z</time>
      </trkpt>
      <trkpt lat="47.87739" lon="6.89521">
        <ele>820.6</ele>
        <time>2023-04-30T10:48:27.000Z</time>
      </trkpt>
      <trkpt lat="47.87744" lon="6.89526">
        <ele>819.2</ele>
        <time>2023-04-30T10:48:34.000Z</time>
      </trkpt>
      <trkpt lat="47.87747" lon="6.89527">
        <ele>818.4</ele>
        <time>2023-04-30T10:48:37.000Z</time>
      </trkpt>
      <trkpt lat="47.87758" lon="6.89533">
        <ele>816.2</ele>
        <time>2023-04-30T10:48:47.000Z</time>
      </trkpt>
      <trkpt lat="47.87763" lon="6.89538">
        <ele>815</ele>
        <time>2023-04-30T10:48:52.000Z</time>
      </trkpt>
      <trkpt lat="47.87765" lon="6.89539">
        <ele>814.6</ele>
        <time>2023-04-30T10:48:54.000Z</time>
      </trkpt>
      <trkpt lat="47.87776" lon="6.89544">
        <ele>812.4</ele>
        <time>2023-04-30T10:49:04.000Z</time>
      </trkpt>
      <trkpt lat="47.87776" lon="6.89545">
        <ele>812.2</ele>
        <time>2023-04-30T10:49:05.000Z</time>
      </trkpt>
      <trkpt lat="47.87793" lon="6.89556">
        <ele>809.2</ele>
        <time>2023-04-30T10:49:18.000Z</time>
      </trkpt>
      <trkpt lat="47.87798" lon="6.89561">
        <ele>808</ele>
        <time>2023-04-30T10:49:23.000Z</time>
      </trkpt>
      <trkpt lat="47.87802" lon="6.89568">
        <ele>807</ele>
        <time>2023-04-30T10:49:28.000Z</time>
      </trkpt>
      <trkpt lat="47.87813" lon="6.89582">
        <ele>804.6</ele>
        <time>2023-04-30T10:49:39.000Z</time>
      </trkpt>
      <trkpt lat="47.87819" lon="6.89591">
        <ele>803.6</ele>
        <time>2023-04-30T10:49:45.000Z</time>
      </trkpt>
      <trkpt lat="47.8782" lon="6.89593">
        <ele>803.2</ele>
        <time>2023-04-30T10:49:47.000Z</time>
      </trkpt>
      <trkpt lat="47.87825" lon="6.89598">
        <ele>802</ele>
        <time>2023-04-30T10:49:54.000Z</time>
      </trkpt>
      <trkpt lat="47.87829" lon="6.89604">
        <ele>801.6</ele>
        <time>2023-04-30T10:49:58.000Z</time>
      </trkpt>
      <trkpt lat="47.8783" lon="6.89604">
        <ele>801.4</ele>
        <time>2023-04-30T10:49:59.000Z</time>
      </trkpt>
      <trkpt lat="47.87838" lon="6.89612">
        <ele>799.8</ele>
        <time>2023-04-30T10:50:14.000Z</time>
      </trkpt>
      <trkpt lat="47.8785" lon="6.89595">
        <ele>796.6</ele>
        <time>2023-04-30T10:50:26.000Z</time>
      </trkpt>
      <trkpt lat="47.87851" lon="6.8959">
        <ele>795.4</ele>
        <time>2023-04-30T10:50:29.000Z</time>
      </trkpt>
      <trkpt lat="47.87856" lon="6.89589">
        <ele>795.2</ele>
        <time>2023-04-30T10:50:46.000Z</time>
      </trkpt>
      <trkpt lat="47.87859" lon="6.89595">
        <ele>795.2</ele>
        <time>2023-04-30T10:50:53.000Z</time>
      </trkpt>
      <trkpt lat="47.8786" lon="6.89595">
        <ele>795.2</ele>
        <time>2023-04-30T10:50:54.000Z</time>
      </trkpt>
      <trkpt lat="47.87865" lon="6.89598">
        <ele>795.2</ele>
        <time>2023-04-30T10:50:58.000Z</time>
      </trkpt>
      <trkpt lat="47.87875" lon="6.89608">
        <ele>797</ele>
        <time>2023-04-30T10:51:08.000Z</time>
      </trkpt>
      <trkpt lat="47.87894" lon="6.89618">
        <ele>799.4</ele>
        <time>2023-04-30T10:51:29.000Z</time>
      </trkpt>
      <trkpt lat="47.87897" lon="6.89625">
        <ele>801.4</ele>
        <time>2023-04-30T10:51:49.000Z</time>
      </trkpt>
      <trkpt lat="47.87902" lon="6.89595">
        <ele>799.8</ele>
        <time>2023-04-30T10:52:05.000Z</time>
      </trkpt>
      <trkpt lat="47.87905" lon="6.89573">
        <ele>799.6</ele>
        <time>2023-04-30T10:52:21.000Z</time>
      </trkpt>
      <trkpt lat="47.87905" lon="6.89571">
        <ele>799.6</ele>
        <time>2023-04-30T10:52:22.000Z</time>
      </trkpt>
      <trkpt lat="47.87905" lon="6.89569">
        <ele>799.6</ele>
        <time>2023-04-30T10:52:23.000Z</time>
      </trkpt>
      <trkpt lat="47.87905" lon="6.89567">
        <ele>799.4</ele>
        <time>2023-04-30T10:52:24.000Z</time>
      </trkpt>
      <trkpt lat="47.87906" lon="6.89562">
        <ele>799.4</ele>
        <time>2023-04-30T10:52:27.000Z</time>
      </trkpt>
      <trkpt lat="47.87907" lon="6.89543">
        <ele>798.6</ele>
        <time>2023-04-30T10:52:37.000Z</time>
      </trkpt>
      <trkpt lat="47.87908" lon="6.89541">
        <ele>798.6</ele>
        <time>2023-04-30T10:52:38.000Z</time>
      </trkpt>
      <trkpt lat="47.87908" lon="6.89539">
        <ele>798.6</ele>
        <time>2023-04-30T10:52:39.000Z</time>
      </trkpt>
      <trkpt lat="47.87916" lon="6.89508">
        <ele>798.4</ele>
        <time>2023-04-30T10:52:54.000Z</time>
      </trkpt>
      <trkpt lat="47.87924" lon="6.89481">
        <ele>798.4</ele>
        <time>2023-04-30T10:53:05.000Z</time>
      </trkpt>
      <trkpt lat="47.87933" lon="6.89455">
        <ele>798.4</ele>
        <time>2023-04-30T10:53:18.000Z</time>
      </trkpt>
      <trkpt lat="47.8794" lon="6.89431">
        <ele>799.8</ele>
        <time>2023-04-30T10:53:32.000Z</time>
      </trkpt>
      <trkpt lat="47.87947" lon="6.89398">
        <ele>801</ele>
        <time>2023-04-30T10:53:47.000Z</time>
      </trkpt>
      <trkpt lat="47.87952" lon="6.89383">
        <ele>801.4</ele>
        <time>2023-04-30T10:53:55.000Z</time>
      </trkpt>
      <trkpt lat="47.87954" lon="6.89373">
        <ele>801.6</ele>
        <time>2023-04-30T10:54:01.000Z</time>
      </trkpt>
      <trkpt lat="47.87955" lon="6.89372">
        <ele>801.6</ele>
        <time>2023-04-30T10:54:02.000Z</time>
      </trkpt>
      <trkpt lat="47.87967" lon="6.8935">
        <ele>802.4</ele>
        <time>2023-04-30T10:54:18.000Z</time>
      </trkpt>
      <trkpt lat="47.87984" lon="6.89333">
        <ele>803</ele>
        <time>2023-04-30T10:54:35.000Z</time>
      </trkpt>
      <trkpt lat="47.87987" lon="6.89329">
        <ele>803</ele>
        <time>2023-04-30T10:54:38.000Z</time>
      </trkpt>
      <trkpt lat="47.88" lon="6.89321">
        <ele>804.2</ele>
        <time>2023-04-30T10:54:48.000Z</time>
      </trkpt>
      <trkpt lat="47.88002" lon="6.8932">
        <ele>804.2</ele>
        <time>2023-04-30T10:54:49.000Z</time>
      </trkpt>
      <trkpt lat="47.88015" lon="6.89316">
        <ele>804.4</ele>
        <time>2023-04-30T10:54:58.000Z</time>
      </trkpt>
      <trkpt lat="47.88019" lon="6.89315">
        <ele>804.6</ele>
        <time>2023-04-30T10:55:00.000Z</time>
      </trkpt>
      <trkpt lat="47.88034" lon="6.89308">
        <ele>805</ele>
        <time>2023-04-30T10:55:14.000Z</time>
      </trkpt>
      <trkpt lat="47.88039" lon="6.89306">
        <ele>805</ele>
        <time>2023-04-30T10:55:17.000Z</time>
      </trkpt>
      <trkpt lat="47.88045" lon="6.89301">
        <ele>805</ele>
        <time>2023-04-30T10:55:22.000Z</time>
      </trkpt>
      <trkpt lat="47.88047" lon="6.89299">
        <ele>805</ele>
        <time>2023-04-30T10:55:23.000Z</time>
      </trkpt>
      <trkpt lat="47.8805" lon="6.89295">
        <ele>805</ele>
        <time>2023-04-30T10:55:26.000Z</time>
      </trkpt>
      <trkpt lat="47.88074" lon="6.89274">
        <ele>804.8</ele>
        <time>2023-04-30T10:55:42.000Z</time>
      </trkpt>
      <trkpt lat="47.88076" lon="6.89273">
        <ele>804.8</ele>
        <time>2023-04-30T10:55:43.000Z</time>
      </trkpt>
      <trkpt lat="47.88083" lon="6.89265">
        <ele>804.8</ele>
        <time>2023-04-30T10:55:49.000Z</time>
      </trkpt>
      <trkpt lat="47.88084" lon="6.89264">
        <ele>804.6</ele>
        <time>2023-04-30T10:55:50.000Z</time>
      </trkpt>
      <trkpt lat="47.88085" lon="6.89263">
        <ele>804.6</ele>
        <time>2023-04-30T10:55:51.000Z</time>
      </trkpt>
      <trkpt lat="47.88087" lon="6.89261">
        <ele>804.6</ele>
        <time>2023-04-30T10:55:52.000Z</time>
      </trkpt>
      <trkpt lat="47.88088" lon="6.89259">
        <ele>804.6</ele>
        <time>2023-04-30T10:55:53.000Z</time>
      </trkpt>
      <trkpt lat="47.8809" lon="6.89255">
        <ele>804.6</ele>
        <time>2023-04-30T10:55:55.000Z</time>
      </trkpt>
      <trkpt lat="47.88091" lon="6.89253">
        <ele>804.6</ele>
        <time>2023-04-30T10:55:56.000Z</time>
      </trkpt>
      <trkpt lat="47.88092" lon="6.89251">
        <ele>804.6</ele>
        <time>2023-04-30T10:55:57.000Z</time>
      </trkpt>
      <trkpt lat="47.88094" lon="6.8925">
        <ele>804.6</ele>
        <time>2023-04-30T10:55:58.000Z</time>
      </trkpt>
      <trkpt lat="47.88096" lon="6.89249">
        <ele>804.6</ele>
        <time>2023-04-30T10:55:59.000Z</time>
      </trkpt>
      <trkpt lat="47.88103" lon="6.89244">
        <ele>804.6</ele>
        <time>2023-04-30T10:56:04.000Z</time>
      </trkpt>
      <trkpt lat="47.8811" lon="6.89236">
        <ele>804.4</ele>
        <time>2023-04-30T10:56:10.000Z</time>
      </trkpt>
      <trkpt lat="47.88121" lon="6.89223">
        <ele>804.2</ele>
        <time>2023-04-30T10:56:19.000Z</time>
      </trkpt>
      <trkpt lat="47.88125" lon="6.89217">
        <ele>804.2</ele>
        <time>2023-04-30T10:56:22.000Z</time>
      </trkpt>
      <trkpt lat="47.88138" lon="6.89206">
        <ele>803.8</ele>
        <time>2023-04-30T10:56:33.000Z</time>
      </trkpt>
      <trkpt lat="47.88139" lon="6.89205">
        <ele>803.8</ele>
        <time>2023-04-30T10:56:34.000Z</time>
      </trkpt>
      <trkpt lat="47.88156" lon="6.89187">
        <ele>803.8</ele>
        <time>2023-04-30T10:56:50.000Z</time>
      </trkpt>
      <trkpt lat="47.88168" lon="6.8917">
        <ele>804</ele>
        <time>2023-04-30T10:57:03.000Z</time>
      </trkpt>
      <trkpt lat="47.88185" lon="6.89159">
        <ele>804.6</ele>
        <time>2023-04-30T10:57:18.000Z</time>
      </trkpt>
      <trkpt lat="47.88201" lon="6.8916">
        <ele>805.4</ele>
        <time>2023-04-30T10:57:30.000Z</time>
      </trkpt>
      <trkpt lat="47.8821" lon="6.89155">
        <ele>805.8</ele>
        <time>2023-04-30T10:57:35.000Z</time>
      </trkpt>
      <trkpt lat="47.88224" lon="6.89132">
        <ele>806.8</ele>
        <time>2023-04-30T10:57:49.000Z</time>
      </trkpt>
      <trkpt lat="47.88224" lon="6.89129">
        <ele>807</ele>
        <time>2023-04-30T10:57:50.000Z</time>
      </trkpt>
      <trkpt lat="47.88235" lon="6.89105">
        <ele>807.6</ele>
        <time>2023-04-30T10:58:04.000Z</time>
      </trkpt>
      <trkpt lat="47.88251" lon="6.89101">
        <ele>806.4</ele>
        <time>2023-04-30T10:58:18.000Z</time>
      </trkpt>
      <trkpt lat="47.88271" lon="6.891">
        <ele>806.2</ele>
        <time>2023-04-30T10:58:34.000Z</time>
      </trkpt>
      <trkpt lat="47.88273" lon="6.89099">
        <ele>806.2</ele>
        <time>2023-04-30T10:58:35.000Z</time>
      </trkpt>
      <trkpt lat="47.88274" lon="6.89099">
        <ele>806.2</ele>
        <time>2023-04-30T10:58:36.000Z</time>
      </trkpt>
      <trkpt lat="47.88275" lon="6.89098">
        <ele>806.2</ele>
        <time>2023-04-30T10:58:37.000Z</time>
      </trkpt>
      <trkpt lat="47.88276" lon="6.89097">
        <ele>806.2</ele>
        <time>2023-04-30T10:58:38.000Z</time>
      </trkpt>
      <trkpt lat="47.88282" lon="6.89092">
        <ele>806.6</ele>
        <time>2023-04-30T10:58:43.000Z</time>
      </trkpt>
      <trkpt lat="47.88284" lon="6.89092">
        <ele>806.6</ele>
        <time>2023-04-30T10:58:44.000Z</time>
      </trkpt>
      <trkpt lat="47.88293" lon="6.89087">
        <ele>806.6</ele>
        <time>2023-04-30T10:58:50.000Z</time>
      </trkpt>
      <trkpt lat="47.88314" lon="6.89076">
        <ele>807</ele>
        <time>2023-04-30T10:59:02.000Z</time>
      </trkpt>
      <trkpt lat="47.88315" lon="6.89075">
        <ele>807</ele>
        <time>2023-04-30T10:59:03.000Z</time>
      </trkpt>
      <trkpt lat="47.88317" lon="6.89073">
        <ele>807</ele>
        <time>2023-04-30T10:59:04.000Z</time>
      </trkpt>
      <trkpt lat="47.88318" lon="6.89073">
        <ele>807</ele>
        <time>2023-04-30T10:59:05.000Z</time>
      </trkpt>
      <trkpt lat="47.88321" lon="6.89072">
        <ele>807</ele>
        <time>2023-04-30T10:59:06.000Z</time>
      </trkpt>
      <trkpt lat="47.88323" lon="6.89071">
        <ele>807</ele>
        <time>2023-04-30T10:59:07.000Z</time>
      </trkpt>
      <trkpt lat="47.88325" lon="6.89068">
        <ele>807</ele>
        <time>2023-04-30T10:59:09.000Z</time>
      </trkpt>
      <trkpt lat="47.88326" lon="6.89066">
        <ele>807</ele>
        <time>2023-04-30T10:59:10.000Z</time>
      </trkpt>
      <trkpt lat="47.88336" lon="6.89046">
        <ele>807.2</ele>
        <time>2023-04-30T10:59:24.000Z</time>
      </trkpt>
      <trkpt lat="47.88348" lon="6.89026">
        <ele>807.4</ele>
        <time>2023-04-30T10:59:36.000Z</time>
      </trkpt>
      <trkpt lat="47.88349" lon="6.89024">
        <ele>807.4</ele>
        <time>2023-04-30T10:59:37.000Z</time>
      </trkpt>
      <trkpt lat="47.8835" lon="6.89022">
        <ele>807.4</ele>
        <time>2023-04-30T10:59:38.000Z</time>
      </trkpt>
      <trkpt lat="47.88361" lon="6.88998">
        <ele>807.6</ele>
        <time>2023-04-30T10:59:50.000Z</time>
      </trkpt>
      <trkpt lat="47.88368" lon="6.88987">
        <ele>807.8</ele>
        <time>2023-04-30T10:59:58.000Z</time>
      </trkpt>
      <trkpt lat="47.88372" lon="6.88983">
        <ele>807.8</ele>
        <time>2023-04-30T11:00:01.000Z</time>
      </trkpt>
      <trkpt lat="47.88372" lon="6.88981">
        <ele>807.8</ele>
        <time>2023-04-30T11:00:02.000Z</time>
      </trkpt>
      <trkpt lat="47.88374" lon="6.88979">
        <ele>807.8</ele>
        <time>2023-04-30T11:00:03.000Z</time>
      </trkpt>
      <trkpt lat="47.88384" lon="6.88958">
        <ele>807.4</ele>
        <time>2023-04-30T11:00:15.000Z</time>
      </trkpt>
      <trkpt lat="47.88385" lon="6.88956">
        <ele>807.4</ele>
        <time>2023-04-30T11:00:16.000Z</time>
      </trkpt>
      <trkpt lat="47.88386" lon="6.88954">
        <ele>807.4</ele>
        <time>2023-04-30T11:00:17.000Z</time>
      </trkpt>
      <trkpt lat="47.88387" lon="6.88951">
        <ele>807.4</ele>
        <time>2023-04-30T11:00:18.000Z</time>
      </trkpt>
      <trkpt lat="47.88388" lon="6.88949">
        <ele>807.4</ele>
        <time>2023-04-30T11:00:19.000Z</time>
      </trkpt>
      <trkpt lat="47.88389" lon="6.88947">
        <ele>807.4</ele>
        <time>2023-04-30T11:00:20.000Z</time>
      </trkpt>
      <trkpt lat="47.8839" lon="6.88945">
        <ele>807.6</ele>
        <time>2023-04-30T11:00:21.000Z</time>
      </trkpt>
      <trkpt lat="47.88391" lon="6.88943">
        <ele>807.6</ele>
        <time>2023-04-30T11:00:22.000Z</time>
      </trkpt>
      <trkpt lat="47.88405" lon="6.88912">
        <ele>808.8</ele>
        <time>2023-04-30T11:00:40.000Z</time>
      </trkpt>
      <trkpt lat="47.88422" lon="6.88886">
        <ele>807.8</ele>
        <time>2023-04-30T11:00:58.000Z</time>
      </trkpt>
      <trkpt lat="47.88435" lon="6.88861">
        <ele>807.2</ele>
        <time>2023-04-30T11:01:15.000Z</time>
      </trkpt>
      <trkpt lat="47.88438" lon="6.88856">
        <ele>807.2</ele>
        <time>2023-04-30T11:01:19.000Z</time>
      </trkpt>
      <trkpt lat="47.88439" lon="6.88855">
        <ele>807.2</ele>
        <time>2023-04-30T11:01:20.000Z</time>
      </trkpt>
      <trkpt lat="47.88441" lon="6.88854">
        <ele>807</ele>
        <time>2023-04-30T11:01:21.000Z</time>
      </trkpt>
      <trkpt lat="47.88442" lon="6.88854">
        <ele>807</ele>
        <time>2023-04-30T11:01:22.000Z</time>
      </trkpt>
      <trkpt lat="47.88443" lon="6.88852">
        <ele>807</ele>
        <time>2023-04-30T11:01:23.000Z</time>
      </trkpt>
      <trkpt lat="47.88444" lon="6.88851">
        <ele>806.8</ele>
        <time>2023-04-30T11:01:24.000Z</time>
      </trkpt>
      <trkpt lat="47.88445" lon="6.8885">
        <ele>806.8</ele>
        <time>2023-04-30T11:01:25.000Z</time>
      </trkpt>
      <trkpt lat="47.88446" lon="6.88848">
        <ele>806.8</ele>
        <time>2023-04-30T11:01:26.000Z</time>
      </trkpt>
      <trkpt lat="47.88447" lon="6.88846">
        <ele>806.8</ele>
        <time>2023-04-30T11:01:27.000Z</time>
      </trkpt>
      <trkpt lat="47.88465" lon="6.88823">
        <ele>806.8</ele>
        <time>2023-04-30T11:01:43.000Z</time>
      </trkpt>
      <trkpt lat="47.88474" lon="6.88808">
        <ele>807.2</ele>
        <time>2023-04-30T11:01:53.000Z</time>
      </trkpt>
      <trkpt lat="47.88483" lon="6.88789">
        <ele>807.2</ele>
        <time>2023-04-30T11:02:06.000Z</time>
      </trkpt>
      <trkpt lat="47.88506" lon="6.88756">
        <ele>807</ele>
        <time>2023-04-30T11:02:25.000Z</time>
      </trkpt>
      <trkpt lat="47.88509" lon="6.88752">
        <ele>807</ele>
        <time>2023-04-30T11:02:29.000Z</time>
      </trkpt>
      <trkpt lat="47.88521" lon="6.88736">
        <ele>806.8</ele>
        <time>2023-04-30T11:02:42.000Z</time>
      </trkpt>
      <trkpt lat="47.88522" lon="6.88734">
        <ele>806.8</ele>
        <time>2023-04-30T11:02:43.000Z</time>
      </trkpt>
      <trkpt lat="47.88535" lon="6.88726">
        <ele>806.8</ele>
        <time>2023-04-30T11:02:54.000Z</time>
      </trkpt>
      <trkpt lat="47.88551" lon="6.88733">
        <ele>807.4</ele>
        <time>2023-04-30T11:03:10.000Z</time>
      </trkpt>
      <trkpt lat="47.88552" lon="6.88736">
        <ele>807.6</ele>
        <time>2023-04-30T11:03:12.000Z</time>
      </trkpt>
      <trkpt lat="47.88565" lon="6.88759">
        <ele>807.8</ele>
        <time>2023-04-30T11:03:28.000Z</time>
      </trkpt>
      <trkpt lat="47.88573" lon="6.88763">
        <ele>807</ele>
        <time>2023-04-30T11:03:45.000Z</time>
      </trkpt>
      <trkpt lat="47.88588" lon="6.88764">
        <ele>806.4</ele>
        <time>2023-04-30T11:04:07.000Z</time>
      </trkpt>
      <trkpt lat="47.88596" lon="6.88772">
        <ele>803.4</ele>
        <time>2023-04-30T11:04:16.000Z</time>
      </trkpt>
      <trkpt lat="47.88598" lon="6.88772">
        <ele>803.2</ele>
        <time>2023-04-30T11:04:17.000Z</time>
      </trkpt>
      <trkpt lat="47.886" lon="6.88771">
        <ele>803</ele>
        <time>2023-04-30T11:04:18.000Z</time>
      </trkpt>
      <trkpt lat="47.88601" lon="6.88772">
        <ele>802.8</ele>
        <time>2023-04-30T11:04:19.000Z</time>
      </trkpt>
      <trkpt lat="47.88602" lon="6.88772">
        <ele>802.8</ele>
        <time>2023-04-30T11:04:20.000Z</time>
      </trkpt>
      <trkpt lat="47.88604" lon="6.88773">
        <ele>802.8</ele>
        <time>2023-04-30T11:04:21.000Z</time>
      </trkpt>
      <trkpt lat="47.88605" lon="6.88773">
        <ele>802.6</ele>
        <time>2023-04-30T11:04:22.000Z</time>
      </trkpt>
      <trkpt lat="47.88606" lon="6.88774">
        <ele>802.4</ele>
        <time>2023-04-30T11:04:23.000Z</time>
      </trkpt>
      <trkpt lat="47.88607" lon="6.88774">
        <ele>802.2</ele>
        <time>2023-04-30T11:04:24.000Z</time>
      </trkpt>
      <trkpt lat="47.88608" lon="6.88775">
        <ele>802</ele>
        <time>2023-04-30T11:04:25.000Z</time>
      </trkpt>
      <trkpt lat="47.88609" lon="6.88776">
        <ele>801.8</ele>
        <time>2023-04-30T11:04:26.000Z</time>
      </trkpt>
      <trkpt lat="47.8861" lon="6.88777">
        <ele>801.6</ele>
        <time>2023-04-30T11:04:27.000Z</time>
      </trkpt>
      <trkpt lat="47.88612" lon="6.88777">
        <ele>801.4</ele>
        <time>2023-04-30T11:04:28.000Z</time>
      </trkpt>
      <trkpt lat="47.8863" lon="6.88785">
        <ele>798.8</ele>
        <time>2023-04-30T11:04:42.000Z</time>
      </trkpt>
      <trkpt lat="47.88644" lon="6.88797">
        <ele>796.8</ele>
        <time>2023-04-30T11:04:54.000Z</time>
      </trkpt>
      <trkpt lat="47.88646" lon="6.88798">
        <ele>796.6</ele>
        <time>2023-04-30T11:04:55.000Z</time>
      </trkpt>
      <trkpt lat="47.88648" lon="6.88802">
        <ele>796.2</ele>
        <time>2023-04-30T11:04:58.000Z</time>
      </trkpt>
      <trkpt lat="47.88651" lon="6.88806">
        <ele>795.6</ele>
        <time>2023-04-30T11:05:01.000Z</time>
      </trkpt>
      <trkpt lat="47.88663" lon="6.88824">
        <ele>794.2</ele>
        <time>2023-04-30T11:05:15.000Z</time>
      </trkpt>
      <trkpt lat="47.8867" lon="6.88836">
        <ele>793</ele>
        <time>2023-04-30T11:05:23.000Z</time>
      </trkpt>
      <trkpt lat="47.88671" lon="6.88837">
        <ele>792.8</ele>
        <time>2023-04-30T11:05:24.000Z</time>
      </trkpt>
      <trkpt lat="47.88672" lon="6.88838">
        <ele>792.8</ele>
        <time>2023-04-30T11:05:25.000Z</time>
      </trkpt>
      <trkpt lat="47.88686" lon="6.88856">
        <ele>791.4</ele>
        <time>2023-04-30T11:05:39.000Z</time>
      </trkpt>
      <trkpt lat="47.88688" lon="6.88859">
        <ele>791.2</ele>
        <time>2023-04-30T11:05:41.000Z</time>
      </trkpt>
      <trkpt lat="47.88689" lon="6.88861">
        <ele>791</ele>
        <time>2023-04-30T11:05:42.000Z</time>
      </trkpt>
      <trkpt lat="47.88691" lon="6.88862">
        <ele>791</ele>
        <time>2023-04-30T11:05:43.000Z</time>
      </trkpt>
      <trkpt lat="47.88692" lon="6.88864">
        <ele>790.8</ele>
        <time>2023-04-30T11:05:44.000Z</time>
      </trkpt>
      <trkpt lat="47.88693" lon="6.88866">
        <ele>790.6</ele>
        <time>2023-04-30T11:05:45.000Z</time>
      </trkpt>
      <trkpt lat="47.88694" lon="6.88867">
        <ele>790.6</ele>
        <time>2023-04-30T11:05:46.000Z</time>
      </trkpt>
      <trkpt lat="47.88703" lon="6.8888">
        <ele>789</ele>
        <time>2023-04-30T11:05:57.000Z</time>
      </trkpt>
      <trkpt lat="47.88709" lon="6.88886">
        <ele>788.6</ele>
        <time>2023-04-30T11:06:02.000Z</time>
      </trkpt>
      <trkpt lat="47.88731" lon="6.88905">
        <ele>786.8</ele>
        <time>2023-04-30T11:06:19.000Z</time>
      </trkpt>
      <trkpt lat="47.88741" lon="6.88914">
        <ele>785.6</ele>
        <time>2023-04-30T11:06:28.000Z</time>
      </trkpt>
      <trkpt lat="47.88742" lon="6.88916">
        <ele>785.6</ele>
        <time>2023-04-30T11:06:29.000Z</time>
      </trkpt>
      <trkpt lat="47.88753" lon="6.88928">
        <ele>784</ele>
        <time>2023-04-30T11:06:39.000Z</time>
      </trkpt>
      <trkpt lat="47.88759" lon="6.88933">
        <ele>783.4</ele>
        <time>2023-04-30T11:06:44.000Z</time>
      </trkpt>
      <trkpt lat="47.8876" lon="6.88935">
        <ele>783.2</ele>
        <time>2023-04-30T11:06:45.000Z</time>
      </trkpt>
      <trkpt lat="47.8878" lon="6.88949">
        <ele>781</ele>
        <time>2023-04-30T11:07:01.000Z</time>
      </trkpt>
      <trkpt lat="47.88799" lon="6.88973">
        <ele>778.8</ele>
        <time>2023-04-30T11:07:18.000Z</time>
      </trkpt>
      <trkpt lat="47.88809" lon="6.88996">
        <ele>777.4</ele>
        <time>2023-04-30T11:07:32.000Z</time>
      </trkpt>
      <trkpt lat="47.88812" lon="6.89003">
        <ele>777</ele>
        <time>2023-04-30T11:07:37.000Z</time>
      </trkpt>
      <trkpt lat="47.88816" lon="6.89008">
        <ele>776.6</ele>
        <time>2023-04-30T11:07:41.000Z</time>
      </trkpt>
      <trkpt lat="47.88829" lon="6.89016">
        <ele>776</ele>
        <time>2023-04-30T11:07:54.000Z</time>
      </trkpt>
      <trkpt lat="47.88834" lon="6.89025">
        <ele>777.2</ele>
        <time>2023-04-30T11:08:08.000Z</time>
      </trkpt>
      <trkpt lat="47.88834" lon="6.89036">
        <ele>779</ele>
        <time>2023-04-30T11:08:22.000Z</time>
      </trkpt>
      <trkpt lat="47.88832" lon="6.89042">
        <ele>782</ele>
        <time>2023-04-30T11:08:34.000Z</time>
      </trkpt>
      <trkpt lat="47.88828" lon="6.89052">
        <ele>784.8</ele>
        <time>2023-04-30T11:08:54.000Z</time>
      </trkpt>
      <trkpt lat="47.8882" lon="6.89066">
        <ele>787.4</ele>
        <time>2023-04-30T11:09:16.000Z</time>
      </trkpt>
      <trkpt lat="47.88823" lon="6.89072">
        <ele>787.4</ele>
        <time>2023-04-30T11:09:43.000Z</time>
      </trkpt>
      <trkpt lat="47.88824" lon="6.8907">
        <ele>787.2</ele>
        <time>2023-04-30T11:10:09.000Z</time>
      </trkpt>
      <trkpt lat="47.88834" lon="6.89055">
        <ele>784.6</ele>
        <time>2023-04-30T11:10:20.000Z</time>
      </trkpt>
      <trkpt lat="47.88841" lon="6.89042">
        <ele>781.4</ele>
        <time>2023-04-30T11:10:30.000Z</time>
      </trkpt>
      <trkpt lat="47.88846" lon="6.89029">
        <ele>778</ele>
        <time>2023-04-30T11:10:40.000Z</time>
      </trkpt>
      <trkpt lat="47.88846" lon="6.89007">
        <ele>775.6</ele>
        <time>2023-04-30T11:10:56.000Z</time>
      </trkpt>
      <trkpt lat="47.88846" lon="6.89005">
        <ele>775.6</ele>
        <time>2023-04-30T11:10:57.000Z</time>
      </trkpt>
      <trkpt lat="47.88845" lon="6.89003">
        <ele>775.4</ele>
        <time>2023-04-30T11:10:58.000Z</time>
      </trkpt>
      <trkpt lat="47.88845" lon="6.89001">
        <ele>775.4</ele>
        <time>2023-04-30T11:10:59.000Z</time>
      </trkpt>
      <trkpt lat="47.88845" lon="6.88999">
        <ele>775.2</ele>
        <time>2023-04-30T11:11:00.000Z</time>
      </trkpt>
      <trkpt lat="47.88845" lon="6.88997">
        <ele>775</ele>
        <time>2023-04-30T11:11:01.000Z</time>
      </trkpt>
      <trkpt lat="47.88844" lon="6.88994">
        <ele>774.8</ele>
        <time>2023-04-30T11:11:02.000Z</time>
      </trkpt>
      <trkpt lat="47.88844" lon="6.88992">
        <ele>774.6</ele>
        <time>2023-04-30T11:11:03.000Z</time>
      </trkpt>
      <trkpt lat="47.88837" lon="6.88979">
        <ele>773.4</ele>
        <time>2023-04-30T11:11:13.000Z</time>
      </trkpt>
      <trkpt lat="47.88831" lon="6.88972">
        <ele>772.8</ele>
        <time>2023-04-30T11:11:18.000Z</time>
      </trkpt>
      <trkpt lat="47.88829" lon="6.88968">
        <ele>772.4</ele>
        <time>2023-04-30T11:11:21.000Z</time>
      </trkpt>
      <trkpt lat="47.8882" lon="6.88944">
        <ele>771</ele>
        <time>2023-04-30T11:11:36.000Z</time>
      </trkpt>
      <trkpt lat="47.88813" lon="6.88927">
        <ele>770</ele>
        <time>2023-04-30T11:11:45.000Z</time>
      </trkpt>
      <trkpt lat="47.88806" lon="6.88918">
        <ele>769.2</ele>
        <time>2023-04-30T11:11:52.000Z</time>
      </trkpt>
      <trkpt lat="47.88805" lon="6.88916">
        <ele>769</ele>
        <time>2023-04-30T11:11:53.000Z</time>
      </trkpt>
      <trkpt lat="47.88798" lon="6.88908">
        <ele>768.4</ele>
        <time>2023-04-30T11:11:59.000Z</time>
      </trkpt>
      <trkpt lat="47.88797" lon="6.88906">
        <ele>768.2</ele>
        <time>2023-04-30T11:12:00.000Z</time>
      </trkpt>
      <trkpt lat="47.88795" lon="6.88905">
        <ele>768.2</ele>
        <time>2023-04-30T11:12:01.000Z</time>
      </trkpt>
      <trkpt lat="47.88792" lon="6.88898">
        <ele>767.6</ele>
        <time>2023-04-30T11:12:05.000Z</time>
      </trkpt>
      <trkpt lat="47.88791" lon="6.88896">
        <ele>767.6</ele>
        <time>2023-04-30T11:12:06.000Z</time>
      </trkpt>
      <trkpt lat="47.8879" lon="6.88894">
        <ele>767.4</ele>
        <time>2023-04-30T11:12:07.000Z</time>
      </trkpt>
      <trkpt lat="47.88788" lon="6.88886">
        <ele>767</ele>
        <time>2023-04-30T11:12:11.000Z</time>
      </trkpt>
      <trkpt lat="47.88788" lon="6.88884">
        <ele>766.8</ele>
        <time>2023-04-30T11:12:12.000Z</time>
      </trkpt>
      <trkpt lat="47.88785" lon="6.88872">
        <ele>766.4</ele>
        <time>2023-04-30T11:12:17.000Z</time>
      </trkpt>
      <trkpt lat="47.88785" lon="6.8887">
        <ele>766.2</ele>
        <time>2023-04-30T11:12:18.000Z</time>
      </trkpt>
      <trkpt lat="47.8879" lon="6.88868">
        <ele>765</ele>
        <time>2023-04-30T11:12:26.000Z</time>
      </trkpt>
      <trkpt lat="47.88791" lon="6.88869">
        <ele>764.8</ele>
        <time>2023-04-30T11:12:27.000Z</time>
      </trkpt>
      <trkpt lat="47.88793" lon="6.88873">
        <ele>764.2</ele>
        <time>2023-04-30T11:12:30.000Z</time>
      </trkpt>
      <trkpt lat="47.88794" lon="6.88875">
        <ele>764</ele>
        <time>2023-04-30T11:12:31.000Z</time>
      </trkpt>
      <trkpt lat="47.88794" lon="6.88877">
        <ele>764</ele>
        <time>2023-04-30T11:12:32.000Z</time>
      </trkpt>
      <trkpt lat="47.88797" lon="6.88892">
        <ele>762.8</ele>
        <time>2023-04-30T11:12:40.000Z</time>
      </trkpt>
      <trkpt lat="47.88798" lon="6.88894">
        <ele>762.6</ele>
        <time>2023-04-30T11:12:42.000Z</time>
      </trkpt>
      <trkpt lat="47.88798" lon="6.88896">
        <ele>762.6</ele>
        <time>2023-04-30T11:12:43.000Z</time>
      </trkpt>
      <trkpt lat="47.88801" lon="6.889">
        <ele>761.8</ele>
        <time>2023-04-30T11:12:47.000Z</time>
      </trkpt>
      <trkpt lat="47.88802" lon="6.88901">
        <ele>761.8</ele>
        <time>2023-04-30T11:12:48.000Z</time>
      </trkpt>
      <trkpt lat="47.88803" lon="6.88902">
        <ele>761.6</ele>
        <time>2023-04-30T11:12:49.000Z</time>
      </trkpt>
      <trkpt lat="47.88812" lon="6.88912">
        <ele>760.4</ele>
        <time>2023-04-30T11:12:58.000Z</time>
      </trkpt>
      <trkpt lat="47.8882" lon="6.88932">
        <ele>759</ele>
        <time>2023-04-30T11:13:11.000Z</time>
      </trkpt>
      <trkpt lat="47.88828" lon="6.88941">
        <ele>758.2</ele>
        <time>2023-04-30T11:13:19.000Z</time>
      </trkpt>
      <trkpt lat="47.8885" lon="6.88956">
        <ele>756.4</ele>
        <time>2023-04-30T11:13:35.000Z</time>
      </trkpt>
      <trkpt lat="47.88866" lon="6.88975">
        <ele>754.8</ele>
        <time>2023-04-30T11:13:49.000Z</time>
      </trkpt>
      <trkpt lat="47.88866" lon="6.88977">
        <ele>754.8</ele>
        <time>2023-04-30T11:13:50.000Z</time>
      </trkpt>
      <trkpt lat="47.88867" lon="6.88979">
        <ele>754.8</ele>
        <time>2023-04-30T11:13:51.000Z</time>
      </trkpt>
      <trkpt lat="47.88867" lon="6.88981">
        <ele>754.6</ele>
        <time>2023-04-30T11:13:52.000Z</time>
      </trkpt>
      <trkpt lat="47.88867" lon="6.88983">
        <ele>754.4</ele>
        <time>2023-04-30T11:13:53.000Z</time>
      </trkpt>
      <trkpt lat="47.88872" lon="6.89005">
        <ele>752.8</ele>
        <time>2023-04-30T11:14:06.000Z</time>
      </trkpt>
      <trkpt lat="47.88874" lon="6.89034">
        <ele>750.8</ele>
        <time>2023-04-30T11:14:21.000Z</time>
      </trkpt>
      <trkpt lat="47.88874" lon="6.89036">
        <ele>750.6</ele>
        <time>2023-04-30T11:14:22.000Z</time>
      </trkpt>
      <trkpt lat="47.88873" lon="6.89039">
        <ele>750.6</ele>
        <time>2023-04-30T11:14:23.000Z</time>
      </trkpt>
      <trkpt lat="47.88874" lon="6.89067">
        <ele>749.2</ele>
        <time>2023-04-30T11:14:36.000Z</time>
      </trkpt>
      <trkpt lat="47.88873" lon="6.8908">
        <ele>748.2</ele>
        <time>2023-04-30T11:14:44.000Z</time>
      </trkpt>
      <trkpt lat="47.88873" lon="6.89082">
        <ele>748</ele>
        <time>2023-04-30T11:14:45.000Z</time>
      </trkpt>
      <trkpt lat="47.88869" lon="6.89111">
        <ele>746</ele>
        <time>2023-04-30T11:15:01.000Z</time>
      </trkpt>
      <trkpt lat="47.88869" lon="6.89141">
        <ele>744.4</ele>
        <time>2023-04-30T11:15:16.000Z</time>
      </trkpt>
      <trkpt lat="47.88868" lon="6.89153">
        <ele>743.4</ele>
        <time>2023-04-30T11:15:22.000Z</time>
      </trkpt>
      <trkpt lat="47.88866" lon="6.89175">
        <ele>742.2</ele>
        <time>2023-04-30T11:15:33.000Z</time>
      </trkpt>
      <trkpt lat="47.88866" lon="6.89178">
        <ele>742</ele>
        <time>2023-04-30T11:15:34.000Z</time>
      </trkpt>
      <trkpt lat="47.88865" lon="6.89185">
        <ele>741.6</ele>
        <time>2023-04-30T11:15:37.000Z</time>
      </trkpt>
      <trkpt lat="47.88864" lon="6.89193">
        <ele>741.2</ele>
        <time>2023-04-30T11:15:41.000Z</time>
      </trkpt>
      <trkpt lat="47.88864" lon="6.89196">
        <ele>741.2</ele>
        <time>2023-04-30T11:15:42.000Z</time>
      </trkpt>
      <trkpt lat="47.88865" lon="6.89197">
        <ele>741.2</ele>
        <time>2023-04-30T11:15:43.000Z</time>
      </trkpt>
      <trkpt lat="47.88865" lon="6.892">
        <ele>741.2</ele>
        <time>2023-04-30T11:15:44.000Z</time>
      </trkpt>
      <trkpt lat="47.88865" lon="6.89202">
        <ele>741</ele>
        <time>2023-04-30T11:15:45.000Z</time>
      </trkpt>
      <trkpt lat="47.88865" lon="6.89204">
        <ele>740.8</ele>
        <time>2023-04-30T11:15:46.000Z</time>
      </trkpt>
      <trkpt lat="47.88866" lon="6.89221">
        <ele>739.6</ele>
        <time>2023-04-30T11:15:54.000Z</time>
      </trkpt>
      <trkpt lat="47.88866" lon="6.89223">
        <ele>739.6</ele>
        <time>2023-04-30T11:15:55.000Z</time>
      </trkpt>
      <trkpt lat="47.88865" lon="6.89229">
        <ele>739.4</ele>
        <time>2023-04-30T11:15:58.000Z</time>
      </trkpt>
      <trkpt lat="47.88869" lon="6.89249">
        <ele>738.4</ele>
        <time>2023-04-30T11:16:09.000Z</time>
      </trkpt>
      <trkpt lat="47.88871" lon="6.89276">
        <ele>736.4</ele>
        <time>2023-04-30T11:16:26.000Z</time>
      </trkpt>
      <trkpt lat="47.88872" lon="6.89278">
        <ele>736.4</ele>
        <time>2023-04-30T11:16:27.000Z</time>
      </trkpt>
      <trkpt lat="47.88883" lon="6.89305">
        <ele>734.8</ele>
        <time>2023-04-30T11:16:43.000Z</time>
      </trkpt>
      <trkpt lat="47.88883" lon="6.89307">
        <ele>734.8</ele>
        <time>2023-04-30T11:16:44.000Z</time>
      </trkpt>
      <trkpt lat="47.88891" lon="6.89319">
        <ele>734</ele>
        <time>2023-04-30T11:16:51.000Z</time>
      </trkpt>
      <trkpt lat="47.88892" lon="6.89321">
        <ele>734</ele>
        <time>2023-04-30T11:16:52.000Z</time>
      </trkpt>
      <trkpt lat="47.88898" lon="6.89339">
        <ele>733.2</ele>
        <time>2023-04-30T11:17:02.000Z</time>
      </trkpt>
      <trkpt lat="47.88898" lon="6.89341">
        <ele>733.2</ele>
        <time>2023-04-30T11:17:03.000Z</time>
      </trkpt>
      <trkpt lat="47.889" lon="6.89358">
        <ele>732.6</ele>
        <time>2023-04-30T11:17:13.000Z</time>
      </trkpt>
      <trkpt lat="47.889" lon="6.8936">
        <ele>732.6</ele>
        <time>2023-04-30T11:17:14.000Z</time>
      </trkpt>
      <trkpt lat="47.889" lon="6.89362">
        <ele>732.4</ele>
        <time>2023-04-30T11:17:15.000Z</time>
      </trkpt>
      <trkpt lat="47.88901" lon="6.89366">
        <ele>732.2</ele>
        <time>2023-04-30T11:17:17.000Z</time>
      </trkpt>
      <trkpt lat="47.88901" lon="6.89367">
        <ele>732.2</ele>
        <time>2023-04-30T11:17:18.000Z</time>
      </trkpt>
      <trkpt lat="47.88902" lon="6.8937">
        <ele>732.2</ele>
        <time>2023-04-30T11:17:19.000Z</time>
      </trkpt>
      <trkpt lat="47.88902" lon="6.89372">
        <ele>732</ele>
        <time>2023-04-30T11:17:20.000Z</time>
      </trkpt>
      <trkpt lat="47.88902" lon="6.89374">
        <ele>732</ele>
        <time>2023-04-30T11:17:21.000Z</time>
      </trkpt>
      <trkpt lat="47.88902" lon="6.89376">
        <ele>732</ele>
        <time>2023-04-30T11:17:22.000Z</time>
      </trkpt>
      <trkpt lat="47.88903" lon="6.89384">
        <ele>731.6</ele>
        <time>2023-04-30T11:17:26.000Z</time>
      </trkpt>
      <trkpt lat="47.88905" lon="6.89389">
        <ele>731.4</ele>
        <time>2023-04-30T11:17:29.000Z</time>
      </trkpt>
      <trkpt lat="47.88907" lon="6.89393">
        <ele>731.2</ele>
        <time>2023-04-30T11:17:31.000Z</time>
      </trkpt>
      <trkpt lat="47.88909" lon="6.89394">
        <ele>731</ele>
        <time>2023-04-30T11:17:32.000Z</time>
      </trkpt>
      <trkpt lat="47.88914" lon="6.89402">
        <ele>730.8</ele>
        <time>2023-04-30T11:17:36.000Z</time>
      </trkpt>
      <trkpt lat="47.88915" lon="6.89404">
        <ele>730.8</ele>
        <time>2023-04-30T11:17:37.000Z</time>
      </trkpt>
      <trkpt lat="47.88915" lon="6.89406">
        <ele>730.8</ele>
        <time>2023-04-30T11:17:38.000Z</time>
      </trkpt>
      <trkpt lat="47.88915" lon="6.89408">
        <ele>731</ele>
        <time>2023-04-30T11:17:39.000Z</time>
      </trkpt>
      <trkpt lat="47.88916" lon="6.8941">
        <ele>731</ele>
        <time>2023-04-30T11:17:40.000Z</time>
      </trkpt>
      <trkpt lat="47.88917" lon="6.89421">
        <ele>731.4</ele>
        <time>2023-04-30T11:17:46.000Z</time>
      </trkpt>
      <trkpt lat="47.88918" lon="6.89423">
        <ele>731.4</ele>
        <time>2023-04-30T11:17:47.000Z</time>
      </trkpt>
      <trkpt lat="47.88919" lon="6.89425">
        <ele>731.6</ele>
        <time>2023-04-30T11:17:48.000Z</time>
      </trkpt>
      <trkpt lat="47.88919" lon="6.89427">
        <ele>731.6</ele>
        <time>2023-04-30T11:17:49.000Z</time>
      </trkpt>
      <trkpt lat="47.8892" lon="6.89429">
        <ele>731.6</ele>
        <time>2023-04-30T11:17:50.000Z</time>
      </trkpt>
      <trkpt lat="47.88921" lon="6.89431">
        <ele>731.6</ele>
        <time>2023-04-30T11:17:51.000Z</time>
      </trkpt>
      <trkpt lat="47.8893" lon="6.89455">
        <ele>732.6</ele>
        <time>2023-04-30T11:18:05.000Z</time>
      </trkpt>
      <trkpt lat="47.88931" lon="6.89461">
        <ele>732.6</ele>
        <time>2023-04-30T11:18:08.000Z</time>
      </trkpt>
      <trkpt lat="47.88932" lon="6.89463">
        <ele>732.6</ele>
        <time>2023-04-30T11:18:09.000Z</time>
      </trkpt>
      <trkpt lat="47.88933" lon="6.89466">
        <ele>732.8</ele>
        <time>2023-04-30T11:18:10.000Z</time>
      </trkpt>
      <trkpt lat="47.88933" lon="6.89468">
        <ele>732.8</ele>
        <time>2023-04-30T11:18:11.000Z</time>
      </trkpt>
      <trkpt lat="47.88933" lon="6.8947">
        <ele>733</ele>
        <time>2023-04-30T11:18:12.000Z</time>
      </trkpt>
      <trkpt lat="47.88933" lon="6.89473">
        <ele>733</ele>
        <time>2023-04-30T11:18:13.000Z</time>
      </trkpt>
      <trkpt lat="47.88933" lon="6.89475">
        <ele>733.2</ele>
        <time>2023-04-30T11:18:14.000Z</time>
      </trkpt>
      <trkpt lat="47.88938" lon="6.89504">
        <ele>733.8</ele>
        <time>2023-04-30T11:18:28.000Z</time>
      </trkpt>
      <trkpt lat="47.8894" lon="6.8951">
        <ele>733.6</ele>
        <time>2023-04-30T11:18:31.000Z</time>
      </trkpt>
      <trkpt lat="47.88942" lon="6.89512">
        <ele>733.6</ele>
        <time>2023-04-30T11:18:33.000Z</time>
      </trkpt>
      <trkpt lat="47.88954" lon="6.89502">
        <ele>733.4</ele>
        <time>2023-04-30T11:18:40.000Z</time>
      </trkpt>
      <trkpt lat="47.88956" lon="6.895">
        <ele>733.2</ele>
        <time>2023-04-30T11:18:41.000Z</time>
      </trkpt>
      <trkpt lat="47.88957" lon="6.89498">
        <ele>733</ele>
        <time>2023-04-30T11:18:42.000Z</time>
      </trkpt>
      <trkpt lat="47.88958" lon="6.89496">
        <ele>732.8</ele>
        <time>2023-04-30T11:18:43.000Z</time>
      </trkpt>
      <trkpt lat="47.8896" lon="6.89494">
        <ele>732.6</ele>
        <time>2023-04-30T11:18:44.000Z</time>
      </trkpt>
      <trkpt lat="47.88967" lon="6.89482">
        <ele>731.4</ele>
        <time>2023-04-30T11:18:50.000Z</time>
      </trkpt>
      <trkpt lat="47.88976" lon="6.8945">
        <ele>728.2</ele>
        <time>2023-04-30T11:19:05.000Z</time>
      </trkpt>
      <trkpt lat="47.88973" lon="6.89416">
        <ele>725.4</ele>
        <time>2023-04-30T11:19:20.000Z</time>
      </trkpt>
      <trkpt lat="47.8897" lon="6.89386">
        <ele>723.2</ele>
        <time>2023-04-30T11:19:35.000Z</time>
      </trkpt>
      <trkpt lat="47.88971" lon="6.89361">
        <ele>720.8</ele>
        <time>2023-04-30T11:19:49.000Z</time>
      </trkpt>
      <trkpt lat="47.88972" lon="6.89353">
        <ele>720.4</ele>
        <time>2023-04-30T11:19:54.000Z</time>
      </trkpt>
      <trkpt lat="47.88971" lon="6.89351">
        <ele>720.2</ele>
        <time>2023-04-30T11:19:55.000Z</time>
      </trkpt>
      <trkpt lat="47.88971" lon="6.8935">
        <ele>720</ele>
        <time>2023-04-30T11:19:56.000Z</time>
      </trkpt>
      <trkpt lat="47.88972" lon="6.89348">
        <ele>719.8</ele>
        <time>2023-04-30T11:19:57.000Z</time>
      </trkpt>
      <trkpt lat="47.88972" lon="6.89346">
        <ele>719.6</ele>
        <time>2023-04-30T11:19:58.000Z</time>
      </trkpt>
      <trkpt lat="47.88972" lon="6.89345">
        <ele>719.6</ele>
        <time>2023-04-30T11:19:59.000Z</time>
      </trkpt>
      <trkpt lat="47.88966" lon="6.89319">
        <ele>717.6</ele>
        <time>2023-04-30T11:20:12.000Z</time>
      </trkpt>
      <trkpt lat="47.88956" lon="6.89294">
        <ele>715.2</ele>
        <time>2023-04-30T11:20:27.000Z</time>
      </trkpt>
      <trkpt lat="47.8895" lon="6.89292">
        <ele>714.6</ele>
        <time>2023-04-30T11:20:33.000Z</time>
      </trkpt>
    </trkseg>
  </trk>
</gpx>